<?xml version="1.0" encoding="utf-8"?>
<gpx xmlns:xsi="http://www.w3.org/2001/XMLSchema-instance" xmlns:xsd="http://www.w3.org/2001/XMLSchema" version="1.1" creator="Shapelink.com" xmlns="http://www.topografix.com/GPX/1/1" xmlns:gpxtpx="http://www.garmin.com/xmlschemas/TrackPointExtension/v1">
  <metadata>
    <name>Running 8.44 km, 2010-11-19</name>
    <desc></desc>
    <author><name>Jojje Borssén</name></author> 
    <time>2010-11-19T17:37:52Z</time>
  </metadata>
  <trk>
    <name>Running 8.44 km, 2010-11-19</name>
    <trkseg>
      <trkpt lat="57.7936815372" lon="14.2803783977">
        <ele>106.6</ele>
        <time>2010-11-19T17:37:52Z</time>
      </trkpt>
      <trkpt lat="57.7937576449" lon="14.2803405115">
        <ele>106.6</ele>
        <time>2010-11-19T17:37:54Z</time>
      </trkpt>
      <trkpt lat="57.7938142227" lon="14.2803167907">
        <ele>106.6</ele>
        <time>2010-11-19T17:37:57Z</time>
      </trkpt>
      <trkpt lat="57.7938694594" lon="14.2803011166">
        <ele>106.8</ele>
        <time>2010-11-19T17:37:59Z</time>
      </trkpt>
      <trkpt lat="57.7939267916" lon="14.2802799104">
        <ele>106.4</ele>
        <time>2010-11-19T17:38:01Z</time>
      </trkpt>
      <trkpt lat="57.7939785918" lon="14.2802670861">
        <ele>106.4</ele>
        <time>2010-11-19T17:38:03Z</time>
      </trkpt>
      <trkpt lat="57.7940306434" lon="14.2802682595">
        <ele>106.6</ele>
        <time>2010-11-19T17:38:04Z</time>
      </trkpt>
      <trkpt lat="57.7940842037" lon="14.2802668346">
        <ele>106.6</ele>
        <time>2010-11-19T17:38:07Z</time>
      </trkpt>
      <trkpt lat="57.7941329864" lon="14.2802609673">
        <ele>106.8</ele>
        <time>2010-11-19T17:38:09Z</time>
      </trkpt>
      <trkpt lat="57.7942042325" lon="14.2802426109">
        <ele>106.8</ele>
        <time>2010-11-19T17:38:12Z</time>
      </trkpt>
      <trkpt lat="57.7942619838" lon="14.2802469695">
        <ele>106.8</ele>
        <time>2010-11-19T17:38:13Z</time>
      </trkpt>
      <trkpt lat="57.7943060726" lon="14.2802618055">
        <ele>106.8</ele>
        <time>2010-11-19T17:38:15Z</time>
      </trkpt>
      <trkpt lat="57.7943272788" lon="14.2802701874">
        <ele>106.8</ele>
        <time>2010-11-19T17:38:17Z</time>
      </trkpt>
      <trkpt lat="57.7943954237" lon="14.2802794913">
        <ele>107</ele>
        <time>2010-11-19T17:38:19Z</time>
      </trkpt>
      <trkpt lat="57.7944672565" lon="14.2802905554">
        <ele>107</ele>
        <time>2010-11-19T17:38:22Z</time>
      </trkpt>
      <trkpt lat="57.7944939948" lon="14.280293489">
        <ele>107</ele>
        <time>2010-11-19T17:38:24Z</time>
      </trkpt>
      <trkpt lat="57.7945717788" lon="14.2803039664">
        <ele>107.4</ele>
        <time>2010-11-19T17:38:26Z</time>
      </trkpt>
      <trkpt lat="57.7946227408" lon="14.2802894657">
        <ele>107.6</ele>
        <time>2010-11-19T17:38:28Z</time>
      </trkpt>
      <trkpt lat="57.7946784804" lon="14.2802607158">
        <ele>108</ele>
        <time>2010-11-19T17:38:31Z</time>
      </trkpt>
      <trkpt lat="57.7947346392" lon="14.2802346481">
        <ele>108.2</ele>
        <time>2010-11-19T17:38:33Z</time>
      </trkpt>
      <trkpt lat="57.794780572" lon="14.28020506">
        <ele>108.4</ele>
        <time>2010-11-19T17:38:34Z</time>
      </trkpt>
      <trkpt lat="57.794793061" lon="14.2802044733">
        <ele>108.4</ele>
        <time>2010-11-19T17:38:35Z</time>
      </trkpt>
      <trkpt lat="57.7947927257" lon="14.2803077383">
        <ele>108.6</ele>
        <time>2010-11-19T17:38:39Z</time>
      </trkpt>
      <trkpt lat="57.7947769678" lon="14.2803476361">
        <ele>108.6</ele>
        <time>2010-11-19T17:38:40Z</time>
      </trkpt>
      <trkpt lat="57.794734723" lon="14.2804524099">
        <ele>108.8</ele>
        <time>2010-11-19T17:38:44Z</time>
      </trkpt>
      <trkpt lat="57.7947177077" lon="14.2805081495">
        <ele>108.8</ele>
        <time>2010-11-19T17:38:46Z</time>
      </trkpt>
      <trkpt lat="57.7946576933" lon="14.2805999313">
        <ele>109</ele>
        <time>2010-11-19T17:38:51Z</time>
      </trkpt>
      <trkpt lat="57.7945725332" lon="14.2806978319">
        <ele>109</ele>
        <time>2010-11-19T17:38:54Z</time>
      </trkpt>
      <trkpt lat="57.7945229962" lon="14.2807503026">
        <ele>109</ele>
        <time>2010-11-19T17:38:56Z</time>
      </trkpt>
      <trkpt lat="57.7944810029" lon="14.2807937208">
        <ele>109</ele>
        <time>2010-11-19T17:38:58Z</time>
      </trkpt>
      <trkpt lat="57.7944318011" lon="14.2808518912">
        <ele>109</ele>
        <time>2010-11-19T17:39:01Z</time>
      </trkpt>
      <trkpt lat="57.7943622313" lon="14.2809394821">
        <ele>109</ele>
        <time>2010-11-19T17:39:02Z</time>
      </trkpt>
      <trkpt lat="57.7943002053" lon="14.281002514">
        <ele>109</ele>
        <time>2010-11-19T17:39:04Z</time>
      </trkpt>
      <trkpt lat="57.7942469802" lon="14.281048363">
        <ele>109</ele>
        <time>2010-11-19T17:39:06Z</time>
      </trkpt>
      <trkpt lat="57.7941996225" lon="14.2810867521">
        <ele>109</ele>
        <time>2010-11-19T17:39:08Z</time>
      </trkpt>
      <trkpt lat="57.7941453078" lon="14.2811335231">
        <ele>109</ele>
        <time>2010-11-19T17:39:10Z</time>
      </trkpt>
      <trkpt lat="57.7941014704" lon="14.2811759355">
        <ele>109</ele>
        <time>2010-11-19T17:39:12Z</time>
      </trkpt>
      <trkpt lat="57.7940542803" lon="14.2812249696">
        <ele>109</ele>
        <time>2010-11-19T17:39:14Z</time>
      </trkpt>
      <trkpt lat="57.7939850458" lon="14.2812953775">
        <ele>109</ele>
        <time>2010-11-19T17:39:17Z</time>
      </trkpt>
      <trkpt lat="57.7939212596" lon="14.2813622651">
        <ele>109</ele>
        <time>2010-11-19T17:39:19Z</time>
      </trkpt>
      <trkpt lat="57.7938805235" lon="14.2814020791">
        <ele>109</ele>
        <time>2010-11-19T17:39:21Z</time>
      </trkpt>
      <trkpt lat="57.7938311542" lon="14.2814610877">
        <ele>109</ele>
        <time>2010-11-19T17:39:23Z</time>
      </trkpt>
      <trkpt lat="57.7937778453" lon="14.2815164921">
        <ele>109</ele>
        <time>2010-11-19T17:39:24Z</time>
      </trkpt>
      <trkpt lat="57.7937104548" lon="14.28158229">
        <ele>109</ele>
        <time>2010-11-19T17:39:27Z</time>
      </trkpt>
      <trkpt lat="57.793655721" lon="14.28163694">
        <ele>109.4</ele>
        <time>2010-11-19T17:39:29Z</time>
      </trkpt>
      <trkpt lat="57.7936065192" lon="14.2816808611">
        <ele>109.8</ele>
        <time>2010-11-19T17:39:31Z</time>
      </trkpt>
      <trkpt lat="57.7935644421" lon="14.2817208428">
        <ele>110</ele>
        <time>2010-11-19T17:39:33Z</time>
      </trkpt>
      <trkpt lat="57.7935282323" lon="14.2817474134">
        <ele>110.2</ele>
        <time>2010-11-19T17:39:34Z</time>
      </trkpt>
      <trkpt lat="57.7934828024" lon="14.2817801028">
        <ele>110.4</ele>
        <time>2010-11-19T17:39:37Z</time>
      </trkpt>
      <trkpt lat="57.7934463411" lon="14.2818086851">
        <ele>110.6</ele>
        <time>2010-11-19T17:39:39Z</time>
      </trkpt>
      <trkpt lat="57.7934014141" lon="14.2818465713">
        <ele>110.6</ele>
        <time>2010-11-19T17:39:41Z</time>
      </trkpt>
      <trkpt lat="57.7933491111" lon="14.2818759918">
        <ele>110.8</ele>
        <time>2010-11-19T17:39:44Z</time>
      </trkpt>
      <trkpt lat="57.7933086265" lon="14.2819065857">
        <ele>111</ele>
        <time>2010-11-19T17:39:45Z</time>
      </trkpt>
      <trkpt lat="57.7932579998" lon="14.281959224">
        <ele>111.4</ele>
        <time>2010-11-19T17:39:48Z</time>
      </trkpt>
      <trkpt lat="57.793212067" lon="14.2820093478">
        <ele>111.8</ele>
        <time>2010-11-19T17:39:49Z</time>
      </trkpt>
      <trkpt lat="57.7931734265" lon="14.2820460605">
        <ele>112</ele>
        <time>2010-11-19T17:39:51Z</time>
      </trkpt>
      <trkpt lat="57.7931244762" lon="14.2820959328">
        <ele>112.2</ele>
        <time>2010-11-19T17:39:54Z</time>
      </trkpt>
      <trkpt lat="57.7930820638" lon="14.282127784">
        <ele>112.4</ele>
        <time>2010-11-19T17:39:56Z</time>
      </trkpt>
      <trkpt lat="57.7930385617" lon="14.2821630718">
        <ele>112.6</ele>
        <time>2010-11-19T17:39:57Z</time>
      </trkpt>
      <trkpt lat="57.7929989991" lon="14.2821826017">
        <ele>112.6</ele>
        <time>2010-11-19T17:39:59Z</time>
      </trkpt>
      <trkpt lat="57.7929545751" lon="14.2822199849">
        <ele>112.8</ele>
        <time>2010-11-19T17:40:02Z</time>
      </trkpt>
      <trkpt lat="57.7929192034" lon="14.2822600504">
        <ele>113</ele>
        <time>2010-11-19T17:40:03Z</time>
      </trkpt>
      <trkpt lat="57.7928851729" lon="14.2823010379">
        <ele>113.4</ele>
        <time>2010-11-19T17:40:06Z</time>
      </trkpt>
      <trkpt lat="57.7928596081" lon="14.282317215">
        <ele>113.6</ele>
        <time>2010-11-19T17:40:07Z</time>
      </trkpt>
      <trkpt lat="57.7927857636" lon="14.2823382535">
        <ele>114</ele>
        <time>2010-11-19T17:40:09Z</time>
      </trkpt>
      <trkpt lat="57.7927225641" lon="14.2823930712">
        <ele>114.2</ele>
        <time>2010-11-19T17:40:12Z</time>
      </trkpt>
      <trkpt lat="57.7926964964" lon="14.2824146127">
        <ele>114.4</ele>
        <time>2010-11-19T17:40:13Z</time>
      </trkpt>
      <trkpt lat="57.7926560118" lon="14.2824507386">
        <ele>114.6</ele>
        <time>2010-11-19T17:40:14Z</time>
      </trkpt>
      <trkpt lat="57.7926149405" lon="14.2824812488">
        <ele>114.6</ele>
        <time>2010-11-19T17:40:17Z</time>
      </trkpt>
      <trkpt lat="57.7925690915" lon="14.2825100825">
        <ele>114.8</ele>
        <time>2010-11-19T17:40:19Z</time>
      </trkpt>
      <trkpt lat="57.7925163693" lon="14.2825565182">
        <ele>114.8</ele>
        <time>2010-11-19T17:40:21Z</time>
      </trkpt>
      <trkpt lat="57.7924717776" lon="14.282581161">
        <ele>115.2</ele>
        <time>2010-11-19T17:40:23Z</time>
      </trkpt>
      <trkpt lat="57.7924203127" lon="14.2826281835">
        <ele>115.6</ele>
        <time>2010-11-19T17:40:24Z</time>
      </trkpt>
      <trkpt lat="57.7923702728" lon="14.2826678299">
        <ele>116</ele>
        <time>2010-11-19T17:40:27Z</time>
      </trkpt>
      <trkpt lat="57.7923240885" lon="14.2827024471">
        <ele>116.2</ele>
        <time>2010-11-19T17:40:29Z</time>
      </trkpt>
      <trkpt lat="57.7922753897" lon="14.2827309456">
        <ele>116.4</ele>
        <time>2010-11-19T17:40:31Z</time>
      </trkpt>
      <trkpt lat="57.7922250983" lon="14.2827766269">
        <ele>116.6</ele>
        <time>2010-11-19T17:40:33Z</time>
      </trkpt>
      <trkpt lat="57.7921774891" lon="14.2828145969">
        <ele>116.6</ele>
        <time>2010-11-19T17:40:34Z</time>
      </trkpt>
      <trkpt lat="57.7921287903" lon="14.2828664809">
        <ele>116.8</ele>
        <time>2010-11-19T17:40:37Z</time>
      </trkpt>
      <trkpt lat="57.7920898983" lon="14.2828958175">
        <ele>116.8</ele>
        <time>2010-11-19T17:40:39Z</time>
      </trkpt>
      <trkpt lat="57.7920408641" lon="14.2829347934">
        <ele>117.2</ele>
        <time>2010-11-19T17:40:41Z</time>
      </trkpt>
      <trkpt lat="57.7919933388" lon="14.2829666446">
        <ele>117.6</ele>
        <time>2010-11-19T17:40:43Z</time>
      </trkpt>
      <trkpt lat="57.7919520998" lon="14.2829938019">
        <ele>117.8</ele>
        <time>2010-11-19T17:40:44Z</time>
      </trkpt>
      <trkpt lat="57.7919100227" lon="14.2830180256">
        <ele>118.2</ele>
        <time>2010-11-19T17:40:47Z</time>
      </trkpt>
      <trkpt lat="57.7918674426" lon="14.2830422493">
        <ele>118.4</ele>
        <time>2010-11-19T17:40:49Z</time>
      </trkpt>
      <trkpt lat="57.7918072606" lon="14.2830839912">
        <ele>118.6</ele>
        <time>2010-11-19T17:40:51Z</time>
      </trkpt>
      <trkpt lat="57.7917600705" lon="14.2831201172">
        <ele>118.8</ele>
        <time>2010-11-19T17:40:54Z</time>
      </trkpt>
      <trkpt lat="57.7916978768" lon="14.2831710791">
        <ele>118.8</ele>
        <time>2010-11-19T17:40:57Z</time>
      </trkpt>
      <trkpt lat="57.7916532013" lon="14.28320402">
        <ele>119.4</ele>
        <time>2010-11-19T17:40:59Z</time>
      </trkpt>
      <trkpt lat="57.7916023231" lon="14.2832384696">
        <ele>119.8</ele>
        <time>2010-11-19T17:41:01Z</time>
      </trkpt>
      <trkpt lat="57.7915508583" lon="14.2832756852">
        <ele>120</ele>
        <time>2010-11-19T17:41:03Z</time>
      </trkpt>
      <trkpt lat="57.7915055122" lon="14.2833125656">
        <ele>120.2</ele>
        <time>2010-11-19T17:41:04Z</time>
      </trkpt>
      <trkpt lat="57.7914577354" lon="14.2833543913">
        <ele>120.4</ele>
        <time>2010-11-19T17:41:07Z</time>
      </trkpt>
      <trkpt lat="57.7913961284" lon="14.2834028387">
        <ele>120.8</ele>
        <time>2010-11-19T17:41:09Z</time>
      </trkpt>
      <trkpt lat="57.791340724" lon="14.2834364501">
        <ele>120.8</ele>
        <time>2010-11-19T17:41:12Z</time>
      </trkpt>
      <trkpt lat="57.7912890915" lon="14.2834774376">
        <ele>121.2</ele>
        <time>2010-11-19T17:41:14Z</time>
      </trkpt>
      <trkpt lat="57.7912404765" lon="14.2835078639">
        <ele>121.6</ele>
        <time>2010-11-19T17:41:15Z</time>
      </trkpt>
      <trkpt lat="57.791185156" lon="14.2835410562">
        <ele>122</ele>
        <time>2010-11-19T17:41:18Z</time>
      </trkpt>
      <trkpt lat="57.7911403128" lon="14.2835807864">
        <ele>122.2</ele>
        <time>2010-11-19T17:41:19Z</time>
      </trkpt>
      <trkpt lat="57.7910983195" lon="14.283619427">
        <ele>122.4</ele>
        <time>2010-11-19T17:41:21Z</time>
      </trkpt>
      <trkpt lat="57.7910565776" lon="14.2836631805">
        <ele>122.6</ele>
        <time>2010-11-19T17:41:23Z</time>
      </trkpt>
      <trkpt lat="57.791008717" lon="14.2837068502">
        <ele>122.8</ele>
        <time>2010-11-19T17:41:25Z</time>
      </trkpt>
      <trkpt lat="57.7909723395" lon="14.2837521124">
        <ele>123</ele>
        <time>2010-11-19T17:41:27Z</time>
      </trkpt>
      <trkpt lat="57.7909373032" lon="14.2838011466">
        <ele>123.4</ele>
        <time>2010-11-19T17:41:29Z</time>
      </trkpt>
      <trkpt lat="57.7908870118" lon="14.2838691238">
        <ele>124</ele>
        <time>2010-11-19T17:41:32Z</time>
      </trkpt>
      <trkpt lat="57.7908446832" lon="14.2839120391">
        <ele>124.2</ele>
        <time>2010-11-19T17:41:34Z</time>
      </trkpt>
      <trkpt lat="57.7908316074" lon="14.2839246958">
        <ele>124.4</ele>
        <time>2010-11-19T17:41:35Z</time>
        <extensions><gpxtpx:TrackPointExtension><gpxtpx:hr>126</gpxtpx:hr></gpxtpx:TrackPointExtension></extensions>
      </trkpt>
      <trkpt lat="57.790808641" lon="14.2839464049">
        <ele>124.4</ele>
        <time>2010-11-19T17:41:36Z</time>
        <extensions><gpxtpx:TrackPointExtension><gpxtpx:hr>126</gpxtpx:hr></gpxtpx:TrackPointExtension></extensions>
      </trkpt>
      <trkpt lat="57.790746615" lon="14.2840092691">
        <ele>124.8</ele>
        <time>2010-11-19T17:41:39Z</time>
        <extensions><gpxtpx:TrackPointExtension><gpxtpx:hr>127</gpxtpx:hr></gpxtpx:TrackPointExtension></extensions>
      </trkpt>
      <trkpt lat="57.7906889475" lon="14.2840720496">
        <ele>125</ele>
        <time>2010-11-19T17:41:43Z</time>
        <extensions><gpxtpx:TrackPointExtension><gpxtpx:hr>127</gpxtpx:hr></gpxtpx:TrackPointExtension></extensions>
      </trkpt>
      <trkpt lat="57.7906510613" lon="14.2841116121">
        <ele>125</ele>
        <time>2010-11-19T17:41:44Z</time>
        <extensions><gpxtpx:TrackPointExtension><gpxtpx:hr>127</gpxtpx:hr></gpxtpx:TrackPointExtension></extensions>
      </trkpt>
      <trkpt lat="57.790594232" lon="14.2841604786">
        <ele>125.2</ele>
        <time>2010-11-19T17:41:48Z</time>
        <extensions><gpxtpx:TrackPointExtension><gpxtpx:hr>126</gpxtpx:hr></gpxtpx:TrackPointExtension></extensions>
      </trkpt>
      <trkpt lat="57.790554418" lon="14.2842009632">
        <ele>125.4</ele>
        <time>2010-11-19T17:41:49Z</time>
        <extensions><gpxtpx:TrackPointExtension><gpxtpx:hr>126</gpxtpx:hr></gpxtpx:TrackPointExtension></extensions>
      </trkpt>
      <trkpt lat="57.7905109159" lon="14.2842439623">
        <ele>125.8</ele>
        <time>2010-11-19T17:41:51Z</time>
        <extensions><gpxtpx:TrackPointExtension><gpxtpx:hr>125</gpxtpx:hr></gpxtpx:TrackPointExtension></extensions>
      </trkpt>
      <trkpt lat="57.7904489737" lon="14.2843057369">
        <ele>126.2</ele>
        <time>2010-11-19T17:41:54Z</time>
        <extensions><gpxtpx:TrackPointExtension><gpxtpx:hr>124</gpxtpx:hr></gpxtpx:TrackPointExtension></extensions>
      </trkpt>
      <trkpt lat="57.7904094949" lon="14.2843507477">
        <ele>126.6</ele>
        <time>2010-11-19T17:41:56Z</time>
        <extensions><gpxtpx:TrackPointExtension><gpxtpx:hr>124</gpxtpx:hr></gpxtpx:TrackPointExtension></extensions>
      </trkpt>
      <trkpt lat="57.790362221" lon="14.2844305434">
        <ele>126.8</ele>
        <time>2010-11-19T17:41:59Z</time>
        <extensions><gpxtpx:TrackPointExtension><gpxtpx:hr>124</gpxtpx:hr></gpxtpx:TrackPointExtension></extensions>
      </trkpt>
      <trkpt lat="57.7903225746" lon="14.2844676752">
        <ele>127</ele>
        <time>2010-11-19T17:42:01Z</time>
        <extensions><gpxtpx:TrackPointExtension><gpxtpx:hr>125</gpxtpx:hr></gpxtpx:TrackPointExtension></extensions>
      </trkpt>
      <trkpt lat="57.7903003626" lon="14.2844852772">
        <ele>127</ele>
        <time>2010-11-19T17:42:03Z</time>
        <extensions><gpxtpx:TrackPointExtension><gpxtpx:hr>125</gpxtpx:hr></gpxtpx:TrackPointExtension></extensions>
      </trkpt>
      <trkpt lat="57.790258034" lon="14.2845209003">
        <ele>127.2</ele>
        <time>2010-11-19T17:42:04Z</time>
        <extensions><gpxtpx:TrackPointExtension><gpxtpx:hr>125</gpxtpx:hr></gpxtpx:TrackPointExtension></extensions>
      </trkpt>
      <trkpt lat="57.7902160407" lon="14.2845580321">
        <ele>127.2</ele>
        <time>2010-11-19T17:42:07Z</time>
        <extensions><gpxtpx:TrackPointExtension><gpxtpx:hr>125</gpxtpx:hr></gpxtpx:TrackPointExtension></extensions>
      </trkpt>
      <trkpt lat="57.7901737121" lon="14.2846068986">
        <ele>127.2</ele>
        <time>2010-11-19T17:42:08Z</time>
        <extensions><gpxtpx:TrackPointExtension><gpxtpx:hr>127</gpxtpx:hr></gpxtpx:TrackPointExtension></extensions>
      </trkpt>
      <trkpt lat="57.7901358259" lon="14.2846509036">
        <ele>127.4</ele>
        <time>2010-11-19T17:42:11Z</time>
        <extensions><gpxtpx:TrackPointExtension><gpxtpx:hr>127</gpxtpx:hr></gpxtpx:TrackPointExtension></extensions>
      </trkpt>
      <trkpt lat="57.7900975206" lon="14.2846949085">
        <ele>127.6</ele>
        <time>2010-11-19T17:42:12Z</time>
        <extensions><gpxtpx:TrackPointExtension><gpxtpx:hr>128</gpxtpx:hr></gpxtpx:TrackPointExtension></extensions>
      </trkpt>
      <trkpt lat="57.7900583771" lon="14.2847374048">
        <ele>128</ele>
        <time>2010-11-19T17:42:14Z</time>
        <extensions><gpxtpx:TrackPointExtension><gpxtpx:hr>128</gpxtpx:hr></gpxtpx:TrackPointExtension></extensions>
      </trkpt>
      <trkpt lat="57.7899987818" lon="14.2848019454">
        <ele>128.4</ele>
        <time>2010-11-19T17:42:18Z</time>
        <extensions><gpxtpx:TrackPointExtension><gpxtpx:hr>128</gpxtpx:hr></gpxtpx:TrackPointExtension></extensions>
      </trkpt>
      <trkpt lat="57.7899565371" lon="14.2848459504">
        <ele>128.6</ele>
        <time>2010-11-19T17:42:19Z</time>
        <extensions><gpxtpx:TrackPointExtension><gpxtpx:hr>129</gpxtpx:hr></gpxtpx:TrackPointExtension></extensions>
      </trkpt>
      <trkpt lat="57.7899000431" lon="14.2849119159">
        <ele>128.8</ele>
        <time>2010-11-19T17:42:23Z</time>
        <extensions><gpxtpx:TrackPointExtension><gpxtpx:hr>129</gpxtpx:hr></gpxtpx:TrackPointExtension></extensions>
      </trkpt>
      <trkpt lat="57.7898495002" lon="14.2849778815">
        <ele>129</ele>
        <time>2010-11-19T17:42:26Z</time>
        <extensions><gpxtpx:TrackPointExtension><gpxtpx:hr>130</gpxtpx:hr></gpxtpx:TrackPointExtension></extensions>
      </trkpt>
      <trkpt lat="57.7898023101" lon="14.285014678">
        <ele>129.2</ele>
        <time>2010-11-19T17:42:27Z</time>
        <extensions><gpxtpx:TrackPointExtension><gpxtpx:hr>129</gpxtpx:hr></gpxtpx:TrackPointExtension></extensions>
      </trkpt>
      <trkpt lat="57.7897563773" lon="14.2850555817">
        <ele>129.2</ele>
        <time>2010-11-19T17:42:29Z</time>
        <extensions><gpxtpx:TrackPointExtension><gpxtpx:hr>130</gpxtpx:hr></gpxtpx:TrackPointExtension></extensions>
      </trkpt>
      <trkpt lat="57.7897094387" lon="14.2851120757">
        <ele>129.2</ele>
        <time>2010-11-19T17:42:31Z</time>
        <extensions><gpxtpx:TrackPointExtension><gpxtpx:hr>130</gpxtpx:hr></gpxtpx:TrackPointExtension></extensions>
      </trkpt>
      <trkpt lat="57.7896671939" lon="14.2851528956">
        <ele>129.4</ele>
        <time>2010-11-19T17:42:33Z</time>
        <extensions><gpxtpx:TrackPointExtension><gpxtpx:hr>131</gpxtpx:hr></gpxtpx:TrackPointExtension></extensions>
      </trkpt>
      <trkpt lat="57.7896215963" lon="14.2851850821">
        <ele>129.4</ele>
        <time>2010-11-19T17:42:36Z</time>
        <extensions><gpxtpx:TrackPointExtension><gpxtpx:hr>131</gpxtpx:hr></gpxtpx:TrackPointExtension></extensions>
      </trkpt>
      <trkpt lat="57.7895769208" lon="14.2852165142">
        <ele>129.4</ele>
        <time>2010-11-19T17:42:37Z</time>
        <extensions><gpxtpx:TrackPointExtension><gpxtpx:hr>131</gpxtpx:hr></gpxtpx:TrackPointExtension></extensions>
      </trkpt>
      <trkpt lat="57.7895324967" lon="14.2852648777">
        <ele>129.8</ele>
        <time>2010-11-19T17:42:39Z</time>
        <extensions><gpxtpx:TrackPointExtension><gpxtpx:hr>132</gpxtpx:hr></gpxtpx:TrackPointExtension></extensions>
      </trkpt>
      <trkpt lat="57.789466615" lon="14.2853450087">
        <ele>130.4</ele>
        <time>2010-11-19T17:42:43Z</time>
        <extensions><gpxtpx:TrackPointExtension><gpxtpx:hr>133</gpxtpx:hr></gpxtpx:TrackPointExtension></extensions>
      </trkpt>
      <trkpt lat="57.7894382842" lon="14.2853607667">
        <ele>130.4</ele>
        <time>2010-11-19T17:42:44Z</time>
        <extensions><gpxtpx:TrackPointExtension><gpxtpx:hr>133</gpxtpx:hr></gpxtpx:TrackPointExtension></extensions>
      </trkpt>
      <trkpt lat="57.7893713128" lon="14.2854326834">
        <ele>130.8</ele>
        <time>2010-11-19T17:42:47Z</time>
        <extensions><gpxtpx:TrackPointExtension><gpxtpx:hr>136</gpxtpx:hr></gpxtpx:TrackPointExtension></extensions>
      </trkpt>
      <trkpt lat="57.7893203509" lon="14.2854823042">
        <ele>131</ele>
        <time>2010-11-19T17:42:49Z</time>
        <extensions><gpxtpx:TrackPointExtension><gpxtpx:hr>136</gpxtpx:hr></gpxtpx:TrackPointExtension></extensions>
      </trkpt>
      <trkpt lat="57.7892647789" lon="14.28553335">
        <ele>131</ele>
        <time>2010-11-19T17:42:51Z</time>
        <extensions><gpxtpx:TrackPointExtension><gpxtpx:hr>135</gpxtpx:hr></gpxtpx:TrackPointExtension></extensions>
      </trkpt>
      <trkpt lat="57.7892175888" lon="14.2855826356">
        <ele>131.2</ele>
        <time>2010-11-19T17:42:53Z</time>
        <extensions><gpxtpx:TrackPointExtension><gpxtpx:hr>136</gpxtpx:hr></gpxtpx:TrackPointExtension></extensions>
      </trkpt>
      <trkpt lat="57.7891574905" lon="14.2856372017">
        <ele>131.2</ele>
        <time>2010-11-19T17:42:54Z</time>
        <extensions><gpxtpx:TrackPointExtension><gpxtpx:hr>136</gpxtpx:hr></gpxtpx:TrackPointExtension></extensions>
      </trkpt>
      <trkpt lat="57.7891145752" lon="14.2856895048">
        <ele>131.2</ele>
        <time>2010-11-19T17:42:57Z</time>
        <extensions><gpxtpx:TrackPointExtension><gpxtpx:hr>137</gpxtpx:hr></gpxtpx:TrackPointExtension></extensions>
      </trkpt>
      <trkpt lat="57.7890715761" lon="14.2857484296">
        <ele>131.8</ele>
        <time>2010-11-19T17:42:58Z</time>
        <extensions><gpxtpx:TrackPointExtension><gpxtpx:hr>137</gpxtpx:hr></gpxtpx:TrackPointExtension></extensions>
      </trkpt>
      <trkpt lat="57.789028074" lon="14.2857968769">
        <ele>132</ele>
        <time>2010-11-19T17:43:01Z</time>
        <extensions><gpxtpx:TrackPointExtension><gpxtpx:hr>137</gpxtpx:hr></gpxtpx:TrackPointExtension></extensions>
      </trkpt>
      <trkpt lat="57.7889818897" lon="14.2858345955">
        <ele>132.4</ele>
        <time>2010-11-19T17:43:03Z</time>
        <extensions><gpxtpx:TrackPointExtension><gpxtpx:hr>137</gpxtpx:hr></gpxtpx:TrackPointExtension></extensions>
      </trkpt>
      <trkpt lat="57.7889325203" lon="14.2858729008">
        <ele>132.6</ele>
        <time>2010-11-19T17:43:04Z</time>
        <extensions><gpxtpx:TrackPointExtension><gpxtpx:hr>137</gpxtpx:hr></gpxtpx:TrackPointExtension></extensions>
      </trkpt>
      <trkpt lat="57.7888865875" lon="14.285910284">
        <ele>132.8</ele>
        <time>2010-11-19T17:43:07Z</time>
        <extensions><gpxtpx:TrackPointExtension><gpxtpx:hr>137</gpxtpx:hr></gpxtpx:TrackPointExtension></extensions>
      </trkpt>
      <trkpt lat="57.7888402356" lon="14.2859589829">
        <ele>133</ele>
        <time>2010-11-19T17:43:09Z</time>
        <extensions><gpxtpx:TrackPointExtension><gpxtpx:hr>136</gpxtpx:hr></gpxtpx:TrackPointExtension></extensions>
      </trkpt>
      <trkpt lat="57.7887977394" lon="14.2860094419">
        <ele>133</ele>
        <time>2010-11-19T17:43:11Z</time>
        <extensions><gpxtpx:TrackPointExtension><gpxtpx:hr>137</gpxtpx:hr></gpxtpx:TrackPointExtension></extensions>
      </trkpt>
      <trkpt lat="57.7887549917" lon="14.2860701269">
        <ele>133.2</ele>
        <time>2010-11-19T17:43:13Z</time>
        <extensions><gpxtpx:TrackPointExtension><gpxtpx:hr>138</gpxtpx:hr></gpxtpx:TrackPointExtension></extensions>
      </trkpt>
      <trkpt lat="57.7887157644" lon="14.2861265371">
        <ele>133.2</ele>
        <time>2010-11-19T17:43:14Z</time>
        <extensions><gpxtpx:TrackPointExtension><gpxtpx:hr>139</gpxtpx:hr></gpxtpx:TrackPointExtension></extensions>
      </trkpt>
      <trkpt lat="57.7886642157" lon="14.2861832825">
        <ele>133.4</ele>
        <time>2010-11-19T17:43:17Z</time>
        <extensions><gpxtpx:TrackPointExtension><gpxtpx:hr>139</gpxtpx:hr></gpxtpx:TrackPointExtension></extensions>
      </trkpt>
      <trkpt lat="57.7886309396" lon="14.286235837">
        <ele>133.8</ele>
        <time>2010-11-19T17:43:19Z</time>
        <extensions><gpxtpx:TrackPointExtension><gpxtpx:hr>139</gpxtpx:hr></gpxtpx:TrackPointExtension></extensions>
      </trkpt>
      <trkpt lat="57.7885874375" lon="14.2862893974">
        <ele>134.2</ele>
        <time>2010-11-19T17:43:21Z</time>
        <extensions><gpxtpx:TrackPointExtension><gpxtpx:hr>139</gpxtpx:hr></gpxtpx:TrackPointExtension></extensions>
      </trkpt>
      <trkpt lat="57.7885318655" lon="14.2863681872">
        <ele>134.6</ele>
        <time>2010-11-19T17:43:24Z</time>
        <extensions><gpxtpx:TrackPointExtension><gpxtpx:hr>139</gpxtpx:hr></gpxtpx:TrackPointExtension></extensions>
      </trkpt>
      <trkpt lat="57.7884854298" lon="14.2864250165">
        <ele>134.8</ele>
        <time>2010-11-19T17:43:26Z</time>
        <extensions><gpxtpx:TrackPointExtension><gpxtpx:hr>139</gpxtpx:hr></gpxtpx:TrackPointExtension></extensions>
      </trkpt>
      <trkpt lat="57.7884488009" lon="14.2864702788">
        <ele>135</ele>
        <time>2010-11-19T17:43:27Z</time>
        <extensions><gpxtpx:TrackPointExtension><gpxtpx:hr>140</gpxtpx:hr></gpxtpx:TrackPointExtension></extensions>
      </trkpt>
      <trkpt lat="57.7884109985" lon="14.2865256831">
        <ele>135</ele>
        <time>2010-11-19T17:43:29Z</time>
        <extensions><gpxtpx:TrackPointExtension><gpxtpx:hr>140</gpxtpx:hr></gpxtpx:TrackPointExtension></extensions>
      </trkpt>
      <trkpt lat="57.7883951567" lon="14.2865514994">
        <ele>135.2</ele>
        <time>2010-11-19T17:43:31Z</time>
        <extensions><gpxtpx:TrackPointExtension><gpxtpx:hr>140</gpxtpx:hr></gpxtpx:TrackPointExtension></extensions>
      </trkpt>
      <trkpt lat="57.7883537501" lon="14.2866380844">
        <ele>135.8</ele>
        <time>2010-11-19T17:43:33Z</time>
        <extensions><gpxtpx:TrackPointExtension><gpxtpx:hr>140</gpxtpx:hr></gpxtpx:TrackPointExtension></extensions>
      </trkpt>
      <trkpt lat="57.7883216475" lon="14.2866944108">
        <ele>136.2</ele>
        <time>2010-11-19T17:43:36Z</time>
        <extensions><gpxtpx:TrackPointExtension><gpxtpx:hr>140</gpxtpx:hr></gpxtpx:TrackPointExtension></extensions>
      </trkpt>
      <trkpt lat="57.7882939034" lon="14.2867132701">
        <ele>136.4</ele>
        <time>2010-11-19T17:43:38Z</time>
        <extensions><gpxtpx:TrackPointExtension><gpxtpx:hr>141</gpxtpx:hr></gpxtpx:TrackPointExtension></extensions>
      </trkpt>
      <trkpt lat="57.788279738" lon="14.2867291957">
        <ele>137.2</ele>
        <time>2010-11-19T17:43:44Z</time>
        <extensions><gpxtpx:TrackPointExtension><gpxtpx:hr>140</gpxtpx:hr></gpxtpx:TrackPointExtension></extensions>
      </trkpt>
      <trkpt lat="57.7882661593" lon="14.2867768049">
        <ele>137.8</ele>
        <time>2010-11-19T17:43:47Z</time>
        <extensions><gpxtpx:TrackPointExtension><gpxtpx:hr>138</gpxtpx:hr></gpxtpx:TrackPointExtension></extensions>
      </trkpt>
      <trkpt lat="57.7882616331" lon="14.2868047166">
        <ele>138.2</ele>
        <time>2010-11-19T17:43:49Z</time>
        <extensions><gpxtpx:TrackPointExtension><gpxtpx:hr>137</gpxtpx:hr></gpxtpx:TrackPointExtension></extensions>
      </trkpt>
      <trkpt lat="57.7882502337" lon="14.2868688381">
        <ele>138.8</ele>
        <time>2010-11-19T17:43:53Z</time>
        <extensions><gpxtpx:TrackPointExtension><gpxtpx:hr>134</gpxtpx:hr></gpxtpx:TrackPointExtension></extensions>
      </trkpt>
      <trkpt lat="57.7882457913" lon="14.286890212">
        <ele>139</ele>
        <time>2010-11-19T17:43:54Z</time>
        <extensions><gpxtpx:TrackPointExtension><gpxtpx:hr>133</gpxtpx:hr></gpxtpx:TrackPointExtension></extensions>
      </trkpt>
      <trkpt lat="57.7882416841" lon="14.2869164473">
        <ele>139.8</ele>
        <time>2010-11-19T17:44:02Z</time>
        <extensions><gpxtpx:TrackPointExtension><gpxtpx:hr>131</gpxtpx:hr></gpxtpx:TrackPointExtension></extensions>
      </trkpt>
      <trkpt lat="57.7882410136" lon="14.2869107476">
        <ele>140.8</ele>
        <time>2010-11-19T17:44:07Z</time>
        <extensions><gpxtpx:TrackPointExtension><gpxtpx:hr>125</gpxtpx:hr></gpxtpx:TrackPointExtension></extensions>
      </trkpt>
      <trkpt lat="57.7882393372" lon="14.2869049641">
        <ele>141.2</ele>
        <time>2010-11-19T17:44:13Z</time>
        <extensions><gpxtpx:TrackPointExtension><gpxtpx:hr>118</gpxtpx:hr></gpxtpx:TrackPointExtension></extensions>
      </trkpt>
      <trkpt lat="57.7882379123" lon="14.2868947382">
        <ele>141.4</ele>
        <time>2010-11-19T17:44:16Z</time>
        <extensions><gpxtpx:TrackPointExtension><gpxtpx:hr>113</gpxtpx:hr></gpxtpx:TrackPointExtension></extensions>
      </trkpt>
      <trkpt lat="57.7882118446" lon="14.2868938162">
        <ele>142.6</ele>
        <time>2010-11-19T17:44:26Z</time>
        <extensions><gpxtpx:TrackPointExtension><gpxtpx:hr>112</gpxtpx:hr></gpxtpx:TrackPointExtension></extensions>
      </trkpt>
      <trkpt lat="57.7882229925" lon="14.2868806566">
        <ele>143</ele>
        <time>2010-11-19T17:44:31Z</time>
        <extensions><gpxtpx:TrackPointExtension><gpxtpx:hr>106</gpxtpx:hr></gpxtpx:TrackPointExtension></extensions>
      </trkpt>
      <trkpt lat="57.7882327155" lon="14.2868857696">
        <ele>143.4</ele>
        <time>2010-11-19T17:44:39Z</time>
        <extensions><gpxtpx:TrackPointExtension><gpxtpx:hr>101</gpxtpx:hr></gpxtpx:TrackPointExtension></extensions>
      </trkpt>
      <trkpt lat="57.7882337213" lon="14.2868839256">
        <ele>143.6</ele>
        <time>2010-11-19T17:44:41Z</time>
        <extensions><gpxtpx:TrackPointExtension><gpxtpx:hr>95</gpxtpx:hr></gpxtpx:TrackPointExtension></extensions>
      </trkpt>
      <trkpt lat="57.7882401754" lon="14.2868816624">
        <ele>143.6</ele>
        <time>2010-11-19T17:44:51Z</time>
        <extensions><gpxtpx:TrackPointExtension><gpxtpx:hr>90</gpxtpx:hr></gpxtpx:TrackPointExtension></extensions>
      </trkpt>
      <trkpt lat="57.788246378" lon="14.2868705983">
        <ele>144.8</ele>
        <time>2010-11-19T17:45:01Z</time>
        <extensions><gpxtpx:TrackPointExtension><gpxtpx:hr>93</gpxtpx:hr></gpxtpx:TrackPointExtension></extensions>
      </trkpt>
      <trkpt lat="57.7882477191" lon="14.2868721909">
        <ele>145.2</ele>
        <time>2010-11-19T17:45:06Z</time>
        <extensions><gpxtpx:TrackPointExtension><gpxtpx:hr>88</gpxtpx:hr></gpxtpx:TrackPointExtension></extensions>
      </trkpt>
      <trkpt lat="57.7882565201" lon="14.2868767171">
        <ele>145.6</ele>
        <time>2010-11-19T17:45:15Z</time>
        <extensions><gpxtpx:TrackPointExtension><gpxtpx:hr>87</gpxtpx:hr></gpxtpx:TrackPointExtension></extensions>
      </trkpt>
      <trkpt lat="57.7882733677" lon="14.2868343885">
        <ele>146.4</ele>
        <time>2010-11-19T17:45:41Z</time>
        <extensions><gpxtpx:TrackPointExtension><gpxtpx:hr>91</gpxtpx:hr></gpxtpx:TrackPointExtension></extensions>
      </trkpt>
      <trkpt lat="57.7882831745" lon="14.2868048004">
        <ele>146.6</ele>
        <time>2010-11-19T17:45:43Z</time>
        <extensions><gpxtpx:TrackPointExtension><gpxtpx:hr>92</gpxtpx:hr></gpxtpx:TrackPointExtension></extensions>
      </trkpt>
      <trkpt lat="57.7883219827" lon="14.2867277708">
        <ele>146.8</ele>
        <time>2010-11-19T17:45:44Z</time>
        <extensions><gpxtpx:TrackPointExtension><gpxtpx:hr>95</gpxtpx:hr></gpxtpx:TrackPointExtension></extensions>
      </trkpt>
      <trkpt lat="57.7883901276" lon="14.2866577819">
        <ele>147</ele>
        <time>2010-11-19T17:45:47Z</time>
        <extensions><gpxtpx:TrackPointExtension><gpxtpx:hr>98</gpxtpx:hr></gpxtpx:TrackPointExtension></extensions>
      </trkpt>
      <trkpt lat="57.7884889502" lon="14.2865678441">
        <ele>147.2</ele>
        <time>2010-11-19T17:45:49Z</time>
        <extensions><gpxtpx:TrackPointExtension><gpxtpx:hr>101</gpxtpx:hr></gpxtpx:TrackPointExtension></extensions>
      </trkpt>
      <trkpt lat="57.7885783851" lon="14.2864561134">
        <ele>147.4</ele>
        <time>2010-11-19T17:45:53Z</time>
        <extensions><gpxtpx:TrackPointExtension><gpxtpx:hr>105</gpxtpx:hr></gpxtpx:TrackPointExtension></extensions>
      </trkpt>
      <trkpt lat="57.788643261" lon="14.2863915727">
        <ele>147.4</ele>
        <time>2010-11-19T17:45:54Z</time>
        <extensions><gpxtpx:TrackPointExtension><gpxtpx:hr>106</gpxtpx:hr></gpxtpx:TrackPointExtension></extensions>
      </trkpt>
      <trkpt lat="57.7887019343" lon="14.2863311392">
        <ele>147.6</ele>
        <time>2010-11-19T17:45:57Z</time>
        <extensions><gpxtpx:TrackPointExtension><gpxtpx:hr>109</gpxtpx:hr></gpxtpx:TrackPointExtension></extensions>
      </trkpt>
      <trkpt lat="57.788749292" lon="14.2862632459">
        <ele>147.6</ele>
        <time>2010-11-19T17:45:59Z</time>
        <extensions><gpxtpx:TrackPointExtension><gpxtpx:hr>111</gpxtpx:hr></gpxtpx:TrackPointExtension></extensions>
      </trkpt>
      <trkpt lat="57.788792375" lon="14.2861797621">
        <ele>147.6</ele>
        <time>2010-11-19T17:46:01Z</time>
        <extensions><gpxtpx:TrackPointExtension><gpxtpx:hr>111</gpxtpx:hr></gpxtpx:TrackPointExtension></extensions>
      </trkpt>
      <trkpt lat="57.7888376372" lon="14.2861179875">
        <ele>147.6</ele>
        <time>2010-11-19T17:46:03Z</time>
        <extensions><gpxtpx:TrackPointExtension><gpxtpx:hr>111</gpxtpx:hr></gpxtpx:TrackPointExtension></extensions>
      </trkpt>
      <trkpt lat="57.7888986575" lon="14.2860600686">
        <ele>148</ele>
        <time>2010-11-19T17:46:04Z</time>
        <extensions><gpxtpx:TrackPointExtension><gpxtpx:hr>112</gpxtpx:hr></gpxtpx:TrackPointExtension></extensions>
      </trkpt>
      <trkpt lat="57.7889471887" lon="14.2859951927">
        <ele>148.2</ele>
        <time>2010-11-19T17:46:06Z</time>
        <extensions><gpxtpx:TrackPointExtension><gpxtpx:hr>114</gpxtpx:hr></gpxtpx:TrackPointExtension></extensions>
      </trkpt>
      <trkpt lat="57.7889977315" lon="14.2859371061">
        <ele>148.6</ele>
        <time>2010-11-19T17:46:09Z</time>
        <extensions><gpxtpx:TrackPointExtension><gpxtpx:hr>115</gpxtpx:hr></gpxtpx:TrackPointExtension></extensions>
      </trkpt>
      <trkpt lat="57.7890523815" lon="14.2858798578">
        <ele>148.8</ele>
        <time>2010-11-19T17:46:11Z</time>
        <extensions><gpxtpx:TrackPointExtension><gpxtpx:hr>117</gpxtpx:hr></gpxtpx:TrackPointExtension></extensions>
      </trkpt>
      <trkpt lat="57.7891077859" lon="14.2858278062">
        <ele>149</ele>
        <time>2010-11-19T17:46:13Z</time>
        <extensions><gpxtpx:TrackPointExtension><gpxtpx:hr>117</gpxtpx:hr></gpxtpx:TrackPointExtension></extensions>
      </trkpt>
      <trkpt lat="57.7891629388" lon="14.2857545483">
        <ele>149.2</ele>
        <time>2010-11-19T17:46:14Z</time>
        <extensions><gpxtpx:TrackPointExtension><gpxtpx:hr>117</gpxtpx:hr></gpxtpx:TrackPointExtension></extensions>
      </trkpt>
      <trkpt lat="57.789223037" lon="14.285695875">
        <ele>149.4</ele>
        <time>2010-11-19T17:46:17Z</time>
        <extensions><gpxtpx:TrackPointExtension><gpxtpx:hr>117</gpxtpx:hr></gpxtpx:TrackPointExtension></extensions>
      </trkpt>
      <trkpt lat="57.7892764297" lon="14.2856279817">
        <ele>149.4</ele>
        <time>2010-11-19T17:46:19Z</time>
        <extensions><gpxtpx:TrackPointExtension><gpxtpx:hr>117</gpxtpx:hr></gpxtpx:TrackPointExtension></extensions>
      </trkpt>
      <trkpt lat="57.7893292357" lon="14.2855682187">
        <ele>149.6</ele>
        <time>2010-11-19T17:46:21Z</time>
        <extensions><gpxtpx:TrackPointExtension><gpxtpx:hr>118</gpxtpx:hr></gpxtpx:TrackPointExtension></extensions>
      </trkpt>
      <trkpt lat="57.7893803653" lon="14.2855096292">
        <ele>149.6</ele>
        <time>2010-11-19T17:46:23Z</time>
        <extensions><gpxtpx:TrackPointExtension><gpxtpx:hr>119</gpxtpx:hr></gpxtpx:TrackPointExtension></extensions>
      </trkpt>
      <trkpt lat="57.7894261304" lon="14.2854484414">
        <ele>149.6</ele>
        <time>2010-11-19T17:46:24Z</time>
        <extensions><gpxtpx:TrackPointExtension><gpxtpx:hr>117</gpxtpx:hr></gpxtpx:TrackPointExtension></extensions>
      </trkpt>
      <trkpt lat="57.7894928504" lon="14.2853792069">
        <ele>149.8</ele>
        <time>2010-11-19T17:46:27Z</time>
        <extensions><gpxtpx:TrackPointExtension><gpxtpx:hr>114</gpxtpx:hr></gpxtpx:TrackPointExtension></extensions>
      </trkpt>
      <trkpt lat="57.7895920921" lon="14.2853467689">
        <ele>149.8</ele>
        <time>2010-11-19T17:46:31Z</time>
        <extensions><gpxtpx:TrackPointExtension><gpxtpx:hr>113</gpxtpx:hr></gpxtpx:TrackPointExtension></extensions>
      </trkpt>
      <trkpt lat="57.7896573032" lon="14.2853191925">
        <ele>149.8</ele>
        <time>2010-11-19T17:46:33Z</time>
        <extensions><gpxtpx:TrackPointExtension><gpxtpx:hr>114</gpxtpx:hr></gpxtpx:TrackPointExtension></extensions>
      </trkpt>
      <trkpt lat="57.7897136296" lon="14.2852969804">
        <ele>149.8</ele>
        <time>2010-11-19T17:46:34Z</time>
        <extensions><gpxtpx:TrackPointExtension><gpxtpx:hr>114</gpxtpx:hr></gpxtpx:TrackPointExtension></extensions>
      </trkpt>
      <trkpt lat="57.7897728896" lon="14.2853300889">
        <ele>149.8</ele>
        <time>2010-11-19T17:46:37Z</time>
        <extensions><gpxtpx:TrackPointExtension><gpxtpx:hr>116</gpxtpx:hr></gpxtpx:TrackPointExtension></extensions>
      </trkpt>
      <trkpt lat="57.7898261147" lon="14.2853200306">
        <ele>149.8</ele>
        <time>2010-11-19T17:46:39Z</time>
        <extensions><gpxtpx:TrackPointExtension><gpxtpx:hr>117</gpxtpx:hr></gpxtpx:TrackPointExtension></extensions>
      </trkpt>
      <trkpt lat="57.7898816029" lon="14.2852980701">
        <ele>149.8</ele>
        <time>2010-11-19T17:46:41Z</time>
        <extensions><gpxtpx:TrackPointExtension><gpxtpx:hr>118</gpxtpx:hr></gpxtpx:TrackPointExtension></extensions>
      </trkpt>
      <trkpt lat="57.78993575" lon="14.2852492036">
        <ele>149.8</ele>
        <time>2010-11-19T17:46:43Z</time>
        <extensions><gpxtpx:TrackPointExtension><gpxtpx:hr>118</gpxtpx:hr></gpxtpx:TrackPointExtension></extensions>
      </trkpt>
      <trkpt lat="57.7899948423" lon="14.285218442">
        <ele>149.8</ele>
        <time>2010-11-19T17:46:45Z</time>
        <extensions><gpxtpx:TrackPointExtension><gpxtpx:hr>119</gpxtpx:hr></gpxtpx:TrackPointExtension></extensions>
      </trkpt>
      <trkpt lat="57.7900571199" lon="14.2852057854">
        <ele>149.8</ele>
        <time>2010-11-19T17:46:47Z</time>
        <extensions><gpxtpx:TrackPointExtension><gpxtpx:hr>120</gpxtpx:hr></gpxtpx:TrackPointExtension></extensions>
      </trkpt>
      <trkpt lat="57.7901126919" lon="14.285172593">
        <ele>149.8</ele>
        <time>2010-11-19T17:46:49Z</time>
        <extensions><gpxtpx:TrackPointExtension><gpxtpx:hr>122</gpxtpx:hr></gpxtpx:TrackPointExtension></extensions>
      </trkpt>
      <trkpt lat="57.7901693535" lon="14.2851490399">
        <ele>149.8</ele>
        <time>2010-11-19T17:46:51Z</time>
        <extensions><gpxtpx:TrackPointExtension><gpxtpx:hr>122</gpxtpx:hr></gpxtpx:TrackPointExtension></extensions>
      </trkpt>
      <trkpt lat="57.7902216566" lon="14.2851253191">
        <ele>149.8</ele>
        <time>2010-11-19T17:46:53Z</time>
        <extensions><gpxtpx:TrackPointExtension><gpxtpx:hr>123</gpxtpx:hr></gpxtpx:TrackPointExtension></extensions>
      </trkpt>
      <trkpt lat="57.7902452935" lon="14.2851049511">
        <ele>149.8</ele>
        <time>2010-11-19T17:46:54Z</time>
        <extensions><gpxtpx:TrackPointExtension><gpxtpx:hr>124</gpxtpx:hr></gpxtpx:TrackPointExtension></extensions>
      </trkpt>
      <trkpt lat="57.7903333873" lon="14.2851032747">
        <ele>149.8</ele>
        <time>2010-11-19T17:46:57Z</time>
        <extensions><gpxtpx:TrackPointExtension><gpxtpx:hr>125</gpxtpx:hr></gpxtpx:TrackPointExtension></extensions>
      </trkpt>
      <trkpt lat="57.7903793201" lon="14.2850856727">
        <ele>149.8</ele>
        <time>2010-11-19T17:46:59Z</time>
        <extensions><gpxtpx:TrackPointExtension><gpxtpx:hr>126</gpxtpx:hr></gpxtpx:TrackPointExtension></extensions>
      </trkpt>
      <trkpt lat="57.7904349759" lon="14.285066562">
        <ele>149.8</ele>
        <time>2010-11-19T17:47:01Z</time>
        <extensions><gpxtpx:TrackPointExtension><gpxtpx:hr>126</gpxtpx:hr></gpxtpx:TrackPointExtension></extensions>
      </trkpt>
      <trkpt lat="57.7904958285" lon="14.2850755306">
        <ele>149.8</ele>
        <time>2010-11-19T17:47:03Z</time>
        <extensions><gpxtpx:TrackPointExtension><gpxtpx:hr>127</gpxtpx:hr></gpxtpx:TrackPointExtension></extensions>
      </trkpt>
      <trkpt lat="57.7905494727" lon="14.2850508878">
        <ele>149.8</ele>
        <time>2010-11-19T17:47:04Z</time>
        <extensions><gpxtpx:TrackPointExtension><gpxtpx:hr>128</gpxtpx:hr></gpxtpx:TrackPointExtension></extensions>
      </trkpt>
      <trkpt lat="57.7906094871" lon="14.2850206292">
        <ele>149.8</ele>
        <time>2010-11-19T17:47:06Z</time>
        <extensions><gpxtpx:TrackPointExtension><gpxtpx:hr>130</gpxtpx:hr></gpxtpx:TrackPointExtension></extensions>
      </trkpt>
      <trkpt lat="57.790671597" lon="14.2850059609">
        <ele>149.8</ele>
        <time>2010-11-19T17:47:09Z</time>
        <extensions><gpxtpx:TrackPointExtension><gpxtpx:hr>131</gpxtpx:hr></gpxtpx:TrackPointExtension></extensions>
      </trkpt>
      <trkpt lat="57.7907346288" lon="14.2849857605">
        <ele>149.8</ele>
        <time>2010-11-19T17:47:11Z</time>
        <extensions><gpxtpx:TrackPointExtension><gpxtpx:hr>133</gpxtpx:hr></gpxtpx:TrackPointExtension></extensions>
      </trkpt>
      <trkpt lat="57.7907981636" lon="14.2849598604">
        <ele>149.8</ele>
        <time>2010-11-19T17:47:13Z</time>
        <extensions><gpxtpx:TrackPointExtension><gpxtpx:hr>134</gpxtpx:hr></gpxtpx:TrackPointExtension></extensions>
      </trkpt>
      <trkpt lat="57.7908514725" lon="14.2849119998">
        <ele>149.8</ele>
        <time>2010-11-19T17:47:14Z</time>
        <extensions><gpxtpx:TrackPointExtension><gpxtpx:hr>135</gpxtpx:hr></gpxtpx:TrackPointExtension></extensions>
      </trkpt>
      <trkpt lat="57.7909086371" lon="14.2848669051">
        <ele>149.8</ele>
        <time>2010-11-19T17:47:17Z</time>
        <extensions><gpxtpx:TrackPointExtension><gpxtpx:hr>135</gpxtpx:hr></gpxtpx:TrackPointExtension></extensions>
      </trkpt>
      <trkpt lat="57.7909823978" lon="14.2848368141">
        <ele>149.8</ele>
        <time>2010-11-19T17:47:19Z</time>
        <extensions><gpxtpx:TrackPointExtension><gpxtpx:hr>135</gpxtpx:hr></gpxtpx:TrackPointExtension></extensions>
      </trkpt>
      <trkpt lat="57.7910500397" lon="14.2847897078">
        <ele>149.8</ele>
        <time>2010-11-19T17:47:21Z</time>
        <extensions><gpxtpx:TrackPointExtension><gpxtpx:hr>134</gpxtpx:hr></gpxtpx:TrackPointExtension></extensions>
      </trkpt>
      <trkpt lat="57.7910979842" lon="14.2847574375">
        <ele>149.8</ele>
        <time>2010-11-19T17:47:22Z</time>
        <extensions><gpxtpx:TrackPointExtension><gpxtpx:hr>134</gpxtpx:hr></gpxtpx:TrackPointExtension></extensions>
      </trkpt>
      <trkpt lat="57.7911605132" lon="14.2847228203">
        <ele>149.8</ele>
        <time>2010-11-19T17:47:24Z</time>
        <extensions><gpxtpx:TrackPointExtension><gpxtpx:hr>134</gpxtpx:hr></gpxtpx:TrackPointExtension></extensions>
      </trkpt>
      <trkpt lat="57.7912170072" lon="14.2846754625">
        <ele>149.8</ele>
        <time>2010-11-19T17:47:27Z</time>
        <extensions><gpxtpx:TrackPointExtension><gpxtpx:hr>135</gpxtpx:hr></gpxtpx:TrackPointExtension></extensions>
      </trkpt>
      <trkpt lat="57.791276854" lon="14.2846294459">
        <ele>149.8</ele>
        <time>2010-11-19T17:47:29Z</time>
        <extensions><gpxtpx:TrackPointExtension><gpxtpx:hr>134</gpxtpx:hr></gpxtpx:TrackPointExtension></extensions>
      </trkpt>
      <trkpt lat="57.7913322583" lon="14.284578484">
        <ele>149.8</ele>
        <time>2010-11-19T17:47:31Z</time>
        <extensions><gpxtpx:TrackPointExtension><gpxtpx:hr>135</gpxtpx:hr></gpxtpx:TrackPointExtension></extensions>
      </trkpt>
      <trkpt lat="57.791387495" lon="14.2845237501">
        <ele>149.8</ele>
        <time>2010-11-19T17:47:33Z</time>
        <extensions><gpxtpx:TrackPointExtension><gpxtpx:hr>134</gpxtpx:hr></gpxtpx:TrackPointExtension></extensions>
      </trkpt>
      <trkpt lat="57.7914440729" lon="14.2844736264">
        <ele>149.8</ele>
        <time>2010-11-19T17:47:34Z</time>
        <extensions><gpxtpx:TrackPointExtension><gpxtpx:hr>134</gpxtpx:hr></gpxtpx:TrackPointExtension></extensions>
      </trkpt>
      <trkpt lat="57.7915034167" lon="14.2844240055">
        <ele>149.8</ele>
        <time>2010-11-19T17:47:36Z</time>
        <extensions><gpxtpx:TrackPointExtension><gpxtpx:hr>133</gpxtpx:hr></gpxtpx:TrackPointExtension></extensions>
      </trkpt>
      <trkpt lat="57.7915703043" lon="14.2843938307">
        <ele>149.8</ele>
        <time>2010-11-19T17:47:39Z</time>
        <extensions><gpxtpx:TrackPointExtension><gpxtpx:hr>133</gpxtpx:hr></gpxtpx:TrackPointExtension></extensions>
      </trkpt>
      <trkpt lat="57.7916278879" lon="14.2843421144">
        <ele>149.8</ele>
        <time>2010-11-19T17:47:41Z</time>
        <extensions><gpxtpx:TrackPointExtension><gpxtpx:hr>131</gpxtpx:hr></gpxtpx:TrackPointExtension></extensions>
      </trkpt>
      <trkpt lat="57.7916790175" lon="14.284297355">
        <ele>149.8</ele>
        <time>2010-11-19T17:47:43Z</time>
        <extensions><gpxtpx:TrackPointExtension><gpxtpx:hr>130</gpxtpx:hr></gpxtpx:TrackPointExtension></extensions>
      </trkpt>
      <trkpt lat="57.7917291413" lon="14.2842488238">
        <ele>149.8</ele>
        <time>2010-11-19T17:47:44Z</time>
        <extensions><gpxtpx:TrackPointExtension><gpxtpx:hr>128</gpxtpx:hr></gpxtpx:TrackPointExtension></extensions>
      </trkpt>
      <trkpt lat="57.7917814443" lon="14.2841800084">
        <ele>149.8</ele>
        <time>2010-11-19T17:47:47Z</time>
        <extensions><gpxtpx:TrackPointExtension><gpxtpx:hr>126</gpxtpx:hr></gpxtpx:TrackPointExtension></extensions>
      </trkpt>
      <trkpt lat="57.7918313166" lon="14.2841322316">
        <ele>149.8</ele>
        <time>2010-11-19T17:47:49Z</time>
        <extensions><gpxtpx:TrackPointExtension><gpxtpx:hr>125</gpxtpx:hr></gpxtpx:TrackPointExtension></extensions>
      </trkpt>
      <trkpt lat="57.7918903252" lon="14.2840944292">
        <ele>149.8</ele>
        <time>2010-11-19T17:47:51Z</time>
        <extensions><gpxtpx:TrackPointExtension><gpxtpx:hr>125</gpxtpx:hr></gpxtpx:TrackPointExtension></extensions>
      </trkpt>
      <trkpt lat="57.79193718" lon="14.2840359236">
        <ele>149.8</ele>
        <time>2010-11-19T17:47:53Z</time>
        <extensions><gpxtpx:TrackPointExtension><gpxtpx:hr>124</gpxtpx:hr></gpxtpx:TrackPointExtension></extensions>
      </trkpt>
      <trkpt lat="57.7919852083" lon="14.2839894878">
        <ele>149.8</ele>
        <time>2010-11-19T17:47:54Z</time>
        <extensions><gpxtpx:TrackPointExtension><gpxtpx:hr>124</gpxtpx:hr></gpxtpx:TrackPointExtension></extensions>
      </trkpt>
      <trkpt lat="57.7920425405" lon="14.2839576366">
        <ele>149.8</ele>
        <time>2010-11-19T17:47:56Z</time>
        <extensions><gpxtpx:TrackPointExtension><gpxtpx:hr>123</gpxtpx:hr></gpxtpx:TrackPointExtension></extensions>
      </trkpt>
      <trkpt lat="57.7920956818" lon="14.2839076805">
        <ele>149.8</ele>
        <time>2010-11-19T17:47:59Z</time>
        <extensions><gpxtpx:TrackPointExtension><gpxtpx:hr>123</gpxtpx:hr></gpxtpx:TrackPointExtension></extensions>
      </trkpt>
      <trkpt lat="57.7921514214" lon="14.2838500968">
        <ele>149.8</ele>
        <time>2010-11-19T17:48:01Z</time>
        <extensions><gpxtpx:TrackPointExtension><gpxtpx:hr>122</gpxtpx:hr></gpxtpx:TrackPointExtension></extensions>
      </trkpt>
      <trkpt lat="57.7922018804" lon="14.2838122107">
        <ele>149.8</ele>
        <time>2010-11-19T17:48:02Z</time>
        <extensions><gpxtpx:TrackPointExtension><gpxtpx:hr>122</gpxtpx:hr></gpxtpx:TrackPointExtension></extensions>
      </trkpt>
      <trkpt lat="57.7922503278" lon="14.2837524477">
        <ele>149.8</ele>
        <time>2010-11-19T17:48:04Z</time>
        <extensions><gpxtpx:TrackPointExtension><gpxtpx:hr>122</gpxtpx:hr></gpxtpx:TrackPointExtension></extensions>
      </trkpt>
      <trkpt lat="57.7923013736" lon="14.2837055929">
        <ele>149.8</ele>
        <time>2010-11-19T17:48:07Z</time>
        <extensions><gpxtpx:TrackPointExtension><gpxtpx:hr>121</gpxtpx:hr></gpxtpx:TrackPointExtension></extensions>
      </trkpt>
      <trkpt lat="57.7923554368" lon="14.2836718977">
        <ele>149.8</ele>
        <time>2010-11-19T17:48:09Z</time>
        <extensions><gpxtpx:TrackPointExtension><gpxtpx:hr>119</gpxtpx:hr></gpxtpx:TrackPointExtension></extensions>
      </trkpt>
      <trkpt lat="57.7924017887" lon="14.2836253781">
        <ele>149.8</ele>
        <time>2010-11-19T17:48:10Z</time>
        <extensions><gpxtpx:TrackPointExtension><gpxtpx:hr>118</gpxtpx:hr></gpxtpx:TrackPointExtension></extensions>
      </trkpt>
      <trkpt lat="57.7924553491" lon="14.283589755">
        <ele>149.8</ele>
        <time>2010-11-19T17:48:12Z</time>
        <extensions><gpxtpx:TrackPointExtension><gpxtpx:hr>118</gpxtpx:hr></gpxtpx:TrackPointExtension></extensions>
      </trkpt>
      <trkpt lat="57.7925098314" lon="14.2835486837">
        <ele>149.8</ele>
        <time>2010-11-19T17:48:14Z</time>
        <extensions><gpxtpx:TrackPointExtension><gpxtpx:hr>118</gpxtpx:hr></gpxtpx:TrackPointExtension></extensions>
      </trkpt>
      <trkpt lat="57.7925691753" lon="14.2835204367">
        <ele>149.8</ele>
        <time>2010-11-19T17:48:16Z</time>
        <extensions><gpxtpx:TrackPointExtension><gpxtpx:hr>118</gpxtpx:hr></gpxtpx:TrackPointExtension></extensions>
      </trkpt>
      <trkpt lat="57.7926273457" lon="14.2834848975">
        <ele>149.8</ele>
        <time>2010-11-19T17:48:19Z</time>
        <extensions><gpxtpx:TrackPointExtension><gpxtpx:hr>118</gpxtpx:hr></gpxtpx:TrackPointExtension></extensions>
      </trkpt>
      <trkpt lat="57.7926767989" lon="14.2834338517">
        <ele>149.8</ele>
        <time>2010-11-19T17:48:21Z</time>
        <extensions><gpxtpx:TrackPointExtension><gpxtpx:hr>118</gpxtpx:hr></gpxtpx:TrackPointExtension></extensions>
      </trkpt>
      <trkpt lat="57.7927490509" lon="14.2833649525">
        <ele>149.8</ele>
        <time>2010-11-19T17:48:24Z</time>
        <extensions><gpxtpx:TrackPointExtension><gpxtpx:hr>119</gpxtpx:hr></gpxtpx:TrackPointExtension></extensions>
      </trkpt>
      <trkpt lat="57.7927940617" lon="14.2833152478">
        <ele>149.8</ele>
        <time>2010-11-19T17:48:26Z</time>
        <extensions><gpxtpx:TrackPointExtension><gpxtpx:hr>119</gpxtpx:hr></gpxtpx:TrackPointExtension></extensions>
      </trkpt>
      <trkpt lat="57.7928370608" lon="14.2832644535">
        <ele>149.8</ele>
        <time>2010-11-19T17:48:27Z</time>
        <extensions><gpxtpx:TrackPointExtension><gpxtpx:hr>117</gpxtpx:hr></gpxtpx:TrackPointExtension></extensions>
      </trkpt>
      <trkpt lat="57.7928841671" lon="14.2832179339">
        <ele>149.8</ele>
        <time>2010-11-19T17:48:29Z</time>
        <extensions><gpxtpx:TrackPointExtension><gpxtpx:hr>116</gpxtpx:hr></gpxtpx:TrackPointExtension></extensions>
      </trkpt>
      <trkpt lat="57.7929276692" lon="14.2831771979">
        <ele>149.8</ele>
        <time>2010-11-19T17:48:32Z</time>
        <extensions><gpxtpx:TrackPointExtension><gpxtpx:hr>117</gpxtpx:hr></gpxtpx:TrackPointExtension></extensions>
      </trkpt>
      <trkpt lat="57.792992126" lon="14.2831004197">
        <ele>149.8</ele>
        <time>2010-11-19T17:48:34Z</time>
        <extensions><gpxtpx:TrackPointExtension><gpxtpx:hr>117</gpxtpx:hr></gpxtpx:TrackPointExtension></extensions>
      </trkpt>
      <trkpt lat="57.7930533977" lon="14.2830699096">
        <ele>149.8</ele>
        <time>2010-11-19T17:48:37Z</time>
        <extensions><gpxtpx:TrackPointExtension><gpxtpx:hr>117</gpxtpx:hr></gpxtpx:TrackPointExtension></extensions>
      </trkpt>
      <trkpt lat="57.7931074609" lon="14.2830291736">
        <ele>149.8</ele>
        <time>2010-11-19T17:48:39Z</time>
        <extensions><gpxtpx:TrackPointExtension><gpxtpx:hr>116</gpxtpx:hr></gpxtpx:TrackPointExtension></extensions>
      </trkpt>
      <trkpt lat="57.7931869213" lon="14.2829901977">
        <ele>149.8</ele>
        <time>2010-11-19T17:48:41Z</time>
        <extensions><gpxtpx:TrackPointExtension><gpxtpx:hr>115</gpxtpx:hr></gpxtpx:TrackPointExtension></extensions>
      </trkpt>
      <trkpt lat="57.7932397273" lon="14.2829487911">
        <ele>149.8</ele>
        <time>2010-11-19T17:48:44Z</time>
        <extensions><gpxtpx:TrackPointExtension><gpxtpx:hr>114</gpxtpx:hr></gpxtpx:TrackPointExtension></extensions>
      </trkpt>
      <trkpt lat="57.7932890967" lon="14.2829007629">
        <ele>149.8</ele>
        <time>2010-11-19T17:48:45Z</time>
        <extensions><gpxtpx:TrackPointExtension><gpxtpx:hr>113</gpxtpx:hr></gpxtpx:TrackPointExtension></extensions>
      </trkpt>
      <trkpt lat="57.7933407292" lon="14.2828498009">
        <ele>149.6</ele>
        <time>2010-11-19T17:48:48Z</time>
        <extensions><gpxtpx:TrackPointExtension><gpxtpx:hr>112</gpxtpx:hr></gpxtpx:TrackPointExtension></extensions>
      </trkpt>
      <trkpt lat="57.7933840636" lon="14.2828064665">
        <ele>149.4</ele>
        <time>2010-11-19T17:48:49Z</time>
        <extensions><gpxtpx:TrackPointExtension><gpxtpx:hr>110</gpxtpx:hr></gpxtpx:TrackPointExtension></extensions>
      </trkpt>
      <trkpt lat="57.7934356123" lon="14.2827644732">
        <ele>149</ele>
        <time>2010-11-19T17:48:51Z</time>
        <extensions><gpxtpx:TrackPointExtension><gpxtpx:hr>109</gpxtpx:hr></gpxtpx:TrackPointExtension></extensions>
      </trkpt>
      <trkpt lat="57.793490849" lon="14.282714517">
        <ele>148.8</ele>
        <time>2010-11-19T17:48:54Z</time>
        <extensions><gpxtpx:TrackPointExtension><gpxtpx:hr>110</gpxtpx:hr></gpxtpx:TrackPointExtension></extensions>
      </trkpt>
      <trkpt lat="57.7935330938" lon="14.2826590289">
        <ele>148.6</ele>
        <time>2010-11-19T17:48:56Z</time>
        <extensions><gpxtpx:TrackPointExtension><gpxtpx:hr>110</gpxtpx:hr></gpxtpx:TrackPointExtension></extensions>
      </trkpt>
      <trkpt lat="57.7935791942" lon="14.2826012776">
        <ele>148.4</ele>
        <time>2010-11-19T17:48:57Z</time>
        <extensions><gpxtpx:TrackPointExtension><gpxtpx:hr>108</gpxtpx:hr></gpxtpx:TrackPointExtension></extensions>
      </trkpt>
      <trkpt lat="57.7936283122" lon="14.2825423528">
        <ele>148.4</ele>
        <time>2010-11-19T17:48:59Z</time>
        <extensions><gpxtpx:TrackPointExtension><gpxtpx:hr>105</gpxtpx:hr></gpxtpx:TrackPointExtension></extensions>
      </trkpt>
      <trkpt lat="57.7936739097" lon="14.2824939054">
        <ele>148</ele>
        <time>2010-11-19T17:49:01Z</time>
        <extensions><gpxtpx:TrackPointExtension><gpxtpx:hr>104</gpxtpx:hr></gpxtpx:TrackPointExtension></extensions>
      </trkpt>
      <trkpt lat="57.7937203454" lon="14.2824538399">
        <ele>147.6</ele>
        <time>2010-11-19T17:49:03Z</time>
        <extensions><gpxtpx:TrackPointExtension><gpxtpx:hr>103</gpxtpx:hr></gpxtpx:TrackPointExtension></extensions>
      </trkpt>
      <trkpt lat="57.7937698825" lon="14.2824115952">
        <ele>147.2</ele>
        <time>2010-11-19T17:49:05Z</time>
        <extensions><gpxtpx:TrackPointExtension><gpxtpx:hr>101</gpxtpx:hr></gpxtpx:TrackPointExtension></extensions>
      </trkpt>
      <trkpt lat="57.7938268794" lon="14.2823690151">
        <ele>147</ele>
        <time>2010-11-19T17:49:08Z</time>
        <extensions><gpxtpx:TrackPointExtension><gpxtpx:hr>101</gpxtpx:hr></gpxtpx:TrackPointExtension></extensions>
      </trkpt>
      <trkpt lat="57.7938767517" lon="14.2823189752">
        <ele>146.6</ele>
        <time>2010-11-19T17:49:09Z</time>
        <extensions><gpxtpx:TrackPointExtension><gpxtpx:hr>102</gpxtpx:hr></gpxtpx:TrackPointExtension></extensions>
      </trkpt>
      <trkpt lat="57.7939283004" lon="14.2822638223">
        <ele>146.4</ele>
        <time>2010-11-19T17:49:11Z</time>
        <extensions><gpxtpx:TrackPointExtension><gpxtpx:hr>102</gpxtpx:hr></gpxtpx:TrackPointExtension></extensions>
      </trkpt>
      <trkpt lat="57.7939822798" lon="14.2821990302">
        <ele>145.8</ele>
        <time>2010-11-19T17:49:14Z</time>
        <extensions><gpxtpx:TrackPointExtension><gpxtpx:hr>102</gpxtpx:hr></gpxtpx:TrackPointExtension></extensions>
      </trkpt>
      <trkpt lat="57.7940403664" lon="14.2821546061">
        <ele>145.4</ele>
        <time>2010-11-19T17:49:15Z</time>
        <extensions><gpxtpx:TrackPointExtension><gpxtpx:hr>103</gpxtpx:hr></gpxtpx:TrackPointExtension></extensions>
      </trkpt>
      <trkpt lat="57.7940981177" lon="14.2820979445">
        <ele>145</ele>
        <time>2010-11-19T17:49:18Z</time>
        <extensions><gpxtpx:TrackPointExtension><gpxtpx:hr>104</gpxtpx:hr></gpxtpx:TrackPointExtension></extensions>
      </trkpt>
      <trkpt lat="57.794150756" lon="14.28205">
        <ele>144.8</ele>
        <time>2010-11-19T17:49:19Z</time>
        <extensions><gpxtpx:TrackPointExtension><gpxtpx:hr>105</gpxtpx:hr></gpxtpx:TrackPointExtension></extensions>
      </trkpt>
      <trkpt lat="57.7942083397" lon="14.2820080905">
        <ele>144.6</ele>
        <time>2010-11-19T17:49:21Z</time>
        <extensions><gpxtpx:TrackPointExtension><gpxtpx:hr>106</gpxtpx:hr></gpxtpx:TrackPointExtension></extensions>
      </trkpt>
      <trkpt lat="57.7942660071" lon="14.2819563742">
        <ele>144.2</ele>
        <time>2010-11-19T17:49:24Z</time>
        <extensions><gpxtpx:TrackPointExtension><gpxtpx:hr>107</gpxtpx:hr></gpxtpx:TrackPointExtension></extensions>
      </trkpt>
      <trkpt lat="57.7943217468" lon="14.2819121177">
        <ele>143.8</ele>
        <time>2010-11-19T17:49:26Z</time>
        <extensions><gpxtpx:TrackPointExtension><gpxtpx:hr>107</gpxtpx:hr></gpxtpx:TrackPointExtension></extensions>
      </trkpt>
      <trkpt lat="57.7943717029" lon="14.2818584736">
        <ele>143.4</ele>
        <time>2010-11-19T17:49:27Z</time>
        <extensions><gpxtpx:TrackPointExtension><gpxtpx:hr>106</gpxtpx:hr></gpxtpx:TrackPointExtension></extensions>
      </trkpt>
      <trkpt lat="57.7944232516" lon="14.2818049132">
        <ele>143</ele>
        <time>2010-11-19T17:49:29Z</time>
        <extensions><gpxtpx:TrackPointExtension><gpxtpx:hr>106</gpxtpx:hr></gpxtpx:TrackPointExtension></extensions>
      </trkpt>
      <trkpt lat="57.7944779016" lon="14.281773062">
        <ele>142.8</ele>
        <time>2010-11-19T17:49:32Z</time>
        <extensions><gpxtpx:TrackPointExtension><gpxtpx:hr>106</gpxtpx:hr></gpxtpx:TrackPointExtension></extensions>
      </trkpt>
      <trkpt lat="57.7945291988" lon="14.2817257881">
        <ele>142.6</ele>
        <time>2010-11-19T17:49:33Z</time>
        <extensions><gpxtpx:TrackPointExtension><gpxtpx:hr>108</gpxtpx:hr></gpxtpx:TrackPointExtension></extensions>
      </trkpt>
      <trkpt lat="57.794583765" lon="14.2816719763">
        <ele>142.4</ele>
        <time>2010-11-19T17:49:36Z</time>
        <extensions><gpxtpx:TrackPointExtension><gpxtpx:hr>109</gpxtpx:hr></gpxtpx:TrackPointExtension></extensions>
      </trkpt>
      <trkpt lat="57.794633302" lon="14.2816199247">
        <ele>142.2</ele>
        <time>2010-11-19T17:49:38Z</time>
        <extensions><gpxtpx:TrackPointExtension><gpxtpx:hr>108</gpxtpx:hr></gpxtpx:TrackPointExtension></extensions>
      </trkpt>
      <trkpt lat="57.7946807435" lon="14.2815747463">
        <ele>141.6</ele>
        <time>2010-11-19T17:49:39Z</time>
        <extensions><gpxtpx:TrackPointExtension><gpxtpx:hr>108</gpxtpx:hr></gpxtpx:TrackPointExtension></extensions>
      </trkpt>
      <trkpt lat="57.7947341362" lon="14.2815216888">
        <ele>141.2</ele>
        <time>2010-11-19T17:49:41Z</time>
        <extensions><gpxtpx:TrackPointExtension><gpxtpx:hr>108</gpxtpx:hr></gpxtpx:TrackPointExtension></extensions>
      </trkpt>
      <trkpt lat="57.7947867746" lon="14.2814743311">
        <ele>141</ele>
        <time>2010-11-19T17:49:44Z</time>
        <extensions><gpxtpx:TrackPointExtension><gpxtpx:hr>109</gpxtpx:hr></gpxtpx:TrackPointExtension></extensions>
      </trkpt>
      <trkpt lat="57.7948339647" lon="14.2814288174">
        <ele>140.6</ele>
        <time>2010-11-19T17:49:45Z</time>
        <extensions><gpxtpx:TrackPointExtension><gpxtpx:hr>111</gpxtpx:hr></gpxtpx:TrackPointExtension></extensions>
      </trkpt>
      <trkpt lat="57.7948902072" lon="14.2813610078">
        <ele>140.4</ele>
        <time>2010-11-19T17:49:48Z</time>
        <extensions><gpxtpx:TrackPointExtension><gpxtpx:hr>111</gpxtpx:hr></gpxtpx:TrackPointExtension></extensions>
      </trkpt>
      <trkpt lat="57.7949406663" lon="14.2813139015">
        <ele>140.2</ele>
        <time>2010-11-19T17:49:49Z</time>
        <extensions><gpxtpx:TrackPointExtension><gpxtpx:hr>111</gpxtpx:hr></gpxtpx:TrackPointExtension></extensions>
      </trkpt>
      <trkpt lat="57.7949909577" lon="14.2812632749">
        <ele>140.2</ele>
        <time>2010-11-19T17:49:51Z</time>
        <extensions><gpxtpx:TrackPointExtension><gpxtpx:hr>112</gpxtpx:hr></gpxtpx:TrackPointExtension></extensions>
      </trkpt>
      <trkpt lat="57.7950467811" lon="14.2812216168">
        <ele>140</ele>
        <time>2010-11-19T17:49:54Z</time>
        <extensions><gpxtpx:TrackPointExtension><gpxtpx:hr>113</gpxtpx:hr></gpxtpx:TrackPointExtension></extensions>
      </trkpt>
      <trkpt lat="57.7950974916" lon="14.2811896818">
        <ele>140</ele>
        <time>2010-11-19T17:49:56Z</time>
        <extensions><gpxtpx:TrackPointExtension><gpxtpx:hr>113</gpxtpx:hr></gpxtpx:TrackPointExtension></extensions>
      </trkpt>
      <trkpt lat="57.795145939" lon="14.2811409829">
        <ele>139.8</ele>
        <time>2010-11-19T17:49:57Z</time>
        <extensions><gpxtpx:TrackPointExtension><gpxtpx:hr>113</gpxtpx:hr></gpxtpx:TrackPointExtension></extensions>
      </trkpt>
      <trkpt lat="57.7951993317" lon="14.2810961398">
        <ele>139.6</ele>
        <time>2010-11-19T17:49:59Z</time>
        <extensions><gpxtpx:TrackPointExtension><gpxtpx:hr>112</gpxtpx:hr></gpxtpx:TrackPointExtension></extensions>
      </trkpt>
      <trkpt lat="57.7952515509" lon="14.2810352872">
        <ele>139.2</ele>
        <time>2010-11-19T17:50:02Z</time>
        <extensions><gpxtpx:TrackPointExtension><gpxtpx:hr>112</gpxtpx:hr></gpxtpx:TrackPointExtension></extensions>
      </trkpt>
      <trkpt lat="57.7953048598" lon="14.2809889353">
        <ele>138.8</ele>
        <time>2010-11-19T17:50:03Z</time>
        <extensions><gpxtpx:TrackPointExtension><gpxtpx:hr>112</gpxtpx:hr></gpxtpx:TrackPointExtension></extensions>
      </trkpt>
      <trkpt lat="57.7953630302" lon="14.2809532284">
        <ele>138.6</ele>
        <time>2010-11-19T17:50:06Z</time>
        <extensions><gpxtpx:TrackPointExtension><gpxtpx:hr>112</gpxtpx:hr></gpxtpx:TrackPointExtension></extensions>
      </trkpt>
      <trkpt lat="57.7954295825" lon="14.2809160966">
        <ele>138.4</ele>
        <time>2010-11-19T17:50:08Z</time>
        <extensions><gpxtpx:TrackPointExtension><gpxtpx:hr>111</gpxtpx:hr></gpxtpx:TrackPointExtension></extensions>
      </trkpt>
      <trkpt lat="57.7954808797" lon="14.2808760311">
        <ele>138.2</ele>
        <time>2010-11-19T17:50:09Z</time>
        <extensions><gpxtpx:TrackPointExtension><gpxtpx:hr>111</gpxtpx:hr></gpxtpx:TrackPointExtension></extensions>
      </trkpt>
      <trkpt lat="57.7955378766" lon="14.2808359656">
        <ele>138</ele>
        <time>2010-11-19T17:50:11Z</time>
        <extensions><gpxtpx:TrackPointExtension><gpxtpx:hr>112</gpxtpx:hr></gpxtpx:TrackPointExtension></extensions>
      </trkpt>
      <trkpt lat="57.7955964661" lon="14.2807880211">
        <ele>138</ele>
        <time>2010-11-19T17:50:14Z</time>
        <extensions><gpxtpx:TrackPointExtension><gpxtpx:hr>112</gpxtpx:hr></gpxtpx:TrackPointExtension></extensions>
      </trkpt>
      <trkpt lat="57.7956460031" lon="14.2807518951">
        <ele>137.8</ele>
        <time>2010-11-19T17:50:15Z</time>
        <extensions><gpxtpx:TrackPointExtension><gpxtpx:hr>113</gpxtpx:hr></gpxtpx:TrackPointExtension></extensions>
      </trkpt>
      <trkpt lat="57.7956967136" lon="14.2807038669">
        <ele>137.8</ele>
        <time>2010-11-19T17:50:18Z</time>
        <extensions><gpxtpx:TrackPointExtension><gpxtpx:hr>115</gpxtpx:hr></gpxtpx:TrackPointExtension></extensions>
      </trkpt>
      <trkpt lat="57.7957459992" lon="14.2806449421">
        <ele>137.8</ele>
        <time>2010-11-19T17:50:19Z</time>
        <extensions><gpxtpx:TrackPointExtension><gpxtpx:hr>116</gpxtpx:hr></gpxtpx:TrackPointExtension></extensions>
      </trkpt>
      <trkpt lat="57.7958028285" lon="14.2805875261">
        <ele>137.6</ele>
        <time>2010-11-19T17:50:21Z</time>
        <extensions><gpxtpx:TrackPointExtension><gpxtpx:hr>117</gpxtpx:hr></gpxtpx:TrackPointExtension></extensions>
      </trkpt>
      <trkpt lat="57.7958579814" lon="14.2805161123">
        <ele>137.2</ele>
        <time>2010-11-19T17:50:24Z</time>
        <extensions><gpxtpx:TrackPointExtension><gpxtpx:hr>118</gpxtpx:hr></gpxtpx:TrackPointExtension></extensions>
      </trkpt>
      <trkpt lat="57.7959102845" lon="14.2804612947">
        <ele>136.8</ele>
        <time>2010-11-19T17:50:25Z</time>
        <extensions><gpxtpx:TrackPointExtension><gpxtpx:hr>119</gpxtpx:hr></gpxtpx:TrackPointExtension></extensions>
      </trkpt>
      <trkpt lat="57.795945237" lon="14.2803896294">
        <ele>136.6</ele>
        <time>2010-11-19T17:50:27Z</time>
        <extensions><gpxtpx:TrackPointExtension><gpxtpx:hr>120</gpxtpx:hr></gpxtpx:TrackPointExtension></extensions>
      </trkpt>
      <trkpt lat="57.7959834584" lon="14.2803141085">
        <ele>136.4</ele>
        <time>2010-11-19T17:50:29Z</time>
        <extensions><gpxtpx:TrackPointExtension><gpxtpx:hr>120</gpxtpx:hr></gpxtpx:TrackPointExtension></extensions>
      </trkpt>
      <trkpt lat="57.7960392819" lon="14.2802550161">
        <ele>136.2</ele>
        <time>2010-11-19T17:50:31Z</time>
        <extensions><gpxtpx:TrackPointExtension><gpxtpx:hr>120</gpxtpx:hr></gpxtpx:TrackPointExtension></extensions>
      </trkpt>
      <trkpt lat="57.7960913335" lon="14.2801901402">
        <ele>135.6</ele>
        <time>2010-11-19T17:50:33Z</time>
        <extensions><gpxtpx:TrackPointExtension><gpxtpx:hr>119</gpxtpx:hr></gpxtpx:TrackPointExtension></extensions>
      </trkpt>
      <trkpt lat="57.7961380207" lon="14.2801156251">
        <ele>135.2</ele>
        <time>2010-11-19T17:50:36Z</time>
        <extensions><gpxtpx:TrackPointExtension><gpxtpx:hr>119</gpxtpx:hr></gpxtpx:TrackPointExtension></extensions>
      </trkpt>
      <trkpt lat="57.7961876415" lon="14.2800396851">
        <ele>134.8</ele>
        <time>2010-11-19T17:50:38Z</time>
        <extensions><gpxtpx:TrackPointExtension><gpxtpx:hr>118</gpxtpx:hr></gpxtpx:TrackPointExtension></extensions>
      </trkpt>
      <trkpt lat="57.7962288805" lon="14.279964248">
        <ele>134.4</ele>
        <time>2010-11-19T17:50:39Z</time>
        <extensions><gpxtpx:TrackPointExtension><gpxtpx:hr>117</gpxtpx:hr></gpxtpx:TrackPointExtension></extensions>
      </trkpt>
      <trkpt lat="57.7962782499" lon="14.2798747293">
        <ele>133.8</ele>
        <time>2010-11-19T17:50:41Z</time>
        <extensions><gpxtpx:TrackPointExtension><gpxtpx:hr>117</gpxtpx:hr></gpxtpx:TrackPointExtension></extensions>
      </trkpt>
      <trkpt lat="57.7963385995" lon="14.2798144635">
        <ele>133.2</ele>
        <time>2010-11-19T17:50:44Z</time>
        <extensions><gpxtpx:TrackPointExtension><gpxtpx:hr>115</gpxtpx:hr></gpxtpx:TrackPointExtension></extensions>
      </trkpt>
      <trkpt lat="57.796395345" lon="14.2797484141">
        <ele>132.8</ele>
        <time>2010-11-19T17:50:45Z</time>
        <extensions><gpxtpx:TrackPointExtension><gpxtpx:hr>114</gpxtpx:hr></gpxtpx:TrackPointExtension></extensions>
      </trkpt>
      <trkpt lat="57.7964580416" lon="14.2796915848">
        <ele>132.2</ele>
        <time>2010-11-19T17:50:47Z</time>
        <extensions><gpxtpx:TrackPointExtension><gpxtpx:hr>115</gpxtpx:hr></gpxtpx:TrackPointExtension></extensions>
      </trkpt>
      <trkpt lat="57.796503723" lon="14.2796132979">
        <ele>131.6</ele>
        <time>2010-11-19T17:50:49Z</time>
        <extensions><gpxtpx:TrackPointExtension><gpxtpx:hr>114</gpxtpx:hr></gpxtpx:TrackPointExtension></extensions>
      </trkpt>
      <trkpt lat="57.7965538467" lon="14.2795519423">
        <ele>131.2</ele>
        <time>2010-11-19T17:50:51Z</time>
        <extensions><gpxtpx:TrackPointExtension><gpxtpx:hr>113</gpxtpx:hr></gpxtpx:TrackPointExtension></extensions>
      </trkpt>
      <trkpt lat="57.7966095025" lon="14.2794869826">
        <ele>130.6</ele>
        <time>2010-11-19T17:50:53Z</time>
        <extensions><gpxtpx:TrackPointExtension><gpxtpx:hr>113</gpxtpx:hr></gpxtpx:TrackPointExtension></extensions>
      </trkpt>
      <trkpt lat="57.79666256" lon="14.2794256271">
        <ele>130.2</ele>
        <time>2010-11-19T17:50:55Z</time>
        <extensions><gpxtpx:TrackPointExtension><gpxtpx:hr>114</gpxtpx:hr></gpxtpx:TrackPointExtension></extensions>
      </trkpt>
      <trkpt lat="57.7967164556" lon="14.2793852264">
        <ele>129.6</ele>
        <time>2010-11-19T17:50:57Z</time>
        <extensions><gpxtpx:TrackPointExtension><gpxtpx:hr>114</gpxtpx:hr></gpxtpx:TrackPointExtension></extensions>
      </trkpt>
      <trkpt lat="57.7967710218" lon="14.2793389583">
        <ele>129</ele>
        <time>2010-11-19T17:50:59Z</time>
        <extensions><gpxtpx:TrackPointExtension><gpxtpx:hr>115</gpxtpx:hr></gpxtpx:TrackPointExtension></extensions>
      </trkpt>
      <trkpt lat="57.7968295274" lon="14.2793023294">
        <ele>128.6</ele>
        <time>2010-11-19T17:51:01Z</time>
        <extensions><gpxtpx:TrackPointExtension><gpxtpx:hr>115</gpxtpx:hr></gpxtpx:TrackPointExtension></extensions>
      </trkpt>
      <trkpt lat="57.7968844289" lon="14.2792646946">
        <ele>128.2</ele>
        <time>2010-11-19T17:51:03Z</time>
        <extensions><gpxtpx:TrackPointExtension><gpxtpx:hr>115</gpxtpx:hr></gpxtpx:TrackPointExtension></extensions>
      </trkpt>
      <trkpt lat="57.7969426831" lon="14.2792284848">
        <ele>128</ele>
        <time>2010-11-19T17:51:05Z</time>
        <extensions><gpxtpx:TrackPointExtension><gpxtpx:hr>117</gpxtpx:hr></gpxtpx:TrackPointExtension></extensions>
      </trkpt>
      <trkpt lat="57.7969950699" lon="14.2791985614">
        <ele>127.8</ele>
        <time>2010-11-19T17:51:07Z</time>
        <extensions><gpxtpx:TrackPointExtension><gpxtpx:hr>118</gpxtpx:hr></gpxtpx:TrackPointExtension></extensions>
      </trkpt>
      <trkpt lat="57.7970499714" lon="14.2791921074">
        <ele>127.4</ele>
        <time>2010-11-19T17:51:09Z</time>
        <extensions><gpxtpx:TrackPointExtension><gpxtpx:hr>119</gpxtpx:hr></gpxtpx:TrackPointExtension></extensions>
      </trkpt>
      <trkpt lat="57.7971055434" lon="14.2791530477">
        <ele>127</ele>
        <time>2010-11-19T17:51:11Z</time>
        <extensions><gpxtpx:TrackPointExtension><gpxtpx:hr>118</gpxtpx:hr></gpxtpx:TrackPointExtension></extensions>
      </trkpt>
      <trkpt lat="57.7971713413" lon="14.2791282373">
        <ele>126.6</ele>
        <time>2010-11-19T17:51:13Z</time>
        <extensions><gpxtpx:TrackPointExtension><gpxtpx:hr>119</gpxtpx:hr></gpxtpx:TrackPointExtension></extensions>
      </trkpt>
      <trkpt lat="57.7972290088" lon="14.2791091266">
        <ele>126.2</ele>
        <time>2010-11-19T17:51:15Z</time>
        <extensions><gpxtpx:TrackPointExtension><gpxtpx:hr>120</gpxtpx:hr></gpxtpx:TrackPointExtension></extensions>
      </trkpt>
      <trkpt lat="57.7972953096" lon="14.2790763533">
        <ele>126</ele>
        <time>2010-11-19T17:51:17Z</time>
        <extensions><gpxtpx:TrackPointExtension><gpxtpx:hr>121</gpxtpx:hr></gpxtpx:TrackPointExtension></extensions>
      </trkpt>
      <trkpt lat="57.7973667234" lon="14.2790612659">
        <ele>125.8</ele>
        <time>2010-11-19T17:51:19Z</time>
        <extensions><gpxtpx:TrackPointExtension><gpxtpx:hr>122</gpxtpx:hr></gpxtpx:TrackPointExtension></extensions>
      </trkpt>
      <trkpt lat="57.7974386401" lon="14.2790076218">
        <ele>125.6</ele>
        <time>2010-11-19T17:51:22Z</time>
        <extensions><gpxtpx:TrackPointExtension><gpxtpx:hr>123</gpxtpx:hr></gpxtpx:TrackPointExtension></extensions>
      </trkpt>
      <trkpt lat="57.7974818069" lon="14.2789772793">
        <ele>125.4</ele>
        <time>2010-11-19T17:51:23Z</time>
        <extensions><gpxtpx:TrackPointExtension><gpxtpx:hr>124</gpxtpx:hr></gpxtpx:TrackPointExtension></extensions>
      </trkpt>
      <trkpt lat="57.7975412346" lon="14.2789497028">
        <ele>125.4</ele>
        <time>2010-11-19T17:51:25Z</time>
        <extensions><gpxtpx:TrackPointExtension><gpxtpx:hr>125</gpxtpx:hr></gpxtpx:TrackPointExtension></extensions>
      </trkpt>
      <trkpt lat="57.7975990697" lon="14.2789155885">
        <ele>125.2</ele>
        <time>2010-11-19T17:51:27Z</time>
        <extensions><gpxtpx:TrackPointExtension><gpxtpx:hr>126</gpxtpx:hr></gpxtpx:TrackPointExtension></extensions>
      </trkpt>
      <trkpt lat="57.79765724" lon="14.2788869224">
        <ele>125.2</ele>
        <time>2010-11-19T17:51:29Z</time>
        <extensions><gpxtpx:TrackPointExtension><gpxtpx:hr>128</gpxtpx:hr></gpxtpx:TrackPointExtension></extensions>
      </trkpt>
      <trkpt lat="57.7977181765" lon="14.278862112">
        <ele>125</ele>
        <time>2010-11-19T17:51:31Z</time>
        <extensions><gpxtpx:TrackPointExtension><gpxtpx:hr>129</gpxtpx:hr></gpxtpx:TrackPointExtension></extensions>
      </trkpt>
      <trkpt lat="57.7977788614" lon="14.2788314342">
        <ele>125</ele>
        <time>2010-11-19T17:51:33Z</time>
        <extensions><gpxtpx:TrackPointExtension><gpxtpx:hr>129</gpxtpx:hr></gpxtpx:TrackPointExtension></extensions>
      </trkpt>
      <trkpt lat="57.797832757" lon="14.2787973199">
        <ele>125</ele>
        <time>2010-11-19T17:51:35Z</time>
        <extensions><gpxtpx:TrackPointExtension><gpxtpx:hr>129</gpxtpx:hr></gpxtpx:TrackPointExtension></extensions>
      </trkpt>
      <trkpt lat="57.7978910112" lon="14.2787609424">
        <ele>125</ele>
        <time>2010-11-19T17:51:37Z</time>
        <extensions><gpxtpx:TrackPointExtension><gpxtpx:hr>128</gpxtpx:hr></gpxtpx:TrackPointExtension></extensions>
      </trkpt>
      <trkpt lat="57.7979449069" lon="14.2787328631">
        <ele>125</ele>
        <time>2010-11-19T17:51:39Z</time>
        <extensions><gpxtpx:TrackPointExtension><gpxtpx:hr>128</gpxtpx:hr></gpxtpx:TrackPointExtension></extensions>
      </trkpt>
      <trkpt lat="57.798003664" lon="14.2787188653">
        <ele>125</ele>
        <time>2010-11-19T17:51:41Z</time>
        <extensions><gpxtpx:TrackPointExtension><gpxtpx:hr>128</gpxtpx:hr></gpxtpx:TrackPointExtension></extensions>
      </trkpt>
      <trkpt lat="57.7980551288" lon="14.2786932167">
        <ele>125</ele>
        <time>2010-11-19T17:51:43Z</time>
        <extensions><gpxtpx:TrackPointExtension><gpxtpx:hr>128</gpxtpx:hr></gpxtpx:TrackPointExtension></extensions>
      </trkpt>
      <trkpt lat="57.7981019837" lon="14.2786612817">
        <ele>124.8</ele>
        <time>2010-11-19T17:51:45Z</time>
        <extensions><gpxtpx:TrackPointExtension><gpxtpx:hr>128</gpxtpx:hr></gpxtpx:TrackPointExtension></extensions>
      </trkpt>
      <trkpt lat="57.7981623333" lon="14.2786267482">
        <ele>124.8</ele>
        <time>2010-11-19T17:51:47Z</time>
        <extensions><gpxtpx:TrackPointExtension><gpxtpx:hr>128</gpxtpx:hr></gpxtpx:TrackPointExtension></extensions>
      </trkpt>
      <trkpt lat="57.7982163128" lon="14.2786006805">
        <ele>124.8</ele>
        <time>2010-11-19T17:51:49Z</time>
        <extensions><gpxtpx:TrackPointExtension><gpxtpx:hr>127</gpxtpx:hr></gpxtpx:TrackPointExtension></extensions>
      </trkpt>
      <trkpt lat="57.7982778359" lon="14.2785685778">
        <ele>124.8</ele>
        <time>2010-11-19T17:51:51Z</time>
        <extensions><gpxtpx:TrackPointExtension><gpxtpx:hr>126</gpxtpx:hr></gpxtpx:TrackPointExtension></extensions>
      </trkpt>
      <trkpt lat="57.7983299713" lon="14.2785529875">
        <ele>124.8</ele>
        <time>2010-11-19T17:51:53Z</time>
        <extensions><gpxtpx:TrackPointExtension><gpxtpx:hr>127</gpxtpx:hr></gpxtpx:TrackPointExtension></extensions>
      </trkpt>
      <trkpt lat="57.7983837831" lon="14.2785192923">
        <ele>124.8</ele>
        <time>2010-11-19T17:51:55Z</time>
        <extensions><gpxtpx:TrackPointExtension><gpxtpx:hr>127</gpxtpx:hr></gpxtpx:TrackPointExtension></extensions>
      </trkpt>
      <trkpt lat="57.7984375111" lon="14.278488866">
        <ele>124.8</ele>
        <time>2010-11-19T17:51:57Z</time>
        <extensions><gpxtpx:TrackPointExtension><gpxtpx:hr>128</gpxtpx:hr></gpxtpx:TrackPointExtension></extensions>
      </trkpt>
      <trkpt lat="57.7985003754" lon="14.2784736109">
        <ele>124.8</ele>
        <time>2010-11-19T17:51:59Z</time>
        <extensions><gpxtpx:TrackPointExtension><gpxtpx:hr>128</gpxtpx:hr></gpxtpx:TrackPointExtension></extensions>
      </trkpt>
      <trkpt lat="57.7985501639" lon="14.2784361438">
        <ele>124.8</ele>
        <time>2010-11-19T17:52:01Z</time>
        <extensions><gpxtpx:TrackPointExtension><gpxtpx:hr>127</gpxtpx:hr></gpxtpx:TrackPointExtension></extensions>
      </trkpt>
      <trkpt lat="57.7985997009" lon="14.2784052984">
        <ele>124.8</ele>
        <time>2010-11-19T17:52:03Z</time>
        <extensions><gpxtpx:TrackPointExtension><gpxtpx:hr>127</gpxtpx:hr></gpxtpx:TrackPointExtension></extensions>
      </trkpt>
      <trkpt lat="57.7986518363" lon="14.2783636404">
        <ele>124.8</ele>
        <time>2010-11-19T17:52:05Z</time>
        <extensions><gpxtpx:TrackPointExtension><gpxtpx:hr>127</gpxtpx:hr></gpxtpx:TrackPointExtension></extensions>
      </trkpt>
      <trkpt lat="57.7987050614" lon="14.2783182105">
        <ele>124.8</ele>
        <time>2010-11-19T17:52:07Z</time>
        <extensions><gpxtpx:TrackPointExtension><gpxtpx:hr>127</gpxtpx:hr></gpxtpx:TrackPointExtension></extensions>
      </trkpt>
      <trkpt lat="57.7987505751" lon="14.2782668294">
        <ele>124.8</ele>
        <time>2010-11-19T17:52:09Z</time>
        <extensions><gpxtpx:TrackPointExtension><gpxtpx:hr>128</gpxtpx:hr></gpxtpx:TrackPointExtension></extensions>
      </trkpt>
      <trkpt lat="57.7988003636" lon="14.2782182144">
        <ele>124.8</ele>
        <time>2010-11-19T17:52:11Z</time>
        <extensions><gpxtpx:TrackPointExtension><gpxtpx:hr>128</gpxtpx:hr></gpxtpx:TrackPointExtension></extensions>
      </trkpt>
      <trkpt lat="57.798859456" lon="14.2781887101">
        <ele>124.8</ele>
        <time>2010-11-19T17:52:13Z</time>
        <extensions><gpxtpx:TrackPointExtension><gpxtpx:hr>128</gpxtpx:hr></gpxtpx:TrackPointExtension></extensions>
      </trkpt>
      <trkpt lat="57.7989182969" lon="14.2781762211">
        <ele>124.8</ele>
        <time>2010-11-19T17:52:15Z</time>
        <extensions><gpxtpx:TrackPointExtension><gpxtpx:hr>128</gpxtpx:hr></gpxtpx:TrackPointExtension></extensions>
      </trkpt>
      <trkpt lat="57.7989754615" lon="14.2781713596">
        <ele>124.8</ele>
        <time>2010-11-19T17:52:17Z</time>
        <extensions><gpxtpx:TrackPointExtension><gpxtpx:hr>128</gpxtpx:hr></gpxtpx:TrackPointExtension></extensions>
      </trkpt>
      <trkpt lat="57.7990263396" lon="14.2781542605">
        <ele>124.8</ele>
        <time>2010-11-19T17:52:19Z</time>
        <extensions><gpxtpx:TrackPointExtension><gpxtpx:hr>127</gpxtpx:hr></gpxtpx:TrackPointExtension></extensions>
      </trkpt>
      <trkpt lat="57.7990782236" lon="14.2781283604">
        <ele>124.8</ele>
        <time>2010-11-19T17:52:21Z</time>
        <extensions><gpxtpx:TrackPointExtension><gpxtpx:hr>127</gpxtpx:hr></gpxtpx:TrackPointExtension></extensions>
      </trkpt>
      <trkpt lat="57.7991356396" lon="14.2780915639">
        <ele>124.8</ele>
        <time>2010-11-19T17:52:23Z</time>
        <extensions><gpxtpx:TrackPointExtension><gpxtpx:hr>128</gpxtpx:hr></gpxtpx:TrackPointExtension></extensions>
      </trkpt>
      <trkpt lat="57.7991883617" lon="14.27806097">
        <ele>124.8</ele>
        <time>2010-11-19T17:52:25Z</time>
        <extensions><gpxtpx:TrackPointExtension><gpxtpx:hr>127</gpxtpx:hr></gpxtpx:TrackPointExtension></extensions>
      </trkpt>
      <trkpt lat="57.7992402457" lon="14.2780188928">
        <ele>124.8</ele>
        <time>2010-11-19T17:52:27Z</time>
        <extensions><gpxtpx:TrackPointExtension><gpxtpx:hr>128</gpxtpx:hr></gpxtpx:TrackPointExtension></extensions>
      </trkpt>
      <trkpt lat="57.7992959853" lon="14.2779968484">
        <ele>124.8</ele>
        <time>2010-11-19T17:52:29Z</time>
        <extensions><gpxtpx:TrackPointExtension><gpxtpx:hr>127</gpxtpx:hr></gpxtpx:TrackPointExtension></extensions>
      </trkpt>
      <trkpt lat="57.7993506353" lon="14.2779676794">
        <ele>124.8</ele>
        <time>2010-11-19T17:52:31Z</time>
        <extensions><gpxtpx:TrackPointExtension><gpxtpx:hr>127</gpxtpx:hr></gpxtpx:TrackPointExtension></extensions>
      </trkpt>
      <trkpt lat="57.799407716" lon="14.2779417794">
        <ele>124.8</ele>
        <time>2010-11-19T17:52:33Z</time>
        <extensions><gpxtpx:TrackPointExtension><gpxtpx:hr>127</gpxtpx:hr></gpxtpx:TrackPointExtension></extensions>
      </trkpt>
      <trkpt lat="57.7994631204" lon="14.2779070783">
        <ele>124.8</ele>
        <time>2010-11-19T17:52:35Z</time>
        <extensions><gpxtpx:TrackPointExtension><gpxtpx:hr>127</gpxtpx:hr></gpxtpx:TrackPointExtension></extensions>
      </trkpt>
      <trkpt lat="57.7994937982" lon="14.277915544">
        <ele>124.8</ele>
        <time>2010-11-19T17:52:36Z</time>
        <extensions><gpxtpx:TrackPointExtension><gpxtpx:hr>127</gpxtpx:hr></gpxtpx:TrackPointExtension></extensions>
      </trkpt>
      <trkpt lat="57.7995476938" lon="14.2778858721">
        <ele>124.8</ele>
        <time>2010-11-19T17:52:38Z</time>
        <extensions><gpxtpx:TrackPointExtension><gpxtpx:hr>127</gpxtpx:hr></gpxtpx:TrackPointExtension></extensions>
      </trkpt>
      <trkpt lat="57.7996072053" lon="14.2778582956">
        <ele>124.8</ele>
        <time>2010-11-19T17:52:41Z</time>
        <extensions><gpxtpx:TrackPointExtension><gpxtpx:hr>127</gpxtpx:hr></gpxtpx:TrackPointExtension></extensions>
      </trkpt>
      <trkpt lat="57.7996569099" lon="14.2778246842">
        <ele>124.8</ele>
        <time>2010-11-19T17:52:42Z</time>
        <extensions><gpxtpx:TrackPointExtension><gpxtpx:hr>128</gpxtpx:hr></gpxtpx:TrackPointExtension></extensions>
      </trkpt>
      <trkpt lat="57.7997123981" lon="14.2778111894">
        <ele>124.8</ele>
        <time>2010-11-19T17:52:44Z</time>
        <extensions><gpxtpx:TrackPointExtension><gpxtpx:hr>128</gpxtpx:hr></gpxtpx:TrackPointExtension></extensions>
      </trkpt>
      <trkpt lat="57.799773586" lon="14.2777910728">
        <ele>124.8</ele>
        <time>2010-11-19T17:52:46Z</time>
        <extensions><gpxtpx:TrackPointExtension><gpxtpx:hr>127</gpxtpx:hr></gpxtpx:TrackPointExtension></extensions>
      </trkpt>
      <trkpt lat="57.7998192673" lon="14.2777378477">
        <ele>124.8</ele>
        <time>2010-11-19T17:52:48Z</time>
        <extensions><gpxtpx:TrackPointExtension><gpxtpx:hr>127</gpxtpx:hr></gpxtpx:TrackPointExtension></extensions>
      </trkpt>
      <trkpt lat="57.799873582" lon="14.2777084273">
        <ele>124.8</ele>
        <time>2010-11-19T17:52:50Z</time>
        <extensions><gpxtpx:TrackPointExtension><gpxtpx:hr>126</gpxtpx:hr></gpxtpx:TrackPointExtension></extensions>
      </trkpt>
      <trkpt lat="57.7999280644" lon="14.2776693676">
        <ele>124.8</ele>
        <time>2010-11-19T17:52:53Z</time>
        <extensions><gpxtpx:TrackPointExtension><gpxtpx:hr>126</gpxtpx:hr></gpxtpx:TrackPointExtension></extensions>
      </trkpt>
      <trkpt lat="57.7999765956" lon="14.2776385222">
        <ele>124.8</ele>
        <time>2010-11-19T17:52:54Z</time>
        <extensions><gpxtpx:TrackPointExtension><gpxtpx:hr>125</gpxtpx:hr></gpxtpx:TrackPointExtension></extensions>
      </trkpt>
      <trkpt lat="57.8000290663" lon="14.2776012228">
        <ele>124.8</ele>
        <time>2010-11-19T17:52:56Z</time>
        <extensions><gpxtpx:TrackPointExtension><gpxtpx:hr>125</gpxtpx:hr></gpxtpx:TrackPointExtension></extensions>
      </trkpt>
      <trkpt lat="57.8000780166" lon="14.2775581398">
        <ele>125</ele>
        <time>2010-11-19T17:52:59Z</time>
        <extensions><gpxtpx:TrackPointExtension><gpxtpx:hr>125</gpxtpx:hr></gpxtpx:TrackPointExtension></extensions>
      </trkpt>
      <trkpt lat="57.8001330857" lon="14.2775330779">
        <ele>125.4</ele>
        <time>2010-11-19T17:53:01Z</time>
        <extensions><gpxtpx:TrackPointExtension><gpxtpx:hr>125</gpxtpx:hr></gpxtpx:TrackPointExtension></extensions>
      </trkpt>
      <trkpt lat="57.8001876518" lon="14.277495527">
        <ele>125.6</ele>
        <time>2010-11-19T17:53:03Z</time>
        <extensions><gpxtpx:TrackPointExtension><gpxtpx:hr>125</gpxtpx:hr></gpxtpx:TrackPointExtension></extensions>
      </trkpt>
      <trkpt lat="57.8002398711" lon="14.2774725606">
        <ele>125.8</ele>
        <time>2010-11-19T17:53:04Z</time>
        <extensions><gpxtpx:TrackPointExtension><gpxtpx:hr>126</gpxtpx:hr></gpxtpx:TrackPointExtension></extensions>
      </trkpt>
      <trkpt lat="57.8002906654" lon="14.277457557">
        <ele>126</ele>
        <time>2010-11-19T17:53:06Z</time>
        <extensions><gpxtpx:TrackPointExtension><gpxtpx:hr>127</gpxtpx:hr></gpxtpx:TrackPointExtension></extensions>
      </trkpt>
      <trkpt lat="57.8003264561" lon="14.2774568026">
        <ele>126.2</ele>
        <time>2010-11-19T17:53:09Z</time>
        <extensions><gpxtpx:TrackPointExtension><gpxtpx:hr>127</gpxtpx:hr></gpxtpx:TrackPointExtension></extensions>
      </trkpt>
      <trkpt lat="57.8003497578" lon="14.2774879833">
        <ele>126.6</ele>
        <time>2010-11-19T17:53:18Z</time>
        <extensions><gpxtpx:TrackPointExtension><gpxtpx:hr>122</gpxtpx:hr></gpxtpx:TrackPointExtension></extensions>
      </trkpt>
      <trkpt lat="57.8003574691" lon="14.2775935114">
        <ele>126.6</ele>
        <time>2010-11-19T17:53:21Z</time>
        <extensions><gpxtpx:TrackPointExtension><gpxtpx:hr>122</gpxtpx:hr></gpxtpx:TrackPointExtension></extensions>
      </trkpt>
      <trkpt lat="57.8003527753" lon="14.2776873887">
        <ele>126.8</ele>
        <time>2010-11-19T17:53:24Z</time>
        <extensions><gpxtpx:TrackPointExtension><gpxtpx:hr>122</gpxtpx:hr></gpxtpx:TrackPointExtension></extensions>
      </trkpt>
      <trkpt lat="57.8003656834" lon="14.277803478">
        <ele>126.8</ele>
        <time>2010-11-19T17:53:26Z</time>
        <extensions><gpxtpx:TrackPointExtension><gpxtpx:hr>125</gpxtpx:hr></gpxtpx:TrackPointExtension></extensions>
      </trkpt>
      <trkpt lat="57.8003784239" lon="14.2779129456">
        <ele>126.8</ele>
        <time>2010-11-19T17:53:29Z</time>
        <extensions><gpxtpx:TrackPointExtension><gpxtpx:hr>127</gpxtpx:hr></gpxtpx:TrackPointExtension></extensions>
      </trkpt>
      <trkpt lat="57.8003939304" lon="14.2780106786">
        <ele>126.8</ele>
        <time>2010-11-19T17:53:31Z</time>
        <extensions><gpxtpx:TrackPointExtension><gpxtpx:hr>129</gpxtpx:hr></gpxtpx:TrackPointExtension></extensions>
      </trkpt>
      <trkpt lat="57.8004210039" lon="14.2780903066">
        <ele>126.8</ele>
        <time>2010-11-19T17:53:33Z</time>
        <extensions><gpxtpx:TrackPointExtension><gpxtpx:hr>130</gpxtpx:hr></gpxtpx:TrackPointExtension></extensions>
      </trkpt>
      <trkpt lat="57.8004562079" lon="14.2781597088">
        <ele>127.2</ele>
        <time>2010-11-19T17:53:36Z</time>
        <extensions><gpxtpx:TrackPointExtension><gpxtpx:hr>131</gpxtpx:hr></gpxtpx:TrackPointExtension></extensions>
      </trkpt>
      <trkpt lat="57.8005100197" lon="14.2781965891">
        <ele>127.6</ele>
        <time>2010-11-19T17:53:38Z</time>
        <extensions><gpxtpx:TrackPointExtension><gpxtpx:hr>130</gpxtpx:hr></gpxtpx:TrackPointExtension></extensions>
      </trkpt>
      <trkpt lat="57.8005559525" lon="14.2782129338">
        <ele>127.8</ele>
        <time>2010-11-19T17:53:39Z</time>
        <extensions><gpxtpx:TrackPointExtension><gpxtpx:hr>130</gpxtpx:hr></gpxtpx:TrackPointExtension></extensions>
      </trkpt>
      <trkpt lat="57.8006070821" lon="14.278205893">
        <ele>128</ele>
        <time>2010-11-19T17:53:41Z</time>
        <extensions><gpxtpx:TrackPointExtension><gpxtpx:hr>129</gpxtpx:hr></gpxtpx:TrackPointExtension></extensions>
      </trkpt>
      <trkpt lat="57.8006265281" lon="14.2781810826">
        <ele>128</ele>
        <time>2010-11-19T17:53:43Z</time>
        <extensions><gpxtpx:TrackPointExtension><gpxtpx:hr>129</gpxtpx:hr></gpxtpx:TrackPointExtension></extensions>
      </trkpt>
      <trkpt lat="57.8006647496" lon="14.2781397598">
        <ele>128.2</ele>
        <time>2010-11-19T17:53:44Z</time>
        <extensions><gpxtpx:TrackPointExtension><gpxtpx:hr>129</gpxtpx:hr></gpxtpx:TrackPointExtension></extensions>
      </trkpt>
      <trkpt lat="57.8006902306" lon="14.2781373291">
        <ele>128.2</ele>
        <time>2010-11-19T17:53:45Z</time>
        <extensions><gpxtpx:TrackPointExtension><gpxtpx:hr>129</gpxtpx:hr></gpxtpx:TrackPointExtension></extensions>
      </trkpt>
      <trkpt lat="57.8007827667" lon="14.278156356">
        <ele>128.4</ele>
        <time>2010-11-19T17:53:49Z</time>
        <extensions><gpxtpx:TrackPointExtension><gpxtpx:hr>131</gpxtpx:hr></gpxtpx:TrackPointExtension></extensions>
      </trkpt>
      <trkpt lat="57.8008661666" lon="14.2781626424">
        <ele>128.6</ele>
        <time>2010-11-19T17:53:53Z</time>
        <extensions><gpxtpx:TrackPointExtension><gpxtpx:hr>133</gpxtpx:hr></gpxtpx:TrackPointExtension></extensions>
      </trkpt>
      <trkpt lat="57.8009175477" lon="14.278149399">
        <ele>128.6</ele>
        <time>2010-11-19T17:53:54Z</time>
        <extensions><gpxtpx:TrackPointExtension><gpxtpx:hr>134</gpxtpx:hr></gpxtpx:TrackPointExtension></extensions>
      </trkpt>
      <trkpt lat="57.8009940744" lon="14.2781379996">
        <ele>128.8</ele>
        <time>2010-11-19T17:53:57Z</time>
        <extensions><gpxtpx:TrackPointExtension><gpxtpx:hr>136</gpxtpx:hr></gpxtpx:TrackPointExtension></extensions>
      </trkpt>
      <trkpt lat="57.8010457069" lon="14.2781309588">
        <ele>128.8</ele>
        <time>2010-11-19T17:53:59Z</time>
        <extensions><gpxtpx:TrackPointExtension><gpxtpx:hr>138</gpxtpx:hr></gpxtpx:TrackPointExtension></extensions>
      </trkpt>
      <trkpt lat="57.8010996864" lon="14.2781333058">
        <ele>128.8</ele>
        <time>2010-11-19T17:54:02Z</time>
        <extensions><gpxtpx:TrackPointExtension><gpxtpx:hr>140</gpxtpx:hr></gpxtpx:TrackPointExtension></extensions>
      </trkpt>
      <trkpt lat="57.8011674121" lon="14.2781214035">
        <ele>129</ele>
        <time>2010-11-19T17:54:04Z</time>
        <extensions><gpxtpx:TrackPointExtension><gpxtpx:hr>141</gpxtpx:hr></gpxtpx:TrackPointExtension></extensions>
      </trkpt>
      <trkpt lat="57.8012270913" lon="14.2781243371">
        <ele>129.4</ele>
        <time>2010-11-19T17:54:07Z</time>
        <extensions><gpxtpx:TrackPointExtension><gpxtpx:hr>141</gpxtpx:hr></gpxtpx:TrackPointExtension></extensions>
      </trkpt>
      <trkpt lat="57.8012882791" lon="14.2781161229">
        <ele>129.6</ele>
        <time>2010-11-19T17:54:09Z</time>
        <extensions><gpxtpx:TrackPointExtension><gpxtpx:hr>140</gpxtpx:hr></gpxtpx:TrackPointExtension></extensions>
      </trkpt>
      <trkpt lat="57.8013413366" lon="14.2781021251">
        <ele>129.8</ele>
        <time>2010-11-19T17:54:11Z</time>
        <extensions><gpxtpx:TrackPointExtension><gpxtpx:hr>140</gpxtpx:hr></gpxtpx:TrackPointExtension></extensions>
      </trkpt>
      <trkpt lat="57.8013963218" lon="14.2781032986">
        <ele>130</ele>
        <time>2010-11-19T17:54:13Z</time>
        <extensions><gpxtpx:TrackPointExtension><gpxtpx:hr>139</gpxtpx:hr></gpxtpx:TrackPointExtension></extensions>
      </trkpt>
      <trkpt lat="57.8014504689" lon="14.2780974312">
        <ele>130.4</ele>
        <time>2010-11-19T17:54:14Z</time>
        <extensions><gpxtpx:TrackPointExtension><gpxtpx:hr>139</gpxtpx:hr></gpxtpx:TrackPointExtension></extensions>
      </trkpt>
      <trkpt lat="57.8014999221" lon="14.2781139436">
        <ele>131</ele>
        <time>2010-11-19T17:54:17Z</time>
        <extensions><gpxtpx:TrackPointExtension><gpxtpx:hr>138</gpxtpx:hr></gpxtpx:TrackPointExtension></extensions>
      </trkpt>
      <trkpt lat="57.8015487886" lon="14.2781143627">
        <ele>131.4</ele>
        <time>2010-11-19T17:54:19Z</time>
        <extensions><gpxtpx:TrackPointExtension><gpxtpx:hr>138</gpxtpx:hr></gpxtpx:TrackPointExtension></extensions>
      </trkpt>
      <trkpt lat="57.8016017622" lon="14.2781124348">
        <ele>131.6</ele>
        <time>2010-11-19T17:54:21Z</time>
        <extensions><gpxtpx:TrackPointExtension><gpxtpx:hr>139</gpxtpx:hr></gpxtpx:TrackPointExtension></extensions>
      </trkpt>
      <trkpt lat="57.8016483656" lon="14.2780992753">
        <ele>132</ele>
        <time>2010-11-19T17:54:23Z</time>
        <extensions><gpxtpx:TrackPointExtension><gpxtpx:hr>138</gpxtpx:hr></gpxtpx:TrackPointExtension></extensions>
      </trkpt>
      <trkpt lat="57.8016941307" lon="14.278089217">
        <ele>132.2</ele>
        <time>2010-11-19T17:54:24Z</time>
        <extensions><gpxtpx:TrackPointExtension><gpxtpx:hr>139</gpxtpx:hr></gpxtpx:TrackPointExtension></extensions>
      </trkpt>
      <trkpt lat="57.8017484454" lon="14.2780746325">
        <ele>132.2</ele>
        <time>2010-11-19T17:54:27Z</time>
        <extensions><gpxtpx:TrackPointExtension><gpxtpx:hr>139</gpxtpx:hr></gpxtpx:TrackPointExtension></extensions>
      </trkpt>
      <trkpt lat="57.8018047718" lon="14.2780649095">
        <ele>132.8</ele>
        <time>2010-11-19T17:54:29Z</time>
        <extensions><gpxtpx:TrackPointExtension><gpxtpx:hr>140</gpxtpx:hr></gpxtpx:TrackPointExtension></extensions>
      </trkpt>
      <trkpt lat="57.8018578292" lon="14.2780634007">
        <ele>133.2</ele>
        <time>2010-11-19T17:54:31Z</time>
        <extensions><gpxtpx:TrackPointExtension><gpxtpx:hr>139</gpxtpx:hr></gpxtpx:TrackPointExtension></extensions>
      </trkpt>
      <trkpt lat="57.8019071986" lon="14.2780515822">
        <ele>133.6</ele>
        <time>2010-11-19T17:54:33Z</time>
        <extensions><gpxtpx:TrackPointExtension><gpxtpx:hr>139</gpxtpx:hr></gpxtpx:TrackPointExtension></extensions>
      </trkpt>
      <trkpt lat="57.8019584959" lon="14.2780463016">
        <ele>134</ele>
        <time>2010-11-19T17:54:34Z</time>
        <extensions><gpxtpx:TrackPointExtension><gpxtpx:hr>139</gpxtpx:hr></gpxtpx:TrackPointExtension></extensions>
      </trkpt>
      <trkpt lat="57.8020068594" lon="14.2780338964">
        <ele>134.2</ele>
        <time>2010-11-19T17:54:36Z</time>
        <extensions><gpxtpx:TrackPointExtension><gpxtpx:hr>138</gpxtpx:hr></gpxtpx:TrackPointExtension></extensions>
      </trkpt>
      <trkpt lat="57.8020548877" lon="14.2780240058">
        <ele>134.4</ele>
        <time>2010-11-19T17:54:39Z</time>
        <extensions><gpxtpx:TrackPointExtension><gpxtpx:hr>138</gpxtpx:hr></gpxtpx:TrackPointExtension></extensions>
      </trkpt>
      <trkpt lat="57.8021004852" lon="14.2780235867">
        <ele>134.4</ele>
        <time>2010-11-19T17:54:41Z</time>
        <extensions><gpxtpx:TrackPointExtension><gpxtpx:hr>137</gpxtpx:hr></gpxtpx:TrackPointExtension></extensions>
      </trkpt>
      <trkpt lat="57.8021490164" lon="14.2780069905">
        <ele>134.6</ele>
        <time>2010-11-19T17:54:43Z</time>
        <extensions><gpxtpx:TrackPointExtension><gpxtpx:hr>137</gpxtpx:hr></gpxtpx:TrackPointExtension></extensions>
      </trkpt>
      <trkpt lat="57.802199224" lon="14.2780017938">
        <ele>135</ele>
        <time>2010-11-19T17:54:44Z</time>
        <extensions><gpxtpx:TrackPointExtension><gpxtpx:hr>135</gpxtpx:hr></gpxtpx:TrackPointExtension></extensions>
      </trkpt>
      <trkpt lat="57.8022500183" lon="14.277994753">
        <ele>135.4</ele>
        <time>2010-11-19T17:54:46Z</time>
        <extensions><gpxtpx:TrackPointExtension><gpxtpx:hr>134</gpxtpx:hr></gpxtpx:TrackPointExtension></extensions>
      </trkpt>
      <trkpt lat="57.8023029919" lon="14.2779974352">
        <ele>135.8</ele>
        <time>2010-11-19T17:54:49Z</time>
        <extensions><gpxtpx:TrackPointExtension><gpxtpx:hr>134</gpxtpx:hr></gpxtpx:TrackPointExtension></extensions>
      </trkpt>
      <trkpt lat="57.8023485057" lon="14.2779904782">
        <ele>136</ele>
        <time>2010-11-19T17:54:51Z</time>
        <extensions><gpxtpx:TrackPointExtension><gpxtpx:hr>135</gpxtpx:hr></gpxtpx:TrackPointExtension></extensions>
      </trkpt>
      <trkpt lat="57.8024111185" lon="14.2779988601">
        <ele>136.4</ele>
        <time>2010-11-19T17:54:54Z</time>
        <extensions><gpxtpx:TrackPointExtension><gpxtpx:hr>134</gpxtpx:hr></gpxtpx:TrackPointExtension></extensions>
      </trkpt>
      <trkpt lat="57.8024597335" lon="14.2779869578">
        <ele>136.6</ele>
        <time>2010-11-19T17:54:56Z</time>
        <extensions><gpxtpx:TrackPointExtension><gpxtpx:hr>134</gpxtpx:hr></gpxtpx:TrackPointExtension></extensions>
      </trkpt>
      <trkpt lat="57.8025086838" lon="14.2779880474">
        <ele>136.6</ele>
        <time>2010-11-19T17:54:57Z</time>
        <extensions><gpxtpx:TrackPointExtension><gpxtpx:hr>135</gpxtpx:hr></gpxtpx:TrackPointExtension></extensions>
      </trkpt>
      <trkpt lat="57.8025570473" lon="14.2779994468">
        <ele>136.8</ele>
        <time>2010-11-19T17:54:59Z</time>
        <extensions><gpxtpx:TrackPointExtension><gpxtpx:hr>135</gpxtpx:hr></gpxtpx:TrackPointExtension></extensions>
      </trkpt>
      <trkpt lat="57.8026090989" lon="14.2780163783">
        <ele>136.8</ele>
        <time>2010-11-19T17:55:02Z</time>
        <extensions><gpxtpx:TrackPointExtension><gpxtpx:hr>134</gpxtpx:hr></gpxtpx:TrackPointExtension></extensions>
      </trkpt>
      <trkpt lat="57.8026784172" lon="14.278030376">
        <ele>137</ele>
        <time>2010-11-19T17:55:04Z</time>
        <extensions><gpxtpx:TrackPointExtension><gpxtpx:hr>133</gpxtpx:hr></gpxtpx:TrackPointExtension></extensions>
      </trkpt>
      <trkpt lat="57.8027472326" lon="14.278054013">
        <ele>137</ele>
        <time>2010-11-19T17:55:08Z</time>
        <extensions><gpxtpx:TrackPointExtension><gpxtpx:hr>134</gpxtpx:hr></gpxtpx:TrackPointExtension></extensions>
      </trkpt>
      <trkpt lat="57.8027917405" lon="14.2780814218">
        <ele>137</ele>
        <time>2010-11-19T17:55:09Z</time>
        <extensions><gpxtpx:TrackPointExtension><gpxtpx:hr>135</gpxtpx:hr></gpxtpx:TrackPointExtension></extensions>
      </trkpt>
      <trkpt lat="57.8028411937" lon="14.2781074057">
        <ele>137</ele>
        <time>2010-11-19T17:55:11Z</time>
        <extensions><gpxtpx:TrackPointExtension><gpxtpx:hr>135</gpxtpx:hr></gpxtpx:TrackPointExtension></extensions>
      </trkpt>
      <trkpt lat="57.8028914851" lon="14.2781461301">
        <ele>137.4</ele>
        <time>2010-11-19T17:55:14Z</time>
        <extensions><gpxtpx:TrackPointExtension><gpxtpx:hr>136</gpxtpx:hr></gpxtpx:TrackPointExtension></extensions>
      </trkpt>
      <trkpt lat="57.8029361607" lon="14.2781830104">
        <ele>137.8</ele>
        <time>2010-11-19T17:55:18Z</time>
        <extensions><gpxtpx:TrackPointExtension><gpxtpx:hr>138</gpxtpx:hr></gpxtpx:TrackPointExtension></extensions>
      </trkpt>
      <trkpt lat="57.8029955883" lon="14.2782093296">
        <ele>138.2</ele>
        <time>2010-11-19T17:55:21Z</time>
        <extensions><gpxtpx:TrackPointExtension><gpxtpx:hr>138</gpxtpx:hr></gpxtpx:TrackPointExtension></extensions>
      </trkpt>
      <trkpt lat="57.8030571115" lon="14.2782646501">
        <ele>138.4</ele>
        <time>2010-11-19T17:55:24Z</time>
        <extensions><gpxtpx:TrackPointExtension><gpxtpx:hr>140</gpxtpx:hr></gpxtpx:TrackPointExtension></extensions>
      </trkpt>
      <trkpt lat="57.803103631" lon="14.2783001056">
        <ele>138.6</ele>
        <time>2010-11-19T17:55:26Z</time>
        <extensions><gpxtpx:TrackPointExtension><gpxtpx:hr>141</gpxtpx:hr></gpxtpx:TrackPointExtension></extensions>
      </trkpt>
      <trkpt lat="57.8031507373" lon="14.278332795">
        <ele>138.8</ele>
        <time>2010-11-19T17:55:27Z</time>
        <extensions><gpxtpx:TrackPointExtension><gpxtpx:hr>142</gpxtpx:hr></gpxtpx:TrackPointExtension></extensions>
      </trkpt>
      <trkpt lat="57.8031993523" lon="14.2783772191">
        <ele>138.8</ele>
        <time>2010-11-19T17:55:29Z</time>
        <extensions><gpxtpx:TrackPointExtension><gpxtpx:hr>145</gpxtpx:hr></gpxtpx:TrackPointExtension></extensions>
      </trkpt>
      <trkpt lat="57.8032525774" lon="14.2784000178">
        <ele>138.8</ele>
        <time>2010-11-19T17:55:31Z</time>
        <extensions><gpxtpx:TrackPointExtension><gpxtpx:hr>146</gpxtpx:hr></gpxtpx:TrackPointExtension></extensions>
      </trkpt>
      <trkpt lat="57.8033373184" lon="14.2784259179">
        <ele>139</ele>
        <time>2010-11-19T17:55:34Z</time>
        <extensions><gpxtpx:TrackPointExtension><gpxtpx:hr>150</gpxtpx:hr></gpxtpx:TrackPointExtension></extensions>
      </trkpt>
      <trkpt lat="57.8033973328" lon="14.2784366467">
        <ele>139.2</ele>
        <time>2010-11-19T17:55:37Z</time>
        <extensions><gpxtpx:TrackPointExtension><gpxtpx:hr>152</gpxtpx:hr></gpxtpx:TrackPointExtension></extensions>
      </trkpt>
      <trkpt lat="57.8034688304" lon="14.2784710963">
        <ele>139.6</ele>
        <time>2010-11-19T17:55:39Z</time>
        <extensions><gpxtpx:TrackPointExtension><gpxtpx:hr>155</gpxtpx:hr></gpxtpx:TrackPointExtension></extensions>
      </trkpt>
      <trkpt lat="57.8035334549" lon="14.2785177835">
        <ele>140</ele>
        <time>2010-11-19T17:55:41Z</time>
        <extensions><gpxtpx:TrackPointExtension><gpxtpx:hr>156</gpxtpx:hr></gpxtpx:TrackPointExtension></extensions>
      </trkpt>
      <trkpt lat="57.8036041143" lon="14.2785586034">
        <ele>140.2</ele>
        <time>2010-11-19T17:55:43Z</time>
        <extensions><gpxtpx:TrackPointExtension><gpxtpx:hr>158</gpxtpx:hr></gpxtpx:TrackPointExtension></extensions>
      </trkpt>
      <trkpt lat="57.8036694093" lon="14.2785775465">
        <ele>140.4</ele>
        <time>2010-11-19T17:55:44Z</time>
        <extensions><gpxtpx:TrackPointExtension><gpxtpx:hr>161</gpxtpx:hr></gpxtpx:TrackPointExtension></extensions>
      </trkpt>
      <trkpt lat="57.8037409907" lon="14.2786316935">
        <ele>140.6</ele>
        <time>2010-11-19T17:55:47Z</time>
        <extensions><gpxtpx:TrackPointExtension><gpxtpx:hr>162</gpxtpx:hr></gpxtpx:TrackPointExtension></extensions>
      </trkpt>
      <trkpt lat="57.803803855" lon="14.2786709208">
        <ele>140.8</ele>
        <time>2010-11-19T17:55:49Z</time>
        <extensions><gpxtpx:TrackPointExtension><gpxtpx:hr>163</gpxtpx:hr></gpxtpx:TrackPointExtension></extensions>
      </trkpt>
      <trkpt lat="57.8038671383" lon="14.2786995031">
        <ele>141.4</ele>
        <time>2010-11-19T17:55:51Z</time>
        <extensions><gpxtpx:TrackPointExtension><gpxtpx:hr>165</gpxtpx:hr></gpxtpx:TrackPointExtension></extensions>
      </trkpt>
      <trkpt lat="57.8039348641" lon="14.2787401553">
        <ele>141.6</ele>
        <time>2010-11-19T17:55:53Z</time>
        <extensions><gpxtpx:TrackPointExtension><gpxtpx:hr>166</gpxtpx:hr></gpxtpx:TrackPointExtension></extensions>
      </trkpt>
      <trkpt lat="57.8040003267" lon="14.2787818134">
        <ele>142</ele>
        <time>2010-11-19T17:55:55Z</time>
        <extensions><gpxtpx:TrackPointExtension><gpxtpx:hr>168</gpxtpx:hr></gpxtpx:TrackPointExtension></extensions>
      </trkpt>
      <trkpt lat="57.8040415656" lon="14.2787954759">
        <ele>142.2</ele>
        <time>2010-11-19T17:55:57Z</time>
        <extensions><gpxtpx:TrackPointExtension><gpxtpx:hr>168</gpxtpx:hr></gpxtpx:TrackPointExtension></extensions>
      </trkpt>
      <trkpt lat="57.8040507857" lon="14.2787936319">
        <ele>142.4</ele>
        <time>2010-11-19T17:55:58Z</time>
        <extensions><gpxtpx:TrackPointExtension><gpxtpx:hr>169</gpxtpx:hr></gpxtpx:TrackPointExtension></extensions>
      </trkpt>
      <trkpt lat="57.8040570722" lon="14.2787821486">
        <ele>143.8</ele>
        <time>2010-11-19T17:56:04Z</time>
        <extensions><gpxtpx:TrackPointExtension><gpxtpx:hr>166</gpxtpx:hr></gpxtpx:TrackPointExtension></extensions>
      </trkpt>
      <trkpt lat="57.8040574913" lon="14.2787794664">
        <ele>144.2</ele>
        <time>2010-11-19T17:56:06Z</time>
        <extensions><gpxtpx:TrackPointExtension><gpxtpx:hr>162</gpxtpx:hr></gpxtpx:TrackPointExtension></extensions>
      </trkpt>
      <trkpt lat="57.8040585809" lon="14.2787772871">
        <ele>144.4</ele>
        <time>2010-11-19T17:56:09Z</time>
        <extensions><gpxtpx:TrackPointExtension><gpxtpx:hr>157</gpxtpx:hr></gpxtpx:TrackPointExtension></extensions>
      </trkpt>
      <trkpt lat="57.8040609278" lon="14.2787772871">
        <ele>145</ele>
        <time>2010-11-19T17:56:12Z</time>
        <extensions><gpxtpx:TrackPointExtension><gpxtpx:hr>151</gpxtpx:hr></gpxtpx:TrackPointExtension></extensions>
      </trkpt>
      <trkpt lat="57.8040631071" lon="14.2787740182">
        <ele>146</ele>
        <time>2010-11-19T17:56:17Z</time>
        <extensions><gpxtpx:TrackPointExtension><gpxtpx:hr>146</gpxtpx:hr></gpxtpx:TrackPointExtension></extensions>
      </trkpt>
      <trkpt lat="57.8040660408" lon="14.278765301">
        <ele>146.6</ele>
        <time>2010-11-19T17:56:21Z</time>
        <extensions><gpxtpx:TrackPointExtension><gpxtpx:hr>141</gpxtpx:hr></gpxtpx:TrackPointExtension></extensions>
      </trkpt>
      <trkpt lat="57.8041056034" lon="14.2787785444">
        <ele>147.6</ele>
        <time>2010-11-19T17:56:26Z</time>
        <extensions><gpxtpx:TrackPointExtension><gpxtpx:hr>139</gpxtpx:hr></gpxtpx:TrackPointExtension></extensions>
      </trkpt>
      <trkpt lat="57.8041662883" lon="14.2788253993">
        <ele>148.2</ele>
        <time>2010-11-19T17:56:29Z</time>
        <extensions><gpxtpx:TrackPointExtension><gpxtpx:hr>139</gpxtpx:hr></gpxtpx:TrackPointExtension></extensions>
      </trkpt>
      <trkpt lat="57.8042047612" lon="14.2788739305">
        <ele>148.4</ele>
        <time>2010-11-19T17:56:31Z</time>
        <extensions><gpxtpx:TrackPointExtension><gpxtpx:hr>140</gpxtpx:hr></gpxtpx:TrackPointExtension></extensions>
      </trkpt>
      <trkpt lat="57.8042595789" lon="14.2789269041">
        <ele>148.8</ele>
        <time>2010-11-19T17:56:34Z</time>
        <extensions><gpxtpx:TrackPointExtension><gpxtpx:hr>143</gpxtpx:hr></gpxtpx:TrackPointExtension></extensions>
      </trkpt>
      <trkpt lat="57.8043161567" lon="14.2789735074">
        <ele>149</ele>
        <time>2010-11-19T17:56:37Z</time>
        <extensions><gpxtpx:TrackPointExtension><gpxtpx:hr>145</gpxtpx:hr></gpxtpx:TrackPointExtension></extensions>
      </trkpt>
      <trkpt lat="57.804363263" lon="14.2790091305">
        <ele>149.4</ele>
        <time>2010-11-19T17:56:39Z</time>
        <extensions><gpxtpx:TrackPointExtension><gpxtpx:hr>146</gpxtpx:hr></gpxtpx:TrackPointExtension></extensions>
      </trkpt>
      <trkpt lat="57.8044278036" lon="14.2790517944">
        <ele>150</ele>
        <time>2010-11-19T17:56:42Z</time>
        <extensions><gpxtpx:TrackPointExtension><gpxtpx:hr>146</gpxtpx:hr></gpxtpx:TrackPointExtension></extensions>
      </trkpt>
      <trkpt lat="57.8044856387" lon="14.2790910217">
        <ele>150.6</ele>
        <time>2010-11-19T17:56:45Z</time>
        <extensions><gpxtpx:TrackPointExtension><gpxtpx:hr>147</gpxtpx:hr></gpxtpx:TrackPointExtension></extensions>
      </trkpt>
      <trkpt lat="57.8045287217" lon="14.2791284049">
        <ele>150.8</ele>
        <time>2010-11-19T17:56:47Z</time>
        <extensions><gpxtpx:TrackPointExtension><gpxtpx:hr>147</gpxtpx:hr></gpxtpx:TrackPointExtension></extensions>
      </trkpt>
      <trkpt lat="57.8045739839" lon="14.2791593341">
        <ele>151</ele>
        <time>2010-11-19T17:56:49Z</time>
        <extensions><gpxtpx:TrackPointExtension><gpxtpx:hr>147</gpxtpx:hr></gpxtpx:TrackPointExtension></extensions>
      </trkpt>
      <trkpt lat="57.8046176536" lon="14.2792099608">
        <ele>151.6</ele>
        <time>2010-11-19T17:56:51Z</time>
        <extensions><gpxtpx:TrackPointExtension><gpxtpx:hr>148</gpxtpx:hr></gpxtpx:TrackPointExtension></extensions>
      </trkpt>
      <trkpt lat="57.8046192462" lon="14.2791974718">
        <ele>152</ele>
        <time>2010-11-19T17:56:53Z</time>
        <extensions><gpxtpx:TrackPointExtension><gpxtpx:hr>147</gpxtpx:hr></gpxtpx:TrackPointExtension></extensions>
      </trkpt>
      <trkpt lat="57.8046232695" lon="14.2791660397">
        <ele>152.2</ele>
        <time>2010-11-19T17:56:54Z</time>
        <extensions><gpxtpx:TrackPointExtension><gpxtpx:hr>147</gpxtpx:hr></gpxtpx:TrackPointExtension></extensions>
      </trkpt>
      <trkpt lat="57.8046324896" lon="14.2791564005">
        <ele>152.6</ele>
        <time>2010-11-19T17:56:57Z</time>
        <extensions><gpxtpx:TrackPointExtension><gpxtpx:hr>147</gpxtpx:hr></gpxtpx:TrackPointExtension></extensions>
      </trkpt>
      <trkpt lat="57.8046658496" lon="14.2792269761">
        <ele>153</ele>
        <time>2010-11-19T17:57:00Z</time>
        <extensions><gpxtpx:TrackPointExtension><gpxtpx:hr>146</gpxtpx:hr></gpxtpx:TrackPointExtension></extensions>
      </trkpt>
      <trkpt lat="57.8047014726" lon="14.2792961268">
        <ele>153.2</ele>
        <time>2010-11-19T17:57:02Z</time>
        <extensions><gpxtpx:TrackPointExtension><gpxtpx:hr>145</gpxtpx:hr></gpxtpx:TrackPointExtension></extensions>
      </trkpt>
      <trkpt lat="57.804744388" lon="14.2793672053">
        <ele>153.4</ele>
        <time>2010-11-19T17:57:04Z</time>
        <extensions><gpxtpx:TrackPointExtension><gpxtpx:hr>144</gpxtpx:hr></gpxtpx:TrackPointExtension></extensions>
      </trkpt>
      <trkpt lat="57.8047876386" lon="14.2794306563">
        <ele>153.8</ele>
        <time>2010-11-19T17:57:06Z</time>
        <extensions><gpxtpx:TrackPointExtension><gpxtpx:hr>143</gpxtpx:hr></gpxtpx:TrackPointExtension></extensions>
      </trkpt>
      <trkpt lat="57.80482125" lon="14.2794920956">
        <ele>154.2</ele>
        <time>2010-11-19T17:57:08Z</time>
        <extensions><gpxtpx:TrackPointExtension><gpxtpx:hr>142</gpxtpx:hr></gpxtpx:TrackPointExtension></extensions>
      </trkpt>
      <trkpt lat="57.8048525145" lon="14.27955672">
        <ele>154.6</ele>
        <time>2010-11-19T17:57:09Z</time>
        <extensions><gpxtpx:TrackPointExtension><gpxtpx:hr>142</gpxtpx:hr></gpxtpx:TrackPointExtension></extensions>
      </trkpt>
      <trkpt lat="57.8048862935" lon="14.2796287205">
        <ele>155</ele>
        <time>2010-11-19T17:57:12Z</time>
        <extensions><gpxtpx:TrackPointExtension><gpxtpx:hr>141</gpxtpx:hr></gpxtpx:TrackPointExtension></extensions>
      </trkpt>
      <trkpt lat="57.8049209946" lon="14.2796980389">
        <ele>155.2</ele>
        <time>2010-11-19T17:57:14Z</time>
        <extensions><gpxtpx:TrackPointExtension><gpxtpx:hr>140</gpxtpx:hr></gpxtpx:TrackPointExtension></extensions>
      </trkpt>
      <trkpt lat="57.8049566177" lon="14.2797597296">
        <ele>155.2</ele>
        <time>2010-11-19T17:57:16Z</time>
        <extensions><gpxtpx:TrackPointExtension><gpxtpx:hr>140</gpxtpx:hr></gpxtpx:TrackPointExtension></extensions>
      </trkpt>
      <trkpt lat="57.80499442" lon="14.2798217557">
        <ele>155.4</ele>
        <time>2010-11-19T17:57:18Z</time>
        <extensions><gpxtpx:TrackPointExtension><gpxtpx:hr>139</gpxtpx:hr></gpxtpx:TrackPointExtension></extensions>
      </trkpt>
      <trkpt lat="57.8050273609" lon="14.2798779144">
        <ele>156</ele>
        <time>2010-11-19T17:57:20Z</time>
        <extensions><gpxtpx:TrackPointExtension><gpxtpx:hr>138</gpxtpx:hr></gpxtpx:TrackPointExtension></extensions>
      </trkpt>
      <trkpt lat="57.8050475613" lon="14.2799002103">
        <ele>156.2</ele>
        <time>2010-11-19T17:57:21Z</time>
        <extensions><gpxtpx:TrackPointExtension><gpxtpx:hr>138</gpxtpx:hr></gpxtpx:TrackPointExtension></extensions>
      </trkpt>
      <trkpt lat="57.8051067375" lon="14.2800266932">
        <ele>156.8</ele>
        <time>2010-11-19T17:57:25Z</time>
        <extensions><gpxtpx:TrackPointExtension><gpxtpx:hr>138</gpxtpx:hr></gpxtpx:TrackPointExtension></extensions>
      </trkpt>
      <trkpt lat="57.8051535923" lon="14.2801137811">
        <ele>157.2</ele>
        <time>2010-11-19T17:57:27Z</time>
        <extensions><gpxtpx:TrackPointExtension><gpxtpx:hr>138</gpxtpx:hr></gpxtpx:TrackPointExtension></extensions>
      </trkpt>
      <trkpt lat="57.805200028" lon="14.2801952532">
        <ele>157.4</ele>
        <time>2010-11-19T17:57:31Z</time>
        <extensions><gpxtpx:TrackPointExtension><gpxtpx:hr>139</gpxtpx:hr></gpxtpx:TrackPointExtension></extensions>
      </trkpt>
      <trkpt lat="57.8052464638" lon="14.280274043">
        <ele>158</ele>
        <time>2010-11-19T17:57:34Z</time>
        <extensions><gpxtpx:TrackPointExtension><gpxtpx:hr>141</gpxtpx:hr></gpxtpx:TrackPointExtension></extensions>
      </trkpt>
      <trkpt lat="57.8053017843" lon="14.2803441157">
        <ele>158.6</ele>
        <time>2010-11-19T17:57:37Z</time>
        <extensions><gpxtpx:TrackPointExtension><gpxtpx:hr>144</gpxtpx:hr></gpxtpx:TrackPointExtension></extensions>
      </trkpt>
      <trkpt lat="57.8053460407" lon="14.2804136017">
        <ele>159</ele>
        <time>2010-11-19T17:57:39Z</time>
        <extensions><gpxtpx:TrackPointExtension><gpxtpx:hr>147</gpxtpx:hr></gpxtpx:TrackPointExtension></extensions>
      </trkpt>
      <trkpt lat="57.8053937337" lon="14.2804561817">
        <ele>159.6</ele>
        <time>2010-11-19T17:57:43Z</time>
        <extensions><gpxtpx:TrackPointExtension><gpxtpx:hr>150</gpxtpx:hr></gpxtpx:TrackPointExtension></extensions>
      </trkpt>
      <trkpt lat="57.8054340507" lon="14.280469928">
        <ele>160</ele>
        <time>2010-11-19T17:57:45Z</time>
        <extensions><gpxtpx:TrackPointExtension><gpxtpx:hr>152</gpxtpx:hr></gpxtpx:TrackPointExtension></extensions>
      </trkpt>
      <trkpt lat="57.8055181211" lon="14.2804277671">
        <ele>160.8</ele>
        <time>2010-11-19T17:57:49Z</time>
        <extensions><gpxtpx:TrackPointExtension><gpxtpx:hr>155</gpxtpx:hr></gpxtpx:TrackPointExtension></extensions>
      </trkpt>
      <trkpt lat="57.8055692507" lon="14.2804196366">
        <ele>161</ele>
        <time>2010-11-19T17:57:51Z</time>
        <extensions><gpxtpx:TrackPointExtension><gpxtpx:hr>157</gpxtpx:hr></gpxtpx:TrackPointExtension></extensions>
      </trkpt>
      <trkpt lat="57.8056199612" lon="14.2803822534">
        <ele>161.6</ele>
        <time>2010-11-19T17:57:53Z</time>
        <extensions><gpxtpx:TrackPointExtension><gpxtpx:hr>158</gpxtpx:hr></gpxtpx:TrackPointExtension></extensions>
      </trkpt>
      <trkpt lat="57.8056679895" lon="14.2803280225">
        <ele>162</ele>
        <time>2010-11-19T17:57:55Z</time>
        <extensions><gpxtpx:TrackPointExtension><gpxtpx:hr>160</gpxtpx:hr></gpxtpx:TrackPointExtension></extensions>
      </trkpt>
      <trkpt lat="57.805686765" lon="14.2802805809">
        <ele>162.2</ele>
        <time>2010-11-19T17:57:56Z</time>
        <extensions><gpxtpx:TrackPointExtension><gpxtpx:hr>160</gpxtpx:hr></gpxtpx:TrackPointExtension></extensions>
      </trkpt>
      <trkpt lat="57.805721466" lon="14.2801886315">
        <ele>162.6</ele>
        <time>2010-11-19T17:57:58Z</time>
        <extensions><gpxtpx:TrackPointExtension><gpxtpx:hr>161</gpxtpx:hr></gpxtpx:TrackPointExtension></extensions>
      </trkpt>
      <trkpt lat="57.8057661416" lon="14.2801094225">
        <ele>163</ele>
        <time>2010-11-19T17:58:00Z</time>
        <extensions><gpxtpx:TrackPointExtension><gpxtpx:hr>163</gpxtpx:hr></gpxtpx:TrackPointExtension></extensions>
      </trkpt>
      <trkpt lat="57.8058186961" lon="14.2800490728">
        <ele>163.6</ele>
        <time>2010-11-19T17:58:02Z</time>
        <extensions><gpxtpx:TrackPointExtension><gpxtpx:hr>164</gpxtpx:hr></gpxtpx:TrackPointExtension></extensions>
      </trkpt>
      <trkpt lat="57.8058730108" lon="14.2799861248">
        <ele>164.2</ele>
        <time>2010-11-19T17:58:04Z</time>
        <extensions><gpxtpx:TrackPointExtension><gpxtpx:hr>165</gpxtpx:hr></gpxtpx:TrackPointExtension></extensions>
      </trkpt>
      <trkpt lat="57.8059152556" lon="14.27991052">
        <ele>164.6</ele>
        <time>2010-11-19T17:58:06Z</time>
        <extensions><gpxtpx:TrackPointExtension><gpxtpx:hr>165</gpxtpx:hr></gpxtpx:TrackPointExtension></extensions>
      </trkpt>
      <trkpt lat="57.8059722525" lon="14.2798624079">
        <ele>165.6</ele>
        <time>2010-11-19T17:58:08Z</time>
        <extensions><gpxtpx:TrackPointExtension><gpxtpx:hr>166</gpxtpx:hr></gpxtpx:TrackPointExtension></extensions>
      </trkpt>
      <trkpt lat="57.8059935425" lon="14.2798403635">
        <ele>165.8</ele>
        <time>2010-11-19T17:58:09Z</time>
        <extensions><gpxtpx:TrackPointExtension><gpxtpx:hr>166</gpxtpx:hr></gpxtpx:TrackPointExtension></extensions>
      </trkpt>
      <trkpt lat="57.8060685605" lon="14.2798059977">
        <ele>167</ele>
        <time>2010-11-19T17:58:12Z</time>
        <extensions><gpxtpx:TrackPointExtension><gpxtpx:hr>167</gpxtpx:hr></gpxtpx:TrackPointExtension></extensions>
      </trkpt>
      <trkpt lat="57.8061206121" lon="14.2797774993">
        <ele>167.8</ele>
        <time>2010-11-19T17:58:14Z</time>
        <extensions><gpxtpx:TrackPointExtension><gpxtpx:hr>167</gpxtpx:hr></gpxtpx:TrackPointExtension></extensions>
      </trkpt>
      <trkpt lat="57.8061433271" lon="14.2797664352">
        <ele>168</ele>
        <time>2010-11-19T17:58:15Z</time>
        <extensions><gpxtpx:TrackPointExtension><gpxtpx:hr>167</gpxtpx:hr></gpxtpx:TrackPointExtension></extensions>
      </trkpt>
      <trkpt lat="57.8061893437" lon="14.2797375176">
        <ele>168.8</ele>
        <time>2010-11-19T17:58:17Z</time>
        <extensions><gpxtpx:TrackPointExtension><gpxtpx:hr>167</gpxtpx:hr></gpxtpx:TrackPointExtension></extensions>
      </trkpt>
      <trkpt lat="57.8062425688" lon="14.2797099412">
        <ele>169.6</ele>
        <time>2010-11-19T17:58:19Z</time>
        <extensions><gpxtpx:TrackPointExtension><gpxtpx:hr>167</gpxtpx:hr></gpxtpx:TrackPointExtension></extensions>
      </trkpt>
      <trkpt lat="57.8062994819" lon="14.2796963625">
        <ele>170.4</ele>
        <time>2010-11-19T17:58:21Z</time>
        <extensions><gpxtpx:TrackPointExtension><gpxtpx:hr>166</gpxtpx:hr></gpxtpx:TrackPointExtension></extensions>
      </trkpt>
      <trkpt lat="57.8063526231" lon="14.2796664391">
        <ele>171.4</ele>
        <time>2010-11-19T17:58:23Z</time>
        <extensions><gpxtpx:TrackPointExtension><gpxtpx:hr>166</gpxtpx:hr></gpxtpx:TrackPointExtension></extensions>
      </trkpt>
      <trkpt lat="57.8063927724" lon="14.2796514355">
        <ele>172</ele>
        <time>2010-11-19T17:58:24Z</time>
        <extensions><gpxtpx:TrackPointExtension><gpxtpx:hr>165</gpxtpx:hr></gpxtpx:TrackPointExtension></extensions>
      </trkpt>
      <trkpt lat="57.8064579836" lon="14.2796318219">
        <ele>173</ele>
        <time>2010-11-19T17:58:27Z</time>
        <extensions><gpxtpx:TrackPointExtension><gpxtpx:hr>165</gpxtpx:hr></gpxtpx:TrackPointExtension></extensions>
      </trkpt>
      <trkpt lat="57.806506431" lon="14.279614136">
        <ele>173.8</ele>
        <time>2010-11-19T17:58:29Z</time>
        <extensions><gpxtpx:TrackPointExtension><gpxtpx:hr>166</gpxtpx:hr></gpxtpx:TrackPointExtension></extensions>
      </trkpt>
      <trkpt lat="57.8065509389" lon="14.2796124597">
        <ele>174.6</ele>
        <time>2010-11-19T17:58:31Z</time>
        <extensions><gpxtpx:TrackPointExtension><gpxtpx:hr>166</gpxtpx:hr></gpxtpx:TrackPointExtension></extensions>
      </trkpt>
      <trkpt lat="57.8066186646" lon="14.2796268765">
        <ele>176</ele>
        <time>2010-11-19T17:58:34Z</time>
        <extensions><gpxtpx:TrackPointExtension><gpxtpx:hr>166</gpxtpx:hr></gpxtpx:TrackPointExtension></extensions>
      </trkpt>
      <trkpt lat="57.806664346" lon="14.2796236076">
        <ele>176.8</ele>
        <time>2010-11-19T17:58:36Z</time>
        <extensions><gpxtpx:TrackPointExtension><gpxtpx:hr>166</gpxtpx:hr></gpxtpx:TrackPointExtension></extensions>
      </trkpt>
      <trkpt lat="57.8067391125" lon="14.2796153933">
        <ele>178.2</ele>
        <time>2010-11-19T17:58:39Z</time>
        <extensions><gpxtpx:TrackPointExtension><gpxtpx:hr>166</gpxtpx:hr></gpxtpx:TrackPointExtension></extensions>
      </trkpt>
      <trkpt lat="57.8067893201" lon="14.279619249">
        <ele>178.8</ele>
        <time>2010-11-19T17:58:41Z</time>
        <extensions><gpxtpx:TrackPointExtension><gpxtpx:hr>166</gpxtpx:hr></gpxtpx:TrackPointExtension></extensions>
      </trkpt>
      <trkpt lat="57.8068535255" lon="14.2796479989">
        <ele>180.2</ele>
        <time>2010-11-19T17:58:44Z</time>
        <extensions><gpxtpx:TrackPointExtension><gpxtpx:hr>167</gpxtpx:hr></gpxtpx:TrackPointExtension></extensions>
      </trkpt>
      <trkpt lat="57.806907002" lon="14.2796552074">
        <ele>181</ele>
        <time>2010-11-19T17:58:46Z</time>
        <extensions><gpxtpx:TrackPointExtension><gpxtpx:hr>167</gpxtpx:hr></gpxtpx:TrackPointExtension></extensions>
      </trkpt>
      <trkpt lat="57.8069531862" lon="14.2796801854">
        <ele>181.8</ele>
        <time>2010-11-19T17:58:48Z</time>
        <extensions><gpxtpx:TrackPointExtension><gpxtpx:hr>167</gpxtpx:hr></gpxtpx:TrackPointExtension></extensions>
      </trkpt>
      <trkpt lat="57.8069953472" lon="14.2797005534">
        <ele>182.6</ele>
        <time>2010-11-19T17:58:49Z</time>
        <extensions><gpxtpx:TrackPointExtension><gpxtpx:hr>167</gpxtpx:hr></gpxtpx:TrackPointExtension></extensions>
      </trkpt>
      <trkpt lat="57.8070460577" lon="14.2797217596">
        <ele>183.2</ele>
        <time>2010-11-19T17:58:52Z</time>
        <extensions><gpxtpx:TrackPointExtension><gpxtpx:hr>167</gpxtpx:hr></gpxtpx:TrackPointExtension></extensions>
      </trkpt>
      <trkpt lat="57.8071012944" lon="14.2797469892">
        <ele>184.4</ele>
        <time>2010-11-19T17:58:54Z</time>
        <extensions><gpxtpx:TrackPointExtension><gpxtpx:hr>167</gpxtpx:hr></gpxtpx:TrackPointExtension></extensions>
      </trkpt>
      <trkpt lat="57.8071506638" lon="14.279769285">
        <ele>185.6</ele>
        <time>2010-11-19T17:58:57Z</time>
        <extensions><gpxtpx:TrackPointExtension><gpxtpx:hr>167</gpxtpx:hr></gpxtpx:TrackPointExtension></extensions>
      </trkpt>
      <trkpt lat="57.8071676791" lon="14.2797686983">
        <ele>185.8</ele>
        <time>2010-11-19T17:58:59Z</time>
        <extensions><gpxtpx:TrackPointExtension><gpxtpx:hr>167</gpxtpx:hr></gpxtpx:TrackPointExtension></extensions>
      </trkpt>
      <trkpt lat="57.8072174676" lon="14.2797800977">
        <ele>187</ele>
        <time>2010-11-19T17:59:02Z</time>
        <extensions><gpxtpx:TrackPointExtension><gpxtpx:hr>167</gpxtpx:hr></gpxtpx:TrackPointExtension></extensions>
      </trkpt>
      <trkpt lat="57.8072614725" lon="14.2797959395">
        <ele>187.8</ele>
        <time>2010-11-19T17:59:05Z</time>
        <extensions><gpxtpx:TrackPointExtension><gpxtpx:hr>167</gpxtpx:hr></gpxtpx:TrackPointExtension></extensions>
      </trkpt>
      <trkpt lat="57.8072944134" lon="14.2798058301">
        <ele>188.6</ele>
        <time>2010-11-19T17:59:08Z</time>
        <extensions><gpxtpx:TrackPointExtension><gpxtpx:hr>166</gpxtpx:hr></gpxtpx:TrackPointExtension></extensions>
      </trkpt>
      <trkpt lat="57.8073257617" lon="14.2798206661">
        <ele>189.6</ele>
        <time>2010-11-19T17:59:11Z</time>
        <extensions><gpxtpx:TrackPointExtension><gpxtpx:hr>164</gpxtpx:hr></gpxtpx:TrackPointExtension></extensions>
      </trkpt>
      <trkpt lat="57.8073483928" lon="14.2798305567">
        <ele>190.6</ele>
        <time>2010-11-19T17:59:14Z</time>
        <extensions><gpxtpx:TrackPointExtension><gpxtpx:hr>162</gpxtpx:hr></gpxtpx:TrackPointExtension></extensions>
      </trkpt>
      <trkpt lat="57.8073509074" lon="14.27982997">
        <ele>191</ele>
        <time>2010-11-19T17:59:17Z</time>
        <extensions><gpxtpx:TrackPointExtension><gpxtpx:hr>155</gpxtpx:hr></gpxtpx:TrackPointExtension></extensions>
      </trkpt>
      <trkpt lat="57.807353422" lon="14.2798308082">
        <ele>191.6</ele>
        <time>2010-11-19T17:59:20Z</time>
        <extensions><gpxtpx:TrackPointExtension><gpxtpx:hr>146</gpxtpx:hr></gpxtpx:TrackPointExtension></extensions>
      </trkpt>
      <trkpt lat="57.807356188" lon="14.2798309758">
        <ele>191.8</ele>
        <time>2010-11-19T17:59:21Z</time>
        <extensions><gpxtpx:TrackPointExtension><gpxtpx:hr>141</gpxtpx:hr></gpxtpx:TrackPointExtension></extensions>
      </trkpt>
      <trkpt lat="57.807367755" lon="14.2798421237">
        <ele>192.8</ele>
        <time>2010-11-19T17:59:24Z</time>
        <extensions><gpxtpx:TrackPointExtension><gpxtpx:hr>136</gpxtpx:hr></gpxtpx:TrackPointExtension></extensions>
      </trkpt>
      <trkpt lat="57.8073764722" lon="14.2798583846">
        <ele>193.6</ele>
        <time>2010-11-19T17:59:31Z</time>
        <extensions><gpxtpx:TrackPointExtension><gpxtpx:hr>130</gpxtpx:hr></gpxtpx:TrackPointExtension></extensions>
      </trkpt>
      <trkpt lat="57.8073804117" lon="14.2798619888">
        <ele>194.2</ele>
        <time>2010-11-19T17:59:33Z</time>
        <extensions><gpxtpx:TrackPointExtension><gpxtpx:hr>123</gpxtpx:hr></gpxtpx:TrackPointExtension></extensions>
      </trkpt>
      <trkpt lat="57.8073792382" lon="14.2798674371">
        <ele>194.6</ele>
        <time>2010-11-19T17:59:34Z</time>
        <extensions><gpxtpx:TrackPointExtension><gpxtpx:hr>118</gpxtpx:hr></gpxtpx:TrackPointExtension></extensions>
      </trkpt>
      <trkpt lat="57.8073792382" lon="14.2798689458">
        <ele>194.8</ele>
        <time>2010-11-19T17:59:36Z</time>
        <extensions><gpxtpx:TrackPointExtension><gpxtpx:hr>113</gpxtpx:hr></gpxtpx:TrackPointExtension></extensions>
      </trkpt>
      <trkpt lat="57.8073794897" lon="14.2798715442">
        <ele>195.4</ele>
        <time>2010-11-19T17:59:39Z</time>
        <extensions><gpxtpx:TrackPointExtension><gpxtpx:hr>106</gpxtpx:hr></gpxtpx:TrackPointExtension></extensions>
      </trkpt>
      <trkpt lat="57.8074218183" lon="14.2798956841">
        <ele>195.8</ele>
        <time>2010-11-19T17:59:44Z</time>
        <extensions><gpxtpx:TrackPointExtension><gpxtpx:hr>112</gpxtpx:hr></gpxtpx:TrackPointExtension></extensions>
      </trkpt>
      <trkpt lat="57.8074529151" lon="14.2799129508">
        <ele>196</ele>
        <time>2010-11-19T17:59:45Z</time>
        <extensions><gpxtpx:TrackPointExtension><gpxtpx:hr>119</gpxtpx:hr></gpxtpx:TrackPointExtension></extensions>
      </trkpt>
      <trkpt lat="57.8074975068" lon="14.2799196563">
        <ele>196.4</ele>
        <time>2010-11-19T17:59:48Z</time>
        <extensions><gpxtpx:TrackPointExtension><gpxtpx:hr>124</gpxtpx:hr></gpxtpx:TrackPointExtension></extensions>
      </trkpt>
      <trkpt lat="57.807547882" lon="14.2799295469">
        <ele>196.8</ele>
        <time>2010-11-19T17:59:49Z</time>
        <extensions><gpxtpx:TrackPointExtension><gpxtpx:hr>128</gpxtpx:hr></gpxtpx:TrackPointExtension></extensions>
      </trkpt>
      <trkpt lat="57.8075950721" lon="14.2799476518">
        <ele>197.2</ele>
        <time>2010-11-19T17:59:51Z</time>
        <extensions><gpxtpx:TrackPointExtension><gpxtpx:hr>131</gpxtpx:hr></gpxtpx:TrackPointExtension></extensions>
      </trkpt>
      <trkpt lat="57.8076652286" lon="14.2799686066">
        <ele>197.6</ele>
        <time>2010-11-19T17:59:54Z</time>
        <extensions><gpxtpx:TrackPointExtension><gpxtpx:hr>133</gpxtpx:hr></gpxtpx:TrackPointExtension></extensions>
      </trkpt>
      <trkpt lat="57.8077218903" lon="14.2800245977">
        <ele>198</ele>
        <time>2010-11-19T17:59:57Z</time>
        <extensions><gpxtpx:TrackPointExtension><gpxtpx:hr>133</gpxtpx:hr></gpxtpx:TrackPointExtension></extensions>
      </trkpt>
      <trkpt lat="57.807775283" lon="14.2800687703">
        <ele>198.2</ele>
        <time>2010-11-19T18:00:01Z</time>
        <extensions><gpxtpx:TrackPointExtension><gpxtpx:hr>134</gpxtpx:hr></gpxtpx:TrackPointExtension></extensions>
      </trkpt>
      <trkpt lat="57.8078332857" lon="14.2800981069">
        <ele>198.8</ele>
        <time>2010-11-19T18:00:03Z</time>
        <extensions><gpxtpx:TrackPointExtension><gpxtpx:hr>136</gpxtpx:hr></gpxtpx:TrackPointExtension></extensions>
      </trkpt>
      <trkpt lat="57.8078922105" lon="14.2801437045">
        <ele>199.4</ele>
        <time>2010-11-19T18:00:07Z</time>
        <extensions><gpxtpx:TrackPointExtension><gpxtpx:hr>135</gpxtpx:hr></gpxtpx:TrackPointExtension></extensions>
      </trkpt>
      <trkpt lat="57.8079592657" lon="14.2801864522">
        <ele>199.8</ele>
        <time>2010-11-19T18:00:09Z</time>
        <extensions><gpxtpx:TrackPointExtension><gpxtpx:hr>136</gpxtpx:hr></gpxtpx:TrackPointExtension></extensions>
      </trkpt>
      <trkpt lat="57.808006372" lon="14.2802219076">
        <ele>200</ele>
        <time>2010-11-19T18:00:11Z</time>
        <extensions><gpxtpx:TrackPointExtension><gpxtpx:hr>137</gpxtpx:hr></gpxtpx:TrackPointExtension></extensions>
      </trkpt>
      <trkpt lat="57.8080705773" lon="14.280257363">
        <ele>200.8</ele>
        <time>2010-11-19T18:00:14Z</time>
        <extensions><gpxtpx:TrackPointExtension><gpxtpx:hr>137</gpxtpx:hr></gpxtpx:TrackPointExtension></extensions>
      </trkpt>
      <trkpt lat="57.8081367943" lon="14.2802823411">
        <ele>201.4</ele>
        <time>2010-11-19T18:00:18Z</time>
        <extensions><gpxtpx:TrackPointExtension><gpxtpx:hr>138</gpxtpx:hr></gpxtpx:TrackPointExtension></extensions>
      </trkpt>
      <trkpt lat="57.8081785362" lon="14.2803160363">
        <ele>201.6</ele>
        <time>2010-11-19T18:00:19Z</time>
        <extensions><gpxtpx:TrackPointExtension><gpxtpx:hr>139</gpxtpx:hr></gpxtpx:TrackPointExtension></extensions>
      </trkpt>
      <trkpt lat="57.8082354493" lon="14.2803372426">
        <ele>202</ele>
        <time>2010-11-19T18:00:23Z</time>
        <extensions><gpxtpx:TrackPointExtension><gpxtpx:hr>138</gpxtpx:hr></gpxtpx:TrackPointExtension></extensions>
      </trkpt>
      <trkpt lat="57.8082812145" lon="14.2803819181">
        <ele>202.8</ele>
        <time>2010-11-19T18:00:26Z</time>
        <extensions><gpxtpx:TrackPointExtension><gpxtpx:hr>139</gpxtpx:hr></gpxtpx:TrackPointExtension></extensions>
      </trkpt>
      <trkpt lat="57.8082973077" lon="14.2803819181">
        <ele>203</ele>
        <time>2010-11-19T18:00:27Z</time>
        <extensions><gpxtpx:TrackPointExtension><gpxtpx:hr>139</gpxtpx:hr></gpxtpx:TrackPointExtension></extensions>
      </trkpt>
      <trkpt lat="57.8083952921" lon="14.2804484704">
        <ele>204</ele>
        <time>2010-11-19T18:00:33Z</time>
        <extensions><gpxtpx:TrackPointExtension><gpxtpx:hr>139</gpxtpx:hr></gpxtpx:TrackPointExtension></extensions>
      </trkpt>
      <trkpt lat="57.8084356091" lon="14.2804779747">
        <ele>204.4</ele>
        <time>2010-11-19T18:00:36Z</time>
        <extensions><gpxtpx:TrackPointExtension><gpxtpx:hr>140</gpxtpx:hr></gpxtpx:TrackPointExtension></extensions>
      </trkpt>
      <trkpt lat="57.8084738305" lon="14.2805249133">
        <ele>205.2</ele>
        <time>2010-11-19T18:00:39Z</time>
        <extensions><gpxtpx:TrackPointExtension><gpxtpx:hr>140</gpxtpx:hr></gpxtpx:TrackPointExtension></extensions>
      </trkpt>
      <trkpt lat="57.8085057656" lon="14.2805767973">
        <ele>205.8</ele>
        <time>2010-11-19T18:00:42Z</time>
        <extensions><gpxtpx:TrackPointExtension><gpxtpx:hr>141</gpxtpx:hr></gpxtpx:TrackPointExtension></extensions>
      </trkpt>
      <trkpt lat="57.8085429812" lon="14.2806132585">
        <ele>206.2</ele>
        <time>2010-11-19T18:00:44Z</time>
        <extensions><gpxtpx:TrackPointExtension><gpxtpx:hr>141</gpxtpx:hr></gpxtpx:TrackPointExtension></extensions>
      </trkpt>
      <trkpt lat="57.8085916801" lon="14.2806529049">
        <ele>206.4</ele>
        <time>2010-11-19T18:00:48Z</time>
        <extensions><gpxtpx:TrackPointExtension><gpxtpx:hr>143</gpxtpx:hr></gpxtpx:TrackPointExtension></extensions>
      </trkpt>
      <trkpt lat="57.8086385349" lon="14.2806992568">
        <ele>207</ele>
        <time>2010-11-19T18:00:51Z</time>
        <extensions><gpxtpx:TrackPointExtension><gpxtpx:hr>144</gpxtpx:hr></gpxtpx:TrackPointExtension></extensions>
      </trkpt>
      <trkpt lat="57.8086872337" lon="14.2807746101">
        <ele>207.8</ele>
        <time>2010-11-19T18:00:54Z</time>
        <extensions><gpxtpx:TrackPointExtension><gpxtpx:hr>146</gpxtpx:hr></gpxtpx:TrackPointExtension></extensions>
      </trkpt>
      <trkpt lat="57.8086978787" lon="14.2808518074">
        <ele>208.4</ele>
        <time>2010-11-19T18:00:59Z</time>
        <extensions><gpxtpx:TrackPointExtension><gpxtpx:hr>146</gpxtpx:hr></gpxtpx:TrackPointExtension></extensions>
      </trkpt>
      <trkpt lat="57.808706093" lon="14.2808547411">
        <ele>208.6</ele>
        <time>2010-11-19T18:01:01Z</time>
        <extensions><gpxtpx:TrackPointExtension><gpxtpx:hr>146</gpxtpx:hr></gpxtpx:TrackPointExtension></extensions>
      </trkpt>
      <trkpt lat="57.8087304005" lon="14.2809072956">
        <ele>209</ele>
        <time>2010-11-19T18:01:03Z</time>
        <extensions><gpxtpx:TrackPointExtension><gpxtpx:hr>147</gpxtpx:hr></gpxtpx:TrackPointExtension></extensions>
      </trkpt>
      <trkpt lat="57.8087529478" lon="14.280973764">
        <ele>209.6</ele>
        <time>2010-11-19T18:01:07Z</time>
        <extensions><gpxtpx:TrackPointExtension><gpxtpx:hr>148</gpxtpx:hr></gpxtpx:TrackPointExtension></extensions>
      </trkpt>
      <trkpt lat="57.8087813625" lon="14.2810581698">
        <ele>210.2</ele>
        <time>2010-11-19T18:01:09Z</time>
        <extensions><gpxtpx:TrackPointExtension><gpxtpx:hr>149</gpxtpx:hr></gpxtpx:TrackPointExtension></extensions>
      </trkpt>
      <trkpt lat="57.8088069272" lon="14.2811648714">
        <ele>210.8</ele>
        <time>2010-11-19T18:01:13Z</time>
        <extensions><gpxtpx:TrackPointExtension><gpxtpx:hr>149</gpxtpx:hr></gpxtpx:TrackPointExtension></extensions>
      </trkpt>
      <trkpt lat="57.8088146386" lon="14.2811930345">
        <ele>211</ele>
        <time>2010-11-19T18:01:14Z</time>
        <extensions><gpxtpx:TrackPointExtension><gpxtpx:hr>149</gpxtpx:hr></gpxtpx:TrackPointExtension></extensions>
      </trkpt>
      <trkpt lat="57.8088342522" lon="14.2812907675">
        <ele>211.8</ele>
        <time>2010-11-19T18:01:17Z</time>
        <extensions><gpxtpx:TrackPointExtension><gpxtpx:hr>150</gpxtpx:hr></gpxtpx:TrackPointExtension></extensions>
      </trkpt>
      <trkpt lat="57.8088604038" lon="14.2813776878">
        <ele>212.2</ele>
        <time>2010-11-19T18:01:19Z</time>
        <extensions><gpxtpx:TrackPointExtension><gpxtpx:hr>150</gpxtpx:hr></gpxtpx:TrackPointExtension></extensions>
      </trkpt>
      <trkpt lat="57.8088835378" lon="14.2814740797">
        <ele>213.2</ele>
        <time>2010-11-19T18:01:23Z</time>
        <extensions><gpxtpx:TrackPointExtension><gpxtpx:hr>151</gpxtpx:hr></gpxtpx:TrackPointExtension></extensions>
      </trkpt>
      <trkpt lat="57.8088879802" lon="14.2815071043">
        <ele>213.4</ele>
        <time>2010-11-19T18:01:24Z</time>
        <extensions><gpxtpx:TrackPointExtension><gpxtpx:hr>152</gpxtpx:hr></gpxtpx:TrackPointExtension></extensions>
      </trkpt>
      <trkpt lat="57.8089121201" lon="14.2815913424">
        <ele>214</ele>
        <time>2010-11-19T18:01:27Z</time>
        <extensions><gpxtpx:TrackPointExtension><gpxtpx:hr>152</gpxtpx:hr></gpxtpx:TrackPointExtension></extensions>
      </trkpt>
      <trkpt lat="57.8089357571" lon="14.2816832919">
        <ele>214.6</ele>
        <time>2010-11-19T18:01:30Z</time>
        <extensions><gpxtpx:TrackPointExtension><gpxtpx:hr>153</gpxtpx:hr></gpxtpx:TrackPointExtension></extensions>
      </trkpt>
      <trkpt lat="57.808972386" lon="14.2817720562">
        <ele>215.6</ele>
        <time>2010-11-19T18:01:33Z</time>
        <extensions><gpxtpx:TrackPointExtension><gpxtpx:hr>154</gpxtpx:hr></gpxtpx:TrackPointExtension></extensions>
      </trkpt>
      <trkpt lat="57.809010356" lon="14.2818780034">
        <ele>216.2</ele>
        <time>2010-11-19T18:01:36Z</time>
        <extensions><gpxtpx:TrackPointExtension><gpxtpx:hr>155</gpxtpx:hr></gpxtpx:TrackPointExtension></extensions>
      </trkpt>
      <trkpt lat="57.8090603959" lon="14.281973138">
        <ele>217.2</ele>
        <time>2010-11-19T18:01:39Z</time>
        <extensions><gpxtpx:TrackPointExtension><gpxtpx:hr>154</gpxtpx:hr></gpxtpx:TrackPointExtension></extensions>
      </trkpt>
      <trkpt lat="57.8091111064" lon="14.2820584657">
        <ele>218</ele>
        <time>2010-11-19T18:01:43Z</time>
        <extensions><gpxtpx:TrackPointExtension><gpxtpx:hr>154</gpxtpx:hr></gpxtpx:TrackPointExtension></extensions>
      </trkpt>
      <trkpt lat="57.809150669" lon="14.2821075837">
        <ele>218.4</ele>
        <time>2010-11-19T18:01:45Z</time>
        <extensions><gpxtpx:TrackPointExtension><gpxtpx:hr>154</gpxtpx:hr></gpxtpx:TrackPointExtension></extensions>
      </trkpt>
      <trkpt lat="57.80918537" lon="14.2821664246">
        <ele>218.6</ele>
        <time>2010-11-19T18:01:47Z</time>
        <extensions><gpxtpx:TrackPointExtension><gpxtpx:hr>153</gpxtpx:hr></gpxtpx:TrackPointExtension></extensions>
      </trkpt>
      <trkpt lat="57.8092008765" lon="14.2821913188">
        <ele>219</ele>
        <time>2010-11-19T18:01:48Z</time>
        <extensions><gpxtpx:TrackPointExtension><gpxtpx:hr>153</gpxtpx:hr></gpxtpx:TrackPointExtension></extensions>
      </trkpt>
      <trkpt lat="57.8092522576" lon="14.2822733776">
        <ele>219.8</ele>
        <time>2010-11-19T18:01:51Z</time>
        <extensions><gpxtpx:TrackPointExtension><gpxtpx:hr>154</gpxtpx:hr></gpxtpx:TrackPointExtension></extensions>
      </trkpt>
      <trkpt lat="57.8092629026" lon="14.2823062347">
        <ele>220</ele>
        <time>2010-11-19T18:01:52Z</time>
        <extensions><gpxtpx:TrackPointExtension><gpxtpx:hr>154</gpxtpx:hr></gpxtpx:TrackPointExtension></extensions>
      </trkpt>
      <trkpt lat="57.8092934965" lon="14.2824027942">
        <ele>220.6</ele>
        <time>2010-11-19T18:01:55Z</time>
        <extensions><gpxtpx:TrackPointExtension><gpxtpx:hr>155</gpxtpx:hr></gpxtpx:TrackPointExtension></extensions>
      </trkpt>
      <trkpt lat="57.8093205701" lon="14.2825059754">
        <ele>221.2</ele>
        <time>2010-11-19T18:01:58Z</time>
        <extensions><gpxtpx:TrackPointExtension><gpxtpx:hr>155</gpxtpx:hr></gpxtpx:TrackPointExtension></extensions>
      </trkpt>
      <trkpt lat="57.8093411896" lon="14.2826016128">
        <ele>222</ele>
        <time>2010-11-19T18:02:01Z</time>
        <extensions><gpxtpx:TrackPointExtension><gpxtpx:hr>155</gpxtpx:hr></gpxtpx:TrackPointExtension></extensions>
      </trkpt>
      <trkpt lat="57.8093598812" lon="14.2826944005">
        <ele>222.6</ele>
        <time>2010-11-19T18:02:04Z</time>
        <extensions><gpxtpx:TrackPointExtension><gpxtpx:hr>153</gpxtpx:hr></gpxtpx:TrackPointExtension></extensions>
      </trkpt>
      <trkpt lat="57.8093610547" lon="14.2828119147">
        <ele>223.2</ele>
        <time>2010-11-19T18:02:07Z</time>
        <extensions><gpxtpx:TrackPointExtension><gpxtpx:hr>151</gpxtpx:hr></gpxtpx:TrackPointExtension></extensions>
      </trkpt>
      <trkpt lat="57.8093623119" lon="14.2829251542">
        <ele>224</ele>
        <time>2010-11-19T18:02:09Z</time>
        <extensions><gpxtpx:TrackPointExtension><gpxtpx:hr>150</gpxtpx:hr></gpxtpx:TrackPointExtension></extensions>
      </trkpt>
      <trkpt lat="57.8093646589" lon="14.2830464403">
        <ele>224.6</ele>
        <time>2010-11-19T18:02:13Z</time>
        <extensions><gpxtpx:TrackPointExtension><gpxtpx:hr>148</gpxtpx:hr></gpxtpx:TrackPointExtension></extensions>
      </trkpt>
      <trkpt lat="57.8093639045" lon="14.2831591768">
        <ele>225.4</ele>
        <time>2010-11-19T18:02:16Z</time>
        <extensions><gpxtpx:TrackPointExtension><gpxtpx:hr>146</gpxtpx:hr></gpxtpx:TrackPointExtension></extensions>
      </trkpt>
      <trkpt lat="57.8093647427" lon="14.2832839833">
        <ele>226.2</ele>
        <time>2010-11-19T18:02:19Z</time>
        <extensions><gpxtpx:TrackPointExtension><gpxtpx:hr>145</gpxtpx:hr></gpxtpx:TrackPointExtension></extensions>
      </trkpt>
      <trkpt lat="57.8093603003" lon="14.2834018328">
        <ele>226.8</ele>
        <time>2010-11-19T18:02:21Z</time>
        <extensions><gpxtpx:TrackPointExtension><gpxtpx:hr>144</gpxtpx:hr></gpxtpx:TrackPointExtension></extensions>
      </trkpt>
      <trkpt lat="57.8093509964" lon="14.2834929441">
        <ele>227.4</ele>
        <time>2010-11-19T18:02:24Z</time>
        <extensions><gpxtpx:TrackPointExtension><gpxtpx:hr>143</gpxtpx:hr></gpxtpx:TrackPointExtension></extensions>
      </trkpt>
      <trkpt lat="57.8093460511" lon="14.2835825466">
        <ele>228</ele>
        <time>2010-11-19T18:02:26Z</time>
        <extensions><gpxtpx:TrackPointExtension><gpxtpx:hr>142</gpxtpx:hr></gpxtpx:TrackPointExtension></extensions>
      </trkpt>
      <trkpt lat="57.8093429498" lon="14.2836563073">
        <ele>228.6</ele>
        <time>2010-11-19T18:02:28Z</time>
        <extensions><gpxtpx:TrackPointExtension><gpxtpx:hr>142</gpxtpx:hr></gpxtpx:TrackPointExtension></extensions>
      </trkpt>
      <trkpt lat="57.8093524213" lon="14.2837793536">
        <ele>229.4</ele>
        <time>2010-11-19T18:02:31Z</time>
        <extensions><gpxtpx:TrackPointExtension><gpxtpx:hr>140</gpxtpx:hr></gpxtpx:TrackPointExtension></extensions>
      </trkpt>
      <trkpt lat="57.8093630663" lon="14.2838640108">
        <ele>230.2</ele>
        <time>2010-11-19T18:02:34Z</time>
        <extensions><gpxtpx:TrackPointExtension><gpxtpx:hr>139</gpxtpx:hr></gpxtpx:TrackPointExtension></extensions>
      </trkpt>
      <trkpt lat="57.8093767288" lon="14.2839561279">
        <ele>231</ele>
        <time>2010-11-19T18:02:37Z</time>
        <extensions><gpxtpx:TrackPointExtension><gpxtpx:hr>139</gpxtpx:hr></gpxtpx:TrackPointExtension></extensions>
      </trkpt>
      <trkpt lat="57.8093893017" lon="14.2840133763">
        <ele>231.8</ele>
        <time>2010-11-19T18:02:39Z</time>
        <extensions><gpxtpx:TrackPointExtension><gpxtpx:hr>139</gpxtpx:hr></gpxtpx:TrackPointExtension></extensions>
      </trkpt>
      <trkpt lat="57.8094308759" lon="14.2841250232">
        <ele>232.8</ele>
        <time>2010-11-19T18:02:43Z</time>
        <extensions><gpxtpx:TrackPointExtension><gpxtpx:hr>138</gpxtpx:hr></gpxtpx:TrackPointExtension></extensions>
      </trkpt>
      <trkpt lat="57.8094417724" lon="14.2841553656">
        <ele>233</ele>
        <time>2010-11-19T18:02:44Z</time>
        <extensions><gpxtpx:TrackPointExtension><gpxtpx:hr>139</gpxtpx:hr></gpxtpx:TrackPointExtension></extensions>
      </trkpt>
      <trkpt lat="57.8094792394" lon="14.2842717902">
        <ele>234.4</ele>
        <time>2010-11-19T18:02:48Z</time>
        <extensions><gpxtpx:TrackPointExtension><gpxtpx:hr>140</gpxtpx:hr></gpxtpx:TrackPointExtension></extensions>
      </trkpt>
      <trkpt lat="57.8095079055" lon="14.2843484008">
        <ele>235.2</ele>
        <time>2010-11-19T18:02:51Z</time>
        <extensions><gpxtpx:TrackPointExtension><gpxtpx:hr>140</gpxtpx:hr></gpxtpx:TrackPointExtension></extensions>
      </trkpt>
      <trkpt lat="57.8095416008" lon="14.2844146178">
        <ele>236.2</ele>
        <time>2010-11-19T18:02:54Z</time>
        <extensions><gpxtpx:TrackPointExtension><gpxtpx:hr>141</gpxtpx:hr></gpxtpx:TrackPointExtension></extensions>
      </trkpt>
      <trkpt lat="57.8095843485" lon="14.2844942459">
        <ele>237</ele>
        <time>2010-11-19T18:02:57Z</time>
        <extensions><gpxtpx:TrackPointExtension><gpxtpx:hr>141</gpxtpx:hr></gpxtpx:TrackPointExtension></extensions>
      </trkpt>
      <trkpt lat="57.8096195525" lon="14.2845638156">
        <ele>237.6</ele>
        <time>2010-11-19T18:03:00Z</time>
        <extensions><gpxtpx:TrackPointExtension><gpxtpx:hr>140</gpxtpx:hr></gpxtpx:TrackPointExtension></extensions>
      </trkpt>
      <trkpt lat="57.8096560137" lon="14.2846397556">
        <ele>238.2</ele>
        <time>2010-11-19T18:03:03Z</time>
        <extensions><gpxtpx:TrackPointExtension><gpxtpx:hr>140</gpxtpx:hr></gpxtpx:TrackPointExtension></extensions>
      </trkpt>
      <trkpt lat="57.8096868591" lon="14.2847332976">
        <ele>239.2</ele>
        <time>2010-11-19T18:03:06Z</time>
        <extensions><gpxtpx:TrackPointExtension><gpxtpx:hr>139</gpxtpx:hr></gpxtpx:TrackPointExtension></extensions>
      </trkpt>
      <trkpt lat="57.809723488" lon="14.2848244089">
        <ele>239.8</ele>
        <time>2010-11-19T18:03:09Z</time>
        <extensions><gpxtpx:TrackPointExtension><gpxtpx:hr>137</gpxtpx:hr></gpxtpx:TrackPointExtension></extensions>
      </trkpt>
      <trkpt lat="57.8097622962" lon="14.2849121674">
        <ele>240.2</ele>
        <time>2010-11-19T18:03:12Z</time>
        <extensions><gpxtpx:TrackPointExtension><gpxtpx:hr>135</gpxtpx:hr></gpxtpx:TrackPointExtension></extensions>
      </trkpt>
      <trkpt lat="57.8097852626" lon="14.2849942262">
        <ele>240.4</ele>
        <time>2010-11-19T18:03:14Z</time>
        <extensions><gpxtpx:TrackPointExtension><gpxtpx:hr>134</gpxtpx:hr></gpxtpx:TrackPointExtension></extensions>
      </trkpt>
      <trkpt lat="57.8098097378" lon="14.2850752792">
        <ele>241</ele>
        <time>2010-11-19T18:03:16Z</time>
        <extensions><gpxtpx:TrackPointExtension><gpxtpx:hr>132</gpxtpx:hr></gpxtpx:TrackPointExtension></extensions>
      </trkpt>
      <trkpt lat="57.8098304411" lon="14.2851723416">
        <ele>241.6</ele>
        <time>2010-11-19T18:03:18Z</time>
        <extensions><gpxtpx:TrackPointExtension><gpxtpx:hr>131</gpxtpx:hr></gpxtpx:TrackPointExtension></extensions>
      </trkpt>
      <trkpt lat="57.8098529045" lon="14.285243923">
        <ele>242</ele>
        <time>2010-11-19T18:03:20Z</time>
        <extensions><gpxtpx:TrackPointExtension><gpxtpx:hr>130</gpxtpx:hr></gpxtpx:TrackPointExtension></extensions>
      </trkpt>
      <trkpt lat="57.8098697522" lon="14.2853343637">
        <ele>242.2</ele>
        <time>2010-11-19T18:03:22Z</time>
        <extensions><gpxtpx:TrackPointExtension><gpxtpx:hr>130</gpxtpx:hr></gpxtpx:TrackPointExtension></extensions>
      </trkpt>
      <trkpt lat="57.8098799781" lon="14.2854822204">
        <ele>242.6</ele>
        <time>2010-11-19T18:03:25Z</time>
        <extensions><gpxtpx:TrackPointExtension><gpxtpx:hr>129</gpxtpx:hr></gpxtpx:TrackPointExtension></extensions>
      </trkpt>
      <trkpt lat="57.8098850072" lon="14.2855768521">
        <ele>242.8</ele>
        <time>2010-11-19T18:03:27Z</time>
        <extensions><gpxtpx:TrackPointExtension><gpxtpx:hr>129</gpxtpx:hr></gpxtpx:TrackPointExtension></extensions>
      </trkpt>
      <trkpt lat="57.8098922157" lon="14.2856830507">
        <ele>243</ele>
        <time>2010-11-19T18:03:29Z</time>
        <extensions><gpxtpx:TrackPointExtension><gpxtpx:hr>129</gpxtpx:hr></gpxtpx:TrackPointExtension></extensions>
      </trkpt>
      <trkpt lat="57.8098922995" lon="14.2857831306">
        <ele>243.4</ele>
        <time>2010-11-19T18:03:30Z</time>
        <extensions><gpxtpx:TrackPointExtension><gpxtpx:hr>129</gpxtpx:hr></gpxtpx:TrackPointExtension></extensions>
      </trkpt>
      <trkpt lat="57.8098969095" lon="14.2858824561">
        <ele>243.8</ele>
        <time>2010-11-19T18:03:33Z</time>
        <extensions><gpxtpx:TrackPointExtension><gpxtpx:hr>128</gpxtpx:hr></gpxtpx:TrackPointExtension></extensions>
      </trkpt>
      <trkpt lat="57.8098989212" lon="14.2859701308">
        <ele>244.2</ele>
        <time>2010-11-19T18:03:35Z</time>
        <extensions><gpxtpx:TrackPointExtension><gpxtpx:hr>128</gpxtpx:hr></gpxtpx:TrackPointExtension></extensions>
      </trkpt>
      <trkpt lat="57.8098964904" lon="14.2860746531">
        <ele>244.4</ele>
        <time>2010-11-19T18:03:37Z</time>
        <extensions><gpxtpx:TrackPointExtension><gpxtpx:hr>128</gpxtpx:hr></gpxtpx:TrackPointExtension></extensions>
      </trkpt>
      <trkpt lat="57.8098943111" lon="14.286171967">
        <ele>244.6</ele>
        <time>2010-11-19T18:03:39Z</time>
        <extensions><gpxtpx:TrackPointExtension><gpxtpx:hr>128</gpxtpx:hr></gpxtpx:TrackPointExtension></extensions>
      </trkpt>
      <trkpt lat="57.8098950655" lon="14.286258552">
        <ele>244.8</ele>
        <time>2010-11-19T18:03:41Z</time>
        <extensions><gpxtpx:TrackPointExtension><gpxtpx:hr>127</gpxtpx:hr></gpxtpx:TrackPointExtension></extensions>
      </trkpt>
      <trkpt lat="57.8098881085" lon="14.2863494118">
        <ele>245</ele>
        <time>2010-11-19T18:03:43Z</time>
        <extensions><gpxtpx:TrackPointExtension><gpxtpx:hr>126</gpxtpx:hr></gpxtpx:TrackPointExtension></extensions>
      </trkpt>
      <trkpt lat="57.8098756195" lon="14.2864452169">
        <ele>245.2</ele>
        <time>2010-11-19T18:03:45Z</time>
        <extensions><gpxtpx:TrackPointExtension><gpxtpx:hr>125</gpxtpx:hr></gpxtpx:TrackPointExtension></extensions>
      </trkpt>
      <trkpt lat="57.8098612864" lon="14.2865380884">
        <ele>245.4</ele>
        <time>2010-11-19T18:03:47Z</time>
        <extensions><gpxtpx:TrackPointExtension><gpxtpx:hr>125</gpxtpx:hr></gpxtpx:TrackPointExtension></extensions>
      </trkpt>
      <trkpt lat="57.8098444388" lon="14.2866188899">
        <ele>245.8</ele>
        <time>2010-11-19T18:03:49Z</time>
        <extensions><gpxtpx:TrackPointExtension><gpxtpx:hr>125</gpxtpx:hr></gpxtpx:TrackPointExtension></extensions>
      </trkpt>
      <trkpt lat="57.8098253281" lon="14.2867131862">
        <ele>246.2</ele>
        <time>2010-11-19T18:03:51Z</time>
        <extensions><gpxtpx:TrackPointExtension><gpxtpx:hr>124</gpxtpx:hr></gpxtpx:TrackPointExtension></extensions>
      </trkpt>
      <trkpt lat="57.8098104921" lon="14.286803124">
        <ele>246.6</ele>
        <time>2010-11-19T18:03:53Z</time>
        <extensions><gpxtpx:TrackPointExtension><gpxtpx:hr>123</gpxtpx:hr></gpxtpx:TrackPointExtension></extensions>
      </trkpt>
      <trkpt lat="57.8097972487" lon="14.2868887032">
        <ele>246.8</ele>
        <time>2010-11-19T18:03:55Z</time>
        <extensions><gpxtpx:TrackPointExtension><gpxtpx:hr>123</gpxtpx:hr></gpxtpx:TrackPointExtension></extensions>
      </trkpt>
      <trkpt lat="57.8097814908" lon="14.2869783057">
        <ele>247</ele>
        <time>2010-11-19T18:03:57Z</time>
        <extensions><gpxtpx:TrackPointExtension><gpxtpx:hr>123</gpxtpx:hr></gpxtpx:TrackPointExtension></extensions>
      </trkpt>
      <trkpt lat="57.8097529085" lon="14.2870814031">
        <ele>247</ele>
        <time>2010-11-19T18:03:59Z</time>
        <extensions><gpxtpx:TrackPointExtension><gpxtpx:hr>122</gpxtpx:hr></gpxtpx:TrackPointExtension></extensions>
      </trkpt>
      <trkpt lat="57.8097248291" lon="14.2871913736">
        <ele>247.2</ele>
        <time>2010-11-19T18:04:01Z</time>
        <extensions><gpxtpx:TrackPointExtension><gpxtpx:hr>122</gpxtpx:hr></gpxtpx:TrackPointExtension></extensions>
      </trkpt>
      <trkpt lat="57.8097079815" lon="14.2872788807">
        <ele>247.4</ele>
        <time>2010-11-19T18:04:03Z</time>
        <extensions><gpxtpx:TrackPointExtension><gpxtpx:hr>122</gpxtpx:hr></gpxtpx:TrackPointExtension></extensions>
      </trkpt>
      <trkpt lat="57.8096866077" lon="14.287389857">
        <ele>247.4</ele>
        <time>2010-11-19T18:04:05Z</time>
        <extensions><gpxtpx:TrackPointExtension><gpxtpx:hr>121</gpxtpx:hr></gpxtpx:TrackPointExtension></extensions>
      </trkpt>
      <trkpt lat="57.8096584445" lon="14.2874846563">
        <ele>247.4</ele>
        <time>2010-11-19T18:04:07Z</time>
        <extensions><gpxtpx:TrackPointExtension><gpxtpx:hr>120</gpxtpx:hr></gpxtpx:TrackPointExtension></extensions>
      </trkpt>
      <trkpt lat="57.8096395014" lon="14.2875594229">
        <ele>247.6</ele>
        <time>2010-11-19T18:04:09Z</time>
        <extensions><gpxtpx:TrackPointExtension><gpxtpx:hr>120</gpxtpx:hr></gpxtpx:TrackPointExtension></extensions>
      </trkpt>
      <trkpt lat="57.809619301" lon="14.2876409788">
        <ele>247.6</ele>
        <time>2010-11-19T18:04:11Z</time>
        <extensions><gpxtpx:TrackPointExtension><gpxtpx:hr>120</gpxtpx:hr></gpxtpx:TrackPointExtension></extensions>
      </trkpt>
      <trkpt lat="57.8095982624" lon="14.2877166673">
        <ele>247.6</ele>
        <time>2010-11-19T18:04:13Z</time>
        <extensions><gpxtpx:TrackPointExtension><gpxtpx:hr>120</gpxtpx:hr></gpxtpx:TrackPointExtension></extensions>
      </trkpt>
      <trkpt lat="57.8095802413" lon="14.2878037553">
        <ele>247.6</ele>
        <time>2010-11-19T18:04:15Z</time>
        <extensions><gpxtpx:TrackPointExtension><gpxtpx:hr>119</gpxtpx:hr></gpxtpx:TrackPointExtension></extensions>
      </trkpt>
      <trkpt lat="57.8095575264" lon="14.2878936092">
        <ele>247.6</ele>
        <time>2010-11-19T18:04:17Z</time>
        <extensions><gpxtpx:TrackPointExtension><gpxtpx:hr>119</gpxtpx:hr></gpxtpx:TrackPointExtension></extensions>
      </trkpt>
      <trkpt lat="57.8095290279" lon="14.2879902525">
        <ele>247.6</ele>
        <time>2010-11-19T18:04:19Z</time>
        <extensions><gpxtpx:TrackPointExtension><gpxtpx:hr>119</gpxtpx:hr></gpxtpx:TrackPointExtension></extensions>
      </trkpt>
      <trkpt lat="57.8095023735" lon="14.2880848004">
        <ele>247.6</ele>
        <time>2010-11-19T18:04:21Z</time>
        <extensions><gpxtpx:TrackPointExtension><gpxtpx:hr>120</gpxtpx:hr></gpxtpx:TrackPointExtension></extensions>
      </trkpt>
      <trkpt lat="57.8094894654" lon="14.2881278833">
        <ele>247.6</ele>
        <time>2010-11-19T18:04:22Z</time>
        <extensions><gpxtpx:TrackPointExtension><gpxtpx:hr>119</gpxtpx:hr></gpxtpx:TrackPointExtension></extensions>
      </trkpt>
      <trkpt lat="57.8094721987" lon="14.2881912505">
        <ele>247.6</ele>
        <time>2010-11-19T18:04:23Z</time>
        <extensions><gpxtpx:TrackPointExtension><gpxtpx:hr>120</gpxtpx:hr></gpxtpx:TrackPointExtension></extensions>
      </trkpt>
      <trkpt lat="57.8094522497" lon="14.2882770812">
        <ele>247.6</ele>
        <time>2010-11-19T18:04:25Z</time>
        <extensions><gpxtpx:TrackPointExtension><gpxtpx:hr>118</gpxtpx:hr></gpxtpx:TrackPointExtension></extensions>
      </trkpt>
      <trkpt lat="57.8094186383" lon="14.2883604811">
        <ele>247.6</ele>
        <time>2010-11-19T18:04:27Z</time>
        <extensions><gpxtpx:TrackPointExtension><gpxtpx:hr>117</gpxtpx:hr></gpxtpx:TrackPointExtension></extensions>
      </trkpt>
      <trkpt lat="57.8093947499" lon="14.288431811">
        <ele>247.8</ele>
        <time>2010-11-19T18:04:29Z</time>
        <extensions><gpxtpx:TrackPointExtension><gpxtpx:hr>118</gpxtpx:hr></gpxtpx:TrackPointExtension></extensions>
      </trkpt>
      <trkpt lat="57.8093836858" lon="14.2885087569">
        <ele>247.8</ele>
        <time>2010-11-19T18:04:31Z</time>
        <extensions><gpxtpx:TrackPointExtension><gpxtpx:hr>120</gpxtpx:hr></gpxtpx:TrackPointExtension></extensions>
      </trkpt>
      <trkpt lat="57.8093720349" lon="14.288617051">
        <ele>247.8</ele>
        <time>2010-11-19T18:04:33Z</time>
        <extensions><gpxtpx:TrackPointExtension><gpxtpx:hr>121</gpxtpx:hr></gpxtpx:TrackPointExtension></extensions>
      </trkpt>
      <trkpt lat="57.80935393" lon="14.2887030493">
        <ele>247.8</ele>
        <time>2010-11-19T18:04:35Z</time>
        <extensions><gpxtpx:TrackPointExtension><gpxtpx:hr>123</gpxtpx:hr></gpxtpx:TrackPointExtension></extensions>
      </trkpt>
      <trkpt lat="57.8093354899" lon="14.2887927356">
        <ele>247.8</ele>
        <time>2010-11-19T18:04:37Z</time>
        <extensions><gpxtpx:TrackPointExtension><gpxtpx:hr>124</gpxtpx:hr></gpxtpx:TrackPointExtension></extensions>
      </trkpt>
      <trkpt lat="57.8093193966" lon="14.2888715255">
        <ele>247.8</ele>
        <time>2010-11-19T18:04:39Z</time>
        <extensions><gpxtpx:TrackPointExtension><gpxtpx:hr>126</gpxtpx:hr></gpxtpx:TrackPointExtension></extensions>
      </trkpt>
      <trkpt lat="57.8093013755" lon="14.288951405">
        <ele>247.8</ele>
        <time>2010-11-19T18:04:41Z</time>
        <extensions><gpxtpx:TrackPointExtension><gpxtpx:hr>127</gpxtpx:hr></gpxtpx:TrackPointExtension></extensions>
      </trkpt>
      <trkpt lat="57.809280337" lon="14.2890256686">
        <ele>247.8</ele>
        <time>2010-11-19T18:04:43Z</time>
        <extensions><gpxtpx:TrackPointExtension><gpxtpx:hr>127</gpxtpx:hr></gpxtpx:TrackPointExtension></extensions>
      </trkpt>
      <trkpt lat="57.809259466" lon="14.2890882814">
        <ele>247.8</ele>
        <time>2010-11-19T18:04:46Z</time>
        <extensions><gpxtpx:TrackPointExtension><gpxtpx:hr>127</gpxtpx:hr></gpxtpx:TrackPointExtension></extensions>
      </trkpt>
      <trkpt lat="57.8092589631" lon="14.2890772173">
        <ele>247.8</ele>
        <time>2010-11-19T18:04:50Z</time>
        <extensions><gpxtpx:TrackPointExtension><gpxtpx:hr>125</gpxtpx:hr></gpxtpx:TrackPointExtension></extensions>
      </trkpt>
      <trkpt lat="57.8092689376" lon="14.2890005229">
        <ele>247.8</ele>
        <time>2010-11-19T18:04:52Z</time>
        <extensions><gpxtpx:TrackPointExtension><gpxtpx:hr>120</gpxtpx:hr></gpxtpx:TrackPointExtension></extensions>
      </trkpt>
      <trkpt lat="57.8092924069" lon="14.2889128483">
        <ele>247.8</ele>
        <time>2010-11-19T18:04:54Z</time>
        <extensions><gpxtpx:TrackPointExtension><gpxtpx:hr>119</gpxtpx:hr></gpxtpx:TrackPointExtension></extensions>
      </trkpt>
      <trkpt lat="57.8092999506" lon="14.2889071486">
        <ele>247.8</ele>
        <time>2010-11-19T18:04:55Z</time>
        <extensions><gpxtpx:TrackPointExtension><gpxtpx:hr>120</gpxtpx:hr></gpxtpx:TrackPointExtension></extensions>
      </trkpt>
      <trkpt lat="57.8092748887" lon="14.2889950747">
        <ele>247.8</ele>
        <time>2010-11-19T18:04:57Z</time>
        <extensions><gpxtpx:TrackPointExtension><gpxtpx:hr>124</gpxtpx:hr></gpxtpx:TrackPointExtension></extensions>
      </trkpt>
      <trkpt lat="57.8092599689" lon="14.2890648121">
        <ele>247.8</ele>
        <time>2010-11-19T18:05:01Z</time>
        <extensions><gpxtpx:TrackPointExtension><gpxtpx:hr>127</gpxtpx:hr></gpxtpx:TrackPointExtension></extensions>
      </trkpt>
      <trkpt lat="57.8092598851" lon="14.289049138">
        <ele>247.8</ele>
        <time>2010-11-19T18:05:02Z</time>
        <extensions><gpxtpx:TrackPointExtension><gpxtpx:hr>127</gpxtpx:hr></gpxtpx:TrackPointExtension></extensions>
      </trkpt>
      <trkpt lat="57.8092601366" lon="14.2890369842">
        <ele>247.8</ele>
        <time>2010-11-19T18:05:07Z</time>
        <extensions><gpxtpx:TrackPointExtension><gpxtpx:hr>122</gpxtpx:hr></gpxtpx:TrackPointExtension></extensions>
      </trkpt>
      <trkpt lat="57.8092587117" lon="14.2890357269">
        <ele>247.8</ele>
        <time>2010-11-19T18:05:09Z</time>
        <extensions><gpxtpx:TrackPointExtension><gpxtpx:hr>112</gpxtpx:hr></gpxtpx:TrackPointExtension></extensions>
      </trkpt>
      <trkpt lat="57.8092559456" lon="14.2890286023">
        <ele>247.8</ele>
        <time>2010-11-19T18:05:11Z</time>
        <extensions><gpxtpx:TrackPointExtension><gpxtpx:hr>106</gpxtpx:hr></gpxtpx:TrackPointExtension></extensions>
      </trkpt>
      <trkpt lat="57.8092593822" lon="14.2889949071">
        <ele>247.8</ele>
        <time>2010-11-19T18:05:12Z</time>
        <extensions><gpxtpx:TrackPointExtension><gpxtpx:hr>106</gpxtpx:hr></gpxtpx:TrackPointExtension></extensions>
      </trkpt>
      <trkpt lat="57.8092820133" lon="14.2888706873">
        <ele>247.8</ele>
        <time>2010-11-19T18:05:14Z</time>
        <extensions><gpxtpx:TrackPointExtension><gpxtpx:hr>109</gpxtpx:hr></gpxtpx:TrackPointExtension></extensions>
      </trkpt>
      <trkpt lat="57.8093064885" lon="14.2887965913">
        <ele>247.8</ele>
        <time>2010-11-19T18:05:16Z</time>
        <extensions><gpxtpx:TrackPointExtension><gpxtpx:hr>113</gpxtpx:hr></gpxtpx:TrackPointExtension></extensions>
      </trkpt>
      <trkpt lat="57.8093009564" lon="14.2888659934">
        <ele>247.8</ele>
        <time>2010-11-19T18:05:18Z</time>
        <extensions><gpxtpx:TrackPointExtension><gpxtpx:hr>118</gpxtpx:hr></gpxtpx:TrackPointExtension></extensions>
      </trkpt>
      <trkpt lat="57.8092782415" lon="14.2889681688">
        <ele>247.8</ele>
        <time>2010-11-19T18:05:20Z</time>
        <extensions><gpxtpx:TrackPointExtension><gpxtpx:hr>123</gpxtpx:hr></gpxtpx:TrackPointExtension></extensions>
      </trkpt>
      <trkpt lat="57.8092691052" lon="14.2890162809">
        <ele>247.8</ele>
        <time>2010-11-19T18:05:21Z</time>
        <extensions><gpxtpx:TrackPointExtension><gpxtpx:hr>125</gpxtpx:hr></gpxtpx:TrackPointExtension></extensions>
      </trkpt>
      <trkpt lat="57.8092538502" lon="14.2890837552">
        <ele>247.8</ele>
        <time>2010-11-19T18:05:23Z</time>
        <extensions><gpxtpx:TrackPointExtension><gpxtpx:hr>128</gpxtpx:hr></gpxtpx:TrackPointExtension></extensions>
      </trkpt>
      <trkpt lat="57.8092545207" lon="14.2890648959">
        <ele>247.8</ele>
        <time>2010-11-19T18:05:24Z</time>
        <extensions><gpxtpx:TrackPointExtension><gpxtpx:hr>129</gpxtpx:hr></gpxtpx:TrackPointExtension></extensions>
      </trkpt>
      <trkpt lat="57.8092606395" lon="14.2890286023">
        <ele>246.8</ele>
        <time>2010-11-19T18:05:31Z</time>
        <extensions><gpxtpx:TrackPointExtension><gpxtpx:hr>122</gpxtpx:hr></gpxtpx:TrackPointExtension></extensions>
      </trkpt>
      <trkpt lat="57.8092601366" lon="14.2890244114">
        <ele>246.6</ele>
        <time>2010-11-19T18:05:33Z</time>
        <extensions><gpxtpx:TrackPointExtension><gpxtpx:hr>113</gpxtpx:hr></gpxtpx:TrackPointExtension></extensions>
      </trkpt>
      <trkpt lat="57.8092873778" lon="14.288895833">
        <ele>246.4</ele>
        <time>2010-11-19T18:05:36Z</time>
        <extensions><gpxtpx:TrackPointExtension><gpxtpx:hr>111</gpxtpx:hr></gpxtpx:TrackPointExtension></extensions>
      </trkpt>
      <trkpt lat="57.8093142837" lon="14.2887809172">
        <ele>246.2</ele>
        <time>2010-11-19T18:05:38Z</time>
        <extensions><gpxtpx:TrackPointExtension><gpxtpx:hr>113</gpxtpx:hr></gpxtpx:TrackPointExtension></extensions>
      </trkpt>
      <trkpt lat="57.8093302093" lon="14.2887331403">
        <ele>246.2</ele>
        <time>2010-11-19T18:05:39Z</time>
        <extensions><gpxtpx:TrackPointExtension><gpxtpx:hr>114</gpxtpx:hr></gpxtpx:TrackPointExtension></extensions>
      </trkpt>
      <trkpt lat="57.8093204863" lon="14.2888529177">
        <ele>246</ele>
        <time>2010-11-19T18:05:43Z</time>
        <extensions><gpxtpx:TrackPointExtension><gpxtpx:hr>119</gpxtpx:hr></gpxtpx:TrackPointExtension></extensions>
      </trkpt>
      <trkpt lat="57.8093043092" lon="14.2889174583">
        <ele>246</ele>
        <time>2010-11-19T18:05:44Z</time>
        <extensions><gpxtpx:TrackPointExtension><gpxtpx:hr>121</gpxtpx:hr></gpxtpx:TrackPointExtension></extensions>
      </trkpt>
      <trkpt lat="57.809279415" lon="14.2890187955">
        <ele>245.8</ele>
        <time>2010-11-19T18:05:46Z</time>
        <extensions><gpxtpx:TrackPointExtension><gpxtpx:hr>125</gpxtpx:hr></gpxtpx:TrackPointExtension></extensions>
      </trkpt>
      <trkpt lat="57.8092680994" lon="14.289039415">
        <ele>245.8</ele>
        <time>2010-11-19T18:05:49Z</time>
        <extensions><gpxtpx:TrackPointExtension><gpxtpx:hr>131</gpxtpx:hr></gpxtpx:TrackPointExtension></extensions>
      </trkpt>
      <trkpt lat="57.8092508327" lon="14.2891001837">
        <ele>245.8</ele>
        <time>2010-11-19T18:05:52Z</time>
        <extensions><gpxtpx:TrackPointExtension><gpxtpx:hr>131</gpxtpx:hr></gpxtpx:TrackPointExtension></extensions>
      </trkpt>
      <trkpt lat="57.8092219989" lon="14.2891981681">
        <ele>245.8</ele>
        <time>2010-11-19T18:05:55Z</time>
        <extensions><gpxtpx:TrackPointExtension><gpxtpx:hr>130</gpxtpx:hr></gpxtpx:TrackPointExtension></extensions>
      </trkpt>
      <trkpt lat="57.8092182271" lon="14.2892243197">
        <ele>245.8</ele>
        <time>2010-11-19T18:05:56Z</time>
        <extensions><gpxtpx:TrackPointExtension><gpxtpx:hr>131</gpxtpx:hr></gpxtpx:TrackPointExtension></extensions>
      </trkpt>
      <trkpt lat="57.8092207417" lon="14.2892180332">
        <ele>245.6</ele>
        <time>2010-11-19T18:06:08Z</time>
        <extensions><gpxtpx:TrackPointExtension><gpxtpx:hr>126</gpxtpx:hr></gpxtpx:TrackPointExtension></extensions>
      </trkpt>
      <trkpt lat="57.8092208255" lon="14.2892314443">
        <ele>245.6</ele>
        <time>2010-11-19T18:06:11Z</time>
        <extensions><gpxtpx:TrackPointExtension><gpxtpx:hr>119</gpxtpx:hr></gpxtpx:TrackPointExtension></extensions>
      </trkpt>
      <trkpt lat="57.8092139523" lon="14.2891995931">
        <ele>245.6</ele>
        <time>2010-11-19T18:06:17Z</time>
        <extensions><gpxtpx:TrackPointExtension><gpxtpx:hr>114</gpxtpx:hr></gpxtpx:TrackPointExtension></extensions>
      </trkpt>
      <trkpt lat="57.8092249326" lon="14.2891484635">
        <ele>245.6</ele>
        <time>2010-11-19T18:06:18Z</time>
        <extensions><gpxtpx:TrackPointExtension><gpxtpx:hr>113</gpxtpx:hr></gpxtpx:TrackPointExtension></extensions>
      </trkpt>
      <trkpt lat="57.8092526767" lon="14.2890267583">
        <ele>245.6</ele>
        <time>2010-11-19T18:06:20Z</time>
        <extensions><gpxtpx:TrackPointExtension><gpxtpx:hr>114</gpxtpx:hr></gpxtpx:TrackPointExtension></extensions>
      </trkpt>
      <trkpt lat="57.8092152934" lon="14.2891851762">
        <ele>245.6</ele>
        <time>2010-11-19T18:06:28Z</time>
        <extensions><gpxtpx:TrackPointExtension><gpxtpx:hr>124</gpxtpx:hr></gpxtpx:TrackPointExtension></extensions>
      </trkpt>
      <trkpt lat="57.8092049837" lon="14.289232031">
        <ele>245.6</ele>
        <time>2010-11-19T18:06:33Z</time>
        <extensions><gpxtpx:TrackPointExtension><gpxtpx:hr>120</gpxtpx:hr></gpxtpx:TrackPointExtension></extensions>
      </trkpt>
      <trkpt lat="57.809174725" lon="14.2893180293">
        <ele>245.6</ele>
        <time>2010-11-19T18:06:38Z</time>
        <extensions><gpxtpx:TrackPointExtension><gpxtpx:hr>118</gpxtpx:hr></gpxtpx:TrackPointExtension></extensions>
      </trkpt>
      <trkpt lat="57.8091472324" lon="14.2893883535">
        <ele>245.6</ele>
        <time>2010-11-19T18:06:39Z</time>
        <extensions><gpxtpx:TrackPointExtension><gpxtpx:hr>119</gpxtpx:hr></gpxtpx:TrackPointExtension></extensions>
      </trkpt>
      <trkpt lat="57.809115465" lon="14.2894573365">
        <ele>245.6</ele>
        <time>2010-11-19T18:06:42Z</time>
        <extensions><gpxtpx:TrackPointExtension><gpxtpx:hr>120</gpxtpx:hr></gpxtpx:TrackPointExtension></extensions>
      </trkpt>
      <trkpt lat="57.8090691131" lon="14.2895122379">
        <ele>245.6</ele>
        <time>2010-11-19T18:06:44Z</time>
        <extensions><gpxtpx:TrackPointExtension><gpxtpx:hr>120</gpxtpx:hr></gpxtpx:TrackPointExtension></extensions>
      </trkpt>
      <trkpt lat="57.8090204142" lon="14.2895514652">
        <ele>245.6</ele>
        <time>2010-11-19T18:06:46Z</time>
        <extensions><gpxtpx:TrackPointExtension><gpxtpx:hr>121</gpxtpx:hr></gpxtpx:TrackPointExtension></extensions>
      </trkpt>
      <trkpt lat="57.8089648422" lon="14.2895664688">
        <ele>245.6</ele>
        <time>2010-11-19T18:06:48Z</time>
        <extensions><gpxtpx:TrackPointExtension><gpxtpx:hr>122</gpxtpx:hr></gpxtpx:TrackPointExtension></extensions>
      </trkpt>
      <trkpt lat="57.8089104437" lon="14.2895684805">
        <ele>245.6</ele>
        <time>2010-11-19T18:06:50Z</time>
        <extensions><gpxtpx:TrackPointExtension><gpxtpx:hr>124</gpxtpx:hr></gpxtpx:TrackPointExtension></extensions>
      </trkpt>
      <trkpt lat="57.8088547041" lon="14.2895630322">
        <ele>245.6</ele>
        <time>2010-11-19T18:06:52Z</time>
        <extensions><gpxtpx:TrackPointExtension><gpxtpx:hr>125</gpxtpx:hr></gpxtpx:TrackPointExtension></extensions>
      </trkpt>
      <trkpt lat="57.8088037421" lon="14.2895614397">
        <ele>245.6</ele>
        <time>2010-11-19T18:06:54Z</time>
        <extensions><gpxtpx:TrackPointExtension><gpxtpx:hr>124</gpxtpx:hr></gpxtpx:TrackPointExtension></extensions>
      </trkpt>
      <trkpt lat="57.8087506009" lon="14.2895574164">
        <ele>245.6</ele>
        <time>2010-11-19T18:06:56Z</time>
        <extensions><gpxtpx:TrackPointExtension><gpxtpx:hr>125</gpxtpx:hr></gpxtpx:TrackPointExtension></extensions>
      </trkpt>
      <trkpt lat="57.8086960347" lon="14.2895503756">
        <ele>245.6</ele>
        <time>2010-11-19T18:06:58Z</time>
        <extensions><gpxtpx:TrackPointExtension><gpxtpx:hr>125</gpxtpx:hr></gpxtpx:TrackPointExtension></extensions>
      </trkpt>
      <trkpt lat="57.8086418038" lon="14.2895580031">
        <ele>245.6</ele>
        <time>2010-11-19T18:07:00Z</time>
        <extensions><gpxtpx:TrackPointExtension><gpxtpx:hr>125</gpxtpx:hr></gpxtpx:TrackPointExtension></extensions>
      </trkpt>
      <trkpt lat="57.8085793587" lon="14.2895533092">
        <ele>245.6</ele>
        <time>2010-11-19T18:07:02Z</time>
        <extensions><gpxtpx:TrackPointExtension><gpxtpx:hr>126</gpxtpx:hr></gpxtpx:TrackPointExtension></extensions>
      </trkpt>
      <trkpt lat="57.8085249601" lon="14.2895604339">
        <ele>245.6</ele>
        <time>2010-11-19T18:07:04Z</time>
        <extensions><gpxtpx:TrackPointExtension><gpxtpx:hr>125</gpxtpx:hr></gpxtpx:TrackPointExtension></extensions>
      </trkpt>
      <trkpt lat="57.8084658677" lon="14.2895610206">
        <ele>245.6</ele>
        <time>2010-11-19T18:07:06Z</time>
        <extensions><gpxtpx:TrackPointExtension><gpxtpx:hr>124</gpxtpx:hr></gpxtpx:TrackPointExtension></extensions>
      </trkpt>
      <trkpt lat="57.8084099605" lon="14.2895613559">
        <ele>245.6</ele>
        <time>2010-11-19T18:07:08Z</time>
        <extensions><gpxtpx:TrackPointExtension><gpxtpx:hr>124</gpxtpx:hr></gpxtpx:TrackPointExtension></extensions>
      </trkpt>
      <trkpt lat="57.8083602558" lon="14.2895668041">
        <ele>245.6</ele>
        <time>2010-11-19T18:07:09Z</time>
        <extensions><gpxtpx:TrackPointExtension><gpxtpx:hr>123</gpxtpx:hr></gpxtpx:TrackPointExtension></extensions>
      </trkpt>
      <trkpt lat="57.8083019178" lon="14.2895635352">
        <ele>245.6</ele>
        <time>2010-11-19T18:07:12Z</time>
        <extensions><gpxtpx:TrackPointExtension><gpxtpx:hr>122</gpxtpx:hr></gpxtpx:TrackPointExtension></extensions>
      </trkpt>
      <trkpt lat="57.808245759" lon="14.2895714141">
        <ele>245.6</ele>
        <time>2010-11-19T18:07:14Z</time>
        <extensions><gpxtpx:TrackPointExtension><gpxtpx:hr>122</gpxtpx:hr></gpxtpx:TrackPointExtension></extensions>
      </trkpt>
      <trkpt lat="57.8081844035" lon="14.289581221">
        <ele>245.6</ele>
        <time>2010-11-19T18:07:16Z</time>
        <extensions><gpxtpx:TrackPointExtension><gpxtpx:hr>122</gpxtpx:hr></gpxtpx:TrackPointExtension></extensions>
      </trkpt>
      <trkpt lat="57.8081258141" lon="14.2895905249">
        <ele>245.6</ele>
        <time>2010-11-19T18:07:18Z</time>
        <extensions><gpxtpx:TrackPointExtension><gpxtpx:hr>122</gpxtpx:hr></gpxtpx:TrackPointExtension></extensions>
      </trkpt>
      <trkpt lat="57.8080338646" lon="14.2895835679">
        <ele>245.6</ele>
        <time>2010-11-19T18:07:21Z</time>
        <extensions><gpxtpx:TrackPointExtension><gpxtpx:hr>123</gpxtpx:hr></gpxtpx:TrackPointExtension></extensions>
      </trkpt>
      <trkpt lat="57.8079742693" lon="14.2895945482">
        <ele>245.6</ele>
        <time>2010-11-19T18:07:23Z</time>
        <extensions><gpxtpx:TrackPointExtension><gpxtpx:hr>123</gpxtpx:hr></gpxtpx:TrackPointExtension></extensions>
      </trkpt>
      <trkpt lat="57.8079208766" lon="14.2896105576">
        <ele>246</ele>
        <time>2010-11-19T18:07:25Z</time>
        <extensions><gpxtpx:TrackPointExtension><gpxtpx:hr>122</gpxtpx:hr></gpxtpx:TrackPointExtension></extensions>
      </trkpt>
      <trkpt lat="57.807867903" lon="14.2896099709">
        <ele>246.4</ele>
        <time>2010-11-19T18:07:26Z</time>
        <extensions><gpxtpx:TrackPointExtension><gpxtpx:hr>122</gpxtpx:hr></gpxtpx:TrackPointExtension></extensions>
      </trkpt>
      <trkpt lat="57.8078065475" lon="14.2896093003">
        <ele>246.6</ele>
        <time>2010-11-19T18:07:29Z</time>
        <extensions><gpxtpx:TrackPointExtension><gpxtpx:hr>122</gpxtpx:hr></gpxtpx:TrackPointExtension></extensions>
      </trkpt>
      <trkpt lat="57.8077540768" lon="14.2896126531">
        <ele>246.8</ele>
        <time>2010-11-19T18:07:31Z</time>
        <extensions><gpxtpx:TrackPointExtension><gpxtpx:hr>122</gpxtpx:hr></gpxtpx:TrackPointExtension></extensions>
      </trkpt>
      <trkpt lat="57.8076952359" lon="14.2896222923">
        <ele>247</ele>
        <time>2010-11-19T18:07:33Z</time>
        <extensions><gpxtpx:TrackPointExtension><gpxtpx:hr>123</gpxtpx:hr></gpxtpx:TrackPointExtension></extensions>
      </trkpt>
      <trkpt lat="57.8076393286" lon="14.2896199453">
        <ele>247.2</ele>
        <time>2010-11-19T18:07:35Z</time>
        <extensions><gpxtpx:TrackPointExtension><gpxtpx:hr>123</gpxtpx:hr></gpxtpx:TrackPointExtension></extensions>
      </trkpt>
      <trkpt lat="57.8075768834" lon="14.2896218732">
        <ele>247.2</ele>
        <time>2010-11-19T18:07:37Z</time>
        <extensions><gpxtpx:TrackPointExtension><gpxtpx:hr>124</gpxtpx:hr></gpxtpx:TrackPointExtension></extensions>
      </trkpt>
      <trkpt lat="57.8075211438" lon="14.2896236334">
        <ele>247.4</ele>
        <time>2010-11-19T18:07:39Z</time>
        <extensions><gpxtpx:TrackPointExtension><gpxtpx:hr>125</gpxtpx:hr></gpxtpx:TrackPointExtension></extensions>
      </trkpt>
      <trkpt lat="57.8074625543" lon="14.2896230467">
        <ele>247.4</ele>
        <time>2010-11-19T18:07:41Z</time>
        <extensions><gpxtpx:TrackPointExtension><gpxtpx:hr>126</gpxtpx:hr></gpxtpx:TrackPointExtension></extensions>
      </trkpt>
      <trkpt lat="57.8074063118" lon="14.2896246392">
        <ele>247.4</ele>
        <time>2010-11-19T18:07:43Z</time>
        <extensions><gpxtpx:TrackPointExtension><gpxtpx:hr>127</gpxtpx:hr></gpxtpx:TrackPointExtension></extensions>
      </trkpt>
      <trkpt lat="57.8073528352" lon="14.2896243039">
        <ele>247.4</ele>
        <time>2010-11-19T18:07:45Z</time>
        <extensions><gpxtpx:TrackPointExtension><gpxtpx:hr>128</gpxtpx:hr></gpxtpx:TrackPointExtension></extensions>
      </trkpt>
      <trkpt lat="57.8072959221" lon="14.2896236334">
        <ele>247.6</ele>
        <time>2010-11-19T18:07:47Z</time>
        <extensions><gpxtpx:TrackPointExtension><gpxtpx:hr>128</gpxtpx:hr></gpxtpx:TrackPointExtension></extensions>
      </trkpt>
      <trkpt lat="57.8072416912" lon="14.2896271538">
        <ele>248</ele>
        <time>2010-11-19T18:07:49Z</time>
        <extensions><gpxtpx:TrackPointExtension><gpxtpx:hr>128</gpxtpx:hr></gpxtpx:TrackPointExtension></extensions>
      </trkpt>
      <trkpt lat="57.8071857002" lon="14.2896315962">
        <ele>248.2</ele>
        <time>2010-11-19T18:07:51Z</time>
        <extensions><gpxtpx:TrackPointExtension><gpxtpx:hr>127</gpxtpx:hr></gpxtpx:TrackPointExtension></extensions>
      </trkpt>
      <trkpt lat="57.8071333971" lon="14.2896304227">
        <ele>248.6</ele>
        <time>2010-11-19T18:07:53Z</time>
        <extensions><gpxtpx:TrackPointExtension><gpxtpx:hr>127</gpxtpx:hr></gpxtpx:TrackPointExtension></extensions>
      </trkpt>
      <trkpt lat="57.8070839439" lon="14.2896331888">
        <ele>248.8</ele>
        <time>2010-11-19T18:07:55Z</time>
        <extensions><gpxtpx:TrackPointExtension><gpxtpx:hr>126</gpxtpx:hr></gpxtpx:TrackPointExtension></extensions>
      </trkpt>
      <trkpt lat="57.8070367538" lon="14.2896302551">
        <ele>249</ele>
        <time>2010-11-19T18:07:57Z</time>
        <extensions><gpxtpx:TrackPointExtension><gpxtpx:hr>126</gpxtpx:hr></gpxtpx:TrackPointExtension></extensions>
      </trkpt>
      <trkpt lat="57.8070263602" lon="14.2896350328">
        <ele>249</ele>
        <time>2010-11-19T18:07:58Z</time>
        <extensions><gpxtpx:TrackPointExtension><gpxtpx:hr>126</gpxtpx:hr></gpxtpx:TrackPointExtension></extensions>
      </trkpt>
      <trkpt lat="57.8070436269" lon="14.2896220408">
        <ele>249.4</ele>
        <time>2010-11-19T18:08:05Z</time>
        <extensions><gpxtpx:TrackPointExtension><gpxtpx:hr>118</gpxtpx:hr></gpxtpx:TrackPointExtension></extensions>
      </trkpt>
      <trkpt lat="57.8070608937" lon="14.2896170117">
        <ele>249.4</ele>
        <time>2010-11-19T18:08:06Z</time>
        <extensions><gpxtpx:TrackPointExtension><gpxtpx:hr>118</gpxtpx:hr></gpxtpx:TrackPointExtension></extensions>
      </trkpt>
      <trkpt lat="57.8071126938" lon="14.289624723">
        <ele>249.6</ele>
        <time>2010-11-19T18:08:09Z</time>
        <extensions><gpxtpx:TrackPointExtension><gpxtpx:hr>118</gpxtpx:hr></gpxtpx:TrackPointExtension></extensions>
      </trkpt>
      <trkpt lat="57.807110766" lon="14.2896241363">
        <ele>249.6</ele>
        <time>2010-11-19T18:08:10Z</time>
        <extensions><gpxtpx:TrackPointExtension><gpxtpx:hr>119</gpxtpx:hr></gpxtpx:TrackPointExtension></extensions>
      </trkpt>
      <trkpt lat="57.8070989475" lon="14.2896186042">
        <ele>249.6</ele>
        <time>2010-11-19T18:08:11Z</time>
        <extensions><gpxtpx:TrackPointExtension><gpxtpx:hr>120</gpxtpx:hr></gpxtpx:TrackPointExtension></extensions>
      </trkpt>
      <trkpt lat="57.8070294615" lon="14.2895970628">
        <ele>249.6</ele>
        <time>2010-11-19T18:08:14Z</time>
        <extensions><gpxtpx:TrackPointExtension><gpxtpx:hr>125</gpxtpx:hr></gpxtpx:TrackPointExtension></extensions>
      </trkpt>
      <trkpt lat="57.8069821038" lon="14.2895792093">
        <ele>249.6</ele>
        <time>2010-11-19T18:08:16Z</time>
        <extensions><gpxtpx:TrackPointExtension><gpxtpx:hr>128</gpxtpx:hr></gpxtpx:TrackPointExtension></extensions>
      </trkpt>
      <trkpt lat="57.8069856242" lon="14.2895766109">
        <ele>249.6</ele>
        <time>2010-11-19T18:08:17Z</time>
        <extensions><gpxtpx:TrackPointExtension><gpxtpx:hr>129</gpxtpx:hr></gpxtpx:TrackPointExtension></extensions>
      </trkpt>
      <trkpt lat="57.8069825229" lon="14.2895828974">
        <ele>249.8</ele>
        <time>2010-11-19T18:08:29Z</time>
        <extensions><gpxtpx:TrackPointExtension><gpxtpx:hr>127</gpxtpx:hr></gpxtpx:TrackPointExtension></extensions>
      </trkpt>
      <trkpt lat="57.8069826067" lon="14.2895782873">
        <ele>249.8</ele>
        <time>2010-11-19T18:08:38Z</time>
        <extensions><gpxtpx:TrackPointExtension><gpxtpx:hr>112</gpxtpx:hr></gpxtpx:TrackPointExtension></extensions>
      </trkpt>
      <trkpt lat="57.8069831096" lon="14.2895766109">
        <ele>249.8</ele>
        <time>2010-11-19T18:08:39Z</time>
        <extensions><gpxtpx:TrackPointExtension><gpxtpx:hr>112</gpxtpx:hr></gpxtpx:TrackPointExtension></extensions>
      </trkpt>
      <trkpt lat="57.8069850375" lon="14.2895719171">
        <ele>249.8</ele>
        <time>2010-11-19T18:08:41Z</time>
        <extensions><gpxtpx:TrackPointExtension><gpxtpx:hr>104</gpxtpx:hr></gpxtpx:TrackPointExtension></extensions>
      </trkpt>
      <trkpt lat="57.8069507555" lon="14.2895414908">
        <ele>249.8</ele>
        <time>2010-11-19T18:08:45Z</time>
        <extensions><gpxtpx:TrackPointExtension><gpxtpx:hr>102</gpxtpx:hr></gpxtpx:TrackPointExtension></extensions>
      </trkpt>
      <trkpt lat="57.8069153839" lon="14.2895341985">
        <ele>249.8</ele>
        <time>2010-11-19T18:08:48Z</time>
        <extensions><gpxtpx:TrackPointExtension><gpxtpx:hr>106</gpxtpx:hr></gpxtpx:TrackPointExtension></extensions>
      </trkpt>
      <trkpt lat="57.8069098518" lon="14.289532103">
        <ele>249.8</ele>
        <time>2010-11-19T18:08:51Z</time>
        <extensions><gpxtpx:TrackPointExtension><gpxtpx:hr>111</gpxtpx:hr></gpxtpx:TrackPointExtension></extensions>
      </trkpt>
      <trkpt lat="57.8069106062" lon="14.2895610206">
        <ele>249.8</ele>
        <time>2010-11-19T18:09:05Z</time>
        <extensions><gpxtpx:TrackPointExtension><gpxtpx:hr>108</gpxtpx:hr></gpxtpx:TrackPointExtension></extensions>
      </trkpt>
      <trkpt lat="57.8068810181" lon="14.28957703">
        <ele>249.8</ele>
        <time>2010-11-19T18:09:09Z</time>
        <extensions><gpxtpx:TrackPointExtension><gpxtpx:hr>110</gpxtpx:hr></gpxtpx:TrackPointExtension></extensions>
      </trkpt>
      <trkpt lat="57.8068909087" lon="14.2895647086">
        <ele>249.8</ele>
        <time>2010-11-19T18:09:16Z</time>
        <extensions><gpxtpx:TrackPointExtension><gpxtpx:hr>102</gpxtpx:hr></gpxtpx:TrackPointExtension></extensions>
      </trkpt>
      <trkpt lat="57.8069107738" lon="14.2895497888">
        <ele>249.8</ele>
        <time>2010-11-19T18:09:17Z</time>
        <extensions><gpxtpx:TrackPointExtension><gpxtpx:hr>102</gpxtpx:hr></gpxtpx:TrackPointExtension></extensions>
      </trkpt>
      <trkpt lat="57.8069555332" lon="14.2895789579">
        <ele>249.8</ele>
        <time>2010-11-19T18:09:20Z</time>
        <extensions><gpxtpx:TrackPointExtension><gpxtpx:hr>104</gpxtpx:hr></gpxtpx:TrackPointExtension></extensions>
      </trkpt>
      <trkpt lat="57.806932902" lon="14.2895720009">
        <ele>249.8</ele>
        <time>2010-11-19T18:09:21Z</time>
        <extensions><gpxtpx:TrackPointExtension><gpxtpx:hr>110</gpxtpx:hr></gpxtpx:TrackPointExtension></extensions>
      </trkpt>
      <trkpt lat="57.8068764919" lon="14.2895630322">
        <ele>249.8</ele>
        <time>2010-11-19T18:09:25Z</time>
        <extensions><gpxtpx:TrackPointExtension><gpxtpx:hr>116</gpxtpx:hr></gpxtpx:TrackPointExtension></extensions>
      </trkpt>
      <trkpt lat="57.8068674394" lon="14.2895588413">
        <ele>249.8</ele>
        <time>2010-11-19T18:09:30Z</time>
        <extensions><gpxtpx:TrackPointExtension><gpxtpx:hr>115</gpxtpx:hr></gpxtpx:TrackPointExtension></extensions>
      </trkpt>
      <trkpt lat="57.8068546151" lon="14.2895414069">
        <ele>249.8</ele>
        <time>2010-11-19T18:09:34Z</time>
        <extensions><gpxtpx:TrackPointExtension><gpxtpx:hr>113</gpxtpx:hr></gpxtpx:TrackPointExtension></extensions>
      </trkpt>
      <trkpt lat="57.806781944" lon="14.2895448435">
        <ele>249.8</ele>
        <time>2010-11-19T18:09:37Z</time>
        <extensions><gpxtpx:TrackPointExtension><gpxtpx:hr>116</gpxtpx:hr></gpxtpx:TrackPointExtension></extensions>
      </trkpt>
      <trkpt lat="57.8067044115" lon="14.2895429157">
        <ele>249.8</ele>
        <time>2010-11-19T18:09:39Z</time>
        <extensions><gpxtpx:TrackPointExtension><gpxtpx:hr>117</gpxtpx:hr></gpxtpx:TrackPointExtension></extensions>
      </trkpt>
      <trkpt lat="57.8065857237" lon="14.2895346176">
        <ele>249.8</ele>
        <time>2010-11-19T18:09:44Z</time>
        <extensions><gpxtpx:TrackPointExtension><gpxtpx:hr>118</gpxtpx:hr></gpxtpx:TrackPointExtension></extensions>
      </trkpt>
      <trkpt lat="57.8065291459" lon="14.2895317678">
        <ele>249.8</ele>
        <time>2010-11-19T18:09:46Z</time>
        <extensions><gpxtpx:TrackPointExtension><gpxtpx:hr>118</gpxtpx:hr></gpxtpx:TrackPointExtension></extensions>
      </trkpt>
      <trkpt lat="57.8064770943" lon="14.2895341985">
        <ele>249.8</ele>
        <time>2010-11-19T18:09:48Z</time>
        <extensions><gpxtpx:TrackPointExtension><gpxtpx:hr>119</gpxtpx:hr></gpxtpx:TrackPointExtension></extensions>
      </trkpt>
      <trkpt lat="57.8064503561" lon="14.2895634513">
        <ele>249.8</ele>
        <time>2010-11-19T18:09:49Z</time>
        <extensions><gpxtpx:TrackPointExtension><gpxtpx:hr>119</gpxtpx:hr></gpxtpx:TrackPointExtension></extensions>
      </trkpt>
      <trkpt lat="57.8063899226" lon="14.2895734258">
        <ele>249.8</ele>
        <time>2010-11-19T18:09:51Z</time>
        <extensions><gpxtpx:TrackPointExtension><gpxtpx:hr>119</gpxtpx:hr></gpxtpx:TrackPointExtension></extensions>
      </trkpt>
      <trkpt lat="57.8063289862" lon="14.2895688158">
        <ele>249.8</ele>
        <time>2010-11-19T18:09:53Z</time>
        <extensions><gpxtpx:TrackPointExtension><gpxtpx:hr>120</gpxtpx:hr></gpxtpx:TrackPointExtension></extensions>
      </trkpt>
      <trkpt lat="57.8062968835" lon="14.2895728391">
        <ele>249.8</ele>
        <time>2010-11-19T18:09:54Z</time>
        <extensions><gpxtpx:TrackPointExtension><gpxtpx:hr>120</gpxtpx:hr></gpxtpx:TrackPointExtension></extensions>
      </trkpt>
      <trkpt lat="57.8062374558" lon="14.2895735934">
        <ele>249.8</ele>
        <time>2010-11-19T18:09:56Z</time>
        <extensions><gpxtpx:TrackPointExtension><gpxtpx:hr>122</gpxtpx:hr></gpxtpx:TrackPointExtension></extensions>
      </trkpt>
      <trkpt lat="57.8061838116" lon="14.2895709112">
        <ele>249.8</ele>
        <time>2010-11-19T18:09:58Z</time>
        <extensions><gpxtpx:TrackPointExtension><gpxtpx:hr>122</gpxtpx:hr></gpxtpx:TrackPointExtension></extensions>
      </trkpt>
      <trkpt lat="57.8061171755" lon="14.289570576">
        <ele>249.8</ele>
        <time>2010-11-19T18:10:00Z</time>
        <extensions><gpxtpx:TrackPointExtension><gpxtpx:hr>122</gpxtpx:hr></gpxtpx:TrackPointExtension></extensions>
      </trkpt>
      <trkpt lat="57.8060507909" lon="14.2895709112">
        <ele>249.8</ele>
        <time>2010-11-19T18:10:02Z</time>
        <extensions><gpxtpx:TrackPointExtension><gpxtpx:hr>122</gpxtpx:hr></gpxtpx:TrackPointExtension></extensions>
      </trkpt>
      <trkpt lat="57.8059786227" lon="14.289562697">
        <ele>249.8</ele>
        <time>2010-11-19T18:10:04Z</time>
        <extensions><gpxtpx:TrackPointExtension><gpxtpx:hr>122</gpxtpx:hr></gpxtpx:TrackPointExtension></extensions>
      </trkpt>
      <trkpt lat="57.8059135792" lon="14.2895546503">
        <ele>249.8</ele>
        <time>2010-11-19T18:10:06Z</time>
        <extensions><gpxtpx:TrackPointExtension><gpxtpx:hr>123</gpxtpx:hr></gpxtpx:TrackPointExtension></extensions>
      </trkpt>
      <trkpt lat="57.8058472784" lon="14.2895578355">
        <ele>249.8</ele>
        <time>2010-11-19T18:10:08Z</time>
        <extensions><gpxtpx:TrackPointExtension><gpxtpx:hr>123</gpxtpx:hr></gpxtpx:TrackPointExtension></extensions>
      </trkpt>
      <trkpt lat="57.8057924607" lon="14.2895569973">
        <ele>249.8</ele>
        <time>2010-11-19T18:10:09Z</time>
        <extensions><gpxtpx:TrackPointExtension><gpxtpx:hr>123</gpxtpx:hr></gpxtpx:TrackPointExtension></extensions>
      </trkpt>
      <trkpt lat="57.805728423" lon="14.2895497888">
        <ele>249.8</ele>
        <time>2010-11-19T18:10:12Z</time>
        <extensions><gpxtpx:TrackPointExtension><gpxtpx:hr>123</gpxtpx:hr></gpxtpx:TrackPointExtension></extensions>
      </trkpt>
      <trkpt lat="57.8056664808" lon="14.2895567458">
        <ele>249.8</ele>
        <time>2010-11-19T18:10:14Z</time>
        <extensions><gpxtpx:TrackPointExtension><gpxtpx:hr>123</gpxtpx:hr></gpxtpx:TrackPointExtension></extensions>
      </trkpt>
      <trkpt lat="57.8056082266" lon="14.2895508785">
        <ele>249.8</ele>
        <time>2010-11-19T18:10:16Z</time>
        <extensions><gpxtpx:TrackPointExtension><gpxtpx:hr>124</gpxtpx:hr></gpxtpx:TrackPointExtension></extensions>
      </trkpt>
      <trkpt lat="57.8055432668" lon="14.2895409879">
        <ele>249.8</ele>
        <time>2010-11-19T18:10:18Z</time>
        <extensions><gpxtpx:TrackPointExtension><gpxtpx:hr>125</gpxtpx:hr></gpxtpx:TrackPointExtension></extensions>
      </trkpt>
      <trkpt lat="57.8054773851" lon="14.2895367969">
        <ele>249.8</ele>
        <time>2010-11-19T18:10:20Z</time>
        <extensions><gpxtpx:TrackPointExtension><gpxtpx:hr>126</gpxtpx:hr></gpxtpx:TrackPointExtension></extensions>
      </trkpt>
      <trkpt lat="57.8054122577" lon="14.2895301752">
        <ele>249.8</ele>
        <time>2010-11-19T18:10:22Z</time>
        <extensions><gpxtpx:TrackPointExtension><gpxtpx:hr>126</gpxtpx:hr></gpxtpx:TrackPointExtension></extensions>
      </trkpt>
      <trkpt lat="57.805331121" lon="14.2895209551">
        <ele>249.8</ele>
        <time>2010-11-19T18:10:24Z</time>
        <extensions><gpxtpx:TrackPointExtension><gpxtpx:hr>127</gpxtpx:hr></gpxtpx:TrackPointExtension></extensions>
      </trkpt>
      <trkpt lat="57.8053045503" lon="14.2895155907">
        <ele>249.8</ele>
        <time>2010-11-19T18:10:25Z</time>
        <extensions><gpxtpx:TrackPointExtension><gpxtpx:hr>127</gpxtpx:hr></gpxtpx:TrackPointExtension></extensions>
      </trkpt>
      <trkpt lat="57.8052327175" lon="14.2895040237">
        <ele>249.8</ele>
        <time>2010-11-19T18:10:28Z</time>
        <extensions><gpxtpx:TrackPointExtension><gpxtpx:hr>127</gpxtpx:hr></gpxtpx:TrackPointExtension></extensions>
      </trkpt>
      <trkpt lat="57.8051677577" lon="14.2895028502">
        <ele>249.8</ele>
        <time>2010-11-19T18:10:30Z</time>
        <extensions><gpxtpx:TrackPointExtension><gpxtpx:hr>127</gpxtpx:hr></gpxtpx:TrackPointExtension></extensions>
      </trkpt>
      <trkpt lat="57.8051117666" lon="14.2895077955">
        <ele>249.8</ele>
        <time>2010-11-19T18:10:32Z</time>
        <extensions><gpxtpx:TrackPointExtension><gpxtpx:hr>127</gpxtpx:hr></gpxtpx:TrackPointExtension></extensions>
      </trkpt>
      <trkpt lat="57.8050235052" lon="14.2895083823">
        <ele>249.8</ele>
        <time>2010-11-19T18:10:35Z</time>
        <extensions><gpxtpx:TrackPointExtension><gpxtpx:hr>125</gpxtpx:hr></gpxtpx:TrackPointExtension></extensions>
      </trkpt>
      <trkpt lat="57.8049653348" lon="14.2895000004">
        <ele>249.8</ele>
        <time>2010-11-19T18:10:37Z</time>
        <extensions><gpxtpx:TrackPointExtension><gpxtpx:hr>124</gpxtpx:hr></gpxtpx:TrackPointExtension></extensions>
      </trkpt>
      <trkpt lat="57.8049046499" lon="14.2894870922">
        <ele>249.8</ele>
        <time>2010-11-19T18:10:39Z</time>
        <extensions><gpxtpx:TrackPointExtension><gpxtpx:hr>123</gpxtpx:hr></gpxtpx:TrackPointExtension></extensions>
      </trkpt>
      <trkpt lat="57.804843462" lon="14.28946312">
        <ele>249.8</ele>
        <time>2010-11-19T18:10:41Z</time>
        <extensions><gpxtpx:TrackPointExtension><gpxtpx:hr>122</gpxtpx:hr></gpxtpx:TrackPointExtension></extensions>
      </trkpt>
      <trkpt lat="57.804786046" lon="14.2894441769">
        <ele>249.8</ele>
        <time>2010-11-19T18:10:43Z</time>
        <extensions><gpxtpx:TrackPointExtension><gpxtpx:hr>122</gpxtpx:hr></gpxtpx:TrackPointExtension></extensions>
      </trkpt>
      <trkpt lat="57.8047281271" lon="14.2894218811">
        <ele>249.8</ele>
        <time>2010-11-19T18:10:45Z</time>
        <extensions><gpxtpx:TrackPointExtension><gpxtpx:hr>123</gpxtpx:hr></gpxtpx:TrackPointExtension></extensions>
      </trkpt>
      <trkpt lat="57.8046763269" lon="14.2893974897">
        <ele>249.8</ele>
        <time>2010-11-19T18:10:47Z</time>
        <extensions><gpxtpx:TrackPointExtension><gpxtpx:hr>124</gpxtpx:hr></gpxtpx:TrackPointExtension></extensions>
      </trkpt>
      <trkpt lat="57.8046122054" lon="14.2893751101">
        <ele>249.8</ele>
        <time>2010-11-19T18:10:49Z</time>
        <extensions><gpxtpx:TrackPointExtension><gpxtpx:hr>124</gpxtpx:hr></gpxtpx:TrackPointExtension></extensions>
      </trkpt>
      <trkpt lat="57.8045473295" lon="14.2893476174">
        <ele>249.8</ele>
        <time>2010-11-19T18:10:51Z</time>
        <extensions><gpxtpx:TrackPointExtension><gpxtpx:hr>123</gpxtpx:hr></gpxtpx:TrackPointExtension></extensions>
      </trkpt>
      <trkpt lat="57.8044838785" lon="14.2893178617">
        <ele>249.8</ele>
        <time>2010-11-19T18:10:53Z</time>
        <extensions><gpxtpx:TrackPointExtension><gpxtpx:hr>123</gpxtpx:hr></gpxtpx:TrackPointExtension></extensions>
      </trkpt>
      <trkpt lat="57.8044230259" lon="14.2892953144">
        <ele>249.4</ele>
        <time>2010-11-19T18:10:55Z</time>
        <extensions><gpxtpx:TrackPointExtension><gpxtpx:hr>123</gpxtpx:hr></gpxtpx:TrackPointExtension></extensions>
      </trkpt>
      <trkpt lat="57.8043620895" lon="14.2892711745">
        <ele>249</ele>
        <time>2010-11-19T18:10:57Z</time>
        <extensions><gpxtpx:TrackPointExtension><gpxtpx:hr>123</gpxtpx:hr></gpxtpx:TrackPointExtension></extensions>
      </trkpt>
      <trkpt lat="57.8043086968" lon="14.2892420055">
        <ele>248.8</ele>
        <time>2010-11-19T18:10:59Z</time>
        <extensions><gpxtpx:TrackPointExtension><gpxtpx:hr>122</gpxtpx:hr></gpxtpx:TrackPointExtension></extensions>
      </trkpt>
      <trkpt lat="57.8042553879" lon="14.2891926361">
        <ele>248.6</ele>
        <time>2010-11-19T18:11:01Z</time>
        <extensions><gpxtpx:TrackPointExtension><gpxtpx:hr>123</gpxtpx:hr></gpxtpx:TrackPointExtension></extensions>
      </trkpt>
      <trkpt lat="57.8042045936" lon="14.2891590247">
        <ele>248.4</ele>
        <time>2010-11-19T18:11:03Z</time>
        <extensions><gpxtpx:TrackPointExtension><gpxtpx:hr>123</gpxtpx:hr></gpxtpx:TrackPointExtension></extensions>
      </trkpt>
      <trkpt lat="57.8041506142" lon="14.2891237369">
        <ele>247.8</ele>
        <time>2010-11-19T18:11:05Z</time>
        <extensions><gpxtpx:TrackPointExtension><gpxtpx:hr>122</gpxtpx:hr></gpxtpx:TrackPointExtension></extensions>
      </trkpt>
      <trkpt lat="57.80409236" lon="14.2890897064">
        <ele>247.4</ele>
        <time>2010-11-19T18:11:07Z</time>
        <extensions><gpxtpx:TrackPointExtension><gpxtpx:hr>123</gpxtpx:hr></gpxtpx:TrackPointExtension></extensions>
      </trkpt>
      <trkpt lat="57.8040319265" lon="14.289061627">
        <ele>247</ele>
        <time>2010-11-19T18:11:09Z</time>
        <extensions><gpxtpx:TrackPointExtension><gpxtpx:hr>122</gpxtpx:hr></gpxtpx:TrackPointExtension></extensions>
      </trkpt>
      <trkpt lat="57.8039740075" lon="14.2890310331">
        <ele>246.8</ele>
        <time>2010-11-19T18:11:11Z</time>
        <extensions><gpxtpx:TrackPointExtension><gpxtpx:hr>122</gpxtpx:hr></gpxtpx:TrackPointExtension></extensions>
      </trkpt>
      <trkpt lat="57.8039165077" lon="14.2890059712">
        <ele>246.6</ele>
        <time>2010-11-19T18:11:13Z</time>
        <extensions><gpxtpx:TrackPointExtension><gpxtpx:hr>121</gpxtpx:hr></gpxtpx:TrackPointExtension></extensions>
      </trkpt>
      <trkpt lat="57.8038662163" lon="14.2889631397">
        <ele>246.4</ele>
        <time>2010-11-19T18:11:15Z</time>
        <extensions><gpxtpx:TrackPointExtension><gpxtpx:hr>121</gpxtpx:hr></gpxtpx:TrackPointExtension></extensions>
      </trkpt>
      <trkpt lat="57.803812153" lon="14.288920392">
        <ele>245.8</ele>
        <time>2010-11-19T18:11:17Z</time>
        <extensions><gpxtpx:TrackPointExtension><gpxtpx:hr>120</gpxtpx:hr></gpxtpx:TrackPointExtension></extensions>
      </trkpt>
      <trkpt lat="57.8037563296" lon="14.2888799074">
        <ele>245.4</ele>
        <time>2010-11-19T18:11:19Z</time>
        <extensions><gpxtpx:TrackPointExtension><gpxtpx:hr>120</gpxtpx:hr></gpxtpx:TrackPointExtension></extensions>
      </trkpt>
      <trkpt lat="57.8036967343" lon="14.288843949">
        <ele>245</ele>
        <time>2010-11-19T18:11:21Z</time>
        <extensions><gpxtpx:TrackPointExtension><gpxtpx:hr>120</gpxtpx:hr></gpxtpx:TrackPointExtension></extensions>
      </trkpt>
      <trkpt lat="57.8036430063" lon="14.2887987706">
        <ele>244.8</ele>
        <time>2010-11-19T18:11:23Z</time>
        <extensions><gpxtpx:TrackPointExtension><gpxtpx:hr>120</gpxtpx:hr></gpxtpx:TrackPointExtension></extensions>
      </trkpt>
      <trkpt lat="57.8035915414" lon="14.2887628123">
        <ele>244.6</ele>
        <time>2010-11-19T18:11:25Z</time>
        <extensions><gpxtpx:TrackPointExtension><gpxtpx:hr>119</gpxtpx:hr></gpxtpx:TrackPointExtension></extensions>
      </trkpt>
      <trkpt lat="57.8035354665" lon="14.2887099225">
        <ele>244.4</ele>
        <time>2010-11-19T18:11:27Z</time>
        <extensions><gpxtpx:TrackPointExtension><gpxtpx:hr>119</gpxtpx:hr></gpxtpx:TrackPointExtension></extensions>
      </trkpt>
      <trkpt lat="57.8034824929" lon="14.2886674262">
        <ele>244</ele>
        <time>2010-11-19T18:11:28Z</time>
        <extensions><gpxtpx:TrackPointExtension><gpxtpx:hr>120</gpxtpx:hr></gpxtpx:TrackPointExtension></extensions>
      </trkpt>
      <trkpt lat="57.8034278429" lon="14.2886167996">
        <ele>243.6</ele>
        <time>2010-11-19T18:11:31Z</time>
        <extensions><gpxtpx:TrackPointExtension><gpxtpx:hr>120</gpxtpx:hr></gpxtpx:TrackPointExtension></extensions>
      </trkpt>
      <trkpt lat="57.803370846" lon="14.2885715373">
        <ele>243.2</ele>
        <time>2010-11-19T18:11:33Z</time>
        <extensions><gpxtpx:TrackPointExtension><gpxtpx:hr>120</gpxtpx:hr></gpxtpx:TrackPointExtension></extensions>
      </trkpt>
      <trkpt lat="57.8033172018" lon="14.2885346569">
        <ele>242.8</ele>
        <time>2010-11-19T18:11:34Z</time>
        <extensions><gpxtpx:TrackPointExtension><gpxtpx:hr>118</gpxtpx:hr></gpxtpx:TrackPointExtension></extensions>
      </trkpt>
      <trkpt lat="57.8032577742" lon="14.2884863772">
        <ele>242.6</ele>
        <time>2010-11-19T18:11:37Z</time>
        <extensions><gpxtpx:TrackPointExtension><gpxtpx:hr>119</gpxtpx:hr></gpxtpx:TrackPointExtension></extensions>
      </trkpt>
      <trkpt lat="57.8031976759" lon="14.2884381813">
        <ele>242.4</ele>
        <time>2010-11-19T18:11:39Z</time>
        <extensions><gpxtpx:TrackPointExtension><gpxtpx:hr>119</gpxtpx:hr></gpxtpx:TrackPointExtension></extensions>
      </trkpt>
      <trkpt lat="57.8031401761" lon="14.2883824416">
        <ele>242.2</ele>
        <time>2010-11-19T18:11:41Z</time>
        <extensions><gpxtpx:TrackPointExtension><gpxtpx:hr>121</gpxtpx:hr></gpxtpx:TrackPointExtension></extensions>
      </trkpt>
      <trkpt lat="57.8030873701" lon="14.288341035">
        <ele>242.2</ele>
        <time>2010-11-19T18:11:43Z</time>
        <extensions><gpxtpx:TrackPointExtension><gpxtpx:hr>122</gpxtpx:hr></gpxtpx:TrackPointExtension></extensions>
      </trkpt>
      <trkpt lat="57.8030399286" lon="14.2882936773">
        <ele>242</ele>
        <time>2010-11-19T18:11:45Z</time>
        <extensions><gpxtpx:TrackPointExtension><gpxtpx:hr>125</gpxtpx:hr></gpxtpx:TrackPointExtension></extensions>
      </trkpt>
      <trkpt lat="57.8029887152" lon="14.2882432183">
        <ele>242</ele>
        <time>2010-11-19T18:11:47Z</time>
        <extensions><gpxtpx:TrackPointExtension><gpxtpx:hr>126</gpxtpx:hr></gpxtpx:TrackPointExtension></extensions>
      </trkpt>
      <trkpt lat="57.8029343167" lon="14.2882111994">
        <ele>241.8</ele>
        <time>2010-11-19T18:11:49Z</time>
        <extensions><gpxtpx:TrackPointExtension><gpxtpx:hr>126</gpxtpx:hr></gpxtpx:TrackPointExtension></extensions>
      </trkpt>
      <trkpt lat="57.8028759786" lon="14.2881734809">
        <ele>241.8</ele>
        <time>2010-11-19T18:11:51Z</time>
        <extensions><gpxtpx:TrackPointExtension><gpxtpx:hr>126</gpxtpx:hr></gpxtpx:TrackPointExtension></extensions>
      </trkpt>
      <trkpt lat="57.8027908185" lon="14.28810257">
        <ele>241.8</ele>
        <time>2010-11-19T18:11:53Z</time>
        <extensions><gpxtpx:TrackPointExtension><gpxtpx:hr>126</gpxtpx:hr></gpxtpx:TrackPointExtension></extensions>
      </trkpt>
      <trkpt lat="57.8027175607" lon="14.2880157335">
        <ele>241.6</ele>
        <time>2010-11-19T18:11:57Z</time>
        <extensions><gpxtpx:TrackPointExtension><gpxtpx:hr>126</gpxtpx:hr></gpxtpx:TrackPointExtension></extensions>
      </trkpt>
      <trkpt lat="57.8026551156" lon="14.287979859">
        <ele>241.6</ele>
        <time>2010-11-19T18:11:59Z</time>
        <extensions><gpxtpx:TrackPointExtension><gpxtpx:hr>127</gpxtpx:hr></gpxtpx:TrackPointExtension></extensions>
      </trkpt>
      <trkpt lat="57.8025993759" lon="14.2879304896">
        <ele>241.4</ele>
        <time>2010-11-19T18:12:01Z</time>
        <extensions><gpxtpx:TrackPointExtension><gpxtpx:hr>127</gpxtpx:hr></gpxtpx:TrackPointExtension></extensions>
      </trkpt>
      <trkpt lat="57.8025485816" lon="14.2879046733">
        <ele>241</ele>
        <time>2010-11-19T18:12:03Z</time>
        <extensions><gpxtpx:TrackPointExtension><gpxtpx:hr>128</gpxtpx:hr></gpxtpx:TrackPointExtension></extensions>
      </trkpt>
      <trkpt lat="57.8024990446" lon="14.2878836348">
        <ele>240.8</ele>
        <time>2010-11-19T18:12:04Z</time>
        <extensions><gpxtpx:TrackPointExtension><gpxtpx:hr>128</gpxtpx:hr></gpxtpx:TrackPointExtension></extensions>
      </trkpt>
      <trkpt lat="57.8024434726" lon="14.2878605007">
        <ele>240.6</ele>
        <time>2010-11-19T18:12:07Z</time>
        <extensions><gpxtpx:TrackPointExtension><gpxtpx:hr>129</gpxtpx:hr></gpxtpx:TrackPointExtension></extensions>
      </trkpt>
      <trkpt lat="57.8023875653" lon="14.2878232851">
        <ele>240.4</ele>
        <time>2010-11-19T18:12:09Z</time>
        <extensions><gpxtpx:TrackPointExtension><gpxtpx:hr>129</gpxtpx:hr></gpxtpx:TrackPointExtension></extensions>
      </trkpt>
      <trkpt lat="57.8023227732" lon="14.2877893384">
        <ele>240.2</ele>
        <time>2010-11-19T18:12:11Z</time>
        <extensions><gpxtpx:TrackPointExtension><gpxtpx:hr>129</gpxtpx:hr></gpxtpx:TrackPointExtension></extensions>
      </trkpt>
      <trkpt lat="57.8022562209" lon="14.2877732451">
        <ele>240</ele>
        <time>2010-11-19T18:12:13Z</time>
        <extensions><gpxtpx:TrackPointExtension><gpxtpx:hr>129</gpxtpx:hr></gpxtpx:TrackPointExtension></extensions>
      </trkpt>
      <trkpt lat="57.8021998946" lon="14.2877458363">
        <ele>240</ele>
        <time>2010-11-19T18:12:15Z</time>
        <extensions><gpxtpx:TrackPointExtension><gpxtpx:hr>129</gpxtpx:hr></gpxtpx:TrackPointExtension></extensions>
      </trkpt>
      <trkpt lat="57.8021430653" lon="14.2877141527">
        <ele>239.8</ele>
        <time>2010-11-19T18:12:17Z</time>
        <extensions><gpxtpx:TrackPointExtension><gpxtpx:hr>129</gpxtpx:hr></gpxtpx:TrackPointExtension></extensions>
      </trkpt>
      <trkpt lat="57.8020794467" lon="14.2876951258">
        <ele>239.8</ele>
        <time>2010-11-19T18:12:19Z</time>
        <extensions><gpxtpx:TrackPointExtension><gpxtpx:hr>128</gpxtpx:hr></gpxtpx:TrackPointExtension></extensions>
      </trkpt>
      <trkpt lat="57.8020150737" lon="14.2876850676">
        <ele>239.8</ele>
        <time>2010-11-19T18:12:21Z</time>
        <extensions><gpxtpx:TrackPointExtension><gpxtpx:hr>128</gpxtpx:hr></gpxtpx:TrackPointExtension></extensions>
      </trkpt>
      <trkpt lat="57.8019523771" lon="14.2876805413">
        <ele>239.6</ele>
        <time>2010-11-19T18:12:23Z</time>
        <extensions><gpxtpx:TrackPointExtension><gpxtpx:hr>128</gpxtpx:hr></gpxtpx:TrackPointExtension></extensions>
      </trkpt>
      <trkpt lat="57.8018878364" lon="14.28767744">
        <ele>239.2</ele>
        <time>2010-11-19T18:12:25Z</time>
        <extensions><gpxtpx:TrackPointExtension><gpxtpx:hr>129</gpxtpx:hr></gpxtpx:TrackPointExtension></extensions>
      </trkpt>
      <trkpt lat="57.801819943" lon="14.2876792002">
        <ele>239</ele>
        <time>2010-11-19T18:12:27Z</time>
        <extensions><gpxtpx:TrackPointExtension><gpxtpx:hr>129</gpxtpx:hr></gpxtpx:TrackPointExtension></extensions>
      </trkpt>
      <trkpt lat="57.8017638681" lon="14.2876864925">
        <ele>238.6</ele>
        <time>2010-11-19T18:12:28Z</time>
        <extensions><gpxtpx:TrackPointExtension><gpxtpx:hr>130</gpxtpx:hr></gpxtpx:TrackPointExtension></extensions>
      </trkpt>
      <trkpt lat="57.8016983217" lon="14.287704765">
        <ele>238.4</ele>
        <time>2010-11-19T18:12:31Z</time>
        <extensions><gpxtpx:TrackPointExtension><gpxtpx:hr>130</gpxtpx:hr></gpxtpx:TrackPointExtension></extensions>
      </trkpt>
      <trkpt lat="57.801644007" lon="14.2877040106">
        <ele>238.2</ele>
        <time>2010-11-19T18:12:33Z</time>
        <extensions><gpxtpx:TrackPointExtension><gpxtpx:hr>129</gpxtpx:hr></gpxtpx:TrackPointExtension></extensions>
      </trkpt>
      <trkpt lat="57.8015829029" lon="14.2877179246">
        <ele>238.2</ele>
        <time>2010-11-19T18:12:35Z</time>
        <extensions><gpxtpx:TrackPointExtension><gpxtpx:hr>129</gpxtpx:hr></gpxtpx:TrackPointExtension></extensions>
      </trkpt>
      <trkpt lat="57.8015218827" lon="14.2877489376">
        <ele>238</ele>
        <time>2010-11-19T18:12:37Z</time>
        <extensions><gpxtpx:TrackPointExtension><gpxtpx:hr>129</gpxtpx:hr></gpxtpx:TrackPointExtension></extensions>
      </trkpt>
      <trkpt lat="57.8014589346" lon="14.2877760112">
        <ele>237.8</ele>
        <time>2010-11-19T18:12:39Z</time>
        <extensions><gpxtpx:TrackPointExtension><gpxtpx:hr>127</gpxtpx:hr></gpxtpx:TrackPointExtension></extensions>
      </trkpt>
      <trkpt lat="57.8013992555" lon="14.2877925235">
        <ele>237.8</ele>
        <time>2010-11-19T18:12:41Z</time>
        <extensions><gpxtpx:TrackPointExtension><gpxtpx:hr>127</gpxtpx:hr></gpxtpx:TrackPointExtension></extensions>
      </trkpt>
      <trkpt lat="57.8013445217" lon="14.287813143">
        <ele>237.8</ele>
        <time>2010-11-19T18:12:43Z</time>
        <extensions><gpxtpx:TrackPointExtension><gpxtpx:hr>126</gpxtpx:hr></gpxtpx:TrackPointExtension></extensions>
      </trkpt>
      <trkpt lat="57.8012888659" lon="14.2878527894">
        <ele>237.8</ele>
        <time>2010-11-19T18:12:45Z</time>
        <extensions><gpxtpx:TrackPointExtension><gpxtpx:hr>127</gpxtpx:hr></gpxtpx:TrackPointExtension></extensions>
      </trkpt>
      <trkpt lat="57.8012301087" lon="14.2878886639">
        <ele>237.6</ele>
        <time>2010-11-19T18:12:47Z</time>
        <extensions><gpxtpx:TrackPointExtension><gpxtpx:hr>127</gpxtpx:hr></gpxtpx:TrackPointExtension></extensions>
      </trkpt>
      <trkpt lat="57.8011680827" lon="14.2879285617">
        <ele>237.6</ele>
        <time>2010-11-19T18:12:49Z</time>
        <extensions><gpxtpx:TrackPointExtension><gpxtpx:hr>127</gpxtpx:hr></gpxtpx:TrackPointExtension></extensions>
      </trkpt>
      <trkpt lat="57.8011097447" lon="14.2879590719">
        <ele>237.6</ele>
        <time>2010-11-19T18:12:51Z</time>
        <extensions><gpxtpx:TrackPointExtension><gpxtpx:hr>128</gpxtpx:hr></gpxtpx:TrackPointExtension></extensions>
      </trkpt>
      <trkpt lat="57.8010577769" lon="14.2880067649">
        <ele>237.6</ele>
        <time>2010-11-19T18:12:53Z</time>
        <extensions><gpxtpx:TrackPointExtension><gpxtpx:hr>130</gpxtpx:hr></gpxtpx:TrackPointExtension></extensions>
      </trkpt>
      <trkpt lat="57.8010048033" lon="14.2880318268">
        <ele>237.6</ele>
        <time>2010-11-19T18:12:54Z</time>
        <extensions><gpxtpx:TrackPointExtension><gpxtpx:hr>131</gpxtpx:hr></gpxtpx:TrackPointExtension></extensions>
      </trkpt>
      <trkpt lat="57.8009464652" lon="14.2880646838">
        <ele>237.6</ele>
        <time>2010-11-19T18:12:56Z</time>
        <extensions><gpxtpx:TrackPointExtension><gpxtpx:hr>132</gpxtpx:hr></gpxtpx:TrackPointExtension></extensions>
      </trkpt>
      <trkpt lat="57.8008912285" lon="14.2881075153">
        <ele>237.6</ele>
        <time>2010-11-19T18:12:59Z</time>
        <extensions><gpxtpx:TrackPointExtension><gpxtpx:hr>133</gpxtpx:hr></gpxtpx:TrackPointExtension></extensions>
      </trkpt>
      <trkpt lat="57.8008346507" lon="14.2881496763">
        <ele>237.6</ele>
        <time>2010-11-19T18:13:01Z</time>
        <extensions><gpxtpx:TrackPointExtension><gpxtpx:hr>134</gpxtpx:hr></gpxtpx:TrackPointExtension></extensions>
      </trkpt>
      <trkpt lat="57.8007794978" lon="14.2881892388">
        <ele>237.6</ele>
        <time>2010-11-19T18:13:03Z</time>
        <extensions><gpxtpx:TrackPointExtension><gpxtpx:hr>135</gpxtpx:hr></gpxtpx:TrackPointExtension></extensions>
      </trkpt>
      <trkpt lat="57.8007216627" lon="14.2882295558">
        <ele>237.6</ele>
        <time>2010-11-19T18:13:05Z</time>
        <extensions><gpxtpx:TrackPointExtension><gpxtpx:hr>136</gpxtpx:hr></gpxtpx:TrackPointExtension></extensions>
      </trkpt>
      <trkpt lat="57.800657625" lon="14.2882745666">
        <ele>237.6</ele>
        <time>2010-11-19T18:13:07Z</time>
        <extensions><gpxtpx:TrackPointExtension><gpxtpx:hr>137</gpxtpx:hr></gpxtpx:TrackPointExtension></extensions>
      </trkpt>
      <trkpt lat="57.8006012986" lon="14.2883152188">
        <ele>237.6</ele>
        <time>2010-11-19T18:13:09Z</time>
        <extensions><gpxtpx:TrackPointExtension><gpxtpx:hr>137</gpxtpx:hr></gpxtpx:TrackPointExtension></extensions>
      </trkpt>
      <trkpt lat="57.8005383505" lon="14.2883609002">
        <ele>237.6</ele>
        <time>2010-11-19T18:13:11Z</time>
        <extensions><gpxtpx:TrackPointExtension><gpxtpx:hr>137</gpxtpx:hr></gpxtpx:TrackPointExtension></extensions>
      </trkpt>
      <trkpt lat="57.8004815213" lon="14.2884029773">
        <ele>237.4</ele>
        <time>2010-11-19T18:13:13Z</time>
        <extensions><gpxtpx:TrackPointExtension><gpxtpx:hr>136</gpxtpx:hr></gpxtpx:TrackPointExtension></extensions>
      </trkpt>
      <trkpt lat="57.8004246082" lon="14.2884389356">
        <ele>237.4</ele>
        <time>2010-11-19T18:13:15Z</time>
        <extensions><gpxtpx:TrackPointExtension><gpxtpx:hr>136</gpxtpx:hr></gpxtpx:TrackPointExtension></extensions>
      </trkpt>
      <trkpt lat="57.8003661863" lon="14.2884777438">
        <ele>237.4</ele>
        <time>2010-11-19T18:13:17Z</time>
        <extensions><gpxtpx:TrackPointExtension><gpxtpx:hr>137</gpxtpx:hr></gpxtpx:TrackPointExtension></extensions>
      </trkpt>
      <trkpt lat="57.80031447" lon="14.2885204077">
        <ele>237.4</ele>
        <time>2010-11-19T18:13:19Z</time>
        <extensions><gpxtpx:TrackPointExtension><gpxtpx:hr>136</gpxtpx:hr></gpxtpx:TrackPointExtension></extensions>
      </trkpt>
      <trkpt lat="57.8002542041" lon="14.2885689389">
        <ele>237.4</ele>
        <time>2010-11-19T18:13:21Z</time>
        <extensions><gpxtpx:TrackPointExtension><gpxtpx:hr>136</gpxtpx:hr></gpxtpx:TrackPointExtension></extensions>
      </trkpt>
      <trkpt lat="57.8002009791" lon="14.2886154585">
        <ele>237.4</ele>
        <time>2010-11-19T18:13:23Z</time>
        <extensions><gpxtpx:TrackPointExtension><gpxtpx:hr>135</gpxtpx:hr></gpxtpx:TrackPointExtension></extensions>
      </trkpt>
      <trkpt lat="57.8001573932" lon="14.288647142">
        <ele>237.4</ele>
        <time>2010-11-19T18:13:24Z</time>
        <extensions><gpxtpx:TrackPointExtension><gpxtpx:hr>135</gpxtpx:hr></gpxtpx:TrackPointExtension></extensions>
      </trkpt>
      <trkpt lat="57.8000877396" lon="14.2887130238">
        <ele>237.4</ele>
        <time>2010-11-19T18:13:27Z</time>
        <extensions><gpxtpx:TrackPointExtension><gpxtpx:hr>136</gpxtpx:hr></gpxtpx:TrackPointExtension></extensions>
      </trkpt>
      <trkpt lat="57.8000344307" lon="14.2887551009">
        <ele>237.4</ele>
        <time>2010-11-19T18:13:28Z</time>
        <extensions><gpxtpx:TrackPointExtension><gpxtpx:hr>136</gpxtpx:hr></gpxtpx:TrackPointExtension></extensions>
      </trkpt>
      <trkpt lat="57.7999735781" lon="14.2888061467">
        <ele>237.4</ele>
        <time>2010-11-19T18:13:31Z</time>
        <extensions><gpxtpx:TrackPointExtension><gpxtpx:hr>136</gpxtpx:hr></gpxtpx:TrackPointExtension></extensions>
      </trkpt>
      <trkpt lat="57.7999219456" lon="14.2888428594">
        <ele>237.4</ele>
        <time>2010-11-19T18:13:33Z</time>
        <extensions><gpxtpx:TrackPointExtension><gpxtpx:hr>137</gpxtpx:hr></gpxtpx:TrackPointExtension></extensions>
      </trkpt>
      <trkpt lat="57.7998659545" lon="14.2888830087">
        <ele>237.4</ele>
        <time>2010-11-19T18:13:35Z</time>
        <extensions><gpxtpx:TrackPointExtension><gpxtpx:hr>137</gpxtpx:hr></gpxtpx:TrackPointExtension></extensions>
      </trkpt>
      <trkpt lat="57.799810634" lon="14.2889202243">
        <ele>237.4</ele>
        <time>2010-11-19T18:13:37Z</time>
        <extensions><gpxtpx:TrackPointExtension><gpxtpx:hr>137</gpxtpx:hr></gpxtpx:TrackPointExtension></extensions>
      </trkpt>
      <trkpt lat="57.7997563193" lon="14.2889790653">
        <ele>237.4</ele>
        <time>2010-11-19T18:13:39Z</time>
        <extensions><gpxtpx:TrackPointExtension><gpxtpx:hr>137</gpxtpx:hr></gpxtpx:TrackPointExtension></extensions>
      </trkpt>
      <trkpt lat="57.7997034295" lon="14.2890216453">
        <ele>237.4</ele>
        <time>2010-11-19T18:13:41Z</time>
        <extensions><gpxtpx:TrackPointExtension><gpxtpx:hr>137</gpxtpx:hr></gpxtpx:TrackPointExtension></extensions>
      </trkpt>
      <trkpt lat="57.7996526352" lon="14.2890462881">
        <ele>237.4</ele>
        <time>2010-11-19T18:13:43Z</time>
        <extensions><gpxtpx:TrackPointExtension><gpxtpx:hr>137</gpxtpx:hr></gpxtpx:TrackPointExtension></extensions>
      </trkpt>
      <trkpt lat="57.7995958059" lon="14.2890872756">
        <ele>237.4</ele>
        <time>2010-11-19T18:13:45Z</time>
        <extensions><gpxtpx:TrackPointExtension><gpxtpx:hr>137</gpxtpx:hr></gpxtpx:TrackPointExtension></extensions>
      </trkpt>
      <trkpt lat="57.7995376355" lon="14.2891369803">
        <ele>237.4</ele>
        <time>2010-11-19T18:13:47Z</time>
        <extensions><gpxtpx:TrackPointExtension><gpxtpx:hr>136</gpxtpx:hr></gpxtpx:TrackPointExtension></extensions>
      </trkpt>
      <trkpt lat="57.7994872603" lon="14.2891814882">
        <ele>237.4</ele>
        <time>2010-11-19T18:13:49Z</time>
        <extensions><gpxtpx:TrackPointExtension><gpxtpx:hr>136</gpxtpx:hr></gpxtpx:TrackPointExtension></extensions>
      </trkpt>
      <trkpt lat="57.7994334485" lon="14.289216776">
        <ele>237.4</ele>
        <time>2010-11-19T18:13:51Z</time>
        <extensions><gpxtpx:TrackPointExtension><gpxtpx:hr>136</gpxtpx:hr></gpxtpx:TrackPointExtension></extensions>
      </trkpt>
      <trkpt lat="57.7993843305" lon="14.2892645528">
        <ele>237.6</ele>
        <time>2010-11-19T18:13:53Z</time>
        <extensions><gpxtpx:TrackPointExtension><gpxtpx:hr>135</gpxtpx:hr></gpxtpx:TrackPointExtension></extensions>
      </trkpt>
      <trkpt lat="57.799314174" lon="14.2893146766">
        <ele>238.2</ele>
        <time>2010-11-19T18:13:56Z</time>
        <extensions><gpxtpx:TrackPointExtension><gpxtpx:hr>135</gpxtpx:hr></gpxtpx:TrackPointExtension></extensions>
      </trkpt>
      <trkpt lat="57.7992715102" lon="14.2893581786">
        <ele>238.4</ele>
        <time>2010-11-19T18:13:58Z</time>
        <extensions><gpxtpx:TrackPointExtension><gpxtpx:hr>135</gpxtpx:hr></gpxtpx:TrackPointExtension></extensions>
      </trkpt>
      <trkpt lat="57.7992292654" lon="14.2893942208">
        <ele>238.6</ele>
        <time>2010-11-19T18:14:00Z</time>
        <extensions><gpxtpx:TrackPointExtension><gpxtpx:hr>134</gpxtpx:hr></gpxtpx:TrackPointExtension></extensions>
      </trkpt>
      <trkpt lat="57.7991774653" lon="14.2894293409">
        <ele>238.8</ele>
        <time>2010-11-19T18:14:02Z</time>
        <extensions><gpxtpx:TrackPointExtension><gpxtpx:hr>134</gpxtpx:hr></gpxtpx:TrackPointExtension></extensions>
      </trkpt>
      <trkpt lat="57.7991326221" lon="14.2894611083">
        <ele>239</ele>
        <time>2010-11-19T18:14:04Z</time>
        <extensions><gpxtpx:TrackPointExtension><gpxtpx:hr>135</gpxtpx:hr></gpxtpx:TrackPointExtension></extensions>
      </trkpt>
      <trkpt lat="57.7990804029" lon="14.2894979887">
        <ele>239</ele>
        <time>2010-11-19T18:14:06Z</time>
        <extensions><gpxtpx:TrackPointExtension><gpxtpx:hr>135</gpxtpx:hr></gpxtpx:TrackPointExtension></extensions>
      </trkpt>
      <trkpt lat="57.7990350568" lon="14.2895290856">
        <ele>239.2</ele>
        <time>2010-11-19T18:14:08Z</time>
        <extensions><gpxtpx:TrackPointExtension><gpxtpx:hr>135</gpxtpx:hr></gpxtpx:TrackPointExtension></extensions>
      </trkpt>
      <trkpt lat="57.7989949075" lon="14.2895621941">
        <ele>239.2</ele>
        <time>2010-11-19T18:14:09Z</time>
        <extensions><gpxtpx:TrackPointExtension><gpxtpx:hr>135</gpxtpx:hr></gpxtpx:TrackPointExtension></extensions>
      </trkpt>
      <trkpt lat="57.7989408442" lon="14.2895973142">
        <ele>239.2</ele>
        <time>2010-11-19T18:14:12Z</time>
        <extensions><gpxtpx:TrackPointExtension><gpxtpx:hr>134</gpxtpx:hr></gpxtpx:TrackPointExtension></extensions>
      </trkpt>
      <trkpt lat="57.7988880382" lon="14.2896264832">
        <ele>239.6</ele>
        <time>2010-11-19T18:14:14Z</time>
        <extensions><gpxtpx:TrackPointExtension><gpxtpx:hr>135</gpxtpx:hr></gpxtpx:TrackPointExtension></extensions>
      </trkpt>
      <trkpt lat="57.7988413511" lon="14.2896551493">
        <ele>239.8</ele>
        <time>2010-11-19T18:14:16Z</time>
        <extensions><gpxtpx:TrackPointExtension><gpxtpx:hr>135</gpxtpx:hr></gpxtpx:TrackPointExtension></extensions>
      </trkpt>
      <trkpt lat="57.7987897186" lon="14.2896735895">
        <ele>240.2</ele>
        <time>2010-11-19T18:14:18Z</time>
        <extensions><gpxtpx:TrackPointExtension><gpxtpx:hr>134</gpxtpx:hr></gpxtpx:TrackPointExtension></extensions>
      </trkpt>
      <trkpt lat="57.7987383375" lon="14.2896903533">
        <ele>240.4</ele>
        <time>2010-11-19T18:14:20Z</time>
        <extensions><gpxtpx:TrackPointExtension><gpxtpx:hr>134</gpxtpx:hr></gpxtpx:TrackPointExtension></extensions>
      </trkpt>
      <trkpt lat="57.7986831846" lon="14.2897045187">
        <ele>240.6</ele>
        <time>2010-11-19T18:14:22Z</time>
        <extensions><gpxtpx:TrackPointExtension><gpxtpx:hr>134</gpxtpx:hr></gpxtpx:TrackPointExtension></extensions>
      </trkpt>
      <trkpt lat="57.7986321388" lon="14.2897123139">
        <ele>240.8</ele>
        <time>2010-11-19T18:14:24Z</time>
        <extensions><gpxtpx:TrackPointExtension><gpxtpx:hr>134</gpxtpx:hr></gpxtpx:TrackPointExtension></extensions>
      </trkpt>
      <trkpt lat="57.7985758963" lon="14.2897244676">
        <ele>241</ele>
        <time>2010-11-19T18:14:26Z</time>
        <extensions><gpxtpx:TrackPointExtension><gpxtpx:hr>133</gpxtpx:hr></gpxtpx:TrackPointExtension></extensions>
      </trkpt>
      <trkpt lat="57.7985215816" lon="14.2897361185">
        <ele>241</ele>
        <time>2010-11-19T18:14:28Z</time>
        <extensions><gpxtpx:TrackPointExtension><gpxtpx:hr>133</gpxtpx:hr></gpxtpx:TrackPointExtension></extensions>
      </trkpt>
      <trkpt lat="57.7984646685" lon="14.2897469311">
        <ele>241.2</ele>
        <time>2010-11-19T18:14:30Z</time>
        <extensions><gpxtpx:TrackPointExtension><gpxtpx:hr>133</gpxtpx:hr></gpxtpx:TrackPointExtension></extensions>
      </trkpt>
      <trkpt lat="57.7984143771" lon="14.2897559836">
        <ele>241.2</ele>
        <time>2010-11-19T18:14:32Z</time>
        <extensions><gpxtpx:TrackPointExtension><gpxtpx:hr>134</gpxtpx:hr></gpxtpx:TrackPointExtension></extensions>
      </trkpt>
      <trkpt lat="57.7983578831" lon="14.2897709034">
        <ele>241.2</ele>
        <time>2010-11-19T18:14:34Z</time>
        <extensions><gpxtpx:TrackPointExtension><gpxtpx:hr>133</gpxtpx:hr></gpxtpx:TrackPointExtension></extensions>
      </trkpt>
      <trkpt lat="57.7983019758" lon="14.2897755134">
        <ele>241.4</ele>
        <time>2010-11-19T18:14:36Z</time>
        <extensions><gpxtpx:TrackPointExtension><gpxtpx:hr>132</gpxtpx:hr></gpxtpx:TrackPointExtension></extensions>
      </trkpt>
      <trkpt lat="57.798250008" lon="14.2897790338">
        <ele>241.4</ele>
        <time>2010-11-19T18:14:38Z</time>
        <extensions><gpxtpx:TrackPointExtension><gpxtpx:hr>131</gpxtpx:hr></gpxtpx:TrackPointExtension></extensions>
      </trkpt>
      <trkpt lat="57.7981977888" lon="14.2897885892">
        <ele>241.4</ele>
        <time>2010-11-19T18:14:39Z</time>
        <extensions><gpxtpx:TrackPointExtension><gpxtpx:hr>132</gpxtpx:hr></gpxtpx:TrackPointExtension></extensions>
      </trkpt>
      <trkpt lat="57.7981350922" lon="14.2897918581">
        <ele>241.4</ele>
        <time>2010-11-19T18:14:42Z</time>
        <extensions><gpxtpx:TrackPointExtension><gpxtpx:hr>132</gpxtpx:hr></gpxtpx:TrackPointExtension></extensions>
      </trkpt>
      <trkpt lat="57.7980783467" lon="14.2897893435">
        <ele>241.4</ele>
        <time>2010-11-19T18:14:44Z</time>
        <extensions><gpxtpx:TrackPointExtension><gpxtpx:hr>132</gpxtpx:hr></gpxtpx:TrackPointExtension></extensions>
      </trkpt>
      <trkpt lat="57.7980026581" lon="14.289776184">
        <ele>241.4</ele>
        <time>2010-11-19T18:14:47Z</time>
        <extensions><gpxtpx:TrackPointExtension><gpxtpx:hr>131</gpxtpx:hr></gpxtpx:TrackPointExtension></extensions>
      </trkpt>
      <trkpt lat="57.7979498522" lon="14.2897716577">
        <ele>241.4</ele>
        <time>2010-11-19T18:14:49Z</time>
        <extensions><gpxtpx:TrackPointExtension><gpxtpx:hr>131</gpxtpx:hr></gpxtpx:TrackPointExtension></extensions>
      </trkpt>
      <trkpt lat="57.7978741636" lon="14.2897703166">
        <ele>241.4</ele>
        <time>2010-11-19T18:14:51Z</time>
        <extensions><gpxtpx:TrackPointExtension><gpxtpx:hr>130</gpxtpx:hr></gpxtpx:TrackPointExtension></extensions>
      </trkpt>
      <trkpt lat="57.7978159094" lon="14.2897779442">
        <ele>241.6</ele>
        <time>2010-11-19T18:14:54Z</time>
        <extensions><gpxtpx:TrackPointExtension><gpxtpx:hr>129</gpxtpx:hr></gpxtpx:TrackPointExtension></extensions>
      </trkpt>
      <trkpt lat="57.7977642769" lon="14.2897790338">
        <ele>241.6</ele>
        <time>2010-11-19T18:14:56Z</time>
        <extensions><gpxtpx:TrackPointExtension><gpxtpx:hr>128</gpxtpx:hr></gpxtpx:TrackPointExtension></extensions>
      </trkpt>
      <trkpt lat="57.7977128959" lon="14.289784063">
        <ele>241.6</ele>
        <time>2010-11-19T18:14:58Z</time>
        <extensions><gpxtpx:TrackPointExtension><gpxtpx:hr>127</gpxtpx:hr></gpxtpx:TrackPointExtension></extensions>
      </trkpt>
      <trkpt lat="57.7976467627" lon="14.2897869966">
        <ele>241.6</ele>
        <time>2010-11-19T18:15:00Z</time>
        <extensions><gpxtpx:TrackPointExtension><gpxtpx:hr>128</gpxtpx:hr></gpxtpx:TrackPointExtension></extensions>
      </trkpt>
      <trkpt lat="57.7975916936" lon="14.2897849011">
        <ele>241.6</ele>
        <time>2010-11-19T18:15:02Z</time>
        <extensions><gpxtpx:TrackPointExtension><gpxtpx:hr>129</gpxtpx:hr></gpxtpx:TrackPointExtension></extensions>
      </trkpt>
      <trkpt lat="57.7975362892" lon="14.289780794">
        <ele>241.6</ele>
        <time>2010-11-19T18:15:04Z</time>
        <extensions><gpxtpx:TrackPointExtension><gpxtpx:hr>129</gpxtpx:hr></gpxtpx:TrackPointExtension></extensions>
      </trkpt>
      <trkpt lat="57.7974824774" lon="14.2897731665">
        <ele>241.6</ele>
        <time>2010-11-19T18:15:06Z</time>
        <extensions><gpxtpx:TrackPointExtension><gpxtpx:hr>128</gpxtpx:hr></gpxtpx:TrackPointExtension></extensions>
      </trkpt>
      <trkpt lat="57.7974274922" lon="14.2897663771">
        <ele>241.6</ele>
        <time>2010-11-19T18:15:08Z</time>
        <extensions><gpxtpx:TrackPointExtension><gpxtpx:hr>127</gpxtpx:hr></gpxtpx:TrackPointExtension></extensions>
      </trkpt>
      <trkpt lat="57.7973794639" lon="14.2897560674">
        <ele>241.6</ele>
        <time>2010-11-19T18:15:09Z</time>
        <extensions><gpxtpx:TrackPointExtension><gpxtpx:hr>128</gpxtpx:hr></gpxtpx:TrackPointExtension></extensions>
      </trkpt>
      <trkpt lat="57.7973208744" lon="14.2897418182">
        <ele>241.6</ele>
        <time>2010-11-19T18:15:12Z</time>
        <extensions><gpxtpx:TrackPointExtension><gpxtpx:hr>129</gpxtpx:hr></gpxtpx:TrackPointExtension></extensions>
      </trkpt>
      <trkpt lat="57.7972637098" lon="14.2897448357">
        <ele>241.6</ele>
        <time>2010-11-19T18:15:14Z</time>
        <extensions><gpxtpx:TrackPointExtension><gpxtpx:hr>130</gpxtpx:hr></gpxtpx:TrackPointExtension></extensions>
      </trkpt>
      <trkpt lat="57.7972076349" lon="14.289739136">
        <ele>241.6</ele>
        <time>2010-11-19T18:15:16Z</time>
        <extensions><gpxtpx:TrackPointExtension><gpxtpx:hr>129</gpxtpx:hr></gpxtpx:TrackPointExtension></extensions>
      </trkpt>
      <trkpt lat="57.7971503866" lon="14.2897431593">
        <ele>241.6</ele>
        <time>2010-11-19T18:15:18Z</time>
        <extensions><gpxtpx:TrackPointExtension><gpxtpx:hr>128</gpxtpx:hr></gpxtpx:TrackPointExtension></extensions>
      </trkpt>
      <trkpt lat="57.7970870194" lon="14.289755313">
        <ele>241.6</ele>
        <time>2010-11-19T18:15:20Z</time>
        <extensions><gpxtpx:TrackPointExtension><gpxtpx:hr>126</gpxtpx:hr></gpxtpx:TrackPointExtension></extensions>
      </trkpt>
      <trkpt lat="57.7970312798" lon="14.2897496133">
        <ele>241.6</ele>
        <time>2010-11-19T18:15:22Z</time>
        <extensions><gpxtpx:TrackPointExtension><gpxtpx:hr>125</gpxtpx:hr></gpxtpx:TrackPointExtension></extensions>
      </trkpt>
      <trkpt lat="57.7969725226" lon="14.289747015">
        <ele>241.6</ele>
        <time>2010-11-19T18:15:24Z</time>
        <extensions><gpxtpx:TrackPointExtension><gpxtpx:hr>125</gpxtpx:hr></gpxtpx:TrackPointExtension></extensions>
      </trkpt>
      <trkpt lat="57.7969166154" lon="14.2897541396">
        <ele>241.6</ele>
        <time>2010-11-19T18:15:26Z</time>
        <extensions><gpxtpx:TrackPointExtension><gpxtpx:hr>125</gpxtpx:hr></gpxtpx:TrackPointExtension></extensions>
      </trkpt>
      <trkpt lat="57.7968602052" lon="14.2897640302">
        <ele>241.6</ele>
        <time>2010-11-19T18:15:28Z</time>
        <extensions><gpxtpx:TrackPointExtension><gpxtpx:hr>126</gpxtpx:hr></gpxtpx:TrackPointExtension></extensions>
      </trkpt>
      <trkpt lat="57.796805639" lon="14.2897600069">
        <ele>241.6</ele>
        <time>2010-11-19T18:15:30Z</time>
        <extensions><gpxtpx:TrackPointExtension><gpxtpx:hr>125</gpxtpx:hr></gpxtpx:TrackPointExtension></extensions>
      </trkpt>
      <trkpt lat="57.796753755" lon="14.2897517088">
        <ele>241.6</ele>
        <time>2010-11-19T18:15:32Z</time>
        <extensions><gpxtpx:TrackPointExtension><gpxtpx:hr>125</gpxtpx:hr></gpxtpx:TrackPointExtension></extensions>
      </trkpt>
      <trkpt lat="57.7967018711" lon="14.2897491104">
        <ele>241.2</ele>
        <time>2010-11-19T18:15:34Z</time>
        <extensions><gpxtpx:TrackPointExtension><gpxtpx:hr>124</gpxtpx:hr></gpxtpx:TrackPointExtension></extensions>
      </trkpt>
      <trkpt lat="57.7966483107" lon="14.2897502839">
        <ele>240.8</ele>
        <time>2010-11-19T18:15:36Z</time>
        <extensions><gpxtpx:TrackPointExtension><gpxtpx:hr>125</gpxtpx:hr></gpxtpx:TrackPointExtension></extensions>
      </trkpt>
      <trkpt lat="57.7965916491" lon="14.2897556483">
        <ele>240.6</ele>
        <time>2010-11-19T18:15:38Z</time>
        <extensions><gpxtpx:TrackPointExtension><gpxtpx:hr>125</gpxtpx:hr></gpxtpx:TrackPointExtension></extensions>
      </trkpt>
      <trkpt lat="57.796539346" lon="14.2897559836">
        <ele>240.4</ele>
        <time>2010-11-19T18:15:39Z</time>
        <extensions><gpxtpx:TrackPointExtension><gpxtpx:hr>124</gpxtpx:hr></gpxtpx:TrackPointExtension></extensions>
      </trkpt>
      <trkpt lat="57.796481008" lon="14.2897540557">
        <ele>240.2</ele>
        <time>2010-11-19T18:15:42Z</time>
        <extensions><gpxtpx:TrackPointExtension><gpxtpx:hr>124</gpxtpx:hr></gpxtpx:TrackPointExtension></extensions>
      </trkpt>
      <trkpt lat="57.7964241787" lon="14.2897620186">
        <ele>240</ele>
        <time>2010-11-19T18:15:44Z</time>
        <extensions><gpxtpx:TrackPointExtension><gpxtpx:hr>124</gpxtpx:hr></gpxtpx:TrackPointExtension></extensions>
      </trkpt>
      <trkpt lat="57.7963686906" lon="14.2897621024">
        <ele>240</ele>
        <time>2010-11-19T18:15:46Z</time>
        <extensions><gpxtpx:TrackPointExtension><gpxtpx:hr>125</gpxtpx:hr></gpxtpx:TrackPointExtension></extensions>
      </trkpt>
      <trkpt lat="57.7963080056" lon="14.2897620186">
        <ele>239.8</ele>
        <time>2010-11-19T18:15:48Z</time>
        <extensions><gpxtpx:TrackPointExtension><gpxtpx:hr>125</gpxtpx:hr></gpxtpx:TrackPointExtension></extensions>
      </trkpt>
      <trkpt lat="57.7962521822" lon="14.2897724959">
        <ele>239.8</ele>
        <time>2010-11-19T18:15:50Z</time>
        <extensions><gpxtpx:TrackPointExtension><gpxtpx:hr>125</gpxtpx:hr></gpxtpx:TrackPointExtension></extensions>
      </trkpt>
      <trkpt lat="57.7961981189" lon="14.2897828895">
        <ele>239.8</ele>
        <time>2010-11-19T18:15:52Z</time>
        <extensions><gpxtpx:TrackPointExtension><gpxtpx:hr>125</gpxtpx:hr></gpxtpx:TrackPointExtension></extensions>
      </trkpt>
      <trkpt lat="57.7961377692" lon="14.2897855717">
        <ele>239.6</ele>
        <time>2010-11-19T18:15:54Z</time>
        <extensions><gpxtpx:TrackPointExtension><gpxtpx:hr>124</gpxtpx:hr></gpxtpx:TrackPointExtension></extensions>
      </trkpt>
      <trkpt lat="57.7960797665" lon="14.2897869966">
        <ele>239.6</ele>
        <time>2010-11-19T18:15:56Z</time>
        <extensions><gpxtpx:TrackPointExtension><gpxtpx:hr>124</gpxtpx:hr></gpxtpx:TrackPointExtension></extensions>
      </trkpt>
      <trkpt lat="57.7960232725" lon="14.2897916067">
        <ele>239.6</ele>
        <time>2010-11-19T18:15:58Z</time>
        <extensions><gpxtpx:TrackPointExtension><gpxtpx:hr>124</gpxtpx:hr></gpxtpx:TrackPointExtension></extensions>
      </trkpt>
      <trkpt lat="57.795967449" lon="14.2897984798">
        <ele>239.6</ele>
        <time>2010-11-19T18:16:00Z</time>
        <extensions><gpxtpx:TrackPointExtension><gpxtpx:hr>123</gpxtpx:hr></gpxtpx:TrackPointExtension></extensions>
      </trkpt>
      <trkpt lat="57.7959127152" lon="14.2897969711">
        <ele>239.6</ele>
        <time>2010-11-19T18:16:02Z</time>
        <extensions><gpxtpx:TrackPointExtension><gpxtpx:hr>122</gpxtpx:hr></gpxtpx:TrackPointExtension></extensions>
      </trkpt>
      <trkpt lat="57.7958532037" lon="14.2897987313">
        <ele>239.6</ele>
        <time>2010-11-19T18:16:04Z</time>
        <extensions><gpxtpx:TrackPointExtension><gpxtpx:hr>122</gpxtpx:hr></gpxtpx:TrackPointExtension></extensions>
      </trkpt>
      <trkpt lat="57.7957955362" lon="14.2897927801">
        <ele>239.6</ele>
        <time>2010-11-19T18:16:06Z</time>
        <extensions><gpxtpx:TrackPointExtension><gpxtpx:hr>122</gpxtpx:hr></gpxtpx:TrackPointExtension></extensions>
      </trkpt>
      <trkpt lat="57.7957336778" lon="14.2897969711">
        <ele>239.6</ele>
        <time>2010-11-19T18:16:08Z</time>
        <extensions><gpxtpx:TrackPointExtension><gpxtpx:hr>121</gpxtpx:hr></gpxtpx:TrackPointExtension></extensions>
      </trkpt>
      <trkpt lat="57.7956758427" lon="14.2898077837">
        <ele>239.6</ele>
        <time>2010-11-19T18:16:09Z</time>
        <extensions><gpxtpx:TrackPointExtension><gpxtpx:hr>121</gpxtpx:hr></gpxtpx:TrackPointExtension></extensions>
      </trkpt>
      <trkpt lat="57.7956164989" lon="14.2898015811">
        <ele>239.6</ele>
        <time>2010-11-19T18:16:12Z</time>
        <extensions><gpxtpx:TrackPointExtension><gpxtpx:hr>121</gpxtpx:hr></gpxtpx:TrackPointExtension></extensions>
      </trkpt>
      <trkpt lat="57.7955623518" lon="14.2898023355">
        <ele>239.6</ele>
        <time>2010-11-19T18:16:14Z</time>
        <extensions><gpxtpx:TrackPointExtension><gpxtpx:hr>121</gpxtpx:hr></gpxtpx:TrackPointExtension></extensions>
      </trkpt>
      <trkpt lat="57.7955139044" lon="14.289807197">
        <ele>239.6</ele>
        <time>2010-11-19T18:16:16Z</time>
        <extensions><gpxtpx:TrackPointExtension><gpxtpx:hr>120</gpxtpx:hr></gpxtpx:TrackPointExtension></extensions>
      </trkpt>
      <trkpt lat="57.7954595059" lon="14.2898076161">
        <ele>239.6</ele>
        <time>2010-11-19T18:16:18Z</time>
        <extensions><gpxtpx:TrackPointExtension><gpxtpx:hr>120</gpxtpx:hr></gpxtpx:TrackPointExtension></extensions>
      </trkpt>
      <trkpt lat="57.7954038501" lon="14.28981231">
        <ele>239.6</ele>
        <time>2010-11-19T18:16:20Z</time>
        <extensions><gpxtpx:TrackPointExtension><gpxtpx:hr>121</gpxtpx:hr></gpxtpx:TrackPointExtension></extensions>
      </trkpt>
      <trkpt lat="57.7953437518" lon="14.2898170038">
        <ele>239.4</ele>
        <time>2010-11-19T18:16:22Z</time>
        <extensions><gpxtpx:TrackPointExtension><gpxtpx:hr>122</gpxtpx:hr></gpxtpx:TrackPointExtension></extensions>
      </trkpt>
      <trkpt lat="57.7952859167" lon="14.2898224521">
        <ele>239.4</ele>
        <time>2010-11-19T18:16:24Z</time>
        <extensions><gpxtpx:TrackPointExtension><gpxtpx:hr>122</gpxtpx:hr></gpxtpx:TrackPointExtension></extensions>
      </trkpt>
      <trkpt lat="57.7952328593" lon="14.2898174229">
        <ele>239.4</ele>
        <time>2010-11-19T18:16:26Z</time>
        <extensions><gpxtpx:TrackPointExtension><gpxtpx:hr>121</gpxtpx:hr></gpxtpx:TrackPointExtension></extensions>
      </trkpt>
      <trkpt lat="57.7951781255" lon="14.2898168362">
        <ele>239.4</ele>
        <time>2010-11-19T18:16:28Z</time>
        <extensions><gpxtpx:TrackPointExtension><gpxtpx:hr>120</gpxtpx:hr></gpxtpx:TrackPointExtension></extensions>
      </trkpt>
      <trkpt lat="57.7951231402" lon="14.2898199375">
        <ele>239.4</ele>
        <time>2010-11-19T18:16:30Z</time>
        <extensions><gpxtpx:TrackPointExtension><gpxtpx:hr>119</gpxtpx:hr></gpxtpx:TrackPointExtension></extensions>
      </trkpt>
      <trkpt lat="57.7950661433" lon="14.289823877">
        <ele>239.4</ele>
        <time>2010-11-19T18:16:32Z</time>
        <extensions><gpxtpx:TrackPointExtension><gpxtpx:hr>120</gpxtpx:hr></gpxtpx:TrackPointExtension></extensions>
      </trkpt>
      <trkpt lat="57.7950079729" lon="14.2898279841">
        <ele>239.4</ele>
        <time>2010-11-19T18:16:34Z</time>
        <extensions><gpxtpx:TrackPointExtension><gpxtpx:hr>119</gpxtpx:hr></gpxtpx:TrackPointExtension></extensions>
      </trkpt>
      <trkpt lat="57.7949535744" lon="14.2898235417">
        <ele>239.4</ele>
        <time>2010-11-19T18:16:36Z</time>
        <extensions><gpxtpx:TrackPointExtension><gpxtpx:hr>119</gpxtpx:hr></gpxtpx:TrackPointExtension></extensions>
      </trkpt>
      <trkpt lat="57.7949016066" lon="14.289824799">
        <ele>239.4</ele>
        <time>2010-11-19T18:16:38Z</time>
        <extensions><gpxtpx:TrackPointExtension><gpxtpx:hr>119</gpxtpx:hr></gpxtpx:TrackPointExtension></extensions>
      </trkpt>
      <trkpt lat="57.7948541651" lon="14.2898249666">
        <ele>239.4</ele>
        <time>2010-11-19T18:16:39Z</time>
        <extensions><gpxtpx:TrackPointExtension><gpxtpx:hr>119</gpxtpx:hr></gpxtpx:TrackPointExtension></extensions>
      </trkpt>
      <trkpt lat="57.7947648978" lon="14.2898269783">
        <ele>239.4</ele>
        <time>2010-11-19T18:16:43Z</time>
        <extensions><gpxtpx:TrackPointExtension><gpxtpx:hr>120</gpxtpx:hr></gpxtpx:TrackPointExtension></extensions>
      </trkpt>
      <trkpt lat="57.7947103316" lon="14.2898242961">
        <ele>239.4</ele>
        <time>2010-11-19T18:16:45Z</time>
        <extensions><gpxtpx:TrackPointExtension><gpxtpx:hr>121</gpxtpx:hr></gpxtpx:TrackPointExtension></extensions>
      </trkpt>
      <trkpt lat="57.794649982" lon="14.2898260563">
        <ele>239.4</ele>
        <time>2010-11-19T18:16:47Z</time>
        <extensions><gpxtpx:TrackPointExtension><gpxtpx:hr>121</gpxtpx:hr></gpxtpx:TrackPointExtension></extensions>
      </trkpt>
      <trkpt lat="57.794592985" lon="14.2898296605">
        <ele>239.4</ele>
        <time>2010-11-19T18:16:49Z</time>
        <extensions><gpxtpx:TrackPointExtension><gpxtpx:hr>122</gpxtpx:hr></gpxtpx:TrackPointExtension></extensions>
      </trkpt>
      <trkpt lat="57.794538838" lon="14.2898246313">
        <ele>239.4</ele>
        <time>2010-11-19T18:16:51Z</time>
        <extensions><gpxtpx:TrackPointExtension><gpxtpx:hr>121</gpxtpx:hr></gpxtpx:TrackPointExtension></extensions>
      </trkpt>
      <trkpt lat="57.7944853615" lon="14.2898258048">
        <ele>239.4</ele>
        <time>2010-11-19T18:16:53Z</time>
        <extensions><gpxtpx:TrackPointExtension><gpxtpx:hr>121</gpxtpx:hr></gpxtpx:TrackPointExtension></extensions>
      </trkpt>
      <trkpt lat="57.7944294542" lon="14.2898289061">
        <ele>239.4</ele>
        <time>2010-11-19T18:16:55Z</time>
        <extensions><gpxtpx:TrackPointExtension><gpxtpx:hr>120</gpxtpx:hr></gpxtpx:TrackPointExtension></extensions>
      </trkpt>
      <trkpt lat="57.7943777379" lon="14.2898347734">
        <ele>239.4</ele>
        <time>2010-11-19T18:16:57Z</time>
        <extensions><gpxtpx:TrackPointExtension><gpxtpx:hr>120</gpxtpx:hr></gpxtpx:TrackPointExtension></extensions>
      </trkpt>
      <trkpt lat="57.7943215791" lon="14.2898458376">
        <ele>239.4</ele>
        <time>2010-11-19T18:16:59Z</time>
        <extensions><gpxtpx:TrackPointExtension><gpxtpx:hr>119</gpxtpx:hr></gpxtpx:TrackPointExtension></extensions>
      </trkpt>
      <trkpt lat="57.7942682702" lon="14.2898421495">
        <ele>239.4</ele>
        <time>2010-11-19T18:17:01Z</time>
        <extensions><gpxtpx:TrackPointExtension><gpxtpx:hr>118</gpxtpx:hr></gpxtpx:TrackPointExtension></extensions>
      </trkpt>
      <trkpt lat="57.7942155481" lon="14.2898420657">
        <ele>239.4</ele>
        <time>2010-11-19T18:17:03Z</time>
        <extensions><gpxtpx:TrackPointExtension><gpxtpx:hr>118</gpxtpx:hr></gpxtpx:TrackPointExtension></extensions>
      </trkpt>
      <trkpt lat="57.7941673522" lon="14.2898439097">
        <ele>239.4</ele>
        <time>2010-11-19T18:17:05Z</time>
        <extensions><gpxtpx:TrackPointExtension><gpxtpx:hr>117</gpxtpx:hr></gpxtpx:TrackPointExtension></extensions>
      </trkpt>
      <trkpt lat="57.7941129536" lon="14.2898383777">
        <ele>239.4</ele>
        <time>2010-11-19T18:17:07Z</time>
        <extensions><gpxtpx:TrackPointExtension><gpxtpx:hr>116</gpxtpx:hr></gpxtpx:TrackPointExtension></extensions>
      </trkpt>
      <trkpt lat="57.7940605668" lon="14.2898328456">
        <ele>239.4</ele>
        <time>2010-11-19T18:17:09Z</time>
        <extensions><gpxtpx:TrackPointExtension><gpxtpx:hr>116</gpxtpx:hr></gpxtpx:TrackPointExtension></extensions>
      </trkpt>
      <trkpt lat="57.7940099401" lon="14.2898398026">
        <ele>239.4</ele>
        <time>2010-11-19T18:17:11Z</time>
        <extensions><gpxtpx:TrackPointExtension><gpxtpx:hr>116</gpxtpx:hr></gpxtpx:TrackPointExtension></extensions>
      </trkpt>
      <trkpt lat="57.7939603192" lon="14.2898392997">
        <ele>239.2</ele>
        <time>2010-11-19T18:17:13Z</time>
        <extensions><gpxtpx:TrackPointExtension><gpxtpx:hr>117</gpxtpx:hr></gpxtpx:TrackPointExtension></extensions>
      </trkpt>
      <trkpt lat="57.7939058369" lon="14.2898395511">
        <ele>239</ele>
        <time>2010-11-19T18:17:15Z</time>
        <extensions><gpxtpx:TrackPointExtension><gpxtpx:hr>116</gpxtpx:hr></gpxtpx:TrackPointExtension></extensions>
      </trkpt>
      <trkpt lat="57.793846493" lon="14.2898475139">
        <ele>238.6</ele>
        <time>2010-11-19T18:17:17Z</time>
        <extensions><gpxtpx:TrackPointExtension><gpxtpx:hr>116</gpxtpx:hr></gpxtpx:TrackPointExtension></extensions>
      </trkpt>
      <trkpt lat="57.7937975427" lon="14.2898428201">
        <ele>238.4</ele>
        <time>2010-11-19T18:17:19Z</time>
        <extensions><gpxtpx:TrackPointExtension><gpxtpx:hr>116</gpxtpx:hr></gpxtpx:TrackPointExtension></extensions>
      </trkpt>
      <trkpt lat="57.7937429766" lon="14.2898396349">
        <ele>238.2</ele>
        <time>2010-11-19T18:17:21Z</time>
        <extensions><gpxtpx:TrackPointExtension><gpxtpx:hr>116</gpxtpx:hr></gpxtpx:TrackPointExtension></extensions>
      </trkpt>
      <trkpt lat="57.7936908412" lon="14.2898402217">
        <ele>238</ele>
        <time>2010-11-19T18:17:23Z</time>
        <extensions><gpxtpx:TrackPointExtension><gpxtpx:hr>115</gpxtpx:hr></gpxtpx:TrackPointExtension></extensions>
      </trkpt>
      <trkpt lat="57.7936379514" lon="14.2898455861">
        <ele>238</ele>
        <time>2010-11-19T18:17:25Z</time>
        <extensions><gpxtpx:TrackPointExtension><gpxtpx:hr>116</gpxtpx:hr></gpxtpx:TrackPointExtension></extensions>
      </trkpt>
      <trkpt lat="57.7935832176" lon="14.2898465919">
        <ele>237.6</ele>
        <time>2010-11-19T18:17:27Z</time>
        <extensions><gpxtpx:TrackPointExtension><gpxtpx:hr>117</gpxtpx:hr></gpxtpx:TrackPointExtension></extensions>
      </trkpt>
      <trkpt lat="57.7935258015" lon="14.289845167">
        <ele>237.2</ele>
        <time>2010-11-19T18:17:29Z</time>
        <extensions><gpxtpx:TrackPointExtension><gpxtpx:hr>117</gpxtpx:hr></gpxtpx:TrackPointExtension></extensions>
      </trkpt>
      <trkpt lat="57.7934674635" lon="14.289853968">
        <ele>236.8</ele>
        <time>2010-11-19T18:17:31Z</time>
        <extensions><gpxtpx:TrackPointExtension><gpxtpx:hr>117</gpxtpx:hr></gpxtpx:TrackPointExtension></extensions>
      </trkpt>
      <trkpt lat="57.7934120592" lon="14.2898553929">
        <ele>236.6</ele>
        <time>2010-11-19T18:17:33Z</time>
        <extensions><gpxtpx:TrackPointExtension><gpxtpx:hr>117</gpxtpx:hr></gpxtpx:TrackPointExtension></extensions>
      </trkpt>
      <trkpt lat="57.7933579121" lon="14.2898571531">
        <ele>236.4</ele>
        <time>2010-11-19T18:17:35Z</time>
        <extensions><gpxtpx:TrackPointExtension><gpxtpx:hr>117</gpxtpx:hr></gpxtpx:TrackPointExtension></extensions>
      </trkpt>
      <trkpt lat="57.7932984844" lon="14.2898628528">
        <ele>236.2</ele>
        <time>2010-11-19T18:17:37Z</time>
        <extensions><gpxtpx:TrackPointExtension><gpxtpx:hr>117</gpxtpx:hr></gpxtpx:TrackPointExtension></extensions>
      </trkpt>
      <trkpt lat="57.7932439182" lon="14.2898693069">
        <ele>236</ele>
        <time>2010-11-19T18:17:39Z</time>
        <extensions><gpxtpx:TrackPointExtension><gpxtpx:hr>116</gpxtpx:hr></gpxtpx:TrackPointExtension></extensions>
      </trkpt>
      <trkpt lat="57.7931769469" lon="14.2898768506">
        <ele>236</ele>
        <time>2010-11-19T18:17:41Z</time>
        <extensions><gpxtpx:TrackPointExtension><gpxtpx:hr>116</gpxtpx:hr></gpxtpx:TrackPointExtension></extensions>
      </trkpt>
      <trkpt lat="57.7931316846" lon="14.2898718214">
        <ele>235.8</ele>
        <time>2010-11-19T18:17:43Z</time>
        <extensions><gpxtpx:TrackPointExtension><gpxtpx:hr>116</gpxtpx:hr></gpxtpx:TrackPointExtension></extensions>
      </trkpt>
      <trkpt lat="57.7930855842" lon="14.2898823826">
        <ele>235.4</ele>
        <time>2010-11-19T18:17:45Z</time>
        <extensions><gpxtpx:TrackPointExtension><gpxtpx:hr>116</gpxtpx:hr></gpxtpx:TrackPointExtension></extensions>
      </trkpt>
      <trkpt lat="57.7930280843" lon="14.2898889205">
        <ele>235</ele>
        <time>2010-11-19T18:17:47Z</time>
        <extensions><gpxtpx:TrackPointExtension><gpxtpx:hr>116</gpxtpx:hr></gpxtpx:TrackPointExtension></extensions>
      </trkpt>
      <trkpt lat="57.7929719256" lon="14.2898894234">
        <ele>234.6</ele>
        <time>2010-11-19T18:17:49Z</time>
        <extensions><gpxtpx:TrackPointExtension><gpxtpx:hr>116</gpxtpx:hr></gpxtpx:TrackPointExtension></extensions>
      </trkpt>
      <trkpt lat="57.7929195387" lon="14.2898930277">
        <ele>234.4</ele>
        <time>2010-11-19T18:17:51Z</time>
        <extensions><gpxtpx:TrackPointExtension><gpxtpx:hr>115</gpxtpx:hr></gpxtpx:TrackPointExtension></extensions>
      </trkpt>
      <trkpt lat="57.7928632962" lon="14.289897051">
        <ele>234.2</ele>
        <time>2010-11-19T18:17:53Z</time>
        <extensions><gpxtpx:TrackPointExtension><gpxtpx:hr>114</gpxtpx:hr></gpxtpx:TrackPointExtension></extensions>
      </trkpt>
      <trkpt lat="57.7928031141" lon="14.2899001523">
        <ele>234</ele>
        <time>2010-11-19T18:17:55Z</time>
        <extensions><gpxtpx:TrackPointExtension><gpxtpx:hr>112</gpxtpx:hr></gpxtpx:TrackPointExtension></extensions>
      </trkpt>
      <trkpt lat="57.7927478774" lon="14.2898959613">
        <ele>234</ele>
        <time>2010-11-19T18:17:57Z</time>
        <extensions><gpxtpx:TrackPointExtension><gpxtpx:hr>109</gpxtpx:hr></gpxtpx:TrackPointExtension></extensions>
      </trkpt>
      <trkpt lat="57.7926940656" lon="14.2898892558">
        <ele>233.8</ele>
        <time>2010-11-19T18:17:59Z</time>
        <extensions><gpxtpx:TrackPointExtension><gpxtpx:hr>107</gpxtpx:hr></gpxtpx:TrackPointExtension></extensions>
      </trkpt>
      <trkpt lat="57.7926272619" lon="14.2898895073">
        <ele>233.8</ele>
        <time>2010-11-19T18:18:01Z</time>
        <extensions><gpxtpx:TrackPointExtension><gpxtpx:hr>107</gpxtpx:hr></gpxtpx:TrackPointExtension></extensions>
      </trkpt>
      <trkpt lat="57.7925847656" lon="14.2898848972">
        <ele>233.4</ele>
        <time>2010-11-19T18:18:03Z</time>
        <extensions><gpxtpx:TrackPointExtension><gpxtpx:hr>106</gpxtpx:hr></gpxtpx:TrackPointExtension></extensions>
      </trkpt>
      <trkpt lat="57.7925307862" lon="14.2898740846">
        <ele>233</ele>
        <time>2010-11-19T18:18:05Z</time>
        <extensions><gpxtpx:TrackPointExtension><gpxtpx:hr>105</gpxtpx:hr></gpxtpx:TrackPointExtension></extensions>
      </trkpt>
      <trkpt lat="57.7924799919" lon="14.2898640263">
        <ele>232.8</ele>
        <time>2010-11-19T18:18:07Z</time>
        <extensions><gpxtpx:TrackPointExtension><gpxtpx:hr>105</gpxtpx:hr></gpxtpx:TrackPointExtension></extensions>
      </trkpt>
      <trkpt lat="57.7924223244" lon="14.2898644454">
        <ele>232.4</ele>
        <time>2010-11-19T18:18:09Z</time>
        <extensions><gpxtpx:TrackPointExtension><gpxtpx:hr>105</gpxtpx:hr></gpxtpx:TrackPointExtension></extensions>
      </trkpt>
      <trkpt lat="57.7923670039" lon="14.2898662894">
        <ele>232.2</ele>
        <time>2010-11-19T18:18:11Z</time>
        <extensions><gpxtpx:TrackPointExtension><gpxtpx:hr>107</gpxtpx:hr></gpxtpx:TrackPointExtension></extensions>
      </trkpt>
      <trkpt lat="57.7923126053" lon="14.2898724082">
        <ele>232</ele>
        <time>2010-11-19T18:18:13Z</time>
        <extensions><gpxtpx:TrackPointExtension><gpxtpx:hr>108</gpxtpx:hr></gpxtpx:TrackPointExtension></extensions>
      </trkpt>
      <trkpt lat="57.7922905609" lon="14.2898672114">
        <ele>232</ele>
        <time>2010-11-19T18:18:14Z</time>
        <extensions><gpxtpx:TrackPointExtension><gpxtpx:hr>109</gpxtpx:hr></gpxtpx:TrackPointExtension></extensions>
      </trkpt>
      <trkpt lat="57.7922089212" lon="14.2898866574">
        <ele>231.8</ele>
        <time>2010-11-19T18:18:17Z</time>
        <extensions><gpxtpx:TrackPointExtension><gpxtpx:hr>112</gpxtpx:hr></gpxtpx:TrackPointExtension></extensions>
      </trkpt>
      <trkpt lat="57.7921499965" lon="14.2898866574">
        <ele>231.6</ele>
        <time>2010-11-19T18:18:19Z</time>
        <extensions><gpxtpx:TrackPointExtension><gpxtpx:hr>113</gpxtpx:hr></gpxtpx:TrackPointExtension></extensions>
      </trkpt>
      <trkpt lat="57.7920940892" lon="14.2898846458">
        <ele>231.6</ele>
        <time>2010-11-19T18:18:21Z</time>
        <extensions><gpxtpx:TrackPointExtension><gpxtpx:hr>114</gpxtpx:hr></gpxtpx:TrackPointExtension></extensions>
      </trkpt>
      <trkpt lat="57.7920235136" lon="14.2898865736">
        <ele>231.2</ele>
        <time>2010-11-19T18:18:24Z</time>
        <extensions><gpxtpx:TrackPointExtension><gpxtpx:hr>113</gpxtpx:hr></gpxtpx:TrackPointExtension></extensions>
      </trkpt>
      <trkpt lat="57.7919647565" lon="14.2898999008">
        <ele>230.8</ele>
        <time>2010-11-19T18:18:26Z</time>
        <extensions><gpxtpx:TrackPointExtension><gpxtpx:hr>113</gpxtpx:hr></gpxtpx:TrackPointExtension></extensions>
      </trkpt>
      <trkpt lat="57.7919101903" lon="14.289901661">
        <ele>230.6</ele>
        <time>2010-11-19T18:18:28Z</time>
        <extensions><gpxtpx:TrackPointExtension><gpxtpx:hr>113</gpxtpx:hr></gpxtpx:TrackPointExtension></extensions>
      </trkpt>
      <trkpt lat="57.791874232" lon="14.2899010743">
        <ele>230.2</ele>
        <time>2010-11-19T18:18:29Z</time>
        <extensions><gpxtpx:TrackPointExtension><gpxtpx:hr>113</gpxtpx:hr></gpxtpx:TrackPointExtension></extensions>
      </trkpt>
      <trkpt lat="57.7918048298" lon="14.2899169161">
        <ele>230</ele>
        <time>2010-11-19T18:18:32Z</time>
        <extensions><gpxtpx:TrackPointExtension><gpxtpx:hr>113</gpxtpx:hr></gpxtpx:TrackPointExtension></extensions>
      </trkpt>
      <trkpt lat="57.7917507666" lon="14.2899239569">
        <ele>230</ele>
        <time>2010-11-19T18:18:34Z</time>
        <extensions><gpxtpx:TrackPointExtension><gpxtpx:hr>113</gpxtpx:hr></gpxtpx:TrackPointExtension></extensions>
      </trkpt>
      <trkpt lat="57.791688992" lon="14.2899263876">
        <ele>229.6</ele>
        <time>2010-11-19T18:18:36Z</time>
        <extensions><gpxtpx:TrackPointExtension><gpxtpx:hr>113</gpxtpx:hr></gpxtpx:TrackPointExtension></extensions>
      </trkpt>
      <trkpt lat="57.7916390358" lon="14.2899106296">
        <ele>229.2</ele>
        <time>2010-11-19T18:18:38Z</time>
        <extensions><gpxtpx:TrackPointExtension><gpxtpx:hr>113</gpxtpx:hr></gpxtpx:TrackPointExtension></extensions>
      </trkpt>
      <trkpt lat="57.791588493" lon="14.2898876632">
        <ele>228.8</ele>
        <time>2010-11-19T18:18:40Z</time>
        <extensions><gpxtpx:TrackPointExtension><gpxtpx:hr>113</gpxtpx:hr></gpxtpx:TrackPointExtension></extensions>
      </trkpt>
      <trkpt lat="57.7915294844" lon="14.2898762639">
        <ele>228.4</ele>
        <time>2010-11-19T18:18:42Z</time>
        <extensions><gpxtpx:TrackPointExtension><gpxtpx:hr>112</gpxtpx:hr></gpxtpx:TrackPointExtension></extensions>
      </trkpt>
      <trkpt lat="57.7914788577" lon="14.2898546385">
        <ele>228.2</ele>
        <time>2010-11-19T18:18:44Z</time>
        <extensions><gpxtpx:TrackPointExtension><gpxtpx:hr>113</gpxtpx:hr></gpxtpx:TrackPointExtension></extensions>
      </trkpt>
      <trkpt lat="57.7914288178" lon="14.2898374557">
        <ele>228</ele>
        <time>2010-11-19T18:18:46Z</time>
        <extensions><gpxtpx:TrackPointExtension><gpxtpx:hr>113</gpxtpx:hr></gpxtpx:TrackPointExtension></extensions>
      </trkpt>
      <trkpt lat="57.7913718209" lon="14.2898176744">
        <ele>227.4</ele>
        <time>2010-11-19T18:18:48Z</time>
        <extensions><gpxtpx:TrackPointExtension><gpxtpx:hr>114</gpxtpx:hr></gpxtpx:TrackPointExtension></extensions>
      </trkpt>
      <trkpt lat="57.7913158298" lon="14.2898010782">
        <ele>227</ele>
        <time>2010-11-19T18:18:50Z</time>
        <extensions><gpxtpx:TrackPointExtension><gpxtpx:hr>113</gpxtpx:hr></gpxtpx:TrackPointExtension></extensions>
      </trkpt>
      <trkpt lat="57.7912649517" lon="14.2897825542">
        <ele>226.6</ele>
        <time>2010-11-19T18:18:52Z</time>
        <extensions><gpxtpx:TrackPointExtension><gpxtpx:hr>112</gpxtpx:hr></gpxtpx:TrackPointExtension></extensions>
      </trkpt>
      <trkpt lat="57.7912108884" lon="14.2897647846">
        <ele>226.4</ele>
        <time>2010-11-19T18:18:54Z</time>
        <extensions><gpxtpx:TrackPointExtension><gpxtpx:hr>112</gpxtpx:hr></gpxtpx:TrackPointExtension></extensions>
      </trkpt>
      <trkpt lat="57.7911552326" lon="14.2897427402">
        <ele>226.2</ele>
        <time>2010-11-19T18:18:56Z</time>
        <extensions><gpxtpx:TrackPointExtension><gpxtpx:hr>112</gpxtpx:hr></gpxtpx:TrackPointExtension></extensions>
      </trkpt>
      <trkpt lat="57.7911026781" lon="14.2897246353">
        <ele>226</ele>
        <time>2010-11-19T18:18:58Z</time>
        <extensions><gpxtpx:TrackPointExtension><gpxtpx:hr>112</gpxtpx:hr></gpxtpx:TrackPointExtension></extensions>
      </trkpt>
      <trkpt lat="57.7910493692" lon="14.2897078715">
        <ele>225.6</ele>
        <time>2010-11-19T18:19:00Z</time>
        <extensions><gpxtpx:TrackPointExtension><gpxtpx:hr>111</gpxtpx:hr></gpxtpx:TrackPointExtension></extensions>
      </trkpt>
      <trkpt lat="57.7909743512" lon="14.2896828096">
        <ele>225</ele>
        <time>2010-11-19T18:19:03Z</time>
        <extensions><gpxtpx:TrackPointExtension><gpxtpx:hr>111</gpxtpx:hr></gpxtpx:TrackPointExtension></extensions>
      </trkpt>
      <trkpt lat="57.7909202879" lon="14.2896649562">
        <ele>224.6</ele>
        <time>2010-11-19T18:19:05Z</time>
        <extensions><gpxtpx:TrackPointExtension><gpxtpx:hr>112</gpxtpx:hr></gpxtpx:TrackPointExtension></extensions>
      </trkpt>
      <trkpt lat="57.790867482" lon="14.2896459292">
        <ele>224.2</ele>
        <time>2010-11-19T18:19:07Z</time>
        <extensions><gpxtpx:TrackPointExtension><gpxtpx:hr>112</gpxtpx:hr></gpxtpx:TrackPointExtension></extensions>
      </trkpt>
      <trkpt lat="57.7908135025" lon="14.2896434985">
        <ele>224</ele>
        <time>2010-11-19T18:19:09Z</time>
        <extensions><gpxtpx:TrackPointExtension><gpxtpx:hr>112</gpxtpx:hr></gpxtpx:TrackPointExtension></extensions>
      </trkpt>
      <trkpt lat="57.7907617024" lon="14.2896271538">
        <ele>223.8</ele>
        <time>2010-11-19T18:19:11Z</time>
        <extensions><gpxtpx:TrackPointExtension><gpxtpx:hr>111</gpxtpx:hr></gpxtpx:TrackPointExtension></extensions>
      </trkpt>
      <trkpt lat="57.7907068848" lon="14.2896031815">
        <ele>223.2</ele>
        <time>2010-11-19T18:19:13Z</time>
        <extensions><gpxtpx:TrackPointExtension><gpxtpx:hr>111</gpxtpx:hr></gpxtpx:TrackPointExtension></extensions>
      </trkpt>
      <trkpt lat="57.7906619578" lon="14.2895891838">
        <ele>222.8</ele>
        <time>2010-11-19T18:19:15Z</time>
        <extensions><gpxtpx:TrackPointExtension><gpxtpx:hr>111</gpxtpx:hr></gpxtpx:TrackPointExtension></extensions>
      </trkpt>
      <trkpt lat="57.7906229819" lon="14.289561775">
        <ele>222.4</ele>
        <time>2010-11-19T18:19:17Z</time>
        <extensions><gpxtpx:TrackPointExtension><gpxtpx:hr>111</gpxtpx:hr></gpxtpx:TrackPointExtension></extensions>
      </trkpt>
      <trkpt lat="57.7906123369" lon="14.2894600187">
        <ele>222</ele>
        <time>2010-11-19T18:19:21Z</time>
        <extensions><gpxtpx:TrackPointExtension><gpxtpx:hr>109</gpxtpx:hr></gpxtpx:TrackPointExtension></extensions>
      </trkpt>
      <trkpt lat="57.7906135104" lon="14.2894545705">
        <ele>221.8</ele>
        <time>2010-11-19T18:19:22Z</time>
        <extensions><gpxtpx:TrackPointExtension><gpxtpx:hr>109</gpxtpx:hr></gpxtpx:TrackPointExtension></extensions>
      </trkpt>
      <trkpt lat="57.7906003508" lon="14.2894532294">
        <ele>221.4</ele>
        <time>2010-11-19T18:19:24Z</time>
        <extensions><gpxtpx:TrackPointExtension><gpxtpx:hr>109</gpxtpx:hr></gpxtpx:TrackPointExtension></extensions>
      </trkpt>
      <trkpt lat="57.7904656537" lon="14.2895082146">
        <ele>220.4</ele>
        <time>2010-11-19T18:19:29Z</time>
        <extensions><gpxtpx:TrackPointExtension><gpxtpx:hr>108</gpxtpx:hr></gpxtpx:TrackPointExtension></extensions>
      </trkpt>
      <trkpt lat="57.7904148594" lon="14.289495977">
        <ele>220</ele>
        <time>2010-11-19T18:19:31Z</time>
        <extensions><gpxtpx:TrackPointExtension><gpxtpx:hr>107</gpxtpx:hr></gpxtpx:TrackPointExtension></extensions>
      </trkpt>
      <trkpt lat="57.7903579463" lon="14.2894742679">
        <ele>219.8</ele>
        <time>2010-11-19T18:19:33Z</time>
        <extensions><gpxtpx:TrackPointExtension><gpxtpx:hr>107</gpxtpx:hr></gpxtpx:TrackPointExtension></extensions>
      </trkpt>
      <trkpt lat="57.7903053917" lon="14.2894658022">
        <ele>219.4</ele>
        <time>2010-11-19T18:19:35Z</time>
        <extensions><gpxtpx:TrackPointExtension><gpxtpx:hr>107</gpxtpx:hr></gpxtpx:TrackPointExtension></extensions>
      </trkpt>
      <trkpt lat="57.7902530049" lon="14.289452475">
        <ele>218.8</ele>
        <time>2010-11-19T18:19:37Z</time>
        <extensions><gpxtpx:TrackPointExtension><gpxtpx:hr>107</gpxtpx:hr></gpxtpx:TrackPointExtension></extensions>
      </trkpt>
      <trkpt lat="57.7901856144" lon="14.2894382258">
        <ele>218.2</ele>
        <time>2010-11-19T18:19:40Z</time>
        <extensions><gpxtpx:TrackPointExtension><gpxtpx:hr>108</gpxtpx:hr></gpxtpx:TrackPointExtension></extensions>
      </trkpt>
      <trkpt lat="57.7901040585" lon="14.2894183607">
        <ele>217.6</ele>
        <time>2010-11-19T18:19:43Z</time>
        <extensions><gpxtpx:TrackPointExtension><gpxtpx:hr>108</gpxtpx:hr></gpxtpx:TrackPointExtension></extensions>
      </trkpt>
      <trkpt lat="57.790043625" lon="14.2893980765">
        <ele>217</ele>
        <time>2010-11-19T18:19:45Z</time>
        <extensions><gpxtpx:TrackPointExtension><gpxtpx:hr>108</gpxtpx:hr></gpxtpx:TrackPointExtension></extensions>
      </trkpt>
      <trkpt lat="57.7899907352" lon="14.2893806421">
        <ele>216.6</ele>
        <time>2010-11-19T18:19:47Z</time>
        <extensions><gpxtpx:TrackPointExtension><gpxtpx:hr>107</gpxtpx:hr></gpxtpx:TrackPointExtension></extensions>
      </trkpt>
      <trkpt lat="57.7899380131" lon="14.2893621181">
        <ele>216.2</ele>
        <time>2010-11-19T18:19:49Z</time>
        <extensions><gpxtpx:TrackPointExtension><gpxtpx:hr>107</gpxtpx:hr></gpxtpx:TrackPointExtension></extensions>
      </trkpt>
      <trkpt lat="57.789882944" lon="14.2893481203">
        <ele>215.8</ele>
        <time>2010-11-19T18:19:51Z</time>
        <extensions><gpxtpx:TrackPointExtension><gpxtpx:hr>108</gpxtpx:hr></gpxtpx:TrackPointExtension></extensions>
      </trkpt>
      <trkpt lat="57.7898288807" lon="14.2893350446">
        <ele>215.2</ele>
        <time>2010-11-19T18:19:53Z</time>
        <extensions><gpxtpx:TrackPointExtension><gpxtpx:hr>108</gpxtpx:hr></gpxtpx:TrackPointExtension></extensions>
      </trkpt>
      <trkpt lat="57.7897747337" lon="14.2893190351">
        <ele>214.6</ele>
        <time>2010-11-19T18:19:55Z</time>
        <extensions><gpxtpx:TrackPointExtension><gpxtpx:hr>108</gpxtpx:hr></gpxtpx:TrackPointExtension></extensions>
      </trkpt>
      <trkpt lat="57.7897225982" lon="14.28929456">
        <ele>214.2</ele>
        <time>2010-11-19T18:19:57Z</time>
        <extensions><gpxtpx:TrackPointExtension><gpxtpx:hr>108</gpxtpx:hr></gpxtpx:TrackPointExtension></extensions>
      </trkpt>
      <trkpt lat="57.789668535" lon="14.2892767904">
        <ele>213.8</ele>
        <time>2010-11-19T18:19:59Z</time>
        <extensions><gpxtpx:TrackPointExtension><gpxtpx:hr>108</gpxtpx:hr></gpxtpx:TrackPointExtension></extensions>
      </trkpt>
      <trkpt lat="57.7896024856" lon="14.2892503036">
        <ele>213.2</ele>
        <time>2010-11-19T18:20:01Z</time>
        <extensions><gpxtpx:TrackPointExtension><gpxtpx:hr>108</gpxtpx:hr></gpxtpx:TrackPointExtension></extensions>
      </trkpt>
      <trkpt lat="57.7895586483" lon="14.2892394071">
        <ele>212.6</ele>
        <time>2010-11-19T18:20:03Z</time>
        <extensions><gpxtpx:TrackPointExtension><gpxtpx:hr>107</gpxtpx:hr></gpxtpx:TrackPointExtension></extensions>
      </trkpt>
      <trkpt lat="57.7895060938" lon="14.2892281753">
        <ele>212.2</ele>
        <time>2010-11-19T18:20:05Z</time>
        <extensions><gpxtpx:TrackPointExtension><gpxtpx:hr>107</gpxtpx:hr></gpxtpx:TrackPointExtension></extensions>
      </trkpt>
      <trkpt lat="57.7894460794" lon="14.2892373116">
        <ele>211.8</ele>
        <time>2010-11-19T18:20:07Z</time>
        <extensions><gpxtpx:TrackPointExtension><gpxtpx:hr>108</gpxtpx:hr></gpxtpx:TrackPointExtension></extensions>
      </trkpt>
      <trkpt lat="57.7893878251" lon="14.2892416702">
        <ele>211.2</ele>
        <time>2010-11-19T18:20:09Z</time>
        <extensions><gpxtpx:TrackPointExtension><gpxtpx:hr>109</gpxtpx:hr></gpxtpx:TrackPointExtension></extensions>
      </trkpt>
      <trkpt lat="57.7893294033" lon="14.289249633">
        <ele>210.6</ele>
        <time>2010-11-19T18:20:11Z</time>
        <extensions><gpxtpx:TrackPointExtension><gpxtpx:hr>109</gpxtpx:hr></gpxtpx:TrackPointExtension></extensions>
      </trkpt>
      <trkpt lat="57.7892760944" lon="14.289274192">
        <ele>210.2</ele>
        <time>2010-11-19T18:20:13Z</time>
        <extensions><gpxtpx:TrackPointExtension><gpxtpx:hr>108</gpxtpx:hr></gpxtpx:TrackPointExtension></extensions>
      </trkpt>
      <trkpt lat="57.7892241266" lon="14.2893062108">
        <ele>210</ele>
        <time>2010-11-19T18:20:15Z</time>
        <extensions><gpxtpx:TrackPointExtension><gpxtpx:hr>109</gpxtpx:hr></gpxtpx:TrackPointExtension></extensions>
      </trkpt>
      <trkpt lat="57.7891740867" lon="14.2893494614">
        <ele>209.6</ele>
        <time>2010-11-19T18:20:17Z</time>
        <extensions><gpxtpx:TrackPointExtension><gpxtpx:hr>110</gpxtpx:hr></gpxtpx:TrackPointExtension></extensions>
      </trkpt>
      <trkpt lat="57.7891229571" lon="14.2894098111">
        <ele>209.2</ele>
        <time>2010-11-19T18:20:19Z</time>
        <extensions><gpxtpx:TrackPointExtension><gpxtpx:hr>112</gpxtpx:hr></gpxtpx:TrackPointExtension></extensions>
      </trkpt>
      <trkpt lat="57.7890634456" lon="14.2894785427">
        <ele>208.8</ele>
        <time>2010-11-19T18:20:21Z</time>
        <extensions><gpxtpx:TrackPointExtension><gpxtpx:hr>113</gpxtpx:hr></gpxtpx:TrackPointExtension></extensions>
      </trkpt>
      <trkpt lat="57.7890232963" lon="14.2895146687">
        <ele>208.2</ele>
        <time>2010-11-19T18:20:23Z</time>
        <extensions><gpxtpx:TrackPointExtension><gpxtpx:hr>114</gpxtpx:hr></gpxtpx:TrackPointExtension></extensions>
      </trkpt>
      <trkpt lat="57.7889746813" lon="14.2895438377">
        <ele>208</ele>
        <time>2010-11-19T18:20:25Z</time>
        <extensions><gpxtpx:TrackPointExtension><gpxtpx:hr>113</gpxtpx:hr></gpxtpx:TrackPointExtension></extensions>
      </trkpt>
      <trkpt lat="57.7889163433" lon="14.2895757727">
        <ele>207.6</ele>
        <time>2010-11-19T18:20:27Z</time>
        <extensions><gpxtpx:TrackPointExtension><gpxtpx:hr>114</gpxtpx:hr></gpxtpx:TrackPointExtension></extensions>
      </trkpt>
      <trkpt lat="57.7888700752" lon="14.2896103062">
        <ele>207.4</ele>
        <time>2010-11-19T18:20:29Z</time>
        <extensions><gpxtpx:TrackPointExtension><gpxtpx:hr>115</gpxtpx:hr></gpxtpx:TrackPointExtension></extensions>
      </trkpt>
      <trkpt lat="57.7888180236" lon="14.2896397266">
        <ele>207.2</ele>
        <time>2010-11-19T18:20:31Z</time>
        <extensions><gpxtpx:TrackPointExtension><gpxtpx:hr>117</gpxtpx:hr></gpxtpx:TrackPointExtension></extensions>
      </trkpt>
      <trkpt lat="57.7887633736" lon="14.2896726675">
        <ele>207.2</ele>
        <time>2010-11-19T18:20:33Z</time>
        <extensions><gpxtpx:TrackPointExtension><gpxtpx:hr>117</gpxtpx:hr></gpxtpx:TrackPointExtension></extensions>
      </trkpt>
      <trkpt lat="57.7887092265" lon="14.2896838992">
        <ele>207</ele>
        <time>2010-11-19T18:20:35Z</time>
        <extensions><gpxtpx:TrackPointExtension><gpxtpx:hr>117</gpxtpx:hr></gpxtpx:TrackPointExtension></extensions>
      </trkpt>
      <trkpt lat="57.7886554147" lon="14.2896660458">
        <ele>206.8</ele>
        <time>2010-11-19T18:20:37Z</time>
        <extensions><gpxtpx:TrackPointExtension><gpxtpx:hr>118</gpxtpx:hr></gpxtpx:TrackPointExtension></extensions>
      </trkpt>
      <trkpt lat="57.7886005133" lon="14.2896709911">
        <ele>206.8</ele>
        <time>2010-11-19T18:20:39Z</time>
        <extensions><gpxtpx:TrackPointExtension><gpxtpx:hr>118</gpxtpx:hr></gpxtpx:TrackPointExtension></extensions>
      </trkpt>
      <trkpt lat="57.78852977" lon="14.2896907724">
        <ele>206.4</ele>
        <time>2010-11-19T18:20:41Z</time>
        <extensions><gpxtpx:TrackPointExtension><gpxtpx:hr>119</gpxtpx:hr></gpxtpx:TrackPointExtension></extensions>
      </trkpt>
      <trkpt lat="57.7884801492" lon="14.2897001601">
        <ele>206</ele>
        <time>2010-11-19T18:20:43Z</time>
        <extensions><gpxtpx:TrackPointExtension><gpxtpx:hr>119</gpxtpx:hr></gpxtpx:TrackPointExtension></extensions>
      </trkpt>
      <trkpt lat="57.7884222303" lon="14.2897138226">
        <ele>205.8</ele>
        <time>2010-11-19T18:20:45Z</time>
        <extensions><gpxtpx:TrackPointExtension><gpxtpx:hr>120</gpxtpx:hr></gpxtpx:TrackPointExtension></extensions>
      </trkpt>
      <trkpt lat="57.7883664906" lon="14.2897299159">
        <ele>205.4</ele>
        <time>2010-11-19T18:20:47Z</time>
        <extensions><gpxtpx:TrackPointExtension><gpxtpx:hr>120</gpxtpx:hr></gpxtpx:TrackPointExtension></extensions>
      </trkpt>
      <trkpt lat="57.7883100804" lon="14.2897458415">
        <ele>205.2</ele>
        <time>2010-11-19T18:20:49Z</time>
        <extensions><gpxtpx:TrackPointExtension><gpxtpx:hr>121</gpxtpx:hr></gpxtpx:TrackPointExtension></extensions>
      </trkpt>
      <trkpt lat="57.7882581965" lon="14.2897761001">
        <ele>205.2</ele>
        <time>2010-11-19T18:20:51Z</time>
        <extensions><gpxtpx:TrackPointExtension><gpxtpx:hr>121</gpxtpx:hr></gpxtpx:TrackPointExtension></extensions>
      </trkpt>
      <trkpt lat="57.7882094138" lon="14.2898232064">
        <ele>205</ele>
        <time>2010-11-19T18:20:53Z</time>
        <extensions><gpxtpx:TrackPointExtension><gpxtpx:hr>120</gpxtpx:hr></gpxtpx:TrackPointExtension></extensions>
      </trkpt>
      <trkpt lat="57.7881592062" lon="14.2898825503">
        <ele>205</ele>
        <time>2010-11-19T18:20:55Z</time>
        <extensions><gpxtpx:TrackPointExtension><gpxtpx:hr>119</gpxtpx:hr></gpxtpx:TrackPointExtension></extensions>
      </trkpt>
      <trkpt lat="57.7881129382" lon="14.2899458336">
        <ele>204.8</ele>
        <time>2010-11-19T18:20:57Z</time>
        <extensions><gpxtpx:TrackPointExtension><gpxtpx:hr>119</gpxtpx:hr></gpxtpx:TrackPointExtension></extensions>
      </trkpt>
      <trkpt lat="57.7880763093" lon="14.2899911797">
        <ele>204.8</ele>
        <time>2010-11-19T18:20:59Z</time>
        <extensions><gpxtpx:TrackPointExtension><gpxtpx:hr>119</gpxtpx:hr></gpxtpx:TrackPointExtension></extensions>
      </trkpt>
      <trkpt lat="57.7880401833" lon="14.2900324186">
        <ele>204.8</ele>
        <time>2010-11-19T18:21:01Z</time>
        <extensions><gpxtpx:TrackPointExtension><gpxtpx:hr>118</gpxtpx:hr></gpxtpx:TrackPointExtension></extensions>
      </trkpt>
      <trkpt lat="57.7880196476" lon="14.2900563909">
        <ele>204.6</ele>
        <time>2010-11-19T18:21:04Z</time>
        <extensions><gpxtpx:TrackPointExtension><gpxtpx:hr>116</gpxtpx:hr></gpxtpx:TrackPointExtension></extensions>
      </trkpt>
      <trkpt lat="57.7880145347" lon="14.2900615877">
        <ele>204.6</ele>
        <time>2010-11-19T18:21:05Z</time>
        <extensions><gpxtpx:TrackPointExtension><gpxtpx:hr>115</gpxtpx:hr></gpxtpx:TrackPointExtension></extensions>
      </trkpt>
      <trkpt lat="57.7880090864" lon="14.2900462488">
        <ele>204.4</ele>
        <time>2010-11-19T18:21:11Z</time>
        <extensions><gpxtpx:TrackPointExtension><gpxtpx:hr>108</gpxtpx:hr></gpxtpx:TrackPointExtension></extensions>
      </trkpt>
      <trkpt lat="57.788009757" lon="14.2900418064">
        <ele>203.8</ele>
        <time>2010-11-19T18:21:14Z</time>
        <extensions><gpxtpx:TrackPointExtension><gpxtpx:hr>103</gpxtpx:hr></gpxtpx:TrackPointExtension></extensions>
      </trkpt>
      <trkpt lat="57.7880110981" lon="14.2900311614">
        <ele>203</ele>
        <time>2010-11-19T18:21:22Z</time>
        <extensions><gpxtpx:TrackPointExtension><gpxtpx:hr>98</gpxtpx:hr></gpxtpx:TrackPointExtension></extensions>
      </trkpt>
      <trkpt lat="57.7880159596" lon="14.2900363581">
        <ele>202.6</ele>
        <time>2010-11-19T18:21:29Z</time>
        <extensions><gpxtpx:TrackPointExtension><gpxtpx:hr>103</gpxtpx:hr></gpxtpx:TrackPointExtension></extensions>
      </trkpt>
      <trkpt lat="57.7880128583" lon="14.2900444048">
        <ele>202.6</ele>
        <time>2010-11-19T18:21:30Z</time>
        <extensions><gpxtpx:TrackPointExtension><gpxtpx:hr>103</gpxtpx:hr></gpxtpx:TrackPointExtension></extensions>
      </trkpt>
      <trkpt lat="57.787945384" lon="14.2901346778">
        <ele>201.8</ele>
        <time>2010-11-19T18:21:34Z</time>
        <extensions><gpxtpx:TrackPointExtension><gpxtpx:hr>106</gpxtpx:hr></gpxtpx:TrackPointExtension></extensions>
      </trkpt>
      <trkpt lat="57.787924094" lon="14.2901587339">
        <ele>201.8</ele>
        <time>2010-11-19T18:21:35Z</time>
        <extensions><gpxtpx:TrackPointExtension><gpxtpx:hr>106</gpxtpx:hr></gpxtpx:TrackPointExtension></extensions>
      </trkpt>
      <trkpt lat="57.7878769039" lon="14.2902045829">
        <ele>201.4</ele>
        <time>2010-11-19T18:21:37Z</time>
        <extensions><gpxtpx:TrackPointExtension><gpxtpx:hr>106</gpxtpx:hr></gpxtpx:TrackPointExtension></extensions>
      </trkpt>
      <trkpt lat="57.7878185658" lon="14.2902424691">
        <ele>201.2</ele>
        <time>2010-11-19T18:21:40Z</time>
        <extensions><gpxtpx:TrackPointExtension><gpxtpx:hr>105</gpxtpx:hr></gpxtpx:TrackPointExtension></extensions>
      </trkpt>
      <trkpt lat="57.7877622395" lon="14.2902824507">
        <ele>201</ele>
        <time>2010-11-19T18:21:43Z</time>
        <extensions><gpxtpx:TrackPointExtension><gpxtpx:hr>105</gpxtpx:hr></gpxtpx:TrackPointExtension></extensions>
      </trkpt>
      <trkpt lat="57.7877417038" lon="14.2902839595">
        <ele>201</ele>
        <time>2010-11-19T18:21:44Z</time>
        <extensions><gpxtpx:TrackPointExtension><gpxtpx:hr>102</gpxtpx:hr></gpxtpx:TrackPointExtension></extensions>
      </trkpt>
      <trkpt lat="57.7876921668" lon="14.290307345">
        <ele>200.8</ele>
        <time>2010-11-19T18:21:46Z</time>
        <extensions><gpxtpx:TrackPointExtension><gpxtpx:hr>99</gpxtpx:hr></gpxtpx:TrackPointExtension></extensions>
      </trkpt>
      <trkpt lat="57.7876219265" lon="14.2903677785">
        <ele>200.6</ele>
        <time>2010-11-19T18:21:49Z</time>
        <extensions><gpxtpx:TrackPointExtension><gpxtpx:hr>98</gpxtpx:hr></gpxtpx:TrackPointExtension></extensions>
      </trkpt>
      <trkpt lat="57.7875674441" lon="14.2904049103">
        <ele>200.6</ele>
        <time>2010-11-19T18:21:51Z</time>
        <extensions><gpxtpx:TrackPointExtension><gpxtpx:hr>99</gpxtpx:hr></gpxtpx:TrackPointExtension></extensions>
      </trkpt>
      <trkpt lat="57.7875163983" lon="14.2904340793">
        <ele>200.6</ele>
        <time>2010-11-19T18:21:53Z</time>
        <extensions><gpxtpx:TrackPointExtension><gpxtpx:hr>99</gpxtpx:hr></gpxtpx:TrackPointExtension></extensions>
      </trkpt>
      <trkpt lat="57.7874593176" lon="14.290455034">
        <ele>200.6</ele>
        <time>2010-11-19T18:21:55Z</time>
        <extensions><gpxtpx:TrackPointExtension><gpxtpx:hr>100</gpxtpx:hr></gpxtpx:TrackPointExtension></extensions>
      </trkpt>
      <trkpt lat="57.7874049191" lon="14.2904977817">
        <ele>200.6</ele>
        <time>2010-11-19T18:21:57Z</time>
        <extensions><gpxtpx:TrackPointExtension><gpxtpx:hr>101</gpxtpx:hr></gpxtpx:TrackPointExtension></extensions>
      </trkpt>
      <trkpt lat="57.7873512749" lon="14.2905267831">
        <ele>200.4</ele>
        <time>2010-11-19T18:21:59Z</time>
        <extensions><gpxtpx:TrackPointExtension><gpxtpx:hr>102</gpxtpx:hr></gpxtpx:TrackPointExtension></extensions>
      </trkpt>
      <trkpt lat="57.7872946971" lon="14.2905468159">
        <ele>200.4</ele>
        <time>2010-11-19T18:22:01Z</time>
        <extensions><gpxtpx:TrackPointExtension><gpxtpx:hr>102</gpxtpx:hr></gpxtpx:TrackPointExtension></extensions>
      </trkpt>
      <trkpt lat="57.7872312461" lon="14.2905868813">
        <ele>200</ele>
        <time>2010-11-19T18:22:04Z</time>
        <extensions><gpxtpx:TrackPointExtension><gpxtpx:hr>103</gpxtpx:hr></gpxtpx:TrackPointExtension></extensions>
      </trkpt>
      <trkpt lat="57.7871686333" lon="14.2906158827">
        <ele>199.8</ele>
        <time>2010-11-19T18:22:06Z</time>
        <extensions><gpxtpx:TrackPointExtension><gpxtpx:hr>103</gpxtpx:hr></gpxtpx:TrackPointExtension></extensions>
      </trkpt>
      <trkpt lat="57.7871146539" lon="14.2906458061">
        <ele>199.4</ele>
        <time>2010-11-19T18:22:08Z</time>
        <extensions><gpxtpx:TrackPointExtension><gpxtpx:hr>104</gpxtpx:hr></gpxtpx:TrackPointExtension></extensions>
      </trkpt>
      <trkpt lat="57.7870689725" lon="14.2906827703">
        <ele>199.2</ele>
        <time>2010-11-19T18:22:10Z</time>
        <extensions><gpxtpx:TrackPointExtension><gpxtpx:hr>105</gpxtpx:hr></gpxtpx:TrackPointExtension></extensions>
      </trkpt>
      <trkpt lat="57.7870175076" lon="14.2907286193">
        <ele>199</ele>
        <time>2010-11-19T18:22:12Z</time>
        <extensions><gpxtpx:TrackPointExtension><gpxtpx:hr>107</gpxtpx:hr></gpxtpx:TrackPointExtension></extensions>
      </trkpt>
      <trkpt lat="57.7869679706" lon="14.2907798327">
        <ele>199</ele>
        <time>2010-11-19T18:22:14Z</time>
        <extensions><gpxtpx:TrackPointExtension><gpxtpx:hr>107</gpxtpx:hr></gpxtpx:TrackPointExtension></extensions>
      </trkpt>
      <trkpt lat="57.7869278213" lon="14.290827358">
        <ele>198.8</ele>
        <time>2010-11-19T18:22:16Z</time>
        <extensions><gpxtpx:TrackPointExtension><gpxtpx:hr>108</gpxtpx:hr></gpxtpx:TrackPointExtension></extensions>
      </trkpt>
      <trkpt lat="57.7868895999" lon="14.2908846902">
        <ele>198.8</ele>
        <time>2010-11-19T18:22:18Z</time>
        <extensions><gpxtpx:TrackPointExtension><gpxtpx:hr>109</gpxtpx:hr></gpxtpx:TrackPointExtension></extensions>
      </trkpt>
      <trkpt lat="57.7868413201" lon="14.2909448723">
        <ele>198.6</ele>
        <time>2010-11-19T18:22:20Z</time>
        <extensions><gpxtpx:TrackPointExtension><gpxtpx:hr>110</gpxtpx:hr></gpxtpx:TrackPointExtension></extensions>
      </trkpt>
      <trkpt lat="57.7867944653" lon="14.2910271825">
        <ele>198.6</ele>
        <time>2010-11-19T18:22:22Z</time>
        <extensions><gpxtpx:TrackPointExtension><gpxtpx:hr>109</gpxtpx:hr></gpxtpx:TrackPointExtension></extensions>
      </trkpt>
      <trkpt lat="57.7867365464" lon="14.2911244964">
        <ele>198.2</ele>
        <time>2010-11-19T18:22:25Z</time>
        <extensions><gpxtpx:TrackPointExtension><gpxtpx:hr>108</gpxtpx:hr></gpxtpx:TrackPointExtension></extensions>
      </trkpt>
      <trkpt lat="57.7867036893" lon="14.2912054656">
        <ele>197.8</ele>
        <time>2010-11-19T18:22:27Z</time>
        <extensions><gpxtpx:TrackPointExtension><gpxtpx:hr>107</gpxtpx:hr></gpxtpx:TrackPointExtension></extensions>
      </trkpt>
      <trkpt lat="57.7866762805" lon="14.2912925535">
        <ele>197.4</ele>
        <time>2010-11-19T18:22:29Z</time>
        <extensions><gpxtpx:TrackPointExtension><gpxtpx:hr>107</gpxtpx:hr></gpxtpx:TrackPointExtension></extensions>
      </trkpt>
      <trkpt lat="57.7866444293" lon="14.291373355">
        <ele>197.2</ele>
        <time>2010-11-19T18:22:31Z</time>
        <extensions><gpxtpx:TrackPointExtension><gpxtpx:hr>108</gpxtpx:hr></gpxtpx:TrackPointExtension></extensions>
      </trkpt>
      <trkpt lat="57.7866207923" lon="14.2914627899">
        <ele>197</ele>
        <time>2010-11-19T18:22:33Z</time>
        <extensions><gpxtpx:TrackPointExtension><gpxtpx:hr>108</gpxtpx:hr></gpxtpx:TrackPointExtension></extensions>
      </trkpt>
      <trkpt lat="57.7865944732" lon="14.2915456031">
        <ele>197</ele>
        <time>2010-11-19T18:22:35Z</time>
        <extensions><gpxtpx:TrackPointExtension><gpxtpx:hr>108</gpxtpx:hr></gpxtpx:TrackPointExtension></extensions>
      </trkpt>
      <trkpt lat="57.7865736022" lon="14.2916428331">
        <ele>196.8</ele>
        <time>2010-11-19T18:22:37Z</time>
        <extensions><gpxtpx:TrackPointExtension><gpxtpx:hr>108</gpxtpx:hr></gpxtpx:TrackPointExtension></extensions>
      </trkpt>
      <trkpt lat="57.7865501329" lon="14.2917374647">
        <ele>196.6</ele>
        <time>2010-11-19T18:22:39Z</time>
        <extensions><gpxtpx:TrackPointExtension><gpxtpx:hr>109</gpxtpx:hr></gpxtpx:TrackPointExtension></extensions>
      </trkpt>
      <trkpt lat="57.7865261607" lon="14.2918446692">
        <ele>196.4</ele>
        <time>2010-11-19T18:22:41Z</time>
        <extensions><gpxtpx:TrackPointExtension><gpxtpx:hr>109</gpxtpx:hr></gpxtpx:TrackPointExtension></extensions>
      </trkpt>
      <trkpt lat="57.7865096483" lon="14.2919222018">
        <ele>196</ele>
        <time>2010-11-19T18:22:43Z</time>
        <extensions><gpxtpx:TrackPointExtension><gpxtpx:hr>109</gpxtpx:hr></gpxtpx:TrackPointExtension></extensions>
      </trkpt>
      <trkpt lat="57.7864907891" lon="14.2920072781">
        <ele>195.6</ele>
        <time>2010-11-19T18:22:45Z</time>
        <extensions><gpxtpx:TrackPointExtension><gpxtpx:hr>109</gpxtpx:hr></gpxtpx:TrackPointExtension></extensions>
      </trkpt>
      <trkpt lat="57.786468577" lon="14.292097635">
        <ele>195.4</ele>
        <time>2010-11-19T18:22:47Z</time>
        <extensions><gpxtpx:TrackPointExtension><gpxtpx:hr>109</gpxtpx:hr></gpxtpx:TrackPointExtension></extensions>
      </trkpt>
      <trkpt lat="57.7864427608" lon="14.2921803643">
        <ele>195.2</ele>
        <time>2010-11-19T18:22:49Z</time>
        <extensions><gpxtpx:TrackPointExtension><gpxtpx:hr>109</gpxtpx:hr></gpxtpx:TrackPointExtension></extensions>
      </trkpt>
      <trkpt lat="57.7864221413" lon="14.2922725652">
        <ele>195</ele>
        <time>2010-11-19T18:22:51Z</time>
        <extensions><gpxtpx:TrackPointExtension><gpxtpx:hr>109</gpxtpx:hr></gpxtpx:TrackPointExtension></extensions>
      </trkpt>
      <trkpt lat="57.7863945648" lon="14.2923407101">
        <ele>194.8</ele>
        <time>2010-11-19T18:22:53Z</time>
        <extensions><gpxtpx:TrackPointExtension><gpxtpx:hr>109</gpxtpx:hr></gpxtpx:TrackPointExtension></extensions>
      </trkpt>
      <trkpt lat="57.7863619592" lon="14.292401898">
        <ele>194.8</ele>
        <time>2010-11-19T18:22:55Z</time>
        <extensions><gpxtpx:TrackPointExtension><gpxtpx:hr>108</gpxtpx:hr></gpxtpx:TrackPointExtension></extensions>
      </trkpt>
      <trkpt lat="57.7863518171" lon="14.2924369343">
        <ele>194.6</ele>
        <time>2010-11-19T18:22:56Z</time>
        <extensions><gpxtpx:TrackPointExtension><gpxtpx:hr>108</gpxtpx:hr></gpxtpx:TrackPointExtension></extensions>
      </trkpt>
      <trkpt lat="57.7863287669" lon="14.2925504252">
        <ele>194.6</ele>
        <time>2010-11-19T18:22:59Z</time>
        <extensions><gpxtpx:TrackPointExtension><gpxtpx:hr>109</gpxtpx:hr></gpxtpx:TrackPointExtension></extensions>
      </trkpt>
      <trkpt lat="57.7862908807" lon="14.2926313944">
        <ele>194.4</ele>
        <time>2010-11-19T18:23:01Z</time>
        <extensions><gpxtpx:TrackPointExtension><gpxtpx:hr>109</gpxtpx:hr></gpxtpx:TrackPointExtension></extensions>
      </trkpt>
      <trkpt lat="57.7862799843" lon="14.292649164">
        <ele>194.4</ele>
        <time>2010-11-19T18:23:02Z</time>
        <extensions><gpxtpx:TrackPointExtension><gpxtpx:hr>109</gpxtpx:hr></gpxtpx:TrackPointExtension></extensions>
      </trkpt>
      <trkpt lat="57.7862627176" lon="14.2926643352">
        <ele>194.4</ele>
        <time>2010-11-19T18:23:03Z</time>
        <extensions><gpxtpx:TrackPointExtension><gpxtpx:hr>108</gpxtpx:hr></gpxtpx:TrackPointExtension></extensions>
      </trkpt>
      <trkpt lat="57.7861997695" lon="14.292618151">
        <ele>194.4</ele>
        <time>2010-11-19T18:23:06Z</time>
        <extensions><gpxtpx:TrackPointExtension><gpxtpx:hr>108</gpxtpx:hr></gpxtpx:TrackPointExtension></extensions>
      </trkpt>
      <trkpt lat="57.7862015297" lon="14.2925243575">
        <ele>194.4</ele>
        <time>2010-11-19T18:23:08Z</time>
        <extensions><gpxtpx:TrackPointExtension><gpxtpx:hr>108</gpxtpx:hr></gpxtpx:TrackPointExtension></extensions>
      </trkpt>
      <trkpt lat="57.786231034" lon="14.2924466573">
        <ele>194.4</ele>
        <time>2010-11-19T18:23:10Z</time>
        <extensions><gpxtpx:TrackPointExtension><gpxtpx:hr>108</gpxtpx:hr></gpxtpx:TrackPointExtension></extensions>
      </trkpt>
      <trkpt lat="57.7862731111" lon="14.2923702982">
        <ele>193.8</ele>
        <time>2010-11-19T18:23:12Z</time>
        <extensions><gpxtpx:TrackPointExtension><gpxtpx:hr>108</gpxtpx:hr></gpxtpx:TrackPointExtension></extensions>
      </trkpt>
      <trkpt lat="57.7862879471" lon="14.2923273829">
        <ele>193.8</ele>
        <time>2010-11-19T18:23:13Z</time>
        <extensions><gpxtpx:TrackPointExtension><gpxtpx:hr>108</gpxtpx:hr></gpxtpx:TrackPointExtension></extensions>
      </trkpt>
      <trkpt lat="57.7863011067" lon="14.2922927656">
        <ele>193.6</ele>
        <time>2010-11-19T18:23:14Z</time>
        <extensions><gpxtpx:TrackPointExtension><gpxtpx:hr>108</gpxtpx:hr></gpxtpx:TrackPointExtension></extensions>
      </trkpt>
      <trkpt lat="57.7863332931" lon="14.2922057615">
        <ele>193.2</ele>
        <time>2010-11-19T18:23:16Z</time>
        <extensions><gpxtpx:TrackPointExtension><gpxtpx:hr>108</gpxtpx:hr></gpxtpx:TrackPointExtension></extensions>
      </trkpt>
      <trkpt lat="57.7863577683" lon="14.292115237">
        <ele>193</ele>
        <time>2010-11-19T18:23:18Z</time>
        <extensions><gpxtpx:TrackPointExtension><gpxtpx:hr>109</gpxtpx:hr></gpxtpx:TrackPointExtension></extensions>
      </trkpt>
      <trkpt lat="57.7863786392" lon="14.2920389617">
        <ele>192.8</ele>
        <time>2010-11-19T18:23:20Z</time>
        <extensions><gpxtpx:TrackPointExtension><gpxtpx:hr>110</gpxtpx:hr></gpxtpx:TrackPointExtension></extensions>
      </trkpt>
      <trkpt lat="57.7863982529" lon="14.2919275662">
        <ele>192</ele>
        <time>2010-11-19T18:23:22Z</time>
        <extensions><gpxtpx:TrackPointExtension><gpxtpx:hr>110</gpxtpx:hr></gpxtpx:TrackPointExtension></extensions>
      </trkpt>
      <trkpt lat="57.7864133403" lon="14.2918288275">
        <ele>191.6</ele>
        <time>2010-11-19T18:23:24Z</time>
        <extensions><gpxtpx:TrackPointExtension><gpxtpx:hr>110</gpxtpx:hr></gpxtpx:TrackPointExtension></extensions>
      </trkpt>
      <trkpt lat="57.7864439342" lon="14.2916617762">
        <ele>191.2</ele>
        <time>2010-11-19T18:23:28Z</time>
        <extensions><gpxtpx:TrackPointExtension><gpxtpx:hr>110</gpxtpx:hr></gpxtpx:TrackPointExtension></extensions>
      </trkpt>
      <trkpt lat="57.7864578482" lon="14.2915694077">
        <ele>190.8</ele>
        <time>2010-11-19T18:23:30Z</time>
        <extensions><gpxtpx:TrackPointExtension><gpxtpx:hr>109</gpxtpx:hr></gpxtpx:TrackPointExtension></extensions>
      </trkpt>
      <trkpt lat="57.7864784677" lon="14.2914864268">
        <ele>190</ele>
        <time>2010-11-19T18:23:32Z</time>
        <extensions><gpxtpx:TrackPointExtension><gpxtpx:hr>108</gpxtpx:hr></gpxtpx:TrackPointExtension></extensions>
      </trkpt>
      <trkpt lat="57.7864897832" lon="14.291360866">
        <ele>189.2</ele>
        <time>2010-11-19T18:23:36Z</time>
        <extensions><gpxtpx:TrackPointExtension><gpxtpx:hr>108</gpxtpx:hr></gpxtpx:TrackPointExtension></extensions>
      </trkpt>
      <trkpt lat="57.7864873525" lon="14.2912609537">
        <ele>188.4</ele>
        <time>2010-11-19T18:23:38Z</time>
        <extensions><gpxtpx:TrackPointExtension><gpxtpx:hr>108</gpxtpx:hr></gpxtpx:TrackPointExtension></extensions>
      </trkpt>
      <trkpt lat="57.7864715945" lon="14.2911690043">
        <ele>188</ele>
        <time>2010-11-19T18:23:40Z</time>
        <extensions><gpxtpx:TrackPointExtension><gpxtpx:hr>109</gpxtpx:hr></gpxtpx:TrackPointExtension></extensions>
      </trkpt>
      <trkpt lat="57.7864651404" lon="14.2910211476">
        <ele>187.2</ele>
        <time>2010-11-19T18:23:43Z</time>
        <extensions><gpxtpx:TrackPointExtension><gpxtpx:hr>110</gpxtpx:hr></gpxtpx:TrackPointExtension></extensions>
      </trkpt>
      <trkpt lat="57.7864738576" lon="14.2909338082">
        <ele>186.4</ele>
        <time>2010-11-19T18:23:45Z</time>
        <extensions><gpxtpx:TrackPointExtension><gpxtpx:hr>111</gpxtpx:hr></gpxtpx:TrackPointExtension></extensions>
      </trkpt>
      <trkpt lat="57.7864965726" lon="14.2908240891">
        <ele>185.8</ele>
        <time>2010-11-19T18:23:47Z</time>
        <extensions><gpxtpx:TrackPointExtension><gpxtpx:hr>111</gpxtpx:hr></gpxtpx:TrackPointExtension></extensions>
      </trkpt>
      <trkpt lat="57.78651166" lon="14.2907409407">
        <ele>185.4</ele>
        <time>2010-11-19T18:23:49Z</time>
        <extensions><gpxtpx:TrackPointExtension><gpxtpx:hr>112</gpxtpx:hr></gpxtpx:TrackPointExtension></extensions>
      </trkpt>
      <trkpt lat="57.7865423377" lon="14.2906536013">
        <ele>184.6</ele>
        <time>2010-11-19T18:23:51Z</time>
        <extensions><gpxtpx:TrackPointExtension><gpxtpx:hr>111</gpxtpx:hr></gpxtpx:TrackPointExtension></extensions>
      </trkpt>
      <trkpt lat="57.7865877676" lon="14.2905810978">
        <ele>184</ele>
        <time>2010-11-19T18:23:53Z</time>
        <extensions><gpxtpx:TrackPointExtension><gpxtpx:hr>111</gpxtpx:hr></gpxtpx:TrackPointExtension></extensions>
      </trkpt>
      <trkpt lat="57.7866300962" lon="14.2905209996">
        <ele>183.4</ele>
        <time>2010-11-19T18:23:55Z</time>
        <extensions><gpxtpx:TrackPointExtension><gpxtpx:hr>111</gpxtpx:hr></gpxtpx:TrackPointExtension></extensions>
      </trkpt>
      <trkpt lat="57.786676951" lon="14.2904591412">
        <ele>183</ele>
        <time>2010-11-19T18:23:57Z</time>
        <extensions><gpxtpx:TrackPointExtension><gpxtpx:hr>110</gpxtpx:hr></gpxtpx:TrackPointExtension></extensions>
      </trkpt>
      <trkpt lat="57.7867292541" lon="14.2903883141">
        <ele>182.4</ele>
        <time>2010-11-19T18:23:59Z</time>
        <extensions><gpxtpx:TrackPointExtension><gpxtpx:hr>110</gpxtpx:hr></gpxtpx:TrackPointExtension></extensions>
      </trkpt>
      <trkpt lat="57.786775606" lon="14.2903319039">
        <ele>181.8</ele>
        <time>2010-11-19T18:24:01Z</time>
        <extensions><gpxtpx:TrackPointExtension><gpxtpx:hr>109</gpxtpx:hr></gpxtpx:TrackPointExtension></extensions>
      </trkpt>
      <trkpt lat="57.7868127378" lon="14.2902892401">
        <ele>181.2</ele>
        <time>2010-11-19T18:24:03Z</time>
        <extensions><gpxtpx:TrackPointExtension><gpxtpx:hr>108</gpxtpx:hr></gpxtpx:TrackPointExtension></extensions>
      </trkpt>
      <trkpt lat="57.7868560723" lon="14.2902491746">
        <ele>180.8</ele>
        <time>2010-11-19T18:24:05Z</time>
        <extensions><gpxtpx:TrackPointExtension><gpxtpx:hr>108</gpxtpx:hr></gpxtpx:TrackPointExtension></extensions>
      </trkpt>
      <trkpt lat="57.7868991552" lon="14.2902014816">
        <ele>180.2</ele>
        <time>2010-11-19T18:24:07Z</time>
        <extensions><gpxtpx:TrackPointExtension><gpxtpx:hr>108</gpxtpx:hr></gpxtpx:TrackPointExtension></extensions>
      </trkpt>
      <trkpt lat="57.7869463453" lon="14.2901583148">
        <ele>179.6</ele>
        <time>2010-11-19T18:24:09Z</time>
        <extensions><gpxtpx:TrackPointExtension><gpxtpx:hr>108</gpxtpx:hr></gpxtpx:TrackPointExtension></extensions>
      </trkpt>
      <trkpt lat="57.7869916914" lon="14.2901064308">
        <ele>179.2</ele>
        <time>2010-11-19T18:24:11Z</time>
        <extensions><gpxtpx:TrackPointExtension><gpxtpx:hr>108</gpxtpx:hr></gpxtpx:TrackPointExtension></extensions>
      </trkpt>
      <trkpt lat="57.7870370375" lon="14.2900599951">
        <ele>178.8</ele>
        <time>2010-11-19T18:24:13Z</time>
        <extensions><gpxtpx:TrackPointExtension><gpxtpx:hr>109</gpxtpx:hr></gpxtpx:TrackPointExtension></extensions>
      </trkpt>
      <trkpt lat="57.7870976386" lon="14.289974835">
        <ele>178.4</ele>
        <time>2010-11-19T18:24:16Z</time>
        <extensions><gpxtpx:TrackPointExtension><gpxtpx:hr>109</gpxtpx:hr></gpxtpx:TrackPointExtension></extensions>
      </trkpt>
      <trkpt lat="57.7871420627" lon="14.2899073607">
        <ele>178.2</ele>
        <time>2010-11-19T18:24:18Z</time>
        <extensions><gpxtpx:TrackPointExtension><gpxtpx:hr>109</gpxtpx:hr></gpxtpx:TrackPointExtension></extensions>
      </trkpt>
      <trkpt lat="57.7871601676" lon="14.2898749227">
        <ele>178</ele>
        <time>2010-11-19T18:24:19Z</time>
        <extensions><gpxtpx:TrackPointExtension><gpxtpx:hr>109</gpxtpx:hr></gpxtpx:TrackPointExtension></extensions>
      </trkpt>
      <trkpt lat="57.7872486804" lon="14.2897509544">
        <ele>177.8</ele>
        <time>2010-11-19T18:24:23Z</time>
        <extensions><gpxtpx:TrackPointExtension><gpxtpx:hr>108</gpxtpx:hr></gpxtpx:TrackPointExtension></extensions>
      </trkpt>
      <trkpt lat="57.7872894165" lon="14.2896925326">
        <ele>177.4</ele>
        <time>2010-11-19T18:24:25Z</time>
        <extensions><gpxtpx:TrackPointExtension><gpxtpx:hr>108</gpxtpx:hr></gpxtpx:TrackPointExtension></extensions>
      </trkpt>
      <trkpt lat="57.7873579804" lon="14.2896186042">
        <ele>176.8</ele>
        <time>2010-11-19T18:24:28Z</time>
        <extensions><gpxtpx:TrackPointExtension><gpxtpx:hr>108</gpxtpx:hr></gpxtpx:TrackPointExtension></extensions>
      </trkpt>
      <trkpt lat="57.7874028236" lon="14.2895316001">
        <ele>176.4</ele>
        <time>2010-11-19T18:24:30Z</time>
        <extensions><gpxtpx:TrackPointExtension><gpxtpx:hr>109</gpxtpx:hr></gpxtpx:TrackPointExtension></extensions>
      </trkpt>
      <trkpt lat="57.787429478" lon="14.2894704123">
        <ele>176.2</ele>
        <time>2010-11-19T18:24:32Z</time>
        <extensions><gpxtpx:TrackPointExtension><gpxtpx:hr>109</gpxtpx:hr></gpxtpx:TrackPointExtension></extensions>
      </trkpt>
      <trkpt lat="57.7874759138" lon="14.2893963163">
        <ele>176</ele>
        <time>2010-11-19T18:24:34Z</time>
        <extensions><gpxtpx:TrackPointExtension><gpxtpx:hr>109</gpxtpx:hr></gpxtpx:TrackPointExtension></extensions>
      </trkpt>
      <trkpt lat="57.7875055857" lon="14.2893328653">
        <ele>175.8</ele>
        <time>2010-11-19T18:24:36Z</time>
        <extensions><gpxtpx:TrackPointExtension><gpxtpx:hr>108</gpxtpx:hr></gpxtpx:TrackPointExtension></extensions>
      </trkpt>
      <trkpt lat="57.7875381075" lon="14.2892531534">
        <ele>175.8</ele>
        <time>2010-11-19T18:24:38Z</time>
        <extensions><gpxtpx:TrackPointExtension><gpxtpx:hr>109</gpxtpx:hr></gpxtpx:TrackPointExtension></extensions>
      </trkpt>
      <trkpt lat="57.7875703778" lon="14.2891679933">
        <ele>175.6</ele>
        <time>2010-11-19T18:24:40Z</time>
        <extensions><gpxtpx:TrackPointExtension><gpxtpx:hr>109</gpxtpx:hr></gpxtpx:TrackPointExtension></extensions>
      </trkpt>
      <trkpt lat="57.7876010555" lon="14.2890947355">
        <ele>175.6</ele>
        <time>2010-11-19T18:24:42Z</time>
        <extensions><gpxtpx:TrackPointExtension><gpxtpx:hr>109</gpxtpx:hr></gpxtpx:TrackPointExtension></extensions>
      </trkpt>
      <trkpt lat="57.7876377682" lon="14.2889919734">
        <ele>175.4</ele>
        <time>2010-11-19T18:24:45Z</time>
        <extensions><gpxtpx:TrackPointExtension><gpxtpx:hr>110</gpxtpx:hr></gpxtpx:TrackPointExtension></extensions>
      </trkpt>
      <trkpt lat="57.7876774985" lon="14.2888516604">
        <ele>175.4</ele>
        <time>2010-11-19T18:24:48Z</time>
        <extensions><gpxtpx:TrackPointExtension><gpxtpx:hr>110</gpxtpx:hr></gpxtpx:TrackPointExtension></extensions>
      </trkpt>
      <trkpt lat="57.7877188212" lon="14.2887545142">
        <ele>175.2</ele>
        <time>2010-11-19T18:24:51Z</time>
        <extensions><gpxtpx:TrackPointExtension><gpxtpx:hr>110</gpxtpx:hr></gpxtpx:TrackPointExtension></extensions>
      </trkpt>
      <trkpt lat="57.7877509239" lon="14.2886526741">
        <ele>175.2</ele>
        <time>2010-11-19T18:24:53Z</time>
        <extensions><gpxtpx:TrackPointExtension><gpxtpx:hr>111</gpxtpx:hr></gpxtpx:TrackPointExtension></extensions>
      </trkpt>
      <trkpt lat="57.7877708728" lon="14.2885558631">
        <ele>175.2</ele>
        <time>2010-11-19T18:24:55Z</time>
        <extensions><gpxtpx:TrackPointExtension><gpxtpx:hr>111</gpxtpx:hr></gpxtpx:TrackPointExtension></extensions>
      </trkpt>
      <trkpt lat="57.7877935878" lon="14.2884887241">
        <ele>175.2</ele>
        <time>2010-11-19T18:24:57Z</time>
        <extensions><gpxtpx:TrackPointExtension><gpxtpx:hr>111</gpxtpx:hr></gpxtpx:TrackPointExtension></extensions>
      </trkpt>
      <trkpt lat="57.7878240979" lon="14.2883930866">
        <ele>175</ele>
        <time>2010-11-19T18:24:59Z</time>
        <extensions><gpxtpx:TrackPointExtension><gpxtpx:hr>110</gpxtpx:hr></gpxtpx:TrackPointExtension></extensions>
      </trkpt>
      <trkpt lat="57.7878567035" lon="14.288317901">
        <ele>174.6</ele>
        <time>2010-11-19T18:25:01Z</time>
        <extensions><gpxtpx:TrackPointExtension><gpxtpx:hr>108</gpxtpx:hr></gpxtpx:TrackPointExtension></extensions>
      </trkpt>
      <trkpt lat="57.7879029716" lon="14.2882101098">
        <ele>174.2</ele>
        <time>2010-11-19T18:25:04Z</time>
        <extensions><gpxtpx:TrackPointExtension><gpxtpx:hr>108</gpxtpx:hr></gpxtpx:TrackPointExtension></extensions>
      </trkpt>
      <trkpt lat="57.7879337331" lon="14.28815722">
        <ele>174</ele>
        <time>2010-11-19T18:25:06Z</time>
        <extensions><gpxtpx:TrackPointExtension><gpxtpx:hr>108</gpxtpx:hr></gpxtpx:TrackPointExtension></extensions>
      </trkpt>
      <trkpt lat="57.7879686018" lon="14.2880378617">
        <ele>173.8</ele>
        <time>2010-11-19T18:25:09Z</time>
        <extensions><gpxtpx:TrackPointExtension><gpxtpx:hr>110</gpxtpx:hr></gpxtpx:TrackPointExtension></extensions>
      </trkpt>
      <trkpt lat="57.788010679" lon="14.287903919">
        <ele>173.4</ele>
        <time>2010-11-19T18:25:12Z</time>
        <extensions><gpxtpx:TrackPointExtension><gpxtpx:hr>109</gpxtpx:hr></gpxtpx:TrackPointExtension></extensions>
      </trkpt>
      <trkpt lat="57.7880343998" lon="14.2878237042">
        <ele>172.8</ele>
        <time>2010-11-19T18:25:14Z</time>
        <extensions><gpxtpx:TrackPointExtension><gpxtpx:hr>109</gpxtpx:hr></gpxtpx:TrackPointExtension></extensions>
      </trkpt>
      <trkpt lat="57.7880602998" lon="14.2877662882">
        <ele>172.6</ele>
        <time>2010-11-19T18:25:16Z</time>
        <extensions><gpxtpx:TrackPointExtension><gpxtpx:hr>109</gpxtpx:hr></gpxtpx:TrackPointExtension></extensions>
      </trkpt>
      <trkpt lat="57.7880877925" lon="14.2876685552">
        <ele>172.2</ele>
        <time>2010-11-19T18:25:18Z</time>
        <extensions><gpxtpx:TrackPointExtension><gpxtpx:hr>111</gpxtpx:hr></gpxtpx:TrackPointExtension></extensions>
      </trkpt>
      <trkpt lat="57.7881138602" lon="14.2875869993">
        <ele>172</ele>
        <time>2010-11-19T18:25:20Z</time>
        <extensions><gpxtpx:TrackPointExtension><gpxtpx:hr>111</gpxtpx:hr></gpxtpx:TrackPointExtension></extensions>
      </trkpt>
      <trkpt lat="57.7881371618" lon="14.2874989056">
        <ele>171.4</ele>
        <time>2010-11-19T18:25:22Z</time>
        <extensions><gpxtpx:TrackPointExtension><gpxtpx:hr>111</gpxtpx:hr></gpxtpx:TrackPointExtension></extensions>
      </trkpt>
      <trkpt lat="57.7881489803" lon="14.2873647113">
        <ele>170.6</ele>
        <time>2010-11-19T18:25:25Z</time>
        <extensions><gpxtpx:TrackPointExtension><gpxtpx:hr>110</gpxtpx:hr></gpxtpx:TrackPointExtension></extensions>
      </trkpt>
      <trkpt lat="57.788175551" lon="14.2872058743">
        <ele>170</ele>
        <time>2010-11-19T18:25:28Z</time>
        <extensions><gpxtpx:TrackPointExtension><gpxtpx:hr>111</gpxtpx:hr></gpxtpx:TrackPointExtension></extensions>
      </trkpt>
      <trkpt lat="57.7881884591" lon="14.2871066326">
        <ele>169.6</ele>
        <time>2010-11-19T18:25:30Z</time>
        <extensions><gpxtpx:TrackPointExtension><gpxtpx:hr>111</gpxtpx:hr></gpxtpx:TrackPointExtension></extensions>
      </trkpt>
      <trkpt lat="57.7882069831" lon="14.2870190418">
        <ele>169</ele>
        <time>2010-11-19T18:25:32Z</time>
        <extensions><gpxtpx:TrackPointExtension><gpxtpx:hr>110</gpxtpx:hr></gpxtpx:TrackPointExtension></extensions>
      </trkpt>
      <trkpt lat="57.7882284407" lon="14.286923991">
        <ele>168.6</ele>
        <time>2010-11-19T18:25:34Z</time>
        <extensions><gpxtpx:TrackPointExtension><gpxtpx:hr>111</gpxtpx:hr></gpxtpx:TrackPointExtension></extensions>
      </trkpt>
      <trkpt lat="57.7882530835" lon="14.2868373222">
        <ele>168.2</ele>
        <time>2010-11-19T18:25:36Z</time>
        <extensions><gpxtpx:TrackPointExtension><gpxtpx:hr>111</gpxtpx:hr></gpxtpx:TrackPointExtension></extensions>
      </trkpt>
      <trkpt lat="57.7882786483" lon="14.2867485579">
        <ele>167.8</ele>
        <time>2010-11-19T18:25:38Z</time>
        <extensions><gpxtpx:TrackPointExtension><gpxtpx:hr>111</gpxtpx:hr></gpxtpx:TrackPointExtension></extensions>
      </trkpt>
      <trkpt lat="57.7883047998" lon="14.2866594583">
        <ele>167.4</ele>
        <time>2010-11-19T18:25:40Z</time>
        <extensions><gpxtpx:TrackPointExtension><gpxtpx:hr>111</gpxtpx:hr></gpxtpx:TrackPointExtension></extensions>
      </trkpt>
      <trkpt lat="57.7883454521" lon="14.2865821772">
        <ele>166.8</ele>
        <time>2010-11-19T18:25:42Z</time>
        <extensions><gpxtpx:TrackPointExtension><gpxtpx:hr>111</gpxtpx:hr></gpxtpx:TrackPointExtension></extensions>
      </trkpt>
      <trkpt lat="57.7883896247" lon="14.2865111825">
        <ele>166.2</ele>
        <time>2010-11-19T18:25:44Z</time>
        <extensions><gpxtpx:TrackPointExtension><gpxtpx:hr>112</gpxtpx:hr></gpxtpx:TrackPointExtension></extensions>
      </trkpt>
      <trkpt lat="57.7884240743" lon="14.2864559457">
        <ele>165.8</ele>
        <time>2010-11-19T18:25:46Z</time>
        <extensions><gpxtpx:TrackPointExtension><gpxtpx:hr>112</gpxtpx:hr></gpxtpx:TrackPointExtension></extensions>
      </trkpt>
      <trkpt lat="57.7884843401" lon="14.2863875494">
        <ele>165.6</ele>
        <time>2010-11-19T18:25:48Z</time>
        <extensions><gpxtpx:TrackPointExtension><gpxtpx:hr>112</gpxtpx:hr></gpxtpx:TrackPointExtension></extensions>
      </trkpt>
      <trkpt lat="57.7885454442" lon="14.2863563688">
        <ele>165.2</ele>
        <time>2010-11-19T18:25:50Z</time>
        <extensions><gpxtpx:TrackPointExtension><gpxtpx:hr>113</gpxtpx:hr></gpxtpx:TrackPointExtension></extensions>
      </trkpt>
      <trkpt lat="57.7885976634" lon="14.2863027246">
        <ele>164.6</ele>
        <time>2010-11-19T18:25:52Z</time>
        <extensions><gpxtpx:TrackPointExtension><gpxtpx:hr>113</gpxtpx:hr></gpxtpx:TrackPointExtension></extensions>
      </trkpt>
      <trkpt lat="57.7886517267" lon="14.2862544449">
        <ele>164</ele>
        <time>2010-11-19T18:25:54Z</time>
        <extensions><gpxtpx:TrackPointExtension><gpxtpx:hr>112</gpxtpx:hr></gpxtpx:TrackPointExtension></extensions>
      </trkpt>
      <trkpt lat="57.7887021857" lon="14.2862051593">
        <ele>163.8</ele>
        <time>2010-11-19T18:25:56Z</time>
        <extensions><gpxtpx:TrackPointExtension><gpxtpx:hr>112</gpxtpx:hr></gpxtpx:TrackPointExtension></extensions>
      </trkpt>
      <trkpt lat="57.7887461069" lon="14.2861504255">
        <ele>163.4</ele>
        <time>2010-11-19T18:25:58Z</time>
        <extensions><gpxtpx:TrackPointExtension><gpxtpx:hr>111</gpxtpx:hr></gpxtpx:TrackPointExtension></extensions>
      </trkpt>
      <trkpt lat="57.788777539" lon="14.2860846276">
        <ele>163.2</ele>
        <time>2010-11-19T18:26:00Z</time>
        <extensions><gpxtpx:TrackPointExtension><gpxtpx:hr>110</gpxtpx:hr></gpxtpx:TrackPointExtension></extensions>
      </trkpt>
      <trkpt lat="57.7888063727" lon="14.286008939">
        <ele>163</ele>
        <time>2010-11-19T18:26:02Z</time>
        <extensions><gpxtpx:TrackPointExtension><gpxtpx:hr>110</gpxtpx:hr></gpxtpx:TrackPointExtension></extensions>
      </trkpt>
      <trkpt lat="57.7888403194" lon="14.2859381958">
        <ele>162.4</ele>
        <time>2010-11-19T18:26:04Z</time>
        <extensions><gpxtpx:TrackPointExtension><gpxtpx:hr>111</gpxtpx:hr></gpxtpx:TrackPointExtension></extensions>
      </trkpt>
      <trkpt lat="57.7888864199" lon="14.2858850545">
        <ele>162</ele>
        <time>2010-11-19T18:26:06Z</time>
        <extensions><gpxtpx:TrackPointExtension><gpxtpx:hr>111</gpxtpx:hr></gpxtpx:TrackPointExtension></extensions>
      </trkpt>
      <trkpt lat="57.7889357893" lon="14.2858427259">
        <ele>161.6</ele>
        <time>2010-11-19T18:26:08Z</time>
        <extensions><gpxtpx:TrackPointExtension><gpxtpx:hr>112</gpxtpx:hr></gpxtpx:TrackPointExtension></extensions>
      </trkpt>
      <trkpt lat="57.788986416" lon="14.2857988048">
        <ele>161.4</ele>
        <time>2010-11-19T18:26:10Z</time>
        <extensions><gpxtpx:TrackPointExtension><gpxtpx:hr>113</gpxtpx:hr></gpxtpx:TrackPointExtension></extensions>
      </trkpt>
      <trkpt lat="57.7890366235" lon="14.2857521176">
        <ele>161.2</ele>
        <time>2010-11-19T18:26:12Z</time>
        <extensions><gpxtpx:TrackPointExtension><gpxtpx:hr>113</gpxtpx:hr></gpxtpx:TrackPointExtension></extensions>
      </trkpt>
      <trkpt lat="57.7890953807" lon="14.2856779378">
        <ele>160.8</ele>
        <time>2010-11-19T18:26:15Z</time>
        <extensions><gpxtpx:TrackPointExtension><gpxtpx:hr>112</gpxtpx:hr></gpxtpx:TrackPointExtension></extensions>
      </trkpt>
      <trkpt lat="57.7891414811" lon="14.2856106311">
        <ele>160.8</ele>
        <time>2010-11-19T18:26:17Z</time>
        <extensions><gpxtpx:TrackPointExtension><gpxtpx:hr>110</gpxtpx:hr></gpxtpx:TrackPointExtension></extensions>
      </trkpt>
      <trkpt lat="57.7891819657" lon="14.2855554782">
        <ele>160.4</ele>
        <time>2010-11-19T18:26:19Z</time>
        <extensions><gpxtpx:TrackPointExtension><gpxtpx:hr>109</gpxtpx:hr></gpxtpx:TrackPointExtension></extensions>
      </trkpt>
      <trkpt lat="57.7892256354" lon="14.2855062765">
        <ele>160</ele>
        <time>2010-11-19T18:26:21Z</time>
        <extensions><gpxtpx:TrackPointExtension><gpxtpx:hr>108</gpxtpx:hr></gpxtpx:TrackPointExtension></extensions>
      </trkpt>
      <trkpt lat="57.7892649465" lon="14.2854518779">
        <ele>159.6</ele>
        <time>2010-11-19T18:26:23Z</time>
        <extensions><gpxtpx:TrackPointExtension><gpxtpx:hr>109</gpxtpx:hr></gpxtpx:TrackPointExtension></extensions>
      </trkpt>
      <trkpt lat="57.7893082809" lon="14.285401838">
        <ele>159.4</ele>
        <time>2010-11-19T18:26:25Z</time>
        <extensions><gpxtpx:TrackPointExtension><gpxtpx:hr>110</gpxtpx:hr></gpxtpx:TrackPointExtension></extensions>
      </trkpt>
      <trkpt lat="57.7893690497" lon="14.2853309271">
        <ele>159</ele>
        <time>2010-11-19T18:26:28Z</time>
        <extensions><gpxtpx:TrackPointExtension><gpxtpx:hr>109</gpxtpx:hr></gpxtpx:TrackPointExtension></extensions>
      </trkpt>
      <trkpt lat="57.789424957" lon="14.2852714994">
        <ele>158.8</ele>
        <time>2010-11-19T18:26:31Z</time>
        <extensions><gpxtpx:TrackPointExtension><gpxtpx:hr>109</gpxtpx:hr></gpxtpx:TrackPointExtension></extensions>
      </trkpt>
      <trkpt lat="57.7894830435" lon="14.2851979064">
        <ele>158.4</ele>
        <time>2010-11-19T18:26:34Z</time>
        <extensions><gpxtpx:TrackPointExtension><gpxtpx:hr>110</gpxtpx:hr></gpxtpx:TrackPointExtension></extensions>
      </trkpt>
      <trkpt lat="57.7895334188" lon="14.285159182">
        <ele>157.8</ele>
        <time>2010-11-19T18:26:36Z</time>
        <extensions><gpxtpx:TrackPointExtension><gpxtpx:hr>110</gpxtpx:hr></gpxtpx:TrackPointExtension></extensions>
      </trkpt>
      <trkpt lat="57.7895811956" lon="14.2851129139">
        <ele>157.6</ele>
        <time>2010-11-19T18:26:38Z</time>
        <extensions><gpxtpx:TrackPointExtension><gpxtpx:hr>110</gpxtpx:hr></gpxtpx:TrackPointExtension></extensions>
      </trkpt>
      <trkpt lat="57.7896313193" lon="14.285071675">
        <ele>157.2</ele>
        <time>2010-11-19T18:26:40Z</time>
        <extensions><gpxtpx:TrackPointExtension><gpxtpx:hr>109</gpxtpx:hr></gpxtpx:TrackPointExtension></extensions>
      </trkpt>
      <trkpt lat="57.7896992127" lon="14.2850093136">
        <ele>157</ele>
        <time>2010-11-19T18:26:43Z</time>
        <extensions><gpxtpx:TrackPointExtension><gpxtpx:hr>108</gpxtpx:hr></gpxtpx:TrackPointExtension></extensions>
      </trkpt>
      <trkpt lat="57.7897683634" lon="14.2849365587">
        <ele>156.6</ele>
        <time>2010-11-19T18:26:46Z</time>
        <extensions><gpxtpx:TrackPointExtension><gpxtpx:hr>109</gpxtpx:hr></gpxtpx:TrackPointExtension></extensions>
      </trkpt>
      <trkpt lat="57.7898225943" lon="14.284890123">
        <ele>156.6</ele>
        <time>2010-11-19T18:26:48Z</time>
        <extensions><gpxtpx:TrackPointExtension><gpxtpx:hr>109</gpxtpx:hr></gpxtpx:TrackPointExtension></extensions>
      </trkpt>
      <trkpt lat="57.7898675213" lon="14.2848326232">
        <ele>156.4</ele>
        <time>2010-11-19T18:26:50Z</time>
        <extensions><gpxtpx:TrackPointExtension><gpxtpx:hr>108</gpxtpx:hr></gpxtpx:TrackPointExtension></extensions>
      </trkpt>
      <trkpt lat="57.7899163878" lon="14.28478317">
        <ele>156</ele>
        <time>2010-11-19T18:26:52Z</time>
        <extensions><gpxtpx:TrackPointExtension><gpxtpx:hr>108</gpxtpx:hr></gpxtpx:TrackPointExtension></extensions>
      </trkpt>
      <trkpt lat="57.7899702834" lon="14.2847473792">
        <ele>155.6</ele>
        <time>2010-11-19T18:26:54Z</time>
        <extensions><gpxtpx:TrackPointExtension><gpxtpx:hr>109</gpxtpx:hr></gpxtpx:TrackPointExtension></extensions>
      </trkpt>
      <trkpt lat="57.7900111871" lon="14.284698848">
        <ele>155.2</ele>
        <time>2010-11-19T18:26:56Z</time>
        <extensions><gpxtpx:TrackPointExtension><gpxtpx:hr>109</gpxtpx:hr></gpxtpx:TrackPointExtension></extensions>
      </trkpt>
      <trkpt lat="57.7900530127" lon="14.284643276">
        <ele>155</ele>
        <time>2010-11-19T18:26:58Z</time>
        <extensions><gpxtpx:TrackPointExtension><gpxtpx:hr>109</gpxtpx:hr></gpxtpx:TrackPointExtension></extensions>
      </trkpt>
      <trkpt lat="57.7900932459" lon="14.2845862791">
        <ele>154.8</ele>
        <time>2010-11-19T18:27:00Z</time>
        <extensions><gpxtpx:TrackPointExtension><gpxtpx:hr>109</gpxtpx:hr></gpxtpx:TrackPointExtension></extensions>
      </trkpt>
      <trkpt lat="57.7901418609" lon="14.2845385861">
        <ele>154.6</ele>
        <time>2010-11-19T18:27:02Z</time>
        <extensions><gpxtpx:TrackPointExtension><gpxtpx:hr>109</gpxtpx:hr></gpxtpx:TrackPointExtension></extensions>
      </trkpt>
      <trkpt lat="57.7901910626" lon="14.2844914798">
        <ele>154.6</ele>
        <time>2010-11-19T18:27:04Z</time>
        <extensions><gpxtpx:TrackPointExtension><gpxtpx:hr>110</gpxtpx:hr></gpxtpx:TrackPointExtension></extensions>
      </trkpt>
      <trkpt lat="57.7902272724" lon="14.2844334771">
        <ele>154</ele>
        <time>2010-11-19T18:27:06Z</time>
        <extensions><gpxtpx:TrackPointExtension><gpxtpx:hr>109</gpxtpx:hr></gpxtpx:TrackPointExtension></extensions>
      </trkpt>
      <trkpt lat="57.7902857781" lon="14.2843963453">
        <ele>153.6</ele>
        <time>2010-11-19T18:27:08Z</time>
        <extensions><gpxtpx:TrackPointExtension><gpxtpx:hr>109</gpxtpx:hr></gpxtpx:TrackPointExtension></extensions>
      </trkpt>
      <trkpt lat="57.7903365724" lon="14.284353849">
        <ele>153.4</ele>
        <time>2010-11-19T18:27:10Z</time>
        <extensions><gpxtpx:TrackPointExtension><gpxtpx:hr>108</gpxtpx:hr></gpxtpx:TrackPointExtension></extensions>
      </trkpt>
      <trkpt lat="57.7903668311" lon="14.2843386778">
        <ele>153.2</ele>
        <time>2010-11-19T18:27:11Z</time>
        <extensions><gpxtpx:TrackPointExtension><gpxtpx:hr>108</gpxtpx:hr></gpxtpx:TrackPointExtension></extensions>
      </trkpt>
      <trkpt lat="57.7904148594" lon="14.2842991152">
        <ele>153</ele>
        <time>2010-11-19T18:27:13Z</time>
        <extensions><gpxtpx:TrackPointExtension><gpxtpx:hr>109</gpxtpx:hr></gpxtpx:TrackPointExtension></extensions>
      </trkpt>
      <trkpt lat="57.790434473" lon="14.2842765679">
        <ele>152.8</ele>
        <time>2010-11-19T18:27:14Z</time>
        <extensions><gpxtpx:TrackPointExtension><gpxtpx:hr>109</gpxtpx:hr></gpxtpx:TrackPointExtension></extensions>
      </trkpt>
      <trkpt lat="57.7905117541" lon="14.2842088422">
        <ele>152.6</ele>
        <time>2010-11-19T18:27:17Z</time>
        <extensions><gpxtpx:TrackPointExtension><gpxtpx:hr>110</gpxtpx:hr></gpxtpx:TrackPointExtension></extensions>
      </trkpt>
      <trkpt lat="57.7905455332" lon="14.2841440501">
        <ele>152.4</ele>
        <time>2010-11-19T18:27:19Z</time>
        <extensions><gpxtpx:TrackPointExtension><gpxtpx:hr>109</gpxtpx:hr></gpxtpx:TrackPointExtension></extensions>
      </trkpt>
      <trkpt lat="57.7905617941" lon="14.2841113607">
        <ele>152.4</ele>
        <time>2010-11-19T18:27:20Z</time>
        <extensions><gpxtpx:TrackPointExtension><gpxtpx:hr>110</gpxtpx:hr></gpxtpx:TrackPointExtension></extensions>
      </trkpt>
      <trkpt lat="57.7906321182" lon="14.2840411203">
        <ele>152.2</ele>
        <time>2010-11-19T18:27:23Z</time>
        <extensions><gpxtpx:TrackPointExtension><gpxtpx:hr>109</gpxtpx:hr></gpxtpx:TrackPointExtension></extensions>
      </trkpt>
      <trkpt lat="57.7906826611" lon="14.2839938464">
        <ele>151.8</ele>
        <time>2010-11-19T18:27:25Z</time>
        <extensions><gpxtpx:TrackPointExtension><gpxtpx:hr>109</gpxtpx:hr></gpxtpx:TrackPointExtension></extensions>
      </trkpt>
      <trkpt lat="57.7907037834" lon="14.2839795134">
        <ele>151.6</ele>
        <time>2010-11-19T18:27:26Z</time>
        <extensions><gpxtpx:TrackPointExtension><gpxtpx:hr>109</gpxtpx:hr></gpxtpx:TrackPointExtension></extensions>
      </trkpt>
      <trkpt lat="57.7907253249" lon="14.2839564632">
        <ele>151.4</ele>
        <time>2010-11-19T18:27:27Z</time>
        <extensions><gpxtpx:TrackPointExtension><gpxtpx:hr>110</gpxtpx:hr></gpxtpx:TrackPointExtension></extensions>
      </trkpt>
      <trkpt lat="57.7907690784" lon="14.2838464926">
        <ele>151</ele>
        <time>2010-11-19T18:27:30Z</time>
        <extensions><gpxtpx:TrackPointExtension><gpxtpx:hr>110</gpxtpx:hr></gpxtpx:TrackPointExtension></extensions>
      </trkpt>
      <trkpt lat="57.7908209624" lon="14.2838027391">
        <ele>150.8</ele>
        <time>2010-11-19T18:27:32Z</time>
        <extensions><gpxtpx:TrackPointExtension><gpxtpx:hr>110</gpxtpx:hr></gpxtpx:TrackPointExtension></extensions>
      </trkpt>
      <trkpt lat="57.790838732" lon="14.2837834607">
        <ele>150.8</ele>
        <time>2010-11-19T18:27:33Z</time>
        <extensions><gpxtpx:TrackPointExtension><gpxtpx:hr>110</gpxtpx:hr></gpxtpx:TrackPointExtension></extensions>
      </trkpt>
      <trkpt lat="57.7909071283" lon="14.2837464966">
        <ele>150.6</ele>
        <time>2010-11-19T18:27:35Z</time>
        <extensions><gpxtpx:TrackPointExtension><gpxtpx:hr>110</gpxtpx:hr></gpxtpx:TrackPointExtension></extensions>
      </trkpt>
      <trkpt lat="57.7909369679" lon="14.2837308224">
        <ele>150.4</ele>
        <time>2010-11-19T18:27:36Z</time>
        <extensions><gpxtpx:TrackPointExtension><gpxtpx:hr>110</gpxtpx:hr></gpxtpx:TrackPointExtension></extensions>
      </trkpt>
      <trkpt lat="57.7910010056" lon="14.2836497694">
        <ele>150.2</ele>
        <time>2010-11-19T18:27:39Z</time>
        <extensions><gpxtpx:TrackPointExtension><gpxtpx:hr>110</gpxtpx:hr></gpxtpx:TrackPointExtension></extensions>
      </trkpt>
      <trkpt lat="57.7910623611" lon="14.2835852288">
        <ele>149.8</ele>
        <time>2010-11-19T18:27:41Z</time>
        <extensions><gpxtpx:TrackPointExtension><gpxtpx:hr>110</gpxtpx:hr></gpxtpx:TrackPointExtension></extensions>
      </trkpt>
      <trkpt lat="57.7911070367" lon="14.2835364461">
        <ele>149.4</ele>
        <time>2010-11-19T18:27:43Z</time>
        <extensions><gpxtpx:TrackPointExtension><gpxtpx:hr>110</gpxtpx:hr></gpxtpx:TrackPointExtension></extensions>
      </trkpt>
      <trkpt lat="57.7911762712" lon="14.2834817962">
        <ele>149</ele>
        <time>2010-11-19T18:27:46Z</time>
        <extensions><gpxtpx:TrackPointExtension><gpxtpx:hr>109</gpxtpx:hr></gpxtpx:TrackPointExtension></extensions>
      </trkpt>
      <trkpt lat="57.7912037638" lon="14.2834255536">
        <ele>148.6</ele>
        <time>2010-11-19T18:27:49Z</time>
        <extensions><gpxtpx:TrackPointExtension><gpxtpx:hr>108</gpxtpx:hr></gpxtpx:TrackPointExtension></extensions>
      </trkpt>
      <trkpt lat="57.791211978" lon="14.2834029225">
        <ele>148</ele>
        <time>2010-11-19T18:27:53Z</time>
        <extensions><gpxtpx:TrackPointExtension><gpxtpx:hr>107</gpxtpx:hr></gpxtpx:TrackPointExtension></extensions>
      </trkpt>
      <trkpt lat="57.7912042667" lon="14.2834076163">
        <ele>146.8</ele>
        <time>2010-11-19T18:28:00Z</time>
        <extensions><gpxtpx:TrackPointExtension><gpxtpx:hr>102</gpxtpx:hr></gpxtpx:TrackPointExtension></extensions>
      </trkpt>
      <trkpt lat="57.791230502" lon="14.2834051856">
        <ele>145.4</ele>
        <time>2010-11-19T18:28:06Z</time>
        <extensions><gpxtpx:TrackPointExtension><gpxtpx:hr>101</gpxtpx:hr></gpxtpx:TrackPointExtension></extensions>
      </trkpt>
      <trkpt lat="57.7912891753" lon="14.2833897629">
        <ele>144.8</ele>
        <time>2010-11-19T18:28:09Z</time>
        <extensions><gpxtpx:TrackPointExtension><gpxtpx:hr>103</gpxtpx:hr></gpxtpx:TrackPointExtension></extensions>
      </trkpt>
      <trkpt lat="57.7913429871" lon="14.2833627732">
        <ele>144.6</ele>
        <time>2010-11-19T18:28:11Z</time>
        <extensions><gpxtpx:TrackPointExtension><gpxtpx:hr>105</gpxtpx:hr></gpxtpx:TrackPointExtension></extensions>
      </trkpt>
      <trkpt lat="57.7913985591" lon="14.2833242164">
        <ele>144</ele>
        <time>2010-11-19T18:28:13Z</time>
        <extensions><gpxtpx:TrackPointExtension><gpxtpx:hr>107</gpxtpx:hr></gpxtpx:TrackPointExtension></extensions>
      </trkpt>
      <trkpt lat="57.7914202683" lon="14.2833015853">
        <ele>143.4</ele>
        <time>2010-11-19T18:28:15Z</time>
        <extensions><gpxtpx:TrackPointExtension><gpxtpx:hr>107</gpxtpx:hr></gpxtpx:TrackPointExtension></extensions>
      </trkpt>
      <trkpt lat="57.7913993135" lon="14.2832445884">
        <ele>142.6</ele>
        <time>2010-11-19T18:28:19Z</time>
        <extensions><gpxtpx:TrackPointExtension><gpxtpx:hr>105</gpxtpx:hr></gpxtpx:TrackPointExtension></extensions>
      </trkpt>
      <trkpt lat="57.791375006" lon="14.2831768626">
        <ele>141.6</ele>
        <time>2010-11-19T18:28:23Z</time>
        <extensions><gpxtpx:TrackPointExtension><gpxtpx:hr>100</gpxtpx:hr></gpxtpx:TrackPointExtension></extensions>
      </trkpt>
      <trkpt lat="57.7913481839" lon="14.2830892718">
        <ele>141</ele>
        <time>2010-11-19T18:28:26Z</time>
        <extensions><gpxtpx:TrackPointExtension><gpxtpx:hr>98</gpxtpx:hr></gpxtpx:TrackPointExtension></extensions>
      </trkpt>
      <trkpt lat="57.791324044" lon="14.2830203726">
        <ele>140.8</ele>
        <time>2010-11-19T18:28:28Z</time>
        <extensions><gpxtpx:TrackPointExtension><gpxtpx:hr>98</gpxtpx:hr></gpxtpx:TrackPointExtension></extensions>
      </trkpt>
      <trkpt lat="57.7912926957" lon="14.2829079713">
        <ele>139.8</ele>
        <time>2010-11-19T18:28:31Z</time>
        <extensions><gpxtpx:TrackPointExtension><gpxtpx:hr>98</gpxtpx:hr></gpxtpx:TrackPointExtension></extensions>
      </trkpt>
      <trkpt lat="57.7912584138" lon="14.2828032814">
        <ele>139</ele>
        <time>2010-11-19T18:28:34Z</time>
        <extensions><gpxtpx:TrackPointExtension><gpxtpx:hr>98</gpxtpx:hr></gpxtpx:TrackPointExtension></extensions>
      </trkpt>
      <trkpt lat="57.7912431587" lon="14.282738154">
        <ele>138.4</ele>
        <time>2010-11-19T18:28:36Z</time>
        <extensions><gpxtpx:TrackPointExtension><gpxtpx:hr>98</gpxtpx:hr></gpxtpx:TrackPointExtension></extensions>
      </trkpt>
      <trkpt lat="57.7912429073" lon="14.282697418">
        <ele>137.4</ele>
        <time>2010-11-19T18:28:39Z</time>
        <extensions><gpxtpx:TrackPointExtension><gpxtpx:hr>98</gpxtpx:hr></gpxtpx:TrackPointExtension></extensions>
      </trkpt>
      <trkpt lat="57.7912259758" lon="14.2826182928">
        <ele>136.4</ele>
        <time>2010-11-19T18:28:43Z</time>
        <extensions><gpxtpx:TrackPointExtension><gpxtpx:hr>98</gpxtpx:hr></gpxtpx:TrackPointExtension></extensions>
      </trkpt>
      <trkpt lat="57.7912404765" lon="14.2825840109">
        <ele>136</ele>
        <time>2010-11-19T18:28:44Z</time>
        <extensions><gpxtpx:TrackPointExtension><gpxtpx:hr>97</gpxtpx:hr></gpxtpx:TrackPointExtension></extensions>
      </trkpt>
      <trkpt lat="57.7913097948" lon="14.2825182968">
        <ele>135.2</ele>
        <time>2010-11-19T18:28:47Z</time>
        <extensions><gpxtpx:TrackPointExtension><gpxtpx:hr>98</gpxtpx:hr></gpxtpx:TrackPointExtension></extensions>
      </trkpt>
      <trkpt lat="57.7913600024" lon="14.2824710228">
        <ele>134.8</ele>
        <time>2010-11-19T18:28:49Z</time>
        <extensions><gpxtpx:TrackPointExtension><gpxtpx:hr>98</gpxtpx:hr></gpxtpx:TrackPointExtension></extensions>
      </trkpt>
      <trkpt lat="57.791435188" lon="14.2823952505">
        <ele>133.8</ele>
        <time>2010-11-19T18:28:52Z</time>
        <extensions><gpxtpx:TrackPointExtension><gpxtpx:hr>100</gpxtpx:hr></gpxtpx:TrackPointExtension></extensions>
      </trkpt>
      <trkpt lat="57.7914846413" lon="14.2823401814">
        <ele>133.2</ele>
        <time>2010-11-19T18:28:54Z</time>
        <extensions><gpxtpx:TrackPointExtension><gpxtpx:hr>101</gpxtpx:hr></gpxtpx:TrackPointExtension></extensions>
      </trkpt>
      <trkpt lat="57.7915433146" lon="14.2822900576">
        <ele>132.8</ele>
        <time>2010-11-19T18:28:56Z</time>
        <extensions><gpxtpx:TrackPointExtension><gpxtpx:hr>102</gpxtpx:hr></gpxtpx:TrackPointExtension></extensions>
      </trkpt>
      <trkpt lat="57.7915896665" lon="14.2822345694">
        <ele>132.4</ele>
        <time>2010-11-19T18:28:58Z</time>
        <extensions><gpxtpx:TrackPointExtension><gpxtpx:hr>103</gpxtpx:hr></gpxtpx:TrackPointExtension></extensions>
      </trkpt>
      <trkpt lat="57.7916329171" lon="14.282177824">
        <ele>131.8</ele>
        <time>2010-11-19T18:29:00Z</time>
        <extensions><gpxtpx:TrackPointExtension><gpxtpx:hr>103</gpxtpx:hr></gpxtpx:TrackPointExtension></extensions>
      </trkpt>
      <trkpt lat="57.7916789337" lon="14.282127784">
        <ele>131.2</ele>
        <time>2010-11-19T18:29:02Z</time>
        <extensions><gpxtpx:TrackPointExtension><gpxtpx:hr>104</gpxtpx:hr></gpxtpx:TrackPointExtension></extensions>
      </trkpt>
      <trkpt lat="57.7917264591" lon="14.2820807616">
        <ele>130.6</ele>
        <time>2010-11-19T18:29:04Z</time>
        <extensions><gpxtpx:TrackPointExtension><gpxtpx:hr>106</gpxtpx:hr></gpxtpx:TrackPointExtension></extensions>
      </trkpt>
      <trkpt lat="57.7917927599" lon="14.2819936736">
        <ele>130.2</ele>
        <time>2010-11-19T18:29:07Z</time>
        <extensions><gpxtpx:TrackPointExtension><gpxtpx:hr>107</gpxtpx:hr></gpxtpx:TrackPointExtension></extensions>
      </trkpt>
      <trkpt lat="57.7918070091" lon="14.2819631635">
        <ele>130</ele>
        <time>2010-11-19T18:29:08Z</time>
        <extensions><gpxtpx:TrackPointExtension><gpxtpx:hr>107</gpxtpx:hr></gpxtpx:TrackPointExtension></extensions>
      </trkpt>
      <trkpt lat="57.7918131279" lon="14.2819427955">
        <ele>129.8</ele>
        <time>2010-11-19T18:29:09Z</time>
        <extensions><gpxtpx:TrackPointExtension><gpxtpx:hr>107</gpxtpx:hr></gpxtpx:TrackPointExtension></extensions>
      </trkpt>
      <trkpt lat="57.7918022314" lon="14.2817889876">
        <ele>128.6</ele>
        <time>2010-11-19T18:29:13Z</time>
        <extensions><gpxtpx:TrackPointExtension><gpxtpx:hr>108</gpxtpx:hr></gpxtpx:TrackPointExtension></extensions>
      </trkpt>
      <trkpt lat="57.7917635909" lon="14.2816682883">
        <ele>128</ele>
        <time>2010-11-19T18:29:16Z</time>
        <extensions><gpxtpx:TrackPointExtension><gpxtpx:hr>109</gpxtpx:hr></gpxtpx:TrackPointExtension></extensions>
      </trkpt>
      <trkpt lat="57.791717239" lon="14.2815741595">
        <ele>127.4</ele>
        <time>2010-11-19T18:29:19Z</time>
        <extensions><gpxtpx:TrackPointExtension><gpxtpx:hr>108</gpxtpx:hr></gpxtpx:TrackPointExtension></extensions>
      </trkpt>
      <trkpt lat="57.7916927638" lon="14.2814936933">
        <ele>126.8</ele>
        <time>2010-11-19T18:29:21Z</time>
        <extensions><gpxtpx:TrackPointExtension><gpxtpx:hr>108</gpxtpx:hr></gpxtpx:TrackPointExtension></extensions>
      </trkpt>
      <trkpt lat="57.7916690431" lon="14.2814134785">
        <ele>126.2</ele>
        <time>2010-11-19T18:29:23Z</time>
        <extensions><gpxtpx:TrackPointExtension><gpxtpx:hr>107</gpxtpx:hr></gpxtpx:TrackPointExtension></extensions>
      </trkpt>
      <trkpt lat="57.7916452385" lon="14.2813271449">
        <ele>125.8</ele>
        <time>2010-11-19T18:29:25Z</time>
        <extensions><gpxtpx:TrackPointExtension><gpxtpx:hr>107</gpxtpx:hr></gpxtpx:TrackPointExtension></extensions>
      </trkpt>
      <trkpt lat="57.7916238646" lon="14.2812503667">
        <ele>125.6</ele>
        <time>2010-11-19T18:29:27Z</time>
        <extensions><gpxtpx:TrackPointExtension><gpxtpx:hr>107</gpxtpx:hr></gpxtpx:TrackPointExtension></extensions>
      </trkpt>
      <trkpt lat="57.7916056759" lon="14.2811898494">
        <ele>125.2</ele>
        <time>2010-11-19T18:29:28Z</time>
        <extensions><gpxtpx:TrackPointExtension><gpxtpx:hr>106</gpxtpx:hr></gpxtpx:TrackPointExtension></extensions>
      </trkpt>
      <trkpt lat="57.7915805302" lon="14.2810965589">
        <ele>124.6</ele>
        <time>2010-11-19T18:29:30Z</time>
        <extensions><gpxtpx:TrackPointExtension><gpxtpx:hr>106</gpxtpx:hr></gpxtpx:TrackPointExtension></extensions>
      </trkpt>
      <trkpt lat="57.7915518641" lon="14.2810038551">
        <ele>124.2</ele>
        <time>2010-11-19T18:29:32Z</time>
        <extensions><gpxtpx:TrackPointExtension><gpxtpx:hr>107</gpxtpx:hr></gpxtpx:TrackPointExtension></extensions>
      </trkpt>
      <trkpt lat="57.7915245391" lon="14.2809174377">
        <ele>123.8</ele>
        <time>2010-11-19T18:29:34Z</time>
        <extensions><gpxtpx:TrackPointExtension><gpxtpx:hr>107</gpxtpx:hr></gpxtpx:TrackPointExtension></extensions>
      </trkpt>
      <trkpt lat="57.7914835516" lon="14.2807910386">
        <ele>122.8</ele>
        <time>2010-11-19T18:29:37Z</time>
        <extensions><gpxtpx:TrackPointExtension><gpxtpx:hr>107</gpxtpx:hr></gpxtpx:TrackPointExtension></extensions>
      </trkpt>
      <trkpt lat="57.7914407201" lon="14.2806518991">
        <ele>122</ele>
        <time>2010-11-19T18:29:40Z</time>
        <extensions><gpxtpx:TrackPointExtension><gpxtpx:hr>107</gpxtpx:hr></gpxtpx:TrackPointExtension></extensions>
      </trkpt>
      <trkpt lat="57.7914075278" lon="14.2805647273">
        <ele>121.6</ele>
        <time>2010-11-19T18:29:42Z</time>
        <extensions><gpxtpx:TrackPointExtension><gpxtpx:hr>106</gpxtpx:hr></gpxtpx:TrackPointExtension></extensions>
      </trkpt>
      <trkpt lat="57.7913798675" lon="14.2804763821">
        <ele>121.2</ele>
        <time>2010-11-19T18:29:44Z</time>
        <extensions><gpxtpx:TrackPointExtension><gpxtpx:hr>106</gpxtpx:hr></gpxtpx:TrackPointExtension></extensions>
      </trkpt>
      <trkpt lat="57.7913284865" lon="14.280286113">
        <ele>120</ele>
        <time>2010-11-19T18:29:48Z</time>
        <extensions><gpxtpx:TrackPointExtension><gpxtpx:hr>106</gpxtpx:hr></gpxtpx:TrackPointExtension></extensions>
      </trkpt>
      <trkpt lat="57.7913014967" lon="14.2801922357">
        <ele>119.6</ele>
        <time>2010-11-19T18:29:50Z</time>
        <extensions><gpxtpx:TrackPointExtension><gpxtpx:hr>106</gpxtpx:hr></gpxtpx:TrackPointExtension></extensions>
      </trkpt>
      <trkpt lat="57.7912737526" lon="14.2801038066">
        <ele>119.4</ele>
        <time>2010-11-19T18:29:52Z</time>
        <extensions><gpxtpx:TrackPointExtension><gpxtpx:hr>106</gpxtpx:hr></gpxtpx:TrackPointExtension></extensions>
      </trkpt>
      <trkpt lat="57.7912439969" lon="14.2800127792">
        <ele>118.8</ele>
        <time>2010-11-19T18:29:54Z</time>
        <extensions><gpxtpx:TrackPointExtension><gpxtpx:hr>106</gpxtpx:hr></gpxtpx:TrackPointExtension></extensions>
      </trkpt>
      <trkpt lat="57.7912093797" lon="14.2799209974">
        <ele>118.2</ele>
        <time>2010-11-19T18:29:56Z</time>
        <extensions><gpxtpx:TrackPointExtension><gpxtpx:hr>107</gpxtpx:hr></gpxtpx:TrackPointExtension></extensions>
      </trkpt>
      <trkpt lat="57.7911761873" lon="14.2798434648">
        <ele>117.8</ele>
        <time>2010-11-19T18:29:58Z</time>
        <extensions><gpxtpx:TrackPointExtension><gpxtpx:hr>107</gpxtpx:hr></gpxtpx:TrackPointExtension></extensions>
      </trkpt>
      <trkpt lat="57.7911459287" lon="14.2797609031">
        <ele>117.4</ele>
        <time>2010-11-19T18:30:00Z</time>
        <extensions><gpxtpx:TrackPointExtension><gpxtpx:hr>108</gpxtpx:hr></gpxtpx:TrackPointExtension></extensions>
      </trkpt>
      <trkpt lat="57.7911178493" lon="14.2796723902">
        <ele>117</ele>
        <time>2010-11-19T18:30:02Z</time>
        <extensions><gpxtpx:TrackPointExtension><gpxtpx:hr>109</gpxtpx:hr></gpxtpx:TrackPointExtension></extensions>
      </trkpt>
      <trkpt lat="57.7910908596" lon="14.2795867272">
        <ele>116.8</ele>
        <time>2010-11-19T18:30:04Z</time>
        <extensions><gpxtpx:TrackPointExtension><gpxtpx:hr>111</gpxtpx:hr></gpxtpx:TrackPointExtension></extensions>
      </trkpt>
      <trkpt lat="57.7910530572" lon="14.2794601605">
        <ele>116.6</ele>
        <time>2010-11-19T18:30:07Z</time>
        <extensions><gpxtpx:TrackPointExtension><gpxtpx:hr>112</gpxtpx:hr></gpxtpx:TrackPointExtension></extensions>
      </trkpt>
      <trkpt lat="57.7910182723" lon="14.2793380363">
        <ele>116.4</ele>
        <time>2010-11-19T18:30:10Z</time>
        <extensions><gpxtpx:TrackPointExtension><gpxtpx:hr>113</gpxtpx:hr></gpxtpx:TrackPointExtension></extensions>
      </trkpt>
      <trkpt lat="57.7909936295" lon="14.2792424826">
        <ele>116.2</ele>
        <time>2010-11-19T18:30:12Z</time>
        <extensions><gpxtpx:TrackPointExtension><gpxtpx:hr>114</gpxtpx:hr></gpxtpx:TrackPointExtension></extensions>
      </trkpt>
      <trkpt lat="57.7909655502" lon="14.2791395529">
        <ele>115.8</ele>
        <time>2010-11-19T18:30:14Z</time>
        <extensions><gpxtpx:TrackPointExtension><gpxtpx:hr>115</gpxtpx:hr></gpxtpx:TrackPointExtension></extensions>
      </trkpt>
      <trkpt lat="57.7909398178" lon="14.2790474358">
        <ele>115.4</ele>
        <time>2010-11-19T18:30:16Z</time>
        <extensions><gpxtpx:TrackPointExtension><gpxtpx:hr>115</gpxtpx:hr></gpxtpx:TrackPointExtension></extensions>
      </trkpt>
      <trkpt lat="57.7909129119" lon="14.2789649579">
        <ele>115</ele>
        <time>2010-11-19T18:30:18Z</time>
        <extensions><gpxtpx:TrackPointExtension><gpxtpx:hr>116</gpxtpx:hr></gpxtpx:TrackPointExtension></extensions>
      </trkpt>
      <trkpt lat="57.7908867603" lon="14.2788730923">
        <ele>114.8</ele>
        <time>2010-11-19T18:30:20Z</time>
        <extensions><gpxtpx:TrackPointExtension><gpxtpx:hr>117</gpxtpx:hr></gpxtpx:TrackPointExtension></extensions>
      </trkpt>
      <trkpt lat="57.7908606088" lon="14.2787812266">
        <ele>114.6</ele>
        <time>2010-11-19T18:30:22Z</time>
        <extensions><gpxtpx:TrackPointExtension><gpxtpx:hr>118</gpxtpx:hr></gpxtpx:TrackPointExtension></extensions>
      </trkpt>
      <trkpt lat="57.7908321942" lon="14.2786880199">
        <ele>114.4</ele>
        <time>2010-11-19T18:30:24Z</time>
        <extensions><gpxtpx:TrackPointExtension><gpxtpx:hr>119</gpxtpx:hr></gpxtpx:TrackPointExtension></extensions>
      </trkpt>
      <trkpt lat="57.7908042824" lon="14.2786031951">
        <ele>114.4</ele>
        <time>2010-11-19T18:30:26Z</time>
        <extensions><gpxtpx:TrackPointExtension><gpxtpx:hr>120</gpxtpx:hr></gpxtpx:TrackPointExtension></extensions>
      </trkpt>
      <trkpt lat="57.7907775442" lon="14.2785153528">
        <ele>114.2</ele>
        <time>2010-11-19T18:30:28Z</time>
        <extensions><gpxtpx:TrackPointExtension><gpxtpx:hr>121</gpxtpx:hr></gpxtpx:TrackPointExtension></extensions>
      </trkpt>
      <trkpt lat="57.7907519794" lon="14.2784293545">
        <ele>114.2</ele>
        <time>2010-11-19T18:30:30Z</time>
        <extensions><gpxtpx:TrackPointExtension><gpxtpx:hr>122</gpxtpx:hr></gpxtpx:TrackPointExtension></extensions>
      </trkpt>
      <trkpt lat="57.7907273366" lon="14.278339752">
        <ele>114</ele>
        <time>2010-11-19T18:30:32Z</time>
        <extensions><gpxtpx:TrackPointExtension><gpxtpx:hr>122</gpxtpx:hr></gpxtpx:TrackPointExtension></extensions>
      </trkpt>
      <trkpt lat="57.7906994249" lon="14.278241097">
        <ele>114</ele>
        <time>2010-11-19T18:30:34Z</time>
        <extensions><gpxtpx:TrackPointExtension><gpxtpx:hr>122</gpxtpx:hr></gpxtpx:TrackPointExtension></extensions>
      </trkpt>
      <trkpt lat="57.7906762908" lon="14.2781528356">
        <ele>113.8</ele>
        <time>2010-11-19T18:30:36Z</time>
        <extensions><gpxtpx:TrackPointExtension><gpxtpx:hr>121</gpxtpx:hr></gpxtpx:TrackPointExtension></extensions>
      </trkpt>
      <trkpt lat="57.7906601976" lon="14.2780673402">
        <ele>113.4</ele>
        <time>2010-11-19T18:30:38Z</time>
        <extensions><gpxtpx:TrackPointExtension><gpxtpx:hr>120</gpxtpx:hr></gpxtpx:TrackPointExtension></extensions>
      </trkpt>
      <trkpt lat="57.7906456969" lon="14.2779756422">
        <ele>113</ele>
        <time>2010-11-19T18:30:40Z</time>
        <extensions><gpxtpx:TrackPointExtension><gpxtpx:hr>120</gpxtpx:hr></gpxtpx:TrackPointExtension></extensions>
      </trkpt>
      <trkpt lat="57.790628514" lon="14.2778901469">
        <ele>112.8</ele>
        <time>2010-11-19T18:30:42Z</time>
        <extensions><gpxtpx:TrackPointExtension><gpxtpx:hr>119</gpxtpx:hr></gpxtpx:TrackPointExtension></extensions>
      </trkpt>
      <trkpt lat="57.7906037036" lon="14.277823846">
        <ele>112.6</ele>
        <time>2010-11-19T18:30:44Z</time>
        <extensions><gpxtpx:TrackPointExtension><gpxtpx:hr>119</gpxtpx:hr></gpxtpx:TrackPointExtension></extensions>
      </trkpt>
      <trkpt lat="57.7905770491" lon="14.2777357523">
        <ele>112.4</ele>
        <time>2010-11-19T18:30:47Z</time>
        <extensions><gpxtpx:TrackPointExtension><gpxtpx:hr>117</gpxtpx:hr></gpxtpx:TrackPointExtension></extensions>
      </trkpt>
      <trkpt lat="57.7905782226" lon="14.277628883">
        <ele>112.2</ele>
        <time>2010-11-19T18:30:50Z</time>
        <extensions><gpxtpx:TrackPointExtension><gpxtpx:hr>115</gpxtpx:hr></gpxtpx:TrackPointExtension></extensions>
      </trkpt>
      <trkpt lat="57.7905835032" lon="14.2776087665">
        <ele>112.2</ele>
        <time>2010-11-19T18:30:51Z</time>
        <extensions><gpxtpx:TrackPointExtension><gpxtpx:hr>114</gpxtpx:hr></gpxtpx:TrackPointExtension></extensions>
      </trkpt>
      <trkpt lat="57.7906503907" lon="14.2775272944">
        <ele>112</ele>
        <time>2010-11-19T18:30:54Z</time>
        <extensions><gpxtpx:TrackPointExtension><gpxtpx:hr>112</gpxtpx:hr></gpxtpx:TrackPointExtension></extensions>
      </trkpt>
      <trkpt lat="57.7906912944" lon="14.2774708004">
        <ele>112</ele>
        <time>2010-11-19T18:30:56Z</time>
        <extensions><gpxtpx:TrackPointExtension><gpxtpx:hr>112</gpxtpx:hr></gpxtpx:TrackPointExtension></extensions>
      </trkpt>
      <trkpt lat="57.7907306055" lon="14.2774273822">
        <ele>112</ele>
        <time>2010-11-19T18:30:58Z</time>
        <extensions><gpxtpx:TrackPointExtension><gpxtpx:hr>112</gpxtpx:hr></gpxtpx:TrackPointExtension></extensions>
      </trkpt>
      <trkpt lat="57.7907907876" lon="14.2773558007">
        <ele>111.8</ele>
        <time>2010-11-19T18:31:01Z</time>
        <extensions><gpxtpx:TrackPointExtension><gpxtpx:hr>113</gpxtpx:hr></gpxtpx:TrackPointExtension></extensions>
      </trkpt>
      <trkpt lat="57.7908622014" lon="14.2772887455">
        <ele>111.8</ele>
        <time>2010-11-19T18:31:04Z</time>
        <extensions><gpxtpx:TrackPointExtension><gpxtpx:hr>114</gpxtpx:hr></gpxtpx:TrackPointExtension></extensions>
      </trkpt>
      <trkpt lat="57.7909031888" lon="14.2772320839">
        <ele>111.8</ele>
        <time>2010-11-19T18:31:06Z</time>
        <extensions><gpxtpx:TrackPointExtension><gpxtpx:hr>114</gpxtpx:hr></gpxtpx:TrackPointExtension></extensions>
      </trkpt>
      <trkpt lat="57.7909476967" lon="14.2771695549">
        <ele>111.8</ele>
        <time>2010-11-19T18:31:08Z</time>
        <extensions><gpxtpx:TrackPointExtension><gpxtpx:hr>115</gpxtpx:hr></gpxtpx:TrackPointExtension></extensions>
      </trkpt>
      <trkpt lat="57.7909940486" lon="14.2770856521">
        <ele>111.8</ele>
        <time>2010-11-19T18:31:10Z</time>
        <extensions><gpxtpx:TrackPointExtension><gpxtpx:hr>115</gpxtpx:hr></gpxtpx:TrackPointExtension></extensions>
      </trkpt>
      <trkpt lat="57.7910326892" lon="14.2770094606">
        <ele>111.8</ele>
        <time>2010-11-19T18:31:12Z</time>
        <extensions><gpxtpx:TrackPointExtension><gpxtpx:hr>116</gpxtpx:hr></gpxtpx:TrackPointExtension></extensions>
      </trkpt>
      <trkpt lat="57.7910640375" lon="14.2769453391">
        <ele>111.8</ele>
        <time>2010-11-19T18:31:14Z</time>
        <extensions><gpxtpx:TrackPointExtension><gpxtpx:hr>116</gpxtpx:hr></gpxtpx:TrackPointExtension></extensions>
      </trkpt>
      <trkpt lat="57.7910967269" lon="14.2768935389">
        <ele>111.8</ele>
        <time>2010-11-19T18:31:16Z</time>
        <extensions><gpxtpx:TrackPointExtension><gpxtpx:hr>116</gpxtpx:hr></gpxtpx:TrackPointExtension></extensions>
      </trkpt>
      <trkpt lat="57.791137463" lon="14.2768527191">
        <ele>111.8</ele>
        <time>2010-11-19T18:31:18Z</time>
        <extensions><gpxtpx:TrackPointExtension><gpxtpx:hr>116</gpxtpx:hr></gpxtpx:TrackPointExtension></extensions>
      </trkpt>
      <trkpt lat="57.7911941246" lon="14.2768028468">
        <ele>111.8</ele>
        <time>2010-11-19T18:31:21Z</time>
        <extensions><gpxtpx:TrackPointExtension><gpxtpx:hr>116</gpxtpx:hr></gpxtpx:TrackPointExtension></extensions>
      </trkpt>
      <trkpt lat="57.7912438293" lon="14.2767018449">
        <ele>111.8</ele>
        <time>2010-11-19T18:31:24Z</time>
        <extensions><gpxtpx:TrackPointExtension><gpxtpx:hr>115</gpxtpx:hr></gpxtpx:TrackPointExtension></extensions>
      </trkpt>
      <trkpt lat="57.7912816316" lon="14.276621211">
        <ele>111.8</ele>
        <time>2010-11-19T18:31:26Z</time>
        <extensions><gpxtpx:TrackPointExtension><gpxtpx:hr>115</gpxtpx:hr></gpxtpx:TrackPointExtension></extensions>
      </trkpt>
      <trkpt lat="57.7913063582" lon="14.276555916">
        <ele>111.8</ele>
        <time>2010-11-19T18:31:28Z</time>
        <extensions><gpxtpx:TrackPointExtension><gpxtpx:hr>114</gpxtpx:hr></gpxtpx:TrackPointExtension></extensions>
      </trkpt>
      <trkpt lat="57.7913398858" lon="14.2765083906">
        <ele>111.8</ele>
        <time>2010-11-19T18:31:29Z</time>
        <extensions><gpxtpx:TrackPointExtension><gpxtpx:hr>114</gpxtpx:hr></gpxtpx:TrackPointExtension></extensions>
      </trkpt>
      <trkpt lat="57.7913605053" lon="14.2764285111">
        <ele>111.8</ele>
        <time>2010-11-19T18:31:31Z</time>
        <extensions><gpxtpx:TrackPointExtension><gpxtpx:hr>115</gpxtpx:hr></gpxtpx:TrackPointExtension></extensions>
      </trkpt>
      <trkpt lat="57.7913556438" lon="14.2763799799">
        <ele>111.8</ele>
        <time>2010-11-19T18:31:32Z</time>
        <extensions><gpxtpx:TrackPointExtension><gpxtpx:hr>115</gpxtpx:hr></gpxtpx:TrackPointExtension></extensions>
      </trkpt>
      <trkpt lat="57.7913287379" lon="14.276298424">
        <ele>111.8</ele>
        <time>2010-11-19T18:31:34Z</time>
        <extensions><gpxtpx:TrackPointExtension><gpxtpx:hr>116</gpxtpx:hr></gpxtpx:TrackPointExtension></extensions>
      </trkpt>
      <trkpt lat="57.7912867446" lon="14.2761777247">
        <ele>111.8</ele>
        <time>2010-11-19T18:31:37Z</time>
        <extensions><gpxtpx:TrackPointExtension><gpxtpx:hr>116</gpxtpx:hr></gpxtpx:TrackPointExtension></extensions>
      </trkpt>
      <trkpt lat="57.7912757643" lon="14.2761410958">
        <ele>111.8</ele>
        <time>2010-11-19T18:31:38Z</time>
        <extensions><gpxtpx:TrackPointExtension><gpxtpx:hr>116</gpxtpx:hr></gpxtpx:TrackPointExtension></extensions>
      </trkpt>
      <trkpt lat="57.7912705675" lon="14.2761177103">
        <ele>111.8</ele>
        <time>2010-11-19T18:31:39Z</time>
        <extensions><gpxtpx:TrackPointExtension><gpxtpx:hr>116</gpxtpx:hr></gpxtpx:TrackPointExtension></extensions>
      </trkpt>
      <trkpt lat="57.7912817155" lon="14.2759208194">
        <ele>111.8</ele>
        <time>2010-11-19T18:31:43Z</time>
        <extensions><gpxtpx:TrackPointExtension><gpxtpx:hr>116</gpxtpx:hr></gpxtpx:TrackPointExtension></extensions>
      </trkpt>
      <trkpt lat="57.7912880857" lon="14.2758214939">
        <ele>111.8</ele>
        <time>2010-11-19T18:31:46Z</time>
        <extensions><gpxtpx:TrackPointExtension><gpxtpx:hr>116</gpxtpx:hr></gpxtpx:TrackPointExtension></extensions>
      </trkpt>
      <trkpt lat="57.7912880019" lon="14.2758010421">
        <ele>111.8</ele>
        <time>2010-11-19T18:31:47Z</time>
        <extensions><gpxtpx:TrackPointExtension><gpxtpx:hr>116</gpxtpx:hr></gpxtpx:TrackPointExtension></extensions>
      </trkpt>
      <trkpt lat="57.7912944559" lon="14.2757471465">
        <ele>111.2</ele>
        <time>2010-11-19T18:31:50Z</time>
        <extensions><gpxtpx:TrackPointExtension><gpxtpx:hr>115</gpxtpx:hr></gpxtpx:TrackPointExtension></extensions>
      </trkpt>
      <trkpt lat="57.7912970543" lon="14.2757201568">
        <ele>110.2</ele>
        <time>2010-11-19T18:32:01Z</time>
        <extensions><gpxtpx:TrackPointExtension><gpxtpx:hr>110</gpxtpx:hr></gpxtpx:TrackPointExtension></extensions>
      </trkpt>
      <trkpt lat="57.7912949589" lon="14.2757028062">
        <ele>110</ele>
        <time>2010-11-19T18:32:04Z</time>
        <extensions><gpxtpx:TrackPointExtension><gpxtpx:hr>109</gpxtpx:hr></gpxtpx:TrackPointExtension></extensions>
      </trkpt>
      <trkpt lat="57.7913070288" lon="14.2756159697">
        <ele>110</ele>
        <time>2010-11-19T18:32:08Z</time>
        <extensions><gpxtpx:TrackPointExtension><gpxtpx:hr>110</gpxtpx:hr></gpxtpx:TrackPointExtension></extensions>
      </trkpt>
      <trkpt lat="57.7913211942" lon="14.2755468191">
        <ele>109.8</ele>
        <time>2010-11-19T18:32:11Z</time>
        <extensions><gpxtpx:TrackPointExtension><gpxtpx:hr>110</gpxtpx:hr></gpxtpx:TrackPointExtension></extensions>
      </trkpt>
      <trkpt lat="57.7913343538" lon="14.2754878943">
        <ele>109.8</ele>
        <time>2010-11-19T18:32:14Z</time>
        <extensions><gpxtpx:TrackPointExtension><gpxtpx:hr>108</gpxtpx:hr></gpxtpx:TrackPointExtension></extensions>
      </trkpt>
      <trkpt lat="57.7913335156" lon="14.2754162291">
        <ele>109.2</ele>
        <time>2010-11-19T18:32:17Z</time>
        <extensions><gpxtpx:TrackPointExtension><gpxtpx:hr>104</gpxtpx:hr></gpxtpx:TrackPointExtension></extensions>
      </trkpt>
      <trkpt lat="57.7913266424" lon="14.2753694581">
        <ele>108.8</ele>
        <time>2010-11-19T18:32:20Z</time>
        <extensions><gpxtpx:TrackPointExtension><gpxtpx:hr>102</gpxtpx:hr></gpxtpx:TrackPointExtension></extensions>
      </trkpt>
      <trkpt lat="57.7913077832" lon="14.2753117068">
        <ele>108</ele>
        <time>2010-11-19T18:32:28Z</time>
        <extensions><gpxtpx:TrackPointExtension><gpxtpx:hr>100</gpxtpx:hr></gpxtpx:TrackPointExtension></extensions>
      </trkpt>
      <trkpt lat="57.7912895106" lon="14.2752712222">
        <ele>107.2</ele>
        <time>2010-11-19T18:32:32Z</time>
        <extensions><gpxtpx:TrackPointExtension><gpxtpx:hr>96</gpxtpx:hr></gpxtpx:TrackPointExtension></extensions>
      </trkpt>
      <trkpt lat="57.7912443322" lon="14.2752682047">
        <ele>106.2</ele>
        <time>2010-11-19T18:32:39Z</time>
        <extensions><gpxtpx:TrackPointExtension><gpxtpx:hr>97</gpxtpx:hr></gpxtpx:TrackPointExtension></extensions>
      </trkpt>
    </trkseg>
  </trk>
</gpx>